<?xml version="1.0" encoding="UTF-8" standalone="no" ?>
<gpx xmlns="http://www.topografix.com/GPX/1/1" xmlns:xsi="http://www.w3.org/2001/XMLSchema-instance" xsi:schemaLocation="http://www.topografix.com/GPX/1/1 http://www.topografix.com/GPX/1/1/gpx.xsd" version="1.1" creator="VisuGPX - https://www.visugpx.com">
  <metadata>
    <name>Laragne_terres-grises</name>
  </metadata>
  <trk>
    <name><![CDATA[CAF 2021 J1]]></name>
    <extensions>
      <line xmlns="http://www.topografix.com/GPX/gpx_style/0/2">
        <color>0000FF</color>
        <width>4</width>
      </line>
    </extensions>
    <trkseg>
      <trkpt lat="44.31292" lon="5.82789">
        <ele>579.33</ele>
        <time>2021-09-18T08:36:00Z</time>
      </trkpt>
      <trkpt lat="44.3129" lon="5.82788">
        <ele>579.33</ele>
        <time>2021-09-18T08:36:08Z</time>
      </trkpt>
      <trkpt lat="44.31294" lon="5.82783">
        <ele>579.33</ele>
        <time>2021-09-18T08:36:25Z</time>
      </trkpt>
      <trkpt lat="44.31292" lon="5.82787">
        <ele>579.33</ele>
        <time>2021-09-18T08:36:53Z</time>
      </trkpt>
      <trkpt lat="44.31293" lon="5.82784">
        <ele>578.85</ele>
        <time>2021-09-18T08:37:20Z</time>
      </trkpt>
      <trkpt lat="44.31294" lon="5.82784">
        <ele>578.85</ele>
        <time>2021-09-18T08:37:54Z</time>
      </trkpt>
      <trkpt lat="44.31293" lon="5.82785">
        <ele>578.85</ele>
        <time>2021-09-18T08:38:36Z</time>
      </trkpt>
      <trkpt lat="44.31292" lon="5.82785">
        <ele>578.85</ele>
        <time>2021-09-18T08:39:09Z</time>
      </trkpt>
      <trkpt lat="44.31295" lon="5.82783">
        <ele>578.37</ele>
        <time>2021-09-18T08:39:43Z</time>
      </trkpt>
      <trkpt lat="44.31295" lon="5.82785">
        <ele>578.37</ele>
        <time>2021-09-18T08:40:16Z</time>
      </trkpt>
      <trkpt lat="44.31295" lon="5.82784">
        <ele>578.37</ele>
        <time>2021-09-18T08:40:17Z</time>
      </trkpt>
      <trkpt lat="44.31301" lon="5.82778">
        <ele>578.37</ele>
        <time>2021-09-18T08:40:22Z</time>
      </trkpt>
      <trkpt lat="44.31303" lon="5.82776">
        <ele>578.37</ele>
        <time>2021-09-18T08:40:23Z</time>
      </trkpt>
      <trkpt lat="44.31304" lon="5.82774">
        <ele>578.37</ele>
        <time>2021-09-18T08:40:24Z</time>
      </trkpt>
      <trkpt lat="44.31306" lon="5.82771">
        <ele>578.37</ele>
        <time>2021-09-18T08:40:25Z</time>
      </trkpt>
      <trkpt lat="44.31308" lon="5.82769">
        <ele>578.37</ele>
        <time>2021-09-18T08:40:26Z</time>
      </trkpt>
      <trkpt lat="44.31309" lon="5.82767">
        <ele>578.37</ele>
        <time>2021-09-18T08:40:27Z</time>
      </trkpt>
      <trkpt lat="44.31326" lon="5.82743">
        <ele>578.37</ele>
        <time>2021-09-18T08:40:40Z</time>
      </trkpt>
      <trkpt lat="44.31327" lon="5.82742">
        <ele>578.37</ele>
        <time>2021-09-18T08:40:41Z</time>
      </trkpt>
      <trkpt lat="44.31328" lon="5.82741">
        <ele>578.85</ele>
        <time>2021-09-18T08:40:42Z</time>
      </trkpt>
      <trkpt lat="44.31329" lon="5.8274">
        <ele>578.85</ele>
        <time>2021-09-18T08:40:43Z</time>
      </trkpt>
      <trkpt lat="44.3133" lon="5.82738">
        <ele>578.85</ele>
        <time>2021-09-18T08:40:44Z</time>
      </trkpt>
      <trkpt lat="44.31332" lon="5.82736">
        <ele>578.85</ele>
        <time>2021-09-18T08:40:45Z</time>
      </trkpt>
      <trkpt lat="44.31334" lon="5.82734">
        <ele>578.85</ele>
        <time>2021-09-18T08:40:46Z</time>
      </trkpt>
      <trkpt lat="44.31336" lon="5.82732">
        <ele>578.85</ele>
        <time>2021-09-18T08:40:47Z</time>
      </trkpt>
      <trkpt lat="44.31338" lon="5.8273">
        <ele>578.85</ele>
        <time>2021-09-18T08:40:48Z</time>
      </trkpt>
      <trkpt lat="44.31353" lon="5.82712">
        <ele>578.85</ele>
        <time>2021-09-18T08:40:54Z</time>
      </trkpt>
      <trkpt lat="44.31356" lon="5.82708">
        <ele>578.85</ele>
        <time>2021-09-18T08:40:55Z</time>
      </trkpt>
      <trkpt lat="44.3136" lon="5.82705">
        <ele>578.85</ele>
        <time>2021-09-18T08:40:56Z</time>
      </trkpt>
      <trkpt lat="44.31364" lon="5.82704">
        <ele>578.85</ele>
        <time>2021-09-18T08:40:57Z</time>
      </trkpt>
      <trkpt lat="44.31368" lon="5.82703">
        <ele>578.85</ele>
        <time>2021-09-18T08:40:58Z</time>
      </trkpt>
      <trkpt lat="44.31371" lon="5.827">
        <ele>578.85</ele>
        <time>2021-09-18T08:40:59Z</time>
      </trkpt>
      <trkpt lat="44.31373" lon="5.82696">
        <ele>578.85</ele>
        <time>2021-09-18T08:41:00Z</time>
      </trkpt>
      <trkpt lat="44.31376" lon="5.82691">
        <ele>578.85</ele>
        <time>2021-09-18T08:41:01Z</time>
      </trkpt>
      <trkpt lat="44.31378" lon="5.82686">
        <ele>578.85</ele>
        <time>2021-09-18T08:41:02Z</time>
      </trkpt>
      <trkpt lat="44.3138" lon="5.8268">
        <ele>578.85</ele>
        <time>2021-09-18T08:41:03Z</time>
      </trkpt>
      <trkpt lat="44.31382" lon="5.82674">
        <ele>578.85</ele>
        <time>2021-09-18T08:41:04Z</time>
      </trkpt>
      <trkpt lat="44.31399" lon="5.82636">
        <ele>578.85</ele>
        <time>2021-09-18T08:41:11Z</time>
      </trkpt>
      <trkpt lat="44.31404" lon="5.82619">
        <ele>578.85</ele>
        <time>2021-09-18T08:41:14Z</time>
      </trkpt>
      <trkpt lat="44.31429" lon="5.82493">
        <ele>578.85</ele>
        <time>2021-09-18T08:41:33Z</time>
      </trkpt>
      <trkpt lat="44.31431" lon="5.82486">
        <ele>578.85</ele>
        <time>2021-09-18T08:41:34Z</time>
      </trkpt>
      <trkpt lat="44.31432" lon="5.8248">
        <ele>578.85</ele>
        <time>2021-09-18T08:41:35Z</time>
      </trkpt>
      <trkpt lat="44.31443" lon="5.82402">
        <ele>579.33</ele>
        <time>2021-09-18T08:41:47Z</time>
      </trkpt>
      <trkpt lat="44.3144" lon="5.8236">
        <ele>580.29</ele>
        <time>2021-09-18T08:41:55Z</time>
      </trkpt>
      <trkpt lat="44.31442" lon="5.82354">
        <ele>580.29</ele>
        <time>2021-09-18T08:41:56Z</time>
      </trkpt>
      <trkpt lat="44.31446" lon="5.8235">
        <ele>580.29</ele>
        <time>2021-09-18T08:41:57Z</time>
      </trkpt>
      <trkpt lat="44.31448" lon="5.82348">
        <ele>580.29</ele>
        <time>2021-09-18T08:41:58Z</time>
      </trkpt>
      <trkpt lat="44.31452" lon="5.82346">
        <ele>580.77</ele>
        <time>2021-09-18T08:41:59Z</time>
      </trkpt>
      <trkpt lat="44.31486" lon="5.82325">
        <ele>583.18</ele>
        <time>2021-09-18T08:42:12Z</time>
      </trkpt>
      <trkpt lat="44.31509" lon="5.82311">
        <ele>584.14</ele>
        <time>2021-09-18T08:42:21Z</time>
      </trkpt>
      <trkpt lat="44.31509" lon="5.82307">
        <ele>584.14</ele>
        <time>2021-09-18T08:42:22Z</time>
      </trkpt>
      <trkpt lat="44.31509" lon="5.82303">
        <ele>584.14</ele>
        <time>2021-09-18T08:42:23Z</time>
      </trkpt>
      <trkpt lat="44.31495" lon="5.82251">
        <ele>584.14</ele>
        <time>2021-09-18T08:42:37Z</time>
      </trkpt>
      <trkpt lat="44.31478" lon="5.82184">
        <ele>583.66</ele>
        <time>2021-09-18T08:42:51Z</time>
      </trkpt>
      <trkpt lat="44.315" lon="5.82163">
        <ele>583.66</ele>
        <time>2021-09-18T08:43:02Z</time>
      </trkpt>
      <trkpt lat="44.31541" lon="5.82142">
        <ele>583.66</ele>
        <time>2021-09-18T08:43:14Z</time>
      </trkpt>
      <trkpt lat="44.31592" lon="5.82115">
        <ele>586.06</ele>
        <time>2021-09-18T08:43:28Z</time>
      </trkpt>
      <trkpt lat="44.31626" lon="5.82095">
        <ele>586.54</ele>
        <time>2021-09-18T08:43:37Z</time>
      </trkpt>
      <trkpt lat="44.31676" lon="5.82067">
        <ele>580.29</ele>
        <time>2021-09-18T08:43:49Z</time>
      </trkpt>
      <trkpt lat="44.3168" lon="5.82065">
        <ele>590.87</ele>
        <time>2021-09-18T08:43:50Z</time>
      </trkpt>
      <trkpt lat="44.31683" lon="5.82063">
        <ele>588.46</ele>
        <time>2021-09-18T08:43:51Z</time>
      </trkpt>
      <trkpt lat="44.31686" lon="5.82061">
        <ele>575.01</ele>
        <time>2021-09-18T08:43:52Z</time>
      </trkpt>
      <trkpt lat="44.3169" lon="5.8206">
        <ele>594.23</ele>
        <time>2021-09-18T08:43:53Z</time>
      </trkpt>
      <trkpt lat="44.31693" lon="5.82058">
        <ele>588.46</ele>
        <time>2021-09-18T08:43:54Z</time>
      </trkpt>
      <trkpt lat="44.31699" lon="5.82056">
        <ele>587.5</ele>
        <time>2021-09-18T08:43:56Z</time>
      </trkpt>
      <trkpt lat="44.31702" lon="5.82054">
        <ele>590.39</ele>
        <time>2021-09-18T08:43:57Z</time>
      </trkpt>
      <trkpt lat="44.31704" lon="5.82053">
        <ele>587.98</ele>
        <time>2021-09-18T08:43:58Z</time>
      </trkpt>
      <trkpt lat="44.31717" lon="5.82046">
        <ele>588.95</ele>
        <time>2021-09-18T08:44:02Z</time>
      </trkpt>
      <trkpt lat="44.31769" lon="5.82018">
        <ele>590.39</ele>
        <time>2021-09-18T08:44:18Z</time>
      </trkpt>
      <trkpt lat="44.31802" lon="5.82">
        <ele>592.31</ele>
        <time>2021-09-18T08:44:30Z</time>
      </trkpt>
      <trkpt lat="44.31841" lon="5.81978">
        <ele>594.71</ele>
        <time>2021-09-18T08:44:45Z</time>
      </trkpt>
      <trkpt lat="44.31866" lon="5.81956">
        <ele>598.08</ele>
        <time>2021-09-18T08:44:58Z</time>
      </trkpt>
      <trkpt lat="44.31887" lon="5.8192">
        <ele>600.96</ele>
        <time>2021-09-18T08:45:13Z</time>
      </trkpt>
      <trkpt lat="44.31915" lon="5.81886">
        <ele>603.85</ele>
        <time>2021-09-18T08:45:30Z</time>
      </trkpt>
      <trkpt lat="44.31937" lon="5.81851">
        <ele>606.73</ele>
        <time>2021-09-18T08:45:47Z</time>
      </trkpt>
      <trkpt lat="44.31946" lon="5.81815">
        <ele>608.65</ele>
        <time>2021-09-18T08:46:01Z</time>
      </trkpt>
      <trkpt lat="44.31932" lon="5.8178">
        <ele>610.09</ele>
        <time>2021-09-18T08:46:15Z</time>
      </trkpt>
      <trkpt lat="44.31917" lon="5.81749">
        <ele>612.02</ele>
        <time>2021-09-18T08:46:28Z</time>
      </trkpt>
      <trkpt lat="44.31918" lon="5.8171">
        <ele>613.94</ele>
        <time>2021-09-18T08:46:42Z</time>
      </trkpt>
      <trkpt lat="44.31928" lon="5.81655">
        <ele>615.86</ele>
        <time>2021-09-18T08:46:59Z</time>
      </trkpt>
      <trkpt lat="44.3194" lon="5.81602">
        <ele>616.34</ele>
        <time>2021-09-18T08:47:12Z</time>
      </trkpt>
      <trkpt lat="44.31956" lon="5.81528">
        <ele>618.26</ele>
        <time>2021-09-18T08:47:31Z</time>
      </trkpt>
      <trkpt lat="44.31969" lon="5.81474">
        <ele>621.63</ele>
        <time>2021-09-18T08:47:48Z</time>
      </trkpt>
      <trkpt lat="44.31977" lon="5.81424">
        <ele>624.99</ele>
        <time>2021-09-18T08:48:04Z</time>
      </trkpt>
      <trkpt lat="44.31992" lon="5.81371">
        <ele>628.36</ele>
        <time>2021-09-18T08:48:23Z</time>
      </trkpt>
      <trkpt lat="44.32003" lon="5.8133">
        <ele>630.76</ele>
        <time>2021-09-18T08:48:38Z</time>
      </trkpt>
      <trkpt lat="44.32008" lon="5.81284">
        <ele>633.65</ele>
        <time>2021-09-18T08:48:54Z</time>
      </trkpt>
      <trkpt lat="44.3201" lon="5.81244">
        <ele>635.09</ele>
        <time>2021-09-18T08:49:07Z</time>
      </trkpt>
      <trkpt lat="44.32016" lon="5.81187">
        <ele>637.49</ele>
        <time>2021-09-18T08:49:24Z</time>
      </trkpt>
      <trkpt lat="44.32028" lon="5.81116">
        <ele>638.93</ele>
        <time>2021-09-18T08:49:43Z</time>
      </trkpt>
      <trkpt lat="44.32055" lon="5.81049">
        <ele>640.86</ele>
        <time>2021-09-18T08:50:01Z</time>
      </trkpt>
      <trkpt lat="44.32086" lon="5.80985">
        <ele>642.78</ele>
        <time>2021-09-18T08:50:19Z</time>
      </trkpt>
      <trkpt lat="44.32109" lon="5.80942">
        <ele>645.18</ele>
        <time>2021-09-18T08:50:31Z</time>
      </trkpt>
      <trkpt lat="44.32145" lon="5.80892">
        <ele>646.14</ele>
        <time>2021-09-18T08:50:46Z</time>
      </trkpt>
      <trkpt lat="44.32193" lon="5.80838">
        <ele>646.62</ele>
        <time>2021-09-18T08:51:02Z</time>
      </trkpt>
      <trkpt lat="44.32248" lon="5.80786">
        <ele>648.55</ele>
        <time>2021-09-18T08:51:19Z</time>
      </trkpt>
      <trkpt lat="44.32319" lon="5.80758">
        <ele>649.51</ele>
        <time>2021-09-18T08:51:37Z</time>
      </trkpt>
      <trkpt lat="44.32372" lon="5.80759">
        <ele>652.39</ele>
        <time>2021-09-18T08:51:53Z</time>
      </trkpt>
      <trkpt lat="44.32425" lon="5.80775">
        <ele>655.28</ele>
        <time>2021-09-18T08:52:10Z</time>
      </trkpt>
      <trkpt lat="44.32472" lon="5.808">
        <ele>658.16</ele>
        <time>2021-09-18T08:52:27Z</time>
      </trkpt>
      <trkpt lat="44.32504" lon="5.80819">
        <ele>661.04</ele>
        <time>2021-09-18T08:52:43Z</time>
      </trkpt>
      <trkpt lat="44.32539" lon="5.80839">
        <ele>663.93</ele>
        <time>2021-09-18T08:53:01Z</time>
      </trkpt>
      <trkpt lat="44.32564" lon="5.80849">
        <ele>666.81</ele>
        <time>2021-09-18T08:53:15Z</time>
      </trkpt>
      <trkpt lat="44.32597" lon="5.80855">
        <ele>669.7</ele>
        <time>2021-09-18T08:53:33Z</time>
      </trkpt>
      <trkpt lat="44.32633" lon="5.8085">
        <ele>672.1</ele>
        <time>2021-09-18T08:53:50Z</time>
      </trkpt>
      <trkpt lat="44.32666" lon="5.80827">
        <ele>674.02</ele>
        <time>2021-09-18T08:54:06Z</time>
      </trkpt>
      <trkpt lat="44.32704" lon="5.8082">
        <ele>673.54</ele>
        <time>2021-09-18T08:54:19Z</time>
      </trkpt>
      <trkpt lat="44.32757" lon="5.80834">
        <ele>673.54</ele>
        <time>2021-09-18T08:54:34Z</time>
      </trkpt>
      <trkpt lat="44.32775" lon="5.80835">
        <ele>674.02</ele>
        <time>2021-09-18T08:54:46Z</time>
      </trkpt>
      <trkpt lat="44.32775" lon="5.80836">
        <ele>674.02</ele>
        <time>2021-09-18T08:55:11Z</time>
      </trkpt>
      <trkpt lat="44.32792" lon="5.80822">
        <ele>672.58</ele>
        <time>2021-09-18T08:55:19Z</time>
      </trkpt>
      <trkpt lat="44.32799" lon="5.8081">
        <ele>671.14</ele>
        <time>2021-09-18T08:55:21Z</time>
      </trkpt>
      <trkpt lat="44.32802" lon="5.80802">
        <ele>670.66</ele>
        <time>2021-09-18T08:55:22Z</time>
      </trkpt>
      <trkpt lat="44.32805" lon="5.80794">
        <ele>670.66</ele>
        <time>2021-09-18T08:55:23Z</time>
      </trkpt>
      <trkpt lat="44.32835" lon="5.80742">
        <ele>668.25</ele>
        <time>2021-09-18T08:55:30Z</time>
      </trkpt>
      <trkpt lat="44.32839" lon="5.80738">
        <ele>668.25</ele>
        <time>2021-09-18T08:55:31Z</time>
      </trkpt>
      <trkpt lat="44.3285" lon="5.80727">
        <ele>667.77</ele>
        <time>2021-09-18T08:55:36Z</time>
      </trkpt>
      <trkpt lat="44.32857" lon="5.8072">
        <ele>667.29</ele>
        <time>2021-09-18T08:55:41Z</time>
      </trkpt>
      <trkpt lat="44.32881" lon="5.80689">
        <ele>666.81</ele>
        <time>2021-09-18T08:55:53Z</time>
      </trkpt>
      <trkpt lat="44.329" lon="5.80646">
        <ele>669.22</ele>
        <time>2021-09-18T08:56:05Z</time>
      </trkpt>
      <trkpt lat="44.32914" lon="5.80618">
        <ele>672.1</ele>
        <time>2021-09-18T08:56:17Z</time>
      </trkpt>
      <trkpt lat="44.32943" lon="5.806">
        <ele>674.02</ele>
        <time>2021-09-18T08:56:31Z</time>
      </trkpt>
      <trkpt lat="44.32966" lon="5.80569">
        <ele>674.98</ele>
        <time>2021-09-18T08:56:42Z</time>
      </trkpt>
      <trkpt lat="44.3298" lon="5.80522">
        <ele>676.91</ele>
        <time>2021-09-18T08:56:54Z</time>
      </trkpt>
      <trkpt lat="44.32987" lon="5.80493">
        <ele>678.83</ele>
        <time>2021-09-18T08:57:03Z</time>
      </trkpt>
      <trkpt lat="44.33012" lon="5.80462">
        <ele>680.27</ele>
        <time>2021-09-18T08:57:15Z</time>
      </trkpt>
      <trkpt lat="44.33032" lon="5.80444">
        <ele>677.87</ele>
        <time>2021-09-18T08:57:20Z</time>
      </trkpt>
      <trkpt lat="44.33094" lon="5.80415">
        <ele>674.5</ele>
        <time>2021-09-18T08:57:33Z</time>
      </trkpt>
      <trkpt lat="44.33099" lon="5.80413">
        <ele>674.5</ele>
        <time>2021-09-18T08:57:34Z</time>
      </trkpt>
      <trkpt lat="44.33162" lon="5.80376">
        <ele>674.02</ele>
        <time>2021-09-18T08:57:47Z</time>
      </trkpt>
      <trkpt lat="44.33207" lon="5.8033">
        <ele>675.94</ele>
        <time>2021-09-18T08:58:00Z</time>
      </trkpt>
      <trkpt lat="44.33208" lon="5.80328">
        <ele>675.94</ele>
        <time>2021-09-18T08:58:01Z</time>
      </trkpt>
      <trkpt lat="44.33239" lon="5.80282">
        <ele>677.87</ele>
        <time>2021-09-18T08:58:18Z</time>
      </trkpt>
      <trkpt lat="44.33251" lon="5.80267">
        <ele>679.31</ele>
        <time>2021-09-18T08:58:28Z</time>
      </trkpt>
      <trkpt lat="44.33268" lon="5.80246">
        <ele>681.23</ele>
        <time>2021-09-18T08:58:41Z</time>
      </trkpt>
      <trkpt lat="44.33285" lon="5.80217">
        <ele>684.6</ele>
        <time>2021-09-18T08:58:56Z</time>
      </trkpt>
      <trkpt lat="44.33289" lon="5.80212">
        <ele>684.6</ele>
        <time>2021-09-18T08:58:59Z</time>
      </trkpt>
      <trkpt lat="44.3329" lon="5.8021">
        <ele>685.08</ele>
        <time>2021-09-18T08:59:00Z</time>
      </trkpt>
      <trkpt lat="44.33291" lon="5.80208">
        <ele>685.08</ele>
        <time>2021-09-18T08:59:01Z</time>
      </trkpt>
      <trkpt lat="44.33308" lon="5.80182">
        <ele>688.92</ele>
        <time>2021-09-18T08:59:16Z</time>
      </trkpt>
      <trkpt lat="44.33322" lon="5.80163">
        <ele>690.84</ele>
        <time>2021-09-18T08:59:30Z</time>
      </trkpt>
      <trkpt lat="44.33344" lon="5.80154">
        <ele>694.21</ele>
        <time>2021-09-18T08:59:45Z</time>
      </trkpt>
      <trkpt lat="44.33366" lon="5.80154">
        <ele>696.61</ele>
        <time>2021-09-18T08:59:59Z</time>
      </trkpt>
      <trkpt lat="44.33394" lon="5.8017">
        <ele>699.02</ele>
        <time>2021-09-18T09:00:17Z</time>
      </trkpt>
      <trkpt lat="44.33415" lon="5.80197">
        <ele>702.38</ele>
        <time>2021-09-18T09:00:32Z</time>
      </trkpt>
      <trkpt lat="44.3344" lon="5.80174">
        <ele>704.3</ele>
        <time>2021-09-18T09:00:48Z</time>
      </trkpt>
      <trkpt lat="44.33465" lon="5.80139">
        <ele>704.78</ele>
        <time>2021-09-18T09:01:02Z</time>
      </trkpt>
      <trkpt lat="44.33479" lon="5.80124">
        <ele>703.34</ele>
        <time>2021-09-18T09:01:08Z</time>
      </trkpt>
      <trkpt lat="44.3351" lon="5.80073">
        <ele>701.42</ele>
        <time>2021-09-18T09:01:21Z</time>
      </trkpt>
      <trkpt lat="44.33546" lon="5.80048">
        <ele>700.46</ele>
        <time>2021-09-18T09:01:33Z</time>
      </trkpt>
      <trkpt lat="44.33561" lon="5.80044">
        <ele>700.46</ele>
        <time>2021-09-18T09:01:37Z</time>
      </trkpt>
      <trkpt lat="44.33593" lon="5.80036">
        <ele>701.9</ele>
        <time>2021-09-18T09:01:47Z</time>
      </trkpt>
      <trkpt lat="44.33628" lon="5.80016">
        <ele>704.78</ele>
        <time>2021-09-18T09:02:02Z</time>
      </trkpt>
      <trkpt lat="44.33649" lon="5.79993">
        <ele>707.19</ele>
        <time>2021-09-18T09:02:17Z</time>
      </trkpt>
      <trkpt lat="44.33669" lon="5.80019">
        <ele>709.11</ele>
        <time>2021-09-18T09:02:31Z</time>
      </trkpt>
      <trkpt lat="44.33674" lon="5.80051">
        <ele>711.51</ele>
        <time>2021-09-18T09:02:44Z</time>
      </trkpt>
      <trkpt lat="44.33674" lon="5.80053">
        <ele>711.51</ele>
        <time>2021-09-18T09:02:45Z</time>
      </trkpt>
      <trkpt lat="44.33683" lon="5.80089">
        <ele>713.92</ele>
        <time>2021-09-18T09:02:59Z</time>
      </trkpt>
      <trkpt lat="44.3371" lon="5.80091">
        <ele>714.88</ele>
        <time>2021-09-18T09:03:12Z</time>
      </trkpt>
      <trkpt lat="44.33724" lon="5.8004">
        <ele>716.8</ele>
        <time>2021-09-18T09:03:29Z</time>
      </trkpt>
      <trkpt lat="44.33736" lon="5.79982">
        <ele>718.24</ele>
        <time>2021-09-18T09:03:46Z</time>
      </trkpt>
      <trkpt lat="44.33763" lon="5.79932">
        <ele>720.65</ele>
        <time>2021-09-18T09:04:03Z</time>
      </trkpt>
      <trkpt lat="44.33798" lon="5.79884">
        <ele>720.65</ele>
        <time>2021-09-18T09:04:17Z</time>
      </trkpt>
      <trkpt lat="44.33837" lon="5.79832">
        <ele>721.13</ele>
        <time>2021-09-18T09:04:32Z</time>
      </trkpt>
      <trkpt lat="44.33865" lon="5.79802">
        <ele>724.01</ele>
        <time>2021-09-18T09:04:46Z</time>
      </trkpt>
      <trkpt lat="44.33897" lon="5.79771">
        <ele>725.45</ele>
        <time>2021-09-18T09:05:01Z</time>
      </trkpt>
      <trkpt lat="44.33932" lon="5.79737">
        <ele>726.89</ele>
        <time>2021-09-18T09:05:17Z</time>
      </trkpt>
      <trkpt lat="44.33967" lon="5.79713">
        <ele>729.3</ele>
        <time>2021-09-18T09:05:32Z</time>
      </trkpt>
      <trkpt lat="44.33999" lon="5.79703">
        <ele>731.7</ele>
        <time>2021-09-18T09:05:46Z</time>
      </trkpt>
      <trkpt lat="44.34021" lon="5.79685">
        <ele>734.58</ele>
        <time>2021-09-18T09:06:00Z</time>
      </trkpt>
      <trkpt lat="44.34045" lon="5.79658">
        <ele>737.47</ele>
        <time>2021-09-18T09:06:16Z</time>
      </trkpt>
      <trkpt lat="44.34063" lon="5.79637">
        <ele>737.95</ele>
        <time>2021-09-18T09:06:28Z</time>
      </trkpt>
      <trkpt lat="44.34087" lon="5.79601">
        <ele>740.35</ele>
        <time>2021-09-18T09:06:45Z</time>
      </trkpt>
      <trkpt lat="44.34105" lon="5.79569">
        <ele>742.76</ele>
        <time>2021-09-18T09:06:59Z</time>
      </trkpt>
      <trkpt lat="44.34124" lon="5.79532">
        <ele>745.16</ele>
        <time>2021-09-18T09:07:13Z</time>
      </trkpt>
      <trkpt lat="44.34163" lon="5.79495">
        <ele>745.64</ele>
        <time>2021-09-18T09:07:28Z</time>
      </trkpt>
      <trkpt lat="44.34195" lon="5.7946">
        <ele>747.56</ele>
        <time>2021-09-18T09:07:43Z</time>
      </trkpt>
      <trkpt lat="44.34228" lon="5.79417">
        <ele>749</ele>
        <time>2021-09-18T09:07:57Z</time>
      </trkpt>
      <trkpt lat="44.34266" lon="5.79374">
        <ele>749</ele>
        <time>2021-09-18T09:08:11Z</time>
      </trkpt>
      <trkpt lat="44.34318" lon="5.79312">
        <ele>748.04</ele>
        <time>2021-09-18T09:08:28Z</time>
      </trkpt>
      <trkpt lat="44.34376" lon="5.79246">
        <ele>749.49</ele>
        <time>2021-09-18T09:08:46Z</time>
      </trkpt>
      <trkpt lat="44.34414" lon="5.79204">
        <ele>751.41</ele>
        <time>2021-09-18T09:09:01Z</time>
      </trkpt>
      <trkpt lat="44.34451" lon="5.79178">
        <ele>753.81</ele>
        <time>2021-09-18T09:09:15Z</time>
      </trkpt>
      <trkpt lat="44.3449" lon="5.79143">
        <ele>755.25</ele>
        <time>2021-09-18T09:09:32Z</time>
      </trkpt>
      <trkpt lat="44.34519" lon="5.79109">
        <ele>757.18</ele>
        <time>2021-09-18T09:09:47Z</time>
      </trkpt>
      <trkpt lat="44.34552" lon="5.79087">
        <ele>760.54</ele>
        <time>2021-09-18T09:10:05Z</time>
      </trkpt>
      <trkpt lat="44.34578" lon="5.79065">
        <ele>762.94</ele>
        <time>2021-09-18T09:10:19Z</time>
      </trkpt>
      <trkpt lat="44.34598" lon="5.79049">
        <ele>765.83</ele>
        <time>2021-09-18T09:10:33Z</time>
      </trkpt>
      <trkpt lat="44.3462" lon="5.79033">
        <ele>768.23</ele>
        <time>2021-09-18T09:10:47Z</time>
      </trkpt>
      <trkpt lat="44.34641" lon="5.79015">
        <ele>770.63</ele>
        <time>2021-09-18T09:11:02Z</time>
      </trkpt>
      <trkpt lat="44.34664" lon="5.78996">
        <ele>772.56</ele>
        <time>2021-09-18T09:11:16Z</time>
      </trkpt>
      <trkpt lat="44.34689" lon="5.7898">
        <ele>774.96</ele>
        <time>2021-09-18T09:11:29Z</time>
      </trkpt>
      <trkpt lat="44.34711" lon="5.7897">
        <ele>774.96</ele>
        <time>2021-09-18T09:11:39Z</time>
      </trkpt>
      <trkpt lat="44.34713" lon="5.78968">
        <ele>774.96</ele>
        <time>2021-09-18T09:11:40Z</time>
      </trkpt>
      <trkpt lat="44.34715" lon="5.78965">
        <ele>774.96</ele>
        <time>2021-09-18T09:11:41Z</time>
      </trkpt>
      <trkpt lat="44.34717" lon="5.78963">
        <ele>774.96</ele>
        <time>2021-09-18T09:11:42Z</time>
      </trkpt>
      <trkpt lat="44.34719" lon="5.78961">
        <ele>774.96</ele>
        <time>2021-09-18T09:11:43Z</time>
      </trkpt>
      <trkpt lat="44.34721" lon="5.78959">
        <ele>774.96</ele>
        <time>2021-09-18T09:11:44Z</time>
      </trkpt>
      <trkpt lat="44.34755" lon="5.7894">
        <ele>776.4</ele>
        <time>2021-09-18T09:11:57Z</time>
      </trkpt>
      <trkpt lat="44.3477" lon="5.78936">
        <ele>776.4</ele>
        <time>2021-09-18T09:12:04Z</time>
      </trkpt>
      <trkpt lat="44.34772" lon="5.78937">
        <ele>776.4</ele>
        <time>2021-09-18T09:12:05Z</time>
      </trkpt>
      <trkpt lat="44.34777" lon="5.78938">
        <ele>776.88</ele>
        <time>2021-09-18T09:12:09Z</time>
      </trkpt>
      <trkpt lat="44.34777" lon="5.78939">
        <ele>776.88</ele>
        <time>2021-09-18T09:12:10Z</time>
      </trkpt>
      <trkpt lat="44.34778" lon="5.78941">
        <ele>776.88</ele>
        <time>2021-09-18T09:12:12Z</time>
      </trkpt>
      <trkpt lat="44.34779" lon="5.78945">
        <ele>777.36</ele>
        <time>2021-09-18T09:12:14Z</time>
      </trkpt>
      <trkpt lat="44.34779" lon="5.78946">
        <ele>777.36</ele>
        <time>2021-09-18T09:12:15Z</time>
      </trkpt>
      <trkpt lat="44.34773" lon="5.78969">
        <ele>780.25</ele>
        <time>2021-09-18T09:12:30Z</time>
      </trkpt>
      <trkpt lat="44.34763" lon="5.7899">
        <ele>782.65</ele>
        <time>2021-09-18T09:12:44Z</time>
      </trkpt>
      <trkpt lat="44.34758" lon="5.79011">
        <ele>786.02</ele>
        <time>2021-09-18T09:12:57Z</time>
      </trkpt>
      <trkpt lat="44.34747" lon="5.7903">
        <ele>789.38</ele>
        <time>2021-09-18T09:13:12Z</time>
      </trkpt>
      <trkpt lat="44.34737" lon="5.79051">
        <ele>792.74</ele>
        <time>2021-09-18T09:13:27Z</time>
      </trkpt>
      <trkpt lat="44.34729" lon="5.79064">
        <ele>795.63</ele>
        <time>2021-09-18T09:13:38Z</time>
      </trkpt>
      <trkpt lat="44.3472" lon="5.79079">
        <ele>798.03</ele>
        <time>2021-09-18T09:13:53Z</time>
      </trkpt>
      <trkpt lat="44.34715" lon="5.79093">
        <ele>800.44</ele>
        <time>2021-09-18T09:14:05Z</time>
      </trkpt>
      <trkpt lat="44.34708" lon="5.79109">
        <ele>803.8</ele>
        <time>2021-09-18T09:14:18Z</time>
      </trkpt>
      <trkpt lat="44.34703" lon="5.79125">
        <ele>805.72</ele>
        <time>2021-09-18T09:14:29Z</time>
      </trkpt>
      <trkpt lat="44.347" lon="5.79135">
        <ele>807.64</ele>
        <time>2021-09-18T09:14:36Z</time>
      </trkpt>
      <trkpt lat="44.34699" lon="5.79142">
        <ele>808.13</ele>
        <time>2021-09-18T09:14:41Z</time>
      </trkpt>
      <trkpt lat="44.34697" lon="5.79159">
        <ele>811.49</ele>
        <time>2021-09-18T09:14:52Z</time>
      </trkpt>
      <trkpt lat="44.34697" lon="5.7916">
        <ele>811.49</ele>
        <time>2021-09-18T09:14:53Z</time>
      </trkpt>
      <trkpt lat="44.34687" lon="5.79181">
        <ele>813.89</ele>
        <time>2021-09-18T09:15:06Z</time>
      </trkpt>
      <trkpt lat="44.34686" lon="5.79189">
        <ele>814.37</ele>
        <time>2021-09-18T09:15:10Z</time>
      </trkpt>
      <trkpt lat="44.34686" lon="5.79191">
        <ele>814.37</ele>
        <time>2021-09-18T09:15:11Z</time>
      </trkpt>
      <trkpt lat="44.34681" lon="5.79209">
        <ele>817.74</ele>
        <time>2021-09-18T09:15:23Z</time>
      </trkpt>
      <trkpt lat="44.34681" lon="5.79211">
        <ele>818.22</ele>
        <time>2021-09-18T09:15:24Z</time>
      </trkpt>
      <trkpt lat="44.34681" lon="5.79213">
        <ele>818.22</ele>
        <time>2021-09-18T09:15:25Z</time>
      </trkpt>
      <trkpt lat="44.34681" lon="5.79214">
        <ele>818.22</ele>
        <time>2021-09-18T09:15:26Z</time>
      </trkpt>
      <trkpt lat="44.3468" lon="5.79216">
        <ele>818.7</ele>
        <time>2021-09-18T09:15:27Z</time>
      </trkpt>
      <trkpt lat="44.34679" lon="5.79217">
        <ele>818.7</ele>
        <time>2021-09-18T09:15:28Z</time>
      </trkpt>
      <trkpt lat="44.34671" lon="5.79242">
        <ele>820.14</ele>
        <time>2021-09-18T09:15:42Z</time>
      </trkpt>
      <trkpt lat="44.3467" lon="5.79244">
        <ele>820.14</ele>
        <time>2021-09-18T09:15:43Z</time>
      </trkpt>
      <trkpt lat="44.34669" lon="5.79246">
        <ele>820.14</ele>
        <time>2021-09-18T09:15:44Z</time>
      </trkpt>
      <trkpt lat="44.34668" lon="5.79247">
        <ele>820.14</ele>
        <time>2021-09-18T09:15:45Z</time>
      </trkpt>
      <trkpt lat="44.34667" lon="5.79249">
        <ele>820.62</ele>
        <time>2021-09-18T09:15:46Z</time>
      </trkpt>
      <trkpt lat="44.34667" lon="5.7925">
        <ele>820.62</ele>
        <time>2021-09-18T09:15:47Z</time>
      </trkpt>
      <trkpt lat="44.34666" lon="5.79252">
        <ele>820.62</ele>
        <time>2021-09-18T09:15:48Z</time>
      </trkpt>
      <trkpt lat="44.34665" lon="5.79254">
        <ele>820.62</ele>
        <time>2021-09-18T09:15:49Z</time>
      </trkpt>
      <trkpt lat="44.34665" lon="5.79255">
        <ele>821.1</ele>
        <time>2021-09-18T09:15:50Z</time>
      </trkpt>
      <trkpt lat="44.34654" lon="5.79281">
        <ele>822.55</ele>
        <time>2021-09-18T09:16:06Z</time>
      </trkpt>
      <trkpt lat="44.34648" lon="5.79298">
        <ele>823.51</ele>
        <time>2021-09-18T09:16:15Z</time>
      </trkpt>
      <trkpt lat="44.34639" lon="5.79331">
        <ele>825.91</ele>
        <time>2021-09-18T09:16:32Z</time>
      </trkpt>
      <trkpt lat="44.34638" lon="5.79334">
        <ele>825.91</ele>
        <time>2021-09-18T09:16:34Z</time>
      </trkpt>
      <trkpt lat="44.34637" lon="5.79336">
        <ele>826.39</ele>
        <time>2021-09-18T09:16:35Z</time>
      </trkpt>
      <trkpt lat="44.34637" lon="5.79338">
        <ele>826.39</ele>
        <time>2021-09-18T09:16:36Z</time>
      </trkpt>
      <trkpt lat="44.34636" lon="5.79339">
        <ele>826.39</ele>
        <time>2021-09-18T09:16:37Z</time>
      </trkpt>
      <trkpt lat="44.34636" lon="5.79341">
        <ele>827.35</ele>
        <time>2021-09-18T09:16:38Z</time>
      </trkpt>
      <trkpt lat="44.34636" lon="5.79343">
        <ele>827.35</ele>
        <time>2021-09-18T09:16:39Z</time>
      </trkpt>
      <trkpt lat="44.34628" lon="5.79375">
        <ele>828.31</ele>
        <time>2021-09-18T09:16:54Z</time>
      </trkpt>
      <trkpt lat="44.34626" lon="5.79411">
        <ele>830.24</ele>
        <time>2021-09-18T09:17:09Z</time>
      </trkpt>
      <trkpt lat="44.34624" lon="5.79419">
        <ele>830.72</ele>
        <time>2021-09-18T09:17:13Z</time>
      </trkpt>
      <trkpt lat="44.34624" lon="5.79421">
        <ele>830.72</ele>
        <time>2021-09-18T09:17:14Z</time>
      </trkpt>
      <trkpt lat="44.34624" lon="5.79423">
        <ele>830.72</ele>
        <time>2021-09-18T09:17:15Z</time>
      </trkpt>
      <trkpt lat="44.34624" lon="5.79426">
        <ele>830.72</ele>
        <time>2021-09-18T09:17:16Z</time>
      </trkpt>
      <trkpt lat="44.34624" lon="5.79429">
        <ele>830.72</ele>
        <time>2021-09-18T09:17:17Z</time>
      </trkpt>
      <trkpt lat="44.34624" lon="5.79431">
        <ele>830.72</ele>
        <time>2021-09-18T09:17:18Z</time>
      </trkpt>
      <trkpt lat="44.34632" lon="5.79471">
        <ele>830.72</ele>
        <time>2021-09-18T09:17:31Z</time>
      </trkpt>
      <trkpt lat="44.34636" lon="5.79507">
        <ele>830.72</ele>
        <time>2021-09-18T09:17:41Z</time>
      </trkpt>
      <trkpt lat="44.34633" lon="5.79566">
        <ele>829.76</ele>
        <time>2021-09-18T09:17:54Z</time>
      </trkpt>
      <trkpt lat="44.34631" lon="5.79582">
        <ele>831.2</ele>
        <time>2021-09-18T09:17:58Z</time>
      </trkpt>
      <trkpt lat="44.34638" lon="5.79628">
        <ele>833.12</ele>
        <time>2021-09-18T09:18:11Z</time>
      </trkpt>
      <trkpt lat="44.3464" lon="5.79664">
        <ele>834.08</ele>
        <time>2021-09-18T09:18:22Z</time>
      </trkpt>
      <trkpt lat="44.34628" lon="5.79702">
        <ele>836</ele>
        <time>2021-09-18T09:18:35Z</time>
      </trkpt>
      <trkpt lat="44.34615" lon="5.79732">
        <ele>835.52</ele>
        <time>2021-09-18T09:18:44Z</time>
      </trkpt>
      <trkpt lat="44.34611" lon="5.79759">
        <ele>833.6</ele>
        <time>2021-09-18T09:18:49Z</time>
      </trkpt>
      <trkpt lat="44.3461" lon="5.79766">
        <ele>832.64</ele>
        <time>2021-09-18T09:18:50Z</time>
      </trkpt>
      <trkpt lat="44.34611" lon="5.79773">
        <ele>832.64</ele>
        <time>2021-09-18T09:18:51Z</time>
      </trkpt>
      <trkpt lat="44.34612" lon="5.79781">
        <ele>832.64</ele>
        <time>2021-09-18T09:18:52Z</time>
      </trkpt>
      <trkpt lat="44.34614" lon="5.79787">
        <ele>832.16</ele>
        <time>2021-09-18T09:18:53Z</time>
      </trkpt>
      <trkpt lat="44.34617" lon="5.79794">
        <ele>832.16</ele>
        <time>2021-09-18T09:18:54Z</time>
      </trkpt>
      <trkpt lat="44.34619" lon="5.798">
        <ele>832.16</ele>
        <time>2021-09-18T09:18:55Z</time>
      </trkpt>
      <trkpt lat="44.34621" lon="5.79805">
        <ele>832.16</ele>
        <time>2021-09-18T09:18:56Z</time>
      </trkpt>
      <trkpt lat="44.34623" lon="5.79812">
        <ele>830.72</ele>
        <time>2021-09-18T09:18:59Z</time>
      </trkpt>
      <trkpt lat="44.34624" lon="5.79815">
        <ele>830.72</ele>
        <time>2021-09-18T09:19:22Z</time>
      </trkpt>
      <trkpt lat="44.34624" lon="5.79813">
        <ele>830.24</ele>
        <time>2021-09-18T09:19:55Z</time>
      </trkpt>
      <trkpt lat="44.34624" lon="5.79814">
        <ele>830.72</ele>
        <time>2021-09-18T09:20:31Z</time>
      </trkpt>
      <trkpt lat="44.34624" lon="5.79816">
        <ele>830.72</ele>
        <time>2021-09-18T09:20:58Z</time>
      </trkpt>
      <trkpt lat="44.34624" lon="5.79814">
        <ele>830.72</ele>
        <time>2021-09-18T09:21:25Z</time>
      </trkpt>
      <trkpt lat="44.34624" lon="5.79814">
        <ele>830.72</ele>
        <time>2021-09-18T09:21:49Z</time>
      </trkpt>
      <trkpt lat="44.34623" lon="5.79815">
        <ele>830.72</ele>
        <time>2021-09-18T09:22:16Z</time>
      </trkpt>
      <trkpt lat="44.34623" lon="5.79818">
        <ele>830.72</ele>
        <time>2021-09-18T09:22:24Z</time>
      </trkpt>
      <trkpt lat="44.34623" lon="5.7982">
        <ele>830.72</ele>
        <time>2021-09-18T09:22:25Z</time>
      </trkpt>
      <trkpt lat="44.34626" lon="5.79834">
        <ele>829.27</ele>
        <time>2021-09-18T09:22:28Z</time>
      </trkpt>
      <trkpt lat="44.34627" lon="5.7984">
        <ele>828.31</ele>
        <time>2021-09-18T09:22:29Z</time>
      </trkpt>
      <trkpt lat="44.34628" lon="5.79846">
        <ele>827.83</ele>
        <time>2021-09-18T09:22:30Z</time>
      </trkpt>
      <trkpt lat="44.3463" lon="5.79858">
        <ele>825.43</ele>
        <time>2021-09-18T09:22:32Z</time>
      </trkpt>
      <trkpt lat="44.34632" lon="5.79864">
        <ele>825.43</ele>
        <time>2021-09-18T09:22:33Z</time>
      </trkpt>
      <trkpt lat="44.34636" lon="5.79869">
        <ele>823.99</ele>
        <time>2021-09-18T09:22:34Z</time>
      </trkpt>
      <trkpt lat="44.34641" lon="5.79873">
        <ele>823.03</ele>
        <time>2021-09-18T09:22:35Z</time>
      </trkpt>
      <trkpt lat="44.34646" lon="5.79876">
        <ele>822.55</ele>
        <time>2021-09-18T09:22:36Z</time>
      </trkpt>
      <trkpt lat="44.34652" lon="5.79878">
        <ele>820.62</ele>
        <time>2021-09-18T09:22:37Z</time>
      </trkpt>
      <trkpt lat="44.34658" lon="5.79879">
        <ele>820.62</ele>
        <time>2021-09-18T09:22:38Z</time>
      </trkpt>
      <trkpt lat="44.34663" lon="5.79879">
        <ele>820.14</ele>
        <time>2021-09-18T09:22:39Z</time>
      </trkpt>
      <trkpt lat="44.34669" lon="5.79879">
        <ele>819.66</ele>
        <time>2021-09-18T09:22:40Z</time>
      </trkpt>
      <trkpt lat="44.34679" lon="5.79875">
        <ele>819.66</ele>
        <time>2021-09-18T09:22:42Z</time>
      </trkpt>
      <trkpt lat="44.34717" lon="5.79877">
        <ele>818.22</ele>
        <time>2021-09-18T09:22:51Z</time>
      </trkpt>
      <trkpt lat="44.34723" lon="5.79879">
        <ele>818.22</ele>
        <time>2021-09-18T09:22:52Z</time>
      </trkpt>
      <trkpt lat="44.34728" lon="5.79881">
        <ele>816.78</ele>
        <time>2021-09-18T09:22:53Z</time>
      </trkpt>
      <trkpt lat="44.34733" lon="5.79884">
        <ele>816.3</ele>
        <time>2021-09-18T09:22:54Z</time>
      </trkpt>
      <trkpt lat="44.34737" lon="5.79891">
        <ele>815.82</ele>
        <time>2021-09-18T09:22:55Z</time>
      </trkpt>
      <trkpt lat="44.3474" lon="5.79898">
        <ele>813.89</ele>
        <time>2021-09-18T09:22:56Z</time>
      </trkpt>
      <trkpt lat="44.34742" lon="5.79905">
        <ele>813.41</ele>
        <time>2021-09-18T09:22:57Z</time>
      </trkpt>
      <trkpt lat="44.34743" lon="5.79912">
        <ele>811.97</ele>
        <time>2021-09-18T09:22:58Z</time>
      </trkpt>
      <trkpt lat="44.34742" lon="5.79918">
        <ele>811.01</ele>
        <time>2021-09-18T09:22:59Z</time>
      </trkpt>
      <trkpt lat="44.34741" lon="5.79922">
        <ele>810.05</ele>
        <time>2021-09-18T09:23:00Z</time>
      </trkpt>
      <trkpt lat="44.34741" lon="5.79925">
        <ele>809.09</ele>
        <time>2021-09-18T09:23:01Z</time>
      </trkpt>
      <trkpt lat="44.3474" lon="5.79928">
        <ele>809.09</ele>
        <time>2021-09-18T09:23:02Z</time>
      </trkpt>
      <trkpt lat="44.3474" lon="5.79926">
        <ele>808.13</ele>
        <time>2021-09-18T09:23:15Z</time>
      </trkpt>
      <trkpt lat="44.3474" lon="5.79934">
        <ele>807.64</ele>
        <time>2021-09-18T09:23:22Z</time>
      </trkpt>
      <trkpt lat="44.34741" lon="5.79939">
        <ele>807.16</ele>
        <time>2021-09-18T09:23:24Z</time>
      </trkpt>
      <trkpt lat="44.34742" lon="5.79942">
        <ele>806.68</ele>
        <time>2021-09-18T09:23:25Z</time>
      </trkpt>
      <trkpt lat="44.34741" lon="5.79945">
        <ele>806.2</ele>
        <time>2021-09-18T09:23:26Z</time>
      </trkpt>
      <trkpt lat="44.34741" lon="5.79949">
        <ele>804.76</ele>
        <time>2021-09-18T09:23:27Z</time>
      </trkpt>
      <trkpt lat="44.34741" lon="5.79954">
        <ele>803.8</ele>
        <time>2021-09-18T09:23:28Z</time>
      </trkpt>
      <trkpt lat="44.34739" lon="5.79958">
        <ele>802.84</ele>
        <time>2021-09-18T09:23:29Z</time>
      </trkpt>
      <trkpt lat="44.34738" lon="5.79963">
        <ele>802.36</ele>
        <time>2021-09-18T09:23:30Z</time>
      </trkpt>
      <trkpt lat="44.34734" lon="5.79977">
        <ele>801.4</ele>
        <time>2021-09-18T09:23:34Z</time>
      </trkpt>
      <trkpt lat="44.34735" lon="5.79981">
        <ele>801.4</ele>
        <time>2021-09-18T09:23:35Z</time>
      </trkpt>
      <trkpt lat="44.34736" lon="5.79984">
        <ele>800.92</ele>
        <time>2021-09-18T09:23:36Z</time>
      </trkpt>
      <trkpt lat="44.34736" lon="5.7999">
        <ele>800.92</ele>
        <time>2021-09-18T09:23:37Z</time>
      </trkpt>
      <trkpt lat="44.34736" lon="5.79995">
        <ele>800.44</ele>
        <time>2021-09-18T09:23:38Z</time>
      </trkpt>
      <trkpt lat="44.34734" lon="5.8">
        <ele>800.44</ele>
        <time>2021-09-18T09:23:39Z</time>
      </trkpt>
      <trkpt lat="44.34731" lon="5.80015">
        <ele>797.07</ele>
        <time>2021-09-18T09:23:42Z</time>
      </trkpt>
      <trkpt lat="44.34727" lon="5.80049">
        <ele>792.74</ele>
        <time>2021-09-18T09:23:50Z</time>
      </trkpt>
      <trkpt lat="44.34727" lon="5.80052">
        <ele>792.74</ele>
        <time>2021-09-18T09:23:51Z</time>
      </trkpt>
      <trkpt lat="44.34726" lon="5.80057">
        <ele>791.78</ele>
        <time>2021-09-18T09:23:52Z</time>
      </trkpt>
      <trkpt lat="44.34726" lon="5.80061">
        <ele>791.3</ele>
        <time>2021-09-18T09:23:53Z</time>
      </trkpt>
      <trkpt lat="44.34726" lon="5.80065">
        <ele>790.34</ele>
        <time>2021-09-18T09:23:54Z</time>
      </trkpt>
      <trkpt lat="44.34725" lon="5.80069">
        <ele>790.34</ele>
        <time>2021-09-18T09:23:55Z</time>
      </trkpt>
      <trkpt lat="44.34724" lon="5.80073">
        <ele>789.38</ele>
        <time>2021-09-18T09:23:56Z</time>
      </trkpt>
      <trkpt lat="44.34724" lon="5.8009">
        <ele>787.46</ele>
        <time>2021-09-18T09:24:00Z</time>
      </trkpt>
      <trkpt lat="44.34728" lon="5.80104">
        <ele>784.09</ele>
        <time>2021-09-18T09:24:04Z</time>
      </trkpt>
      <trkpt lat="44.34729" lon="5.80107">
        <ele>783.13</ele>
        <time>2021-09-18T09:24:05Z</time>
      </trkpt>
      <trkpt lat="44.34731" lon="5.80109">
        <ele>783.13</ele>
        <time>2021-09-18T09:24:06Z</time>
      </trkpt>
      <trkpt lat="44.34734" lon="5.80109">
        <ele>783.13</ele>
        <time>2021-09-18T09:24:07Z</time>
      </trkpt>
      <trkpt lat="44.34736" lon="5.8011">
        <ele>781.69</ele>
        <time>2021-09-18T09:24:08Z</time>
      </trkpt>
      <trkpt lat="44.34739" lon="5.8011">
        <ele>781.21</ele>
        <time>2021-09-18T09:24:09Z</time>
      </trkpt>
      <trkpt lat="44.34743" lon="5.80112">
        <ele>779.29</ele>
        <time>2021-09-18T09:24:20Z</time>
      </trkpt>
      <trkpt lat="44.34744" lon="5.80112">
        <ele>779.29</ele>
        <time>2021-09-18T09:24:30Z</time>
      </trkpt>
      <trkpt lat="44.34745" lon="5.80111">
        <ele>779.29</ele>
        <time>2021-09-18T09:24:31Z</time>
      </trkpt>
      <trkpt lat="44.34772" lon="5.80112">
        <ele>778.32</ele>
        <time>2021-09-18T09:24:43Z</time>
      </trkpt>
      <trkpt lat="44.34792" lon="5.80142">
        <ele>777.84</ele>
        <time>2021-09-18T09:24:53Z</time>
      </trkpt>
      <trkpt lat="44.34799" lon="5.80163">
        <ele>779.29</ele>
        <time>2021-09-18T09:24:59Z</time>
      </trkpt>
      <trkpt lat="44.34806" lon="5.80215">
        <ele>781.21</ele>
        <time>2021-09-18T09:25:12Z</time>
      </trkpt>
      <trkpt lat="44.34819" lon="5.80248">
        <ele>782.17</ele>
        <time>2021-09-18T09:25:23Z</time>
      </trkpt>
      <trkpt lat="44.34833" lon="5.80291">
        <ele>782.65</ele>
        <time>2021-09-18T09:25:35Z</time>
      </trkpt>
      <trkpt lat="44.34838" lon="5.80342">
        <ele>785.05</ele>
        <time>2021-09-18T09:25:49Z</time>
      </trkpt>
      <trkpt lat="44.34833" lon="5.80383">
        <ele>786.5</ele>
        <time>2021-09-18T09:26:00Z</time>
      </trkpt>
      <trkpt lat="44.34831" lon="5.80388">
        <ele>786.5</ele>
        <time>2021-09-18T09:26:01Z</time>
      </trkpt>
      <trkpt lat="44.34831" lon="5.80392">
        <ele>785.05</ele>
        <time>2021-09-18T09:26:02Z</time>
      </trkpt>
      <trkpt lat="44.34831" lon="5.80396">
        <ele>785.05</ele>
        <time>2021-09-18T09:26:03Z</time>
      </trkpt>
      <trkpt lat="44.34831" lon="5.804">
        <ele>785.05</ele>
        <time>2021-09-18T09:26:04Z</time>
      </trkpt>
      <trkpt lat="44.34831" lon="5.80403">
        <ele>786.5</ele>
        <time>2021-09-18T09:26:05Z</time>
      </trkpt>
      <trkpt lat="44.34832" lon="5.80406">
        <ele>786.5</ele>
        <time>2021-09-18T09:26:06Z</time>
      </trkpt>
      <trkpt lat="44.34843" lon="5.80449">
        <ele>789.86</ele>
        <time>2021-09-18T09:26:20Z</time>
      </trkpt>
      <trkpt lat="44.34848" lon="5.80461">
        <ele>790.82</ele>
        <time>2021-09-18T09:26:26Z</time>
      </trkpt>
      <trkpt lat="44.34849" lon="5.80462">
        <ele>790.82</ele>
        <time>2021-09-18T09:26:27Z</time>
      </trkpt>
      <trkpt lat="44.34856" lon="5.80485">
        <ele>790.34</ele>
        <time>2021-09-18T09:26:41Z</time>
      </trkpt>
      <trkpt lat="44.34868" lon="5.80526">
        <ele>791.3</ele>
        <time>2021-09-18T09:26:56Z</time>
      </trkpt>
      <trkpt lat="44.34866" lon="5.80532">
        <ele>791.78</ele>
        <time>2021-09-18T09:27:01Z</time>
      </trkpt>
      <trkpt lat="44.34865" lon="5.80533">
        <ele>791.78</ele>
        <time>2021-09-18T09:27:02Z</time>
      </trkpt>
      <trkpt lat="44.34868" lon="5.8053">
        <ele>792.26</ele>
        <time>2021-09-18T09:27:07Z</time>
      </trkpt>
      <trkpt lat="44.34868" lon="5.80528">
        <ele>792.26</ele>
        <time>2021-09-18T09:27:08Z</time>
      </trkpt>
      <trkpt lat="44.34868" lon="5.80524">
        <ele>792.26</ele>
        <time>2021-09-18T09:27:09Z</time>
      </trkpt>
      <trkpt lat="44.34868" lon="5.80519">
        <ele>792.26</ele>
        <time>2021-09-18T09:27:10Z</time>
      </trkpt>
      <trkpt lat="44.34868" lon="5.80516">
        <ele>790.82</ele>
        <time>2021-09-18T09:27:11Z</time>
      </trkpt>
      <trkpt lat="44.34868" lon="5.80513">
        <ele>790.82</ele>
        <time>2021-09-18T09:27:12Z</time>
      </trkpt>
      <trkpt lat="44.34864" lon="5.80483">
        <ele>790.82</ele>
        <time>2021-09-18T09:27:21Z</time>
      </trkpt>
      <trkpt lat="44.34879" lon="5.80471">
        <ele>790.82</ele>
        <time>2021-09-18T09:27:30Z</time>
      </trkpt>
      <trkpt lat="44.34914" lon="5.80429">
        <ele>787.94</ele>
        <time>2021-09-18T09:27:44Z</time>
      </trkpt>
      <trkpt lat="44.34925" lon="5.80413">
        <ele>787.46</ele>
        <time>2021-09-18T09:27:48Z</time>
      </trkpt>
      <trkpt lat="44.3493" lon="5.804">
        <ele>786.02</ele>
        <time>2021-09-18T09:27:51Z</time>
      </trkpt>
      <trkpt lat="44.34941" lon="5.8039">
        <ele>783.61</ele>
        <time>2021-09-18T09:27:55Z</time>
      </trkpt>
      <trkpt lat="44.34946" lon="5.80383">
        <ele>782.17</ele>
        <time>2021-09-18T09:27:57Z</time>
      </trkpt>
      <trkpt lat="44.34955" lon="5.80378">
        <ele>781.69</ele>
        <time>2021-09-18T09:28:01Z</time>
      </trkpt>
      <trkpt lat="44.34971" lon="5.80384">
        <ele>783.13</ele>
        <time>2021-09-18T09:28:10Z</time>
      </trkpt>
      <trkpt lat="44.34983" lon="5.80385">
        <ele>783.13</ele>
        <time>2021-09-18T09:28:15Z</time>
      </trkpt>
      <trkpt lat="44.34988" lon="5.80381">
        <ele>783.61</ele>
        <time>2021-09-18T09:28:18Z</time>
      </trkpt>
      <trkpt lat="44.34993" lon="5.80378">
        <ele>783.61</ele>
        <time>2021-09-18T09:28:20Z</time>
      </trkpt>
      <trkpt lat="44.34998" lon="5.80373">
        <ele>781.69</ele>
        <time>2021-09-18T09:28:22Z</time>
      </trkpt>
      <trkpt lat="44.35005" lon="5.80371">
        <ele>781.69</ele>
        <time>2021-09-18T09:28:26Z</time>
      </trkpt>
      <trkpt lat="44.35007" lon="5.8037">
        <ele>781.69</ele>
        <time>2021-09-18T09:28:28Z</time>
      </trkpt>
      <trkpt lat="44.35009" lon="5.80366">
        <ele>783.13</ele>
        <time>2021-09-18T09:28:30Z</time>
      </trkpt>
      <trkpt lat="44.35015" lon="5.80361">
        <ele>783.13</ele>
        <time>2021-09-18T09:28:42Z</time>
      </trkpt>
      <trkpt lat="44.35016" lon="5.80361">
        <ele>783.13</ele>
        <time>2021-09-18T09:29:11Z</time>
      </trkpt>
      <trkpt lat="44.35016" lon="5.80361">
        <ele>783.13</ele>
        <time>2021-09-18T09:29:45Z</time>
      </trkpt>
      <trkpt lat="44.35015" lon="5.80359">
        <ele>783.13</ele>
        <time>2021-09-18T09:30:23Z</time>
      </trkpt>
      <trkpt lat="44.35015" lon="5.80359">
        <ele>783.13</ele>
        <time>2021-09-18T09:30:26Z</time>
      </trkpt>
      <trkpt lat="44.35021" lon="5.80348">
        <ele>781.69</ele>
        <time>2021-09-18T09:30:32Z</time>
      </trkpt>
      <trkpt lat="44.35029" lon="5.8034">
        <ele>779.29</ele>
        <time>2021-09-18T09:30:37Z</time>
      </trkpt>
      <trkpt lat="44.35032" lon="5.80332">
        <ele>776.88</ele>
        <time>2021-09-18T09:30:40Z</time>
      </trkpt>
      <trkpt lat="44.35033" lon="5.80319">
        <ele>773.04</ele>
        <time>2021-09-18T09:30:46Z</time>
      </trkpt>
      <trkpt lat="44.35035" lon="5.80314">
        <ele>771.6</ele>
        <time>2021-09-18T09:30:48Z</time>
      </trkpt>
      <trkpt lat="44.35035" lon="5.80301">
        <ele>766.79</ele>
        <time>2021-09-18T09:30:52Z</time>
      </trkpt>
      <trkpt lat="44.35035" lon="5.80298">
        <ele>765.83</ele>
        <time>2021-09-18T09:30:53Z</time>
      </trkpt>
      <trkpt lat="44.35038" lon="5.80276">
        <ele>761.5</ele>
        <time>2021-09-18T09:30:58Z</time>
      </trkpt>
      <trkpt lat="44.3504" lon="5.80253">
        <ele>756.69</ele>
        <time>2021-09-18T09:31:02Z</time>
      </trkpt>
      <trkpt lat="44.35041" lon="5.80249">
        <ele>756.69</ele>
        <time>2021-09-18T09:31:03Z</time>
      </trkpt>
      <trkpt lat="44.35046" lon="5.80233">
        <ele>759.58</ele>
        <time>2021-09-18T09:31:09Z</time>
      </trkpt>
      <trkpt lat="44.35049" lon="5.80217">
        <ele>757.66</ele>
        <time>2021-09-18T09:31:14Z</time>
      </trkpt>
      <trkpt lat="44.35048" lon="5.80221">
        <ele>757.66</ele>
        <time>2021-09-18T09:31:28Z</time>
      </trkpt>
      <trkpt lat="44.35049" lon="5.80214">
        <ele>757.66</ele>
        <time>2021-09-18T09:31:39Z</time>
      </trkpt>
      <trkpt lat="44.35052" lon="5.80196">
        <ele>754.77</ele>
        <time>2021-09-18T09:31:44Z</time>
      </trkpt>
      <trkpt lat="44.35059" lon="5.80172">
        <ele>749.97</ele>
        <time>2021-09-18T09:31:49Z</time>
      </trkpt>
      <trkpt lat="44.35057" lon="5.8017">
        <ele>748.52</ele>
        <time>2021-09-18T09:31:51Z</time>
      </trkpt>
      <trkpt lat="44.35044" lon="5.80162">
        <ele>745.16</ele>
        <time>2021-09-18T09:31:55Z</time>
      </trkpt>
      <trkpt lat="44.35038" lon="5.80142">
        <ele>742.28</ele>
        <time>2021-09-18T09:31:59Z</time>
      </trkpt>
      <trkpt lat="44.35039" lon="5.80138">
        <ele>741.79</ele>
        <time>2021-09-18T09:32:00Z</time>
      </trkpt>
      <trkpt lat="44.35053" lon="5.8011">
        <ele>737.95</ele>
        <time>2021-09-18T09:32:08Z</time>
      </trkpt>
      <trkpt lat="44.35056" lon="5.80107">
        <ele>737.47</ele>
        <time>2021-09-18T09:32:09Z</time>
      </trkpt>
      <trkpt lat="44.35065" lon="5.80084">
        <ele>732.66</ele>
        <time>2021-09-18T09:32:14Z</time>
      </trkpt>
      <trkpt lat="44.35066" lon="5.80078">
        <ele>732.18</ele>
        <time>2021-09-18T09:32:15Z</time>
      </trkpt>
      <trkpt lat="44.35068" lon="5.80069">
        <ele>730.74</ele>
        <time>2021-09-18T09:32:17Z</time>
      </trkpt>
      <trkpt lat="44.35071" lon="5.80054">
        <ele>727.86</ele>
        <time>2021-09-18T09:32:20Z</time>
      </trkpt>
      <trkpt lat="44.35075" lon="5.80046">
        <ele>726.89</ele>
        <time>2021-09-18T09:32:22Z</time>
      </trkpt>
      <trkpt lat="44.35077" lon="5.80037">
        <ele>725.45</ele>
        <time>2021-09-18T09:32:24Z</time>
      </trkpt>
      <trkpt lat="44.35077" lon="5.80033">
        <ele>724.97</ele>
        <time>2021-09-18T09:32:25Z</time>
      </trkpt>
      <trkpt lat="44.35084" lon="5.80023">
        <ele>722.57</ele>
        <time>2021-09-18T09:32:29Z</time>
      </trkpt>
      <trkpt lat="44.35088" lon="5.8001">
        <ele>719.68</ele>
        <time>2021-09-18T09:32:33Z</time>
      </trkpt>
      <trkpt lat="44.35105" lon="5.79984">
        <ele>716.32</ele>
        <time>2021-09-18T09:32:39Z</time>
      </trkpt>
      <trkpt lat="44.35128" lon="5.79973">
        <ele>712.95</ele>
        <time>2021-09-18T09:32:46Z</time>
      </trkpt>
      <trkpt lat="44.35132" lon="5.79954">
        <ele>710.07</ele>
        <time>2021-09-18T09:32:54Z</time>
      </trkpt>
      <trkpt lat="44.35133" lon="5.7995">
        <ele>708.15</ele>
        <time>2021-09-18T09:32:56Z</time>
      </trkpt>
      <trkpt lat="44.35135" lon="5.79947">
        <ele>707.19</ele>
        <time>2021-09-18T09:32:58Z</time>
      </trkpt>
      <trkpt lat="44.35142" lon="5.79938">
        <ele>703.82</ele>
        <time>2021-09-18T09:33:01Z</time>
      </trkpt>
      <trkpt lat="44.35153" lon="5.7993">
        <ele>700.94</ele>
        <time>2021-09-18T09:33:05Z</time>
      </trkpt>
      <trkpt lat="44.35168" lon="5.79927">
        <ele>700.46</ele>
        <time>2021-09-18T09:33:14Z</time>
      </trkpt>
      <trkpt lat="44.35185" lon="5.79923">
        <ele>699.98</ele>
        <time>2021-09-18T09:33:20Z</time>
      </trkpt>
      <trkpt lat="44.35227" lon="5.79893">
        <ele>696.61</ele>
        <time>2021-09-18T09:33:31Z</time>
      </trkpt>
      <trkpt lat="44.35232" lon="5.79891">
        <ele>696.13</ele>
        <time>2021-09-18T09:33:32Z</time>
      </trkpt>
      <trkpt lat="44.35262" lon="5.79876">
        <ele>693.73</ele>
        <time>2021-09-18T09:33:38Z</time>
      </trkpt>
      <trkpt lat="44.35274" lon="5.79878">
        <ele>691.33</ele>
        <time>2021-09-18T09:33:42Z</time>
      </trkpt>
      <trkpt lat="44.35282" lon="5.79869">
        <ele>689.4</ele>
        <time>2021-09-18T09:33:47Z</time>
      </trkpt>
      <trkpt lat="44.35284" lon="5.7986">
        <ele>688.92</ele>
        <time>2021-09-18T09:34:00Z</time>
      </trkpt>
      <trkpt lat="44.35291" lon="5.79823">
        <ele>687.48</ele>
        <time>2021-09-18T09:34:13Z</time>
      </trkpt>
      <trkpt lat="44.35292" lon="5.79769">
        <ele>685.56</ele>
        <time>2021-09-18T09:34:25Z</time>
      </trkpt>
      <trkpt lat="44.35284" lon="5.79756">
        <ele>685.56</ele>
        <time>2021-09-18T09:34:35Z</time>
      </trkpt>
      <trkpt lat="44.35285" lon="5.79755">
        <ele>685.56</ele>
        <time>2021-09-18T09:34:37Z</time>
      </trkpt>
      <trkpt lat="44.35282" lon="5.79745">
        <ele>685.08</ele>
        <time>2021-09-18T09:34:49Z</time>
      </trkpt>
      <trkpt lat="44.35285" lon="5.79741">
        <ele>685.08</ele>
        <time>2021-09-18T09:34:53Z</time>
      </trkpt>
      <trkpt lat="44.35307" lon="5.79708">
        <ele>682.67</ele>
        <time>2021-09-18T09:35:07Z</time>
      </trkpt>
      <trkpt lat="44.35309" lon="5.79702">
        <ele>682.67</ele>
        <time>2021-09-18T09:35:09Z</time>
      </trkpt>
      <trkpt lat="44.35309" lon="5.79679">
        <ele>682.19</ele>
        <time>2021-09-18T09:35:24Z</time>
      </trkpt>
      <trkpt lat="44.35312" lon="5.79672">
        <ele>682.19</ele>
        <time>2021-09-18T09:35:27Z</time>
      </trkpt>
      <trkpt lat="44.35312" lon="5.79628">
        <ele>682.19</ele>
        <time>2021-09-18T09:35:40Z</time>
      </trkpt>
      <trkpt lat="44.35312" lon="5.79583">
        <ele>681.71</ele>
        <time>2021-09-18T09:35:52Z</time>
      </trkpt>
      <trkpt lat="44.35319" lon="5.79545">
        <ele>680.75</ele>
        <time>2021-09-18T09:36:02Z</time>
      </trkpt>
      <trkpt lat="44.35326" lon="5.79482">
        <ele>679.79</ele>
        <time>2021-09-18T09:36:14Z</time>
      </trkpt>
      <trkpt lat="44.35325" lon="5.79462">
        <ele>678.83</ele>
        <time>2021-09-18T09:36:24Z</time>
      </trkpt>
      <trkpt lat="44.35319" lon="5.79442">
        <ele>677.39</ele>
        <time>2021-09-18T09:36:40Z</time>
      </trkpt>
      <trkpt lat="44.35317" lon="5.79431">
        <ele>676.91</ele>
        <time>2021-09-18T09:36:43Z</time>
      </trkpt>
      <trkpt lat="44.35317" lon="5.79428">
        <ele>676.91</ele>
        <time>2021-09-18T09:36:44Z</time>
      </trkpt>
      <trkpt lat="44.35317" lon="5.79425">
        <ele>676.91</ele>
        <time>2021-09-18T09:36:45Z</time>
      </trkpt>
      <trkpt lat="44.35325" lon="5.79398">
        <ele>676.91</ele>
        <time>2021-09-18T09:36:55Z</time>
      </trkpt>
      <trkpt lat="44.35323" lon="5.79375">
        <ele>676.91</ele>
        <time>2021-09-18T09:37:04Z</time>
      </trkpt>
      <trkpt lat="44.35323" lon="5.79371">
        <ele>677.87</ele>
        <time>2021-09-18T09:37:06Z</time>
      </trkpt>
      <trkpt lat="44.35323" lon="5.79344">
        <ele>681.23</ele>
        <time>2021-09-18T09:37:16Z</time>
      </trkpt>
      <trkpt lat="44.35323" lon="5.79312">
        <ele>684.12</ele>
        <time>2021-09-18T09:37:28Z</time>
      </trkpt>
      <trkpt lat="44.35315" lon="5.79284">
        <ele>687</ele>
        <time>2021-09-18T09:37:43Z</time>
      </trkpt>
      <trkpt lat="44.35294" lon="5.79264">
        <ele>687.96</ele>
        <time>2021-09-18T09:37:58Z</time>
      </trkpt>
      <trkpt lat="44.35268" lon="5.79233">
        <ele>689.4</ele>
        <time>2021-09-18T09:38:15Z</time>
      </trkpt>
      <trkpt lat="44.35255" lon="5.79196">
        <ele>689.88</ele>
        <time>2021-09-18T09:38:28Z</time>
      </trkpt>
      <trkpt lat="44.35249" lon="5.79143">
        <ele>689.88</ele>
        <time>2021-09-18T09:38:40Z</time>
      </trkpt>
      <trkpt lat="44.35248" lon="5.79131">
        <ele>687.96</ele>
        <time>2021-09-18T09:38:42Z</time>
      </trkpt>
      <trkpt lat="44.35241" lon="5.79049">
        <ele>685.56</ele>
        <time>2021-09-18T09:38:55Z</time>
      </trkpt>
      <trkpt lat="44.35233" lon="5.78968">
        <ele>684.6</ele>
        <time>2021-09-18T09:39:10Z</time>
      </trkpt>
      <trkpt lat="44.35236" lon="5.78908">
        <ele>683.63</ele>
        <time>2021-09-18T09:39:21Z</time>
      </trkpt>
      <trkpt lat="44.35236" lon="5.78902">
        <ele>683.15</ele>
        <time>2021-09-18T09:39:22Z</time>
      </trkpt>
      <trkpt lat="44.35237" lon="5.78896">
        <ele>683.15</ele>
        <time>2021-09-18T09:39:23Z</time>
      </trkpt>
      <trkpt lat="44.35237" lon="5.7889">
        <ele>683.15</ele>
        <time>2021-09-18T09:39:24Z</time>
      </trkpt>
      <trkpt lat="44.35238" lon="5.78884">
        <ele>683.15</ele>
        <time>2021-09-18T09:39:25Z</time>
      </trkpt>
      <trkpt lat="44.35238" lon="5.78878">
        <ele>683.15</ele>
        <time>2021-09-18T09:39:26Z</time>
      </trkpt>
      <trkpt lat="44.3524" lon="5.78872">
        <ele>683.15</ele>
        <time>2021-09-18T09:39:27Z</time>
      </trkpt>
      <trkpt lat="44.3524" lon="5.78866">
        <ele>683.15</ele>
        <time>2021-09-18T09:39:28Z</time>
      </trkpt>
      <trkpt lat="44.35241" lon="5.78859">
        <ele>683.15</ele>
        <time>2021-09-18T09:39:29Z</time>
      </trkpt>
      <trkpt lat="44.35242" lon="5.78853">
        <ele>683.15</ele>
        <time>2021-09-18T09:39:30Z</time>
      </trkpt>
      <trkpt lat="44.35246" lon="5.78826">
        <ele>683.15</ele>
        <time>2021-09-18T09:39:34Z</time>
      </trkpt>
      <trkpt lat="44.35246" lon="5.78799">
        <ele>682.67</ele>
        <time>2021-09-18T09:39:38Z</time>
      </trkpt>
      <trkpt lat="44.35246" lon="5.78793">
        <ele>682.67</ele>
        <time>2021-09-18T09:39:39Z</time>
      </trkpt>
      <trkpt lat="44.35248" lon="5.78786">
        <ele>682.67</ele>
        <time>2021-09-18T09:39:40Z</time>
      </trkpt>
      <trkpt lat="44.35261" lon="5.78733">
        <ele>682.19</ele>
        <time>2021-09-18T09:39:51Z</time>
      </trkpt>
      <trkpt lat="44.35264" lon="5.78729">
        <ele>682.19</ele>
        <time>2021-09-18T09:39:53Z</time>
      </trkpt>
      <trkpt lat="44.35266" lon="5.78728">
        <ele>681.71</ele>
        <time>2021-09-18T09:39:54Z</time>
      </trkpt>
      <trkpt lat="44.35268" lon="5.78728">
        <ele>681.71</ele>
        <time>2021-09-18T09:39:55Z</time>
      </trkpt>
      <trkpt lat="44.35271" lon="5.78729">
        <ele>680.75</ele>
        <time>2021-09-18T09:39:56Z</time>
      </trkpt>
      <trkpt lat="44.35275" lon="5.7873">
        <ele>680.75</ele>
        <time>2021-09-18T09:39:57Z</time>
      </trkpt>
      <trkpt lat="44.35299" lon="5.7874">
        <ele>677.39</ele>
        <time>2021-09-18T09:40:03Z</time>
      </trkpt>
      <trkpt lat="44.35319" lon="5.78744">
        <ele>675.46</ele>
        <time>2021-09-18T09:40:06Z</time>
      </trkpt>
      <trkpt lat="44.35327" lon="5.78744">
        <ele>674.02</ele>
        <time>2021-09-18T09:40:07Z</time>
      </trkpt>
      <trkpt lat="44.35336" lon="5.78741">
        <ele>673.54</ele>
        <time>2021-09-18T09:40:08Z</time>
      </trkpt>
      <trkpt lat="44.3536" lon="5.78728">
        <ele>670.18</ele>
        <time>2021-09-18T09:40:11Z</time>
      </trkpt>
      <trkpt lat="44.35372" lon="5.7872">
        <ele>668.73</ele>
        <time>2021-09-18T09:40:13Z</time>
      </trkpt>
      <trkpt lat="44.35375" lon="5.78714">
        <ele>668.25</ele>
        <time>2021-09-18T09:40:14Z</time>
      </trkpt>
      <trkpt lat="44.35376" lon="5.78707">
        <ele>667.77</ele>
        <time>2021-09-18T09:40:15Z</time>
      </trkpt>
      <trkpt lat="44.35376" lon="5.787">
        <ele>666.33</ele>
        <time>2021-09-18T09:40:16Z</time>
      </trkpt>
      <trkpt lat="44.35374" lon="5.78693">
        <ele>665.85</ele>
        <time>2021-09-18T09:40:17Z</time>
      </trkpt>
      <trkpt lat="44.35368" lon="5.78668">
        <ele>662.49</ele>
        <time>2021-09-18T09:40:20Z</time>
      </trkpt>
      <trkpt lat="44.35368" lon="5.78659">
        <ele>660.08</ele>
        <time>2021-09-18T09:40:21Z</time>
      </trkpt>
      <trkpt lat="44.3537" lon="5.78653">
        <ele>659.12</ele>
        <time>2021-09-18T09:40:22Z</time>
      </trkpt>
      <trkpt lat="44.35374" lon="5.78649">
        <ele>658.64</ele>
        <time>2021-09-18T09:40:23Z</time>
      </trkpt>
      <trkpt lat="44.3538" lon="5.78648">
        <ele>657.68</ele>
        <time>2021-09-18T09:40:24Z</time>
      </trkpt>
      <trkpt lat="44.35385" lon="5.78651">
        <ele>656.24</ele>
        <time>2021-09-18T09:40:25Z</time>
      </trkpt>
      <trkpt lat="44.35388" lon="5.78654">
        <ele>655.28</ele>
        <time>2021-09-18T09:40:26Z</time>
      </trkpt>
      <trkpt lat="44.35391" lon="5.78658">
        <ele>654.8</ele>
        <time>2021-09-18T09:40:27Z</time>
      </trkpt>
      <trkpt lat="44.35392" lon="5.78662">
        <ele>653.83</ele>
        <time>2021-09-18T09:40:28Z</time>
      </trkpt>
      <trkpt lat="44.35398" lon="5.78671">
        <ele>652.87</ele>
        <time>2021-09-18T09:40:31Z</time>
      </trkpt>
      <trkpt lat="44.35399" lon="5.78672">
        <ele>652.87</ele>
        <time>2021-09-18T09:40:32Z</time>
      </trkpt>
      <trkpt lat="44.35399" lon="5.78674">
        <ele>652.87</ele>
        <time>2021-09-18T09:40:33Z</time>
      </trkpt>
      <trkpt lat="44.354" lon="5.78676">
        <ele>652.87</ele>
        <time>2021-09-18T09:40:34Z</time>
      </trkpt>
      <trkpt lat="44.35401" lon="5.78678">
        <ele>653.35</ele>
        <time>2021-09-18T09:40:35Z</time>
      </trkpt>
      <trkpt lat="44.35403" lon="5.7868">
        <ele>654.8</ele>
        <time>2021-09-18T09:40:36Z</time>
      </trkpt>
      <trkpt lat="44.35404" lon="5.78682">
        <ele>654.8</ele>
        <time>2021-09-18T09:40:37Z</time>
      </trkpt>
      <trkpt lat="44.35405" lon="5.78684">
        <ele>655.28</ele>
        <time>2021-09-18T09:40:38Z</time>
      </trkpt>
      <trkpt lat="44.35407" lon="5.78685">
        <ele>655.28</ele>
        <time>2021-09-18T09:40:39Z</time>
      </trkpt>
      <trkpt lat="44.35409" lon="5.78687">
        <ele>656.72</ele>
        <time>2021-09-18T09:40:40Z</time>
      </trkpt>
      <trkpt lat="44.35411" lon="5.78688">
        <ele>656.72</ele>
        <time>2021-09-18T09:40:41Z</time>
      </trkpt>
      <trkpt lat="44.35413" lon="5.7869">
        <ele>656.72</ele>
        <time>2021-09-18T09:40:42Z</time>
      </trkpt>
      <trkpt lat="44.35415" lon="5.78691">
        <ele>657.68</ele>
        <time>2021-09-18T09:40:43Z</time>
      </trkpt>
      <trkpt lat="44.35448" lon="5.78695">
        <ele>659.12</ele>
        <time>2021-09-18T09:40:59Z</time>
      </trkpt>
      <trkpt lat="44.35459" lon="5.78689">
        <ele>660.56</ele>
        <time>2021-09-18T09:41:05Z</time>
      </trkpt>
      <trkpt lat="44.35479" lon="5.78673">
        <ele>663.45</ele>
        <time>2021-09-18T09:41:17Z</time>
      </trkpt>
      <trkpt lat="44.35487" lon="5.78671">
        <ele>663.93</ele>
        <time>2021-09-18T09:41:21Z</time>
      </trkpt>
      <trkpt lat="44.35488" lon="5.78671">
        <ele>664.89</ele>
        <time>2021-09-18T09:41:22Z</time>
      </trkpt>
      <trkpt lat="44.3549" lon="5.78672">
        <ele>664.89</ele>
        <time>2021-09-18T09:41:23Z</time>
      </trkpt>
      <trkpt lat="44.35517" lon="5.78663">
        <ele>666.81</ele>
        <time>2021-09-18T09:41:37Z</time>
      </trkpt>
      <trkpt lat="44.35519" lon="5.78661">
        <ele>667.29</ele>
        <time>2021-09-18T09:41:38Z</time>
      </trkpt>
      <trkpt lat="44.3552" lon="5.78659">
        <ele>667.29</ele>
        <time>2021-09-18T09:41:39Z</time>
      </trkpt>
      <trkpt lat="44.35521" lon="5.78657">
        <ele>667.77</ele>
        <time>2021-09-18T09:41:40Z</time>
      </trkpt>
      <trkpt lat="44.35523" lon="5.78655">
        <ele>667.77</ele>
        <time>2021-09-18T09:41:41Z</time>
      </trkpt>
      <trkpt lat="44.35524" lon="5.78653">
        <ele>668.25</ele>
        <time>2021-09-18T09:41:42Z</time>
      </trkpt>
      <trkpt lat="44.35525" lon="5.78651">
        <ele>668.25</ele>
        <time>2021-09-18T09:41:43Z</time>
      </trkpt>
      <trkpt lat="44.35526" lon="5.78649">
        <ele>668.25</ele>
        <time>2021-09-18T09:41:44Z</time>
      </trkpt>
      <trkpt lat="44.35537" lon="5.78632">
        <ele>671.14</ele>
        <time>2021-09-18T09:41:54Z</time>
      </trkpt>
      <trkpt lat="44.35561" lon="5.78603">
        <ele>673.54</ele>
        <time>2021-09-18T09:42:09Z</time>
      </trkpt>
      <trkpt lat="44.35593" lon="5.78564">
        <ele>676.42</ele>
        <time>2021-09-18T09:42:29Z</time>
      </trkpt>
      <trkpt lat="44.35625" lon="5.78537">
        <ele>676.91</ele>
        <time>2021-09-18T09:42:45Z</time>
      </trkpt>
      <trkpt lat="44.35652" lon="5.78508">
        <ele>677.39</ele>
        <time>2021-09-18T09:42:59Z</time>
      </trkpt>
      <trkpt lat="44.35655" lon="5.78501">
        <ele>677.39</ele>
        <time>2021-09-18T09:43:02Z</time>
      </trkpt>
      <trkpt lat="44.35655" lon="5.78499">
        <ele>677.39</ele>
        <time>2021-09-18T09:43:03Z</time>
      </trkpt>
      <trkpt lat="44.35657" lon="5.78497">
        <ele>677.39</ele>
        <time>2021-09-18T09:43:04Z</time>
      </trkpt>
      <trkpt lat="44.35658" lon="5.78496">
        <ele>677.39</ele>
        <time>2021-09-18T09:43:05Z</time>
      </trkpt>
      <trkpt lat="44.3566" lon="5.78494">
        <ele>677.39</ele>
        <time>2021-09-18T09:43:06Z</time>
      </trkpt>
      <trkpt lat="44.35661" lon="5.78493">
        <ele>677.87</ele>
        <time>2021-09-18T09:43:07Z</time>
      </trkpt>
      <trkpt lat="44.35684" lon="5.78473">
        <ele>677.87</ele>
        <time>2021-09-18T09:43:20Z</time>
      </trkpt>
      <trkpt lat="44.35712" lon="5.78459">
        <ele>678.83</ele>
        <time>2021-09-18T09:43:33Z</time>
      </trkpt>
      <trkpt lat="44.35747" lon="5.78458">
        <ele>680.27</ele>
        <time>2021-09-18T09:43:48Z</time>
      </trkpt>
      <trkpt lat="44.35785" lon="5.78454">
        <ele>680.75</ele>
        <time>2021-09-18T09:44:02Z</time>
      </trkpt>
      <trkpt lat="44.35819" lon="5.78446">
        <ele>682.19</ele>
        <time>2021-09-18T09:44:15Z</time>
      </trkpt>
      <trkpt lat="44.35856" lon="5.78429">
        <ele>685.56</ele>
        <time>2021-09-18T09:44:31Z</time>
      </trkpt>
      <trkpt lat="44.35868" lon="5.78432">
        <ele>686.52</ele>
        <time>2021-09-18T09:44:39Z</time>
      </trkpt>
      <trkpt lat="44.35869" lon="5.78433">
        <ele>686.52</ele>
        <time>2021-09-18T09:44:40Z</time>
      </trkpt>
      <trkpt lat="44.35871" lon="5.78433">
        <ele>686.52</ele>
        <time>2021-09-18T09:44:41Z</time>
      </trkpt>
      <trkpt lat="44.35871" lon="5.78432">
        <ele>686.52</ele>
        <time>2021-09-18T09:44:42Z</time>
      </trkpt>
      <trkpt lat="44.35871" lon="5.7843">
        <ele>686.52</ele>
        <time>2021-09-18T09:44:43Z</time>
      </trkpt>
      <trkpt lat="44.35869" lon="5.78401">
        <ele>686.52</ele>
        <time>2021-09-18T09:44:52Z</time>
      </trkpt>
      <trkpt lat="44.35869" lon="5.78395">
        <ele>685.08</ele>
        <time>2021-09-18T09:44:53Z</time>
      </trkpt>
      <trkpt lat="44.35871" lon="5.7839">
        <ele>685.08</ele>
        <time>2021-09-18T09:44:54Z</time>
      </trkpt>
      <trkpt lat="44.35882" lon="5.78379">
        <ele>685.56</ele>
        <time>2021-09-18T09:45:02Z</time>
      </trkpt>
      <trkpt lat="44.35901" lon="5.78365">
        <ele>688.44</ele>
        <time>2021-09-18T09:45:17Z</time>
      </trkpt>
      <trkpt lat="44.35912" lon="5.78348">
        <ele>690.36</ele>
        <time>2021-09-18T09:45:31Z</time>
      </trkpt>
      <trkpt lat="44.35915" lon="5.78336">
        <ele>692.77</ele>
        <time>2021-09-18T09:45:45Z</time>
      </trkpt>
      <trkpt lat="44.35917" lon="5.78328">
        <ele>694.21</ele>
        <time>2021-09-18T09:46:00Z</time>
      </trkpt>
      <trkpt lat="44.35917" lon="5.78316">
        <ele>697.57</ele>
        <time>2021-09-18T09:46:17Z</time>
      </trkpt>
      <trkpt lat="44.35922" lon="5.78306">
        <ele>700.94</ele>
        <time>2021-09-18T09:46:34Z</time>
      </trkpt>
      <trkpt lat="44.35928" lon="5.783">
        <ele>704.3</ele>
        <time>2021-09-18T09:46:50Z</time>
      </trkpt>
      <trkpt lat="44.35935" lon="5.78297">
        <ele>707.67</ele>
        <time>2021-09-18T09:47:04Z</time>
      </trkpt>
      <trkpt lat="44.35941" lon="5.78294">
        <ele>708.63</ele>
        <time>2021-09-18T09:47:16Z</time>
      </trkpt>
      <trkpt lat="44.35949" lon="5.7829">
        <ele>707.19</ele>
        <time>2021-09-18T09:47:20Z</time>
      </trkpt>
      <trkpt lat="44.35957" lon="5.78288">
        <ele>703.82</ele>
        <time>2021-09-18T09:47:23Z</time>
      </trkpt>
      <trkpt lat="44.35959" lon="5.78287">
        <ele>703.82</ele>
        <time>2021-09-18T09:47:24Z</time>
      </trkpt>
      <trkpt lat="44.35966" lon="5.78286">
        <ele>701.42</ele>
        <time>2021-09-18T09:47:28Z</time>
      </trkpt>
      <trkpt lat="44.35973" lon="5.7828">
        <ele>698.53</ele>
        <time>2021-09-18T09:47:31Z</time>
      </trkpt>
      <trkpt lat="44.35975" lon="5.78281">
        <ele>698.05</ele>
        <time>2021-09-18T09:47:32Z</time>
      </trkpt>
      <trkpt lat="44.35987" lon="5.78283">
        <ele>695.17</ele>
        <time>2021-09-18T09:47:35Z</time>
      </trkpt>
      <trkpt lat="44.35996" lon="5.78284">
        <ele>693.73</ele>
        <time>2021-09-18T09:47:37Z</time>
      </trkpt>
      <trkpt lat="44.36" lon="5.78283">
        <ele>693.73</ele>
        <time>2021-09-18T09:47:38Z</time>
      </trkpt>
      <trkpt lat="44.36024" lon="5.78271">
        <ele>693.25</ele>
        <time>2021-09-18T09:47:45Z</time>
      </trkpt>
      <trkpt lat="44.36027" lon="5.7827">
        <ele>693.25</ele>
        <time>2021-09-18T09:47:46Z</time>
      </trkpt>
      <trkpt lat="44.36029" lon="5.78268">
        <ele>693.25</ele>
        <time>2021-09-18T09:47:47Z</time>
      </trkpt>
      <trkpt lat="44.36031" lon="5.78264">
        <ele>693.25</ele>
        <time>2021-09-18T09:47:48Z</time>
      </trkpt>
      <trkpt lat="44.36033" lon="5.7826">
        <ele>693.25</ele>
        <time>2021-09-18T09:47:49Z</time>
      </trkpt>
      <trkpt lat="44.36038" lon="5.78245">
        <ele>691.81</ele>
        <time>2021-09-18T09:47:52Z</time>
      </trkpt>
      <trkpt lat="44.36043" lon="5.78234">
        <ele>691.33</ele>
        <time>2021-09-18T09:47:54Z</time>
      </trkpt>
      <trkpt lat="44.36046" lon="5.78228">
        <ele>690.84</ele>
        <time>2021-09-18T09:47:55Z</time>
      </trkpt>
      <trkpt lat="44.36055" lon="5.78217">
        <ele>689.4</ele>
        <time>2021-09-18T09:47:58Z</time>
      </trkpt>
      <trkpt lat="44.36062" lon="5.78213">
        <ele>690.84</ele>
        <time>2021-09-18T09:48:15Z</time>
      </trkpt>
      <trkpt lat="44.36062" lon="5.78213">
        <ele>690.84</ele>
        <time>2021-09-18T09:48:16Z</time>
      </trkpt>
      <trkpt lat="44.36064" lon="5.78212">
        <ele>690.84</ele>
        <time>2021-09-18T09:48:40Z</time>
      </trkpt>
      <trkpt lat="44.36072" lon="5.78209">
        <ele>691.33</ele>
        <time>2021-09-18T09:49:02Z</time>
      </trkpt>
      <trkpt lat="44.36081" lon="5.78201">
        <ele>687.96</ele>
        <time>2021-09-18T09:49:07Z</time>
      </trkpt>
      <trkpt lat="44.36084" lon="5.78198">
        <ele>686.52</ele>
        <time>2021-09-18T09:49:08Z</time>
      </trkpt>
      <trkpt lat="44.36089" lon="5.78195">
        <ele>684.12</ele>
        <time>2021-09-18T09:49:10Z</time>
      </trkpt>
      <trkpt lat="44.36089" lon="5.78193">
        <ele>683.63</ele>
        <time>2021-09-18T09:49:11Z</time>
      </trkpt>
      <trkpt lat="44.36089" lon="5.78191">
        <ele>683.63</ele>
        <time>2021-09-18T09:49:12Z</time>
      </trkpt>
      <trkpt lat="44.36088" lon="5.78189">
        <ele>683.63</ele>
        <time>2021-09-18T09:49:13Z</time>
      </trkpt>
      <trkpt lat="44.36088" lon="5.78186">
        <ele>683.63</ele>
        <time>2021-09-18T09:49:14Z</time>
      </trkpt>
      <trkpt lat="44.36088" lon="5.78184">
        <ele>685.08</ele>
        <time>2021-09-18T09:49:15Z</time>
      </trkpt>
      <trkpt lat="44.3609" lon="5.78175">
        <ele>687.96</ele>
        <time>2021-09-18T09:49:22Z</time>
      </trkpt>
      <trkpt lat="44.36092" lon="5.78173">
        <ele>687.96</ele>
        <time>2021-09-18T09:49:23Z</time>
      </trkpt>
      <trkpt lat="44.36094" lon="5.78173">
        <ele>687.96</ele>
        <time>2021-09-18T09:49:24Z</time>
      </trkpt>
      <trkpt lat="44.36102" lon="5.78174">
        <ele>687.96</ele>
        <time>2021-09-18T09:49:27Z</time>
      </trkpt>
      <trkpt lat="44.36104" lon="5.78174">
        <ele>687</ele>
        <time>2021-09-18T09:49:28Z</time>
      </trkpt>
      <trkpt lat="44.36121" lon="5.78161">
        <ele>686.52</ele>
        <time>2021-09-18T09:49:35Z</time>
      </trkpt>
      <trkpt lat="44.36124" lon="5.7816">
        <ele>686.52</ele>
        <time>2021-09-18T09:49:36Z</time>
      </trkpt>
      <trkpt lat="44.36126" lon="5.78159">
        <ele>686.04</ele>
        <time>2021-09-18T09:49:37Z</time>
      </trkpt>
      <trkpt lat="44.36129" lon="5.78156">
        <ele>686.04</ele>
        <time>2021-09-18T09:49:38Z</time>
      </trkpt>
      <trkpt lat="44.3613" lon="5.78153">
        <ele>686.04</ele>
        <time>2021-09-18T09:49:39Z</time>
      </trkpt>
      <trkpt lat="44.36132" lon="5.78152">
        <ele>686.04</ele>
        <time>2021-09-18T09:49:40Z</time>
      </trkpt>
      <trkpt lat="44.36134" lon="5.78151">
        <ele>686.04</ele>
        <time>2021-09-18T09:49:41Z</time>
      </trkpt>
      <trkpt lat="44.36134" lon="5.7815">
        <ele>686.04</ele>
        <time>2021-09-18T09:49:42Z</time>
      </trkpt>
      <trkpt lat="44.36135" lon="5.78148">
        <ele>687.48</ele>
        <time>2021-09-18T09:49:43Z</time>
      </trkpt>
      <trkpt lat="44.36136" lon="5.78147">
        <ele>687.48</ele>
        <time>2021-09-18T09:49:44Z</time>
      </trkpt>
      <trkpt lat="44.36137" lon="5.78146">
        <ele>687.48</ele>
        <time>2021-09-18T09:49:45Z</time>
      </trkpt>
      <trkpt lat="44.36139" lon="5.78138">
        <ele>687.96</ele>
        <time>2021-09-18T09:49:49Z</time>
      </trkpt>
      <trkpt lat="44.36139" lon="5.78134">
        <ele>687.96</ele>
        <time>2021-09-18T09:49:50Z</time>
      </trkpt>
      <trkpt lat="44.36137" lon="5.78113">
        <ele>685.08</ele>
        <time>2021-09-18T09:49:54Z</time>
      </trkpt>
      <trkpt lat="44.36135" lon="5.78107">
        <ele>684.6</ele>
        <time>2021-09-18T09:49:55Z</time>
      </trkpt>
      <trkpt lat="44.36133" lon="5.78101">
        <ele>683.63</ele>
        <time>2021-09-18T09:49:56Z</time>
      </trkpt>
      <trkpt lat="44.36131" lon="5.78096">
        <ele>683.63</ele>
        <time>2021-09-18T09:49:57Z</time>
      </trkpt>
      <trkpt lat="44.36129" lon="5.78092">
        <ele>683.63</ele>
        <time>2021-09-18T09:49:58Z</time>
      </trkpt>
      <trkpt lat="44.36125" lon="5.7809">
        <ele>683.63</ele>
        <time>2021-09-18T09:49:59Z</time>
      </trkpt>
      <trkpt lat="44.36122" lon="5.78087">
        <ele>683.63</ele>
        <time>2021-09-18T09:50:00Z</time>
      </trkpt>
      <trkpt lat="44.3612" lon="5.78083">
        <ele>682.19</ele>
        <time>2021-09-18T09:50:01Z</time>
      </trkpt>
      <trkpt lat="44.36117" lon="5.78078">
        <ele>681.71</ele>
        <time>2021-09-18T09:50:02Z</time>
      </trkpt>
      <trkpt lat="44.36115" lon="5.78072">
        <ele>681.71</ele>
        <time>2021-09-18T09:50:03Z</time>
      </trkpt>
      <trkpt lat="44.36112" lon="5.78059">
        <ele>680.75</ele>
        <time>2021-09-18T09:50:05Z</time>
      </trkpt>
      <trkpt lat="44.36113" lon="5.78053">
        <ele>680.75</ele>
        <time>2021-09-18T09:50:06Z</time>
      </trkpt>
      <trkpt lat="44.36115" lon="5.78046">
        <ele>680.75</ele>
        <time>2021-09-18T09:50:07Z</time>
      </trkpt>
      <trkpt lat="44.3612" lon="5.7802">
        <ele>679.79</ele>
        <time>2021-09-18T09:50:11Z</time>
      </trkpt>
      <trkpt lat="44.36122" lon="5.78014">
        <ele>679.31</ele>
        <time>2021-09-18T09:50:12Z</time>
      </trkpt>
      <trkpt lat="44.36125" lon="5.78002">
        <ele>678.83</ele>
        <time>2021-09-18T09:50:14Z</time>
      </trkpt>
      <trkpt lat="44.36126" lon="5.77997">
        <ele>678.83</ele>
        <time>2021-09-18T09:50:15Z</time>
      </trkpt>
      <trkpt lat="44.36126" lon="5.77993">
        <ele>678.35</ele>
        <time>2021-09-18T09:50:16Z</time>
      </trkpt>
      <trkpt lat="44.36125" lon="5.77989">
        <ele>677.39</ele>
        <time>2021-09-18T09:50:17Z</time>
      </trkpt>
      <trkpt lat="44.36124" lon="5.77984">
        <ele>676.42</ele>
        <time>2021-09-18T09:50:18Z</time>
      </trkpt>
      <trkpt lat="44.36122" lon="5.77979">
        <ele>675.46</ele>
        <time>2021-09-18T09:50:19Z</time>
      </trkpt>
      <trkpt lat="44.3612" lon="5.7796">
        <ele>672.1</ele>
        <time>2021-09-18T09:50:23Z</time>
      </trkpt>
      <trkpt lat="44.36121" lon="5.77954">
        <ele>671.14</ele>
        <time>2021-09-18T09:50:24Z</time>
      </trkpt>
      <trkpt lat="44.36125" lon="5.77942">
        <ele>668.73</ele>
        <time>2021-09-18T09:50:26Z</time>
      </trkpt>
      <trkpt lat="44.36127" lon="5.77936">
        <ele>667.77</ele>
        <time>2021-09-18T09:50:27Z</time>
      </trkpt>
      <trkpt lat="44.36129" lon="5.77932">
        <ele>667.29</ele>
        <time>2021-09-18T09:50:28Z</time>
      </trkpt>
      <trkpt lat="44.36131" lon="5.77929">
        <ele>667.29</ele>
        <time>2021-09-18T09:50:29Z</time>
      </trkpt>
      <trkpt lat="44.36134" lon="5.77928">
        <ele>666.81</ele>
        <time>2021-09-18T09:50:30Z</time>
      </trkpt>
      <trkpt lat="44.36137" lon="5.77928">
        <ele>665.85</ele>
        <time>2021-09-18T09:50:31Z</time>
      </trkpt>
      <trkpt lat="44.3614" lon="5.77931">
        <ele>664.89</ele>
        <time>2021-09-18T09:50:32Z</time>
      </trkpt>
      <trkpt lat="44.36143" lon="5.77932">
        <ele>663.93</ele>
        <time>2021-09-18T09:50:33Z</time>
      </trkpt>
      <trkpt lat="44.36144" lon="5.77932">
        <ele>663.93</ele>
        <time>2021-09-18T09:50:34Z</time>
      </trkpt>
      <trkpt lat="44.36146" lon="5.77933">
        <ele>663.93</ele>
        <time>2021-09-18T09:50:50Z</time>
      </trkpt>
      <trkpt lat="44.36149" lon="5.77934">
        <ele>663.93</ele>
        <time>2021-09-18T09:51:17Z</time>
      </trkpt>
      <trkpt lat="44.36149" lon="5.7793">
        <ele>663.93</ele>
        <time>2021-09-18T09:51:44Z</time>
      </trkpt>
      <trkpt lat="44.3615" lon="5.77926">
        <ele>663.93</ele>
        <time>2021-09-18T09:51:48Z</time>
      </trkpt>
      <trkpt lat="44.36151" lon="5.77923">
        <ele>663.93</ele>
        <time>2021-09-18T09:51:51Z</time>
      </trkpt>
      <trkpt lat="44.36152" lon="5.77921">
        <ele>663.45</ele>
        <time>2021-09-18T09:52:02Z</time>
      </trkpt>
      <trkpt lat="44.36154" lon="5.77918">
        <ele>663.45</ele>
        <time>2021-09-18T09:52:07Z</time>
      </trkpt>
      <trkpt lat="44.36154" lon="5.77917">
        <ele>663.45</ele>
        <time>2021-09-18T09:52:08Z</time>
      </trkpt>
      <trkpt lat="44.36154" lon="5.77915">
        <ele>663.45</ele>
        <time>2021-09-18T09:52:09Z</time>
      </trkpt>
      <trkpt lat="44.36155" lon="5.77913">
        <ele>663.45</ele>
        <time>2021-09-18T09:52:10Z</time>
      </trkpt>
      <trkpt lat="44.36155" lon="5.77911">
        <ele>663.45</ele>
        <time>2021-09-18T09:52:11Z</time>
      </trkpt>
      <trkpt lat="44.36155" lon="5.77908">
        <ele>663.45</ele>
        <time>2021-09-18T09:52:12Z</time>
      </trkpt>
      <trkpt lat="44.36155" lon="5.77905">
        <ele>664.41</ele>
        <time>2021-09-18T09:52:13Z</time>
      </trkpt>
      <trkpt lat="44.36155" lon="5.77903">
        <ele>664.41</ele>
        <time>2021-09-18T09:52:14Z</time>
      </trkpt>
      <trkpt lat="44.36163" lon="5.7788">
        <ele>667.77</ele>
        <time>2021-09-18T09:52:25Z</time>
      </trkpt>
      <trkpt lat="44.36164" lon="5.77878">
        <ele>667.77</ele>
        <time>2021-09-18T09:52:26Z</time>
      </trkpt>
      <trkpt lat="44.36181" lon="5.77864">
        <ele>670.66</ele>
        <time>2021-09-18T09:52:40Z</time>
      </trkpt>
      <trkpt lat="44.362" lon="5.77853">
        <ele>673.06</ele>
        <time>2021-09-18T09:52:55Z</time>
      </trkpt>
      <trkpt lat="44.36202" lon="5.77851">
        <ele>673.06</ele>
        <time>2021-09-18T09:52:56Z</time>
      </trkpt>
      <trkpt lat="44.36203" lon="5.7785">
        <ele>673.54</ele>
        <time>2021-09-18T09:52:57Z</time>
      </trkpt>
      <trkpt lat="44.36204" lon="5.77849">
        <ele>673.54</ele>
        <time>2021-09-18T09:52:58Z</time>
      </trkpt>
      <trkpt lat="44.36205" lon="5.77847">
        <ele>673.54</ele>
        <time>2021-09-18T09:52:59Z</time>
      </trkpt>
      <trkpt lat="44.36207" lon="5.77846">
        <ele>673.54</ele>
        <time>2021-09-18T09:53:00Z</time>
      </trkpt>
      <trkpt lat="44.36208" lon="5.77845">
        <ele>673.54</ele>
        <time>2021-09-18T09:53:01Z</time>
      </trkpt>
      <trkpt lat="44.36227" lon="5.77829">
        <ele>674.98</ele>
        <time>2021-09-18T09:53:14Z</time>
      </trkpt>
      <trkpt lat="44.36238" lon="5.77821">
        <ele>675.94</ele>
        <time>2021-09-18T09:53:21Z</time>
      </trkpt>
      <trkpt lat="44.36239" lon="5.77819">
        <ele>676.42</ele>
        <time>2021-09-18T09:53:22Z</time>
      </trkpt>
      <trkpt lat="44.36261" lon="5.7779">
        <ele>678.35</ele>
        <time>2021-09-18T09:53:38Z</time>
      </trkpt>
      <trkpt lat="44.36295" lon="5.77761">
        <ele>677.39</ele>
        <time>2021-09-18T09:53:52Z</time>
      </trkpt>
      <trkpt lat="44.36313" lon="5.77744">
        <ele>676.91</ele>
        <time>2021-09-18T09:54:03Z</time>
      </trkpt>
      <trkpt lat="44.36315" lon="5.77743">
        <ele>677.39</ele>
        <time>2021-09-18T09:54:17Z</time>
      </trkpt>
      <trkpt lat="44.36327" lon="5.77728">
        <ele>677.39</ele>
        <time>2021-09-18T09:54:34Z</time>
      </trkpt>
      <trkpt lat="44.36365" lon="5.77701">
        <ele>675.94</ele>
        <time>2021-09-18T09:54:51Z</time>
      </trkpt>
      <trkpt lat="44.36398" lon="5.77683">
        <ele>675.94</ele>
        <time>2021-09-18T09:55:02Z</time>
      </trkpt>
      <trkpt lat="44.36434" lon="5.77616">
        <ele>675.94</ele>
        <time>2021-09-18T09:55:17Z</time>
      </trkpt>
      <trkpt lat="44.36439" lon="5.77608">
        <ele>677.39</ele>
        <time>2021-09-18T09:55:19Z</time>
      </trkpt>
      <trkpt lat="44.36471" lon="5.77541">
        <ele>678.35</ele>
        <time>2021-09-18T09:55:34Z</time>
      </trkpt>
      <trkpt lat="44.36487" lon="5.77464">
        <ele>679.31</ele>
        <time>2021-09-18T09:55:48Z</time>
      </trkpt>
      <trkpt lat="44.36498" lon="5.77449">
        <ele>680.27</ele>
        <time>2021-09-18T09:55:56Z</time>
      </trkpt>
      <trkpt lat="44.36499" lon="5.77448">
        <ele>680.27</ele>
        <time>2021-09-18T09:55:57Z</time>
      </trkpt>
      <trkpt lat="44.36521" lon="5.77423">
        <ele>680.75</ele>
        <time>2021-09-18T09:56:12Z</time>
      </trkpt>
      <trkpt lat="44.36562" lon="5.77384">
        <ele>681.23</ele>
        <time>2021-09-18T09:56:27Z</time>
      </trkpt>
      <trkpt lat="44.36601" lon="5.7737">
        <ele>679.79</ele>
        <time>2021-09-18T09:56:40Z</time>
      </trkpt>
      <trkpt lat="44.36606" lon="5.77369">
        <ele>679.79</ele>
        <time>2021-09-18T09:56:41Z</time>
      </trkpt>
      <trkpt lat="44.36619" lon="5.77368">
        <ele>677.39</ele>
        <time>2021-09-18T09:56:43Z</time>
      </trkpt>
      <trkpt lat="44.36627" lon="5.77366">
        <ele>675.94</ele>
        <time>2021-09-18T09:56:44Z</time>
      </trkpt>
      <trkpt lat="44.36636" lon="5.77363">
        <ele>674.5</ele>
        <time>2021-09-18T09:56:45Z</time>
      </trkpt>
      <trkpt lat="44.36644" lon="5.7736">
        <ele>673.06</ele>
        <time>2021-09-18T09:56:46Z</time>
      </trkpt>
      <trkpt lat="44.36653" lon="5.77355">
        <ele>672.1</ele>
        <time>2021-09-18T09:56:47Z</time>
      </trkpt>
      <trkpt lat="44.36661" lon="5.77351">
        <ele>671.14</ele>
        <time>2021-09-18T09:56:48Z</time>
      </trkpt>
      <trkpt lat="44.36668" lon="5.77348">
        <ele>669.7</ele>
        <time>2021-09-18T09:56:49Z</time>
      </trkpt>
      <trkpt lat="44.36674" lon="5.77346">
        <ele>668.73</ele>
        <time>2021-09-18T09:56:50Z</time>
      </trkpt>
      <trkpt lat="44.3668" lon="5.77345">
        <ele>668.25</ele>
        <time>2021-09-18T09:56:51Z</time>
      </trkpt>
      <trkpt lat="44.36686" lon="5.77343">
        <ele>666.81</ele>
        <time>2021-09-18T09:56:52Z</time>
      </trkpt>
      <trkpt lat="44.36691" lon="5.77337">
        <ele>666.33</ele>
        <time>2021-09-18T09:56:53Z</time>
      </trkpt>
      <trkpt lat="44.36696" lon="5.77332">
        <ele>665.85</ele>
        <time>2021-09-18T09:56:54Z</time>
      </trkpt>
      <trkpt lat="44.36701" lon="5.77326">
        <ele>665.85</ele>
        <time>2021-09-18T09:56:55Z</time>
      </trkpt>
      <trkpt lat="44.36706" lon="5.77321">
        <ele>664.89</ele>
        <time>2021-09-18T09:56:56Z</time>
      </trkpt>
      <trkpt lat="44.36733" lon="5.77279">
        <ele>661.04</ele>
        <time>2021-09-18T09:57:03Z</time>
      </trkpt>
      <trkpt lat="44.36736" lon="5.77272">
        <ele>661.04</ele>
        <time>2021-09-18T09:57:04Z</time>
      </trkpt>
      <trkpt lat="44.36743" lon="5.77257">
        <ele>660.08</ele>
        <time>2021-09-18T09:57:06Z</time>
      </trkpt>
      <trkpt lat="44.36746" lon="5.77247">
        <ele>658.64</ele>
        <time>2021-09-18T09:57:07Z</time>
      </trkpt>
      <trkpt lat="44.36748" lon="5.77237">
        <ele>658.64</ele>
        <time>2021-09-18T09:57:08Z</time>
      </trkpt>
      <trkpt lat="44.36749" lon="5.77226">
        <ele>657.68</ele>
        <time>2021-09-18T09:57:09Z</time>
      </trkpt>
      <trkpt lat="44.36749" lon="5.77214">
        <ele>657.2</ele>
        <time>2021-09-18T09:57:10Z</time>
      </trkpt>
      <trkpt lat="44.3675" lon="5.77157">
        <ele>654.8</ele>
        <time>2021-09-18T09:57:15Z</time>
      </trkpt>
      <trkpt lat="44.3675" lon="5.77148">
        <ele>654.8</ele>
        <time>2021-09-18T09:57:16Z</time>
      </trkpt>
      <trkpt lat="44.36748" lon="5.7714">
        <ele>654.8</ele>
        <time>2021-09-18T09:57:17Z</time>
      </trkpt>
      <trkpt lat="44.36746" lon="5.77133">
        <ele>654.31</ele>
        <time>2021-09-18T09:57:18Z</time>
      </trkpt>
      <trkpt lat="44.36744" lon="5.77126">
        <ele>654.31</ele>
        <time>2021-09-18T09:57:19Z</time>
      </trkpt>
      <trkpt lat="44.36741" lon="5.77121">
        <ele>654.31</ele>
        <time>2021-09-18T09:57:20Z</time>
      </trkpt>
      <trkpt lat="44.36738" lon="5.77117">
        <ele>654.31</ele>
        <time>2021-09-18T09:57:21Z</time>
      </trkpt>
      <trkpt lat="44.36736" lon="5.77113">
        <ele>654.31</ele>
        <time>2021-09-18T09:57:22Z</time>
      </trkpt>
      <trkpt lat="44.36725" lon="5.77097">
        <ele>653.35</ele>
        <time>2021-09-18T09:57:31Z</time>
      </trkpt>
      <trkpt lat="44.36723" lon="5.77095">
        <ele>653.35</ele>
        <time>2021-09-18T09:57:32Z</time>
      </trkpt>
      <trkpt lat="44.36721" lon="5.77094">
        <ele>653.35</ele>
        <time>2021-09-18T09:57:33Z</time>
      </trkpt>
      <trkpt lat="44.36719" lon="5.77092">
        <ele>652.87</ele>
        <time>2021-09-18T09:57:34Z</time>
      </trkpt>
      <trkpt lat="44.36718" lon="5.77089">
        <ele>652.87</ele>
        <time>2021-09-18T09:57:35Z</time>
      </trkpt>
      <trkpt lat="44.36716" lon="5.77087">
        <ele>652.87</ele>
        <time>2021-09-18T09:57:36Z</time>
      </trkpt>
      <trkpt lat="44.3669" lon="5.77059">
        <ele>651.43</ele>
        <time>2021-09-18T09:57:46Z</time>
      </trkpt>
      <trkpt lat="44.36679" lon="5.77047">
        <ele>651.43</ele>
        <time>2021-09-18T09:57:56Z</time>
      </trkpt>
      <trkpt lat="44.36679" lon="5.77048">
        <ele>651.43</ele>
        <time>2021-09-18T09:58:25Z</time>
      </trkpt>
      <trkpt lat="44.3668" lon="5.77047">
        <ele>651.43</ele>
        <time>2021-09-18T09:58:56Z</time>
      </trkpt>
      <trkpt lat="44.36681" lon="5.77046">
        <ele>651.43</ele>
        <time>2021-09-18T09:59:26Z</time>
      </trkpt>
      <trkpt lat="44.36679" lon="5.77049">
        <ele>650.95</ele>
        <time>2021-09-18T10:00:00Z</time>
      </trkpt>
      <trkpt lat="44.36678" lon="5.77047">
        <ele>650.95</ele>
        <time>2021-09-18T10:00:29Z</time>
      </trkpt>
      <trkpt lat="44.36676" lon="5.77049">
        <ele>650.95</ele>
        <time>2021-09-18T10:00:54Z</time>
      </trkpt>
      <trkpt lat="44.36674" lon="5.77048">
        <ele>650.95</ele>
        <time>2021-09-18T10:00:55Z</time>
      </trkpt>
      <trkpt lat="44.36672" lon="5.77047">
        <ele>650.95</ele>
        <time>2021-09-18T10:00:56Z</time>
      </trkpt>
      <trkpt lat="44.3667" lon="5.77046">
        <ele>650.95</ele>
        <time>2021-09-18T10:00:57Z</time>
      </trkpt>
      <trkpt lat="44.36668" lon="5.77045">
        <ele>650.95</ele>
        <time>2021-09-18T10:00:58Z</time>
      </trkpt>
      <trkpt lat="44.36666" lon="5.77044">
        <ele>650.47</ele>
        <time>2021-09-18T10:00:59Z</time>
      </trkpt>
      <trkpt lat="44.36663" lon="5.77043">
        <ele>650.47</ele>
        <time>2021-09-18T10:01:00Z</time>
      </trkpt>
      <trkpt lat="44.36634" lon="5.77033">
        <ele>649.51</ele>
        <time>2021-09-18T10:01:15Z</time>
      </trkpt>
      <trkpt lat="44.36622" lon="5.77027">
        <ele>649.03</ele>
        <time>2021-09-18T10:01:26Z</time>
      </trkpt>
      <trkpt lat="44.36622" lon="5.7703">
        <ele>649.03</ele>
        <time>2021-09-18T10:01:52Z</time>
      </trkpt>
      <trkpt lat="44.36623" lon="5.77028">
        <ele>649.03</ele>
        <time>2021-09-18T10:02:17Z</time>
      </trkpt>
      <trkpt lat="44.36622" lon="5.77027">
        <ele>649.03</ele>
        <time>2021-09-18T10:02:44Z</time>
      </trkpt>
      <trkpt lat="44.36622" lon="5.77027">
        <ele>649.03</ele>
        <time>2021-09-18T10:03:09Z</time>
      </trkpt>
      <trkpt lat="44.36622" lon="5.7703">
        <ele>649.03</ele>
        <time>2021-09-18T10:03:35Z</time>
      </trkpt>
      <trkpt lat="44.36622" lon="5.77031">
        <ele>648.55</ele>
        <time>2021-09-18T10:04:00Z</time>
      </trkpt>
      <trkpt lat="44.36622" lon="5.77032">
        <ele>648.07</ele>
        <time>2021-09-18T10:04:23Z</time>
      </trkpt>
      <trkpt lat="44.36622" lon="5.77032">
        <ele>648.07</ele>
        <time>2021-09-18T10:04:52Z</time>
      </trkpt>
      <trkpt lat="44.36624" lon="5.77031">
        <ele>648.07</ele>
        <time>2021-09-18T10:05:22Z</time>
      </trkpt>
      <trkpt lat="44.36621" lon="5.77034">
        <ele>648.07</ele>
        <time>2021-09-18T10:05:47Z</time>
      </trkpt>
      <trkpt lat="44.36623" lon="5.77033">
        <ele>647.59</ele>
        <time>2021-09-18T10:06:22Z</time>
      </trkpt>
      <trkpt lat="44.36623" lon="5.77033">
        <ele>647.59</ele>
        <time>2021-09-18T10:06:50Z</time>
      </trkpt>
      <trkpt lat="44.36622" lon="5.77031">
        <ele>647.59</ele>
        <time>2021-09-18T10:07:24Z</time>
      </trkpt>
      <trkpt lat="44.36625" lon="5.77027">
        <ele>647.59</ele>
        <time>2021-09-18T10:07:53Z</time>
      </trkpt>
      <trkpt lat="44.36626" lon="5.77028">
        <ele>648.55</ele>
        <time>2021-09-18T10:07:59Z</time>
      </trkpt>
      <trkpt lat="44.36647" lon="5.77041">
        <ele>648.55</ele>
        <time>2021-09-18T10:08:11Z</time>
      </trkpt>
      <trkpt lat="44.36652" lon="5.77046">
        <ele>649.03</ele>
        <time>2021-09-18T10:08:14Z</time>
      </trkpt>
      <trkpt lat="44.36654" lon="5.77046">
        <ele>649.03</ele>
        <time>2021-09-18T10:08:15Z</time>
      </trkpt>
      <trkpt lat="44.36654" lon="5.77047">
        <ele>649.03</ele>
        <time>2021-09-18T10:08:26Z</time>
      </trkpt>
      <trkpt lat="44.36653" lon="5.77047">
        <ele>649.03</ele>
        <time>2021-09-18T10:08:27Z</time>
      </trkpt>
      <trkpt lat="44.36653" lon="5.77052">
        <ele>649.03</ele>
        <time>2021-09-18T10:08:42Z</time>
      </trkpt>
      <trkpt lat="44.36654" lon="5.77049">
        <ele>649.03</ele>
        <time>2021-09-18T10:08:59Z</time>
      </trkpt>
      <trkpt lat="44.36656" lon="5.77045">
        <ele>649.03</ele>
        <time>2021-09-18T10:09:01Z</time>
      </trkpt>
      <trkpt lat="44.36658" lon="5.77044">
        <ele>649.03</ele>
        <time>2021-09-18T10:09:02Z</time>
      </trkpt>
      <trkpt lat="44.36659" lon="5.77044">
        <ele>649.03</ele>
        <time>2021-09-18T10:09:03Z</time>
      </trkpt>
      <trkpt lat="44.36677" lon="5.77045">
        <ele>649.99</ele>
        <time>2021-09-18T10:09:11Z</time>
      </trkpt>
      <trkpt lat="44.36679" lon="5.77042">
        <ele>649.99</ele>
        <time>2021-09-18T10:09:12Z</time>
      </trkpt>
      <trkpt lat="44.36694" lon="5.76993">
        <ele>649.99</ele>
        <time>2021-09-18T10:09:23Z</time>
      </trkpt>
      <trkpt lat="44.36715" lon="5.76943">
        <ele>649.99</ele>
        <time>2021-09-18T10:09:35Z</time>
      </trkpt>
      <trkpt lat="44.36749" lon="5.76901">
        <ele>649.51</ele>
        <time>2021-09-18T10:09:49Z</time>
      </trkpt>
      <trkpt lat="44.36785" lon="5.7686">
        <ele>649.51</ele>
        <time>2021-09-18T10:10:03Z</time>
      </trkpt>
      <trkpt lat="44.36793" lon="5.7686">
        <ele>649.51</ele>
        <time>2021-09-18T10:10:06Z</time>
      </trkpt>
      <trkpt lat="44.36795" lon="5.76862">
        <ele>649.51</ele>
        <time>2021-09-18T10:10:07Z</time>
      </trkpt>
      <trkpt lat="44.36827" lon="5.76893">
        <ele>649.51</ele>
        <time>2021-09-18T10:10:20Z</time>
      </trkpt>
      <trkpt lat="44.36848" lon="5.76901">
        <ele>648.55</ele>
        <time>2021-09-18T10:10:26Z</time>
      </trkpt>
      <trkpt lat="44.3688" lon="5.76901">
        <ele>648.07</ele>
        <time>2021-09-18T10:10:35Z</time>
      </trkpt>
      <trkpt lat="44.36896" lon="5.76888">
        <ele>648.07</ele>
        <time>2021-09-18T10:10:40Z</time>
      </trkpt>
      <trkpt lat="44.36899" lon="5.76888">
        <ele>648.07</ele>
        <time>2021-09-18T10:10:41Z</time>
      </trkpt>
      <trkpt lat="44.36902" lon="5.76889">
        <ele>648.07</ele>
        <time>2021-09-18T10:10:42Z</time>
      </trkpt>
      <trkpt lat="44.36905" lon="5.7689">
        <ele>648.07</ele>
        <time>2021-09-18T10:10:43Z</time>
      </trkpt>
      <trkpt lat="44.36908" lon="5.76891">
        <ele>648.07</ele>
        <time>2021-09-18T10:10:44Z</time>
      </trkpt>
      <trkpt lat="44.36911" lon="5.76893">
        <ele>649.51</ele>
        <time>2021-09-18T10:10:45Z</time>
      </trkpt>
      <trkpt lat="44.36914" lon="5.76894">
        <ele>649.51</ele>
        <time>2021-09-18T10:10:46Z</time>
      </trkpt>
      <trkpt lat="44.36939" lon="5.76912">
        <ele>650.47</ele>
        <time>2021-09-18T10:10:57Z</time>
      </trkpt>
      <trkpt lat="44.36969" lon="5.7692">
        <ele>651.91</ele>
        <time>2021-09-18T10:11:10Z</time>
      </trkpt>
      <trkpt lat="44.37001" lon="5.76909">
        <ele>652.87</ele>
        <time>2021-09-18T10:11:25Z</time>
      </trkpt>
      <trkpt lat="44.37037" lon="5.76905">
        <ele>652.87</ele>
        <time>2021-09-18T10:11:35Z</time>
      </trkpt>
      <trkpt lat="44.37082" lon="5.769">
        <ele>653.35</ele>
        <time>2021-09-18T10:11:48Z</time>
      </trkpt>
      <trkpt lat="44.37137" lon="5.76896">
        <ele>655.28</ele>
        <time>2021-09-18T10:12:04Z</time>
      </trkpt>
      <trkpt lat="44.3717" lon="5.76899">
        <ele>655.76</ele>
        <time>2021-09-18T10:12:16Z</time>
      </trkpt>
      <trkpt lat="44.37207" lon="5.76888">
        <ele>657.68</ele>
        <time>2021-09-18T10:12:28Z</time>
      </trkpt>
      <trkpt lat="44.37206" lon="5.76887">
        <ele>657.68</ele>
        <time>2021-09-18T10:12:46Z</time>
      </trkpt>
      <trkpt lat="44.3722" lon="5.76884">
        <ele>657.68</ele>
        <time>2021-09-18T10:12:52Z</time>
      </trkpt>
      <trkpt lat="44.37224" lon="5.76884">
        <ele>657.68</ele>
        <time>2021-09-18T10:12:53Z</time>
      </trkpt>
      <trkpt lat="44.37229" lon="5.76884">
        <ele>657.68</ele>
        <time>2021-09-18T10:12:54Z</time>
      </trkpt>
      <trkpt lat="44.37234" lon="5.76883">
        <ele>658.16</ele>
        <time>2021-09-18T10:12:55Z</time>
      </trkpt>
      <trkpt lat="44.37238" lon="5.76882">
        <ele>658.16</ele>
        <time>2021-09-18T10:12:56Z</time>
      </trkpt>
      <trkpt lat="44.37246" lon="5.76876">
        <ele>659.12</ele>
        <time>2021-09-18T10:13:00Z</time>
      </trkpt>
      <trkpt lat="44.37247" lon="5.76873">
        <ele>659.12</ele>
        <time>2021-09-18T10:13:01Z</time>
      </trkpt>
      <trkpt lat="44.37274" lon="5.76836">
        <ele>660.08</ele>
        <time>2021-09-18T10:13:13Z</time>
      </trkpt>
      <trkpt lat="44.37303" lon="5.76816">
        <ele>663.45</ele>
        <time>2021-09-18T10:13:26Z</time>
      </trkpt>
      <trkpt lat="44.37345" lon="5.768">
        <ele>665.85</ele>
        <time>2021-09-18T10:13:41Z</time>
      </trkpt>
      <trkpt lat="44.37389" lon="5.76788">
        <ele>667.29</ele>
        <time>2021-09-18T10:13:56Z</time>
      </trkpt>
      <trkpt lat="44.3741" lon="5.76772">
        <ele>669.22</ele>
        <time>2021-09-18T10:14:09Z</time>
      </trkpt>
      <trkpt lat="44.37414" lon="5.76757">
        <ele>670.18</ele>
        <time>2021-09-18T10:14:19Z</time>
      </trkpt>
      <trkpt lat="44.37413" lon="5.76755">
        <ele>670.18</ele>
        <time>2021-09-18T10:14:20Z</time>
      </trkpt>
      <trkpt lat="44.37413" lon="5.76751">
        <ele>670.66</ele>
        <time>2021-09-18T10:14:21Z</time>
      </trkpt>
      <trkpt lat="44.37413" lon="5.76748">
        <ele>670.66</ele>
        <time>2021-09-18T10:14:22Z</time>
      </trkpt>
      <trkpt lat="44.37414" lon="5.76745">
        <ele>671.14</ele>
        <time>2021-09-18T10:14:23Z</time>
      </trkpt>
      <trkpt lat="44.37414" lon="5.76743">
        <ele>671.14</ele>
        <time>2021-09-18T10:14:24Z</time>
      </trkpt>
      <trkpt lat="44.37415" lon="5.7674">
        <ele>671.14</ele>
        <time>2021-09-18T10:14:25Z</time>
      </trkpt>
      <trkpt lat="44.37427" lon="5.76705">
        <ele>673.06</ele>
        <time>2021-09-18T10:14:39Z</time>
      </trkpt>
      <trkpt lat="44.37438" lon="5.76669">
        <ele>675.46</ele>
        <time>2021-09-18T10:14:53Z</time>
      </trkpt>
      <trkpt lat="44.37451" lon="5.76638">
        <ele>678.83</ele>
        <time>2021-09-18T10:15:05Z</time>
      </trkpt>
      <trkpt lat="44.37469" lon="5.76602">
        <ele>680.27</ele>
        <time>2021-09-18T10:15:19Z</time>
      </trkpt>
      <trkpt lat="44.37492" lon="5.76562">
        <ele>681.23</ele>
        <time>2021-09-18T10:15:35Z</time>
      </trkpt>
      <trkpt lat="44.37518" lon="5.76521">
        <ele>683.63</ele>
        <time>2021-09-18T10:15:52Z</time>
      </trkpt>
      <trkpt lat="44.37543" lon="5.76495">
        <ele>684.6</ele>
        <time>2021-09-18T10:16:05Z</time>
      </trkpt>
      <trkpt lat="44.37567" lon="5.76461">
        <ele>686.04</ele>
        <time>2021-09-18T10:16:20Z</time>
      </trkpt>
      <trkpt lat="44.37581" lon="5.76454">
        <ele>687.96</ele>
        <time>2021-09-18T10:16:28Z</time>
      </trkpt>
      <trkpt lat="44.37582" lon="5.76455">
        <ele>688.44</ele>
        <time>2021-09-18T10:16:29Z</time>
      </trkpt>
      <trkpt lat="44.37583" lon="5.76457">
        <ele>688.44</ele>
        <time>2021-09-18T10:16:30Z</time>
      </trkpt>
      <trkpt lat="44.37596" lon="5.76504">
        <ele>690.36</ele>
        <time>2021-09-18T10:16:47Z</time>
      </trkpt>
      <trkpt lat="44.3762" lon="5.76555">
        <ele>690.84</ele>
        <time>2021-09-18T10:17:03Z</time>
      </trkpt>
      <trkpt lat="44.37652" lon="5.76609">
        <ele>692.77</ele>
        <time>2021-09-18T10:17:20Z</time>
      </trkpt>
      <trkpt lat="44.3768" lon="5.76629">
        <ele>694.69</ele>
        <time>2021-09-18T10:17:34Z</time>
      </trkpt>
      <trkpt lat="44.37714" lon="5.76617">
        <ele>697.09</ele>
        <time>2021-09-18T10:17:49Z</time>
      </trkpt>
      <trkpt lat="44.37758" lon="5.76604">
        <ele>699.5</ele>
        <time>2021-09-18T10:18:08Z</time>
      </trkpt>
      <trkpt lat="44.37775" lon="5.76641">
        <ele>701.42</ele>
        <time>2021-09-18T10:18:22Z</time>
      </trkpt>
      <trkpt lat="44.37787" lon="5.76686">
        <ele>704.3</ele>
        <time>2021-09-18T10:18:39Z</time>
      </trkpt>
      <trkpt lat="44.37804" lon="5.76708">
        <ele>706.71</ele>
        <time>2021-09-18T10:18:50Z</time>
      </trkpt>
      <trkpt lat="44.37806" lon="5.7671">
        <ele>706.71</ele>
        <time>2021-09-18T10:18:51Z</time>
      </trkpt>
      <trkpt lat="44.37807" lon="5.76711">
        <ele>706.71</ele>
        <time>2021-09-18T10:18:52Z</time>
      </trkpt>
      <trkpt lat="44.37809" lon="5.76713">
        <ele>707.67</ele>
        <time>2021-09-18T10:18:53Z</time>
      </trkpt>
      <trkpt lat="44.37811" lon="5.76714">
        <ele>707.67</ele>
        <time>2021-09-18T10:18:54Z</time>
      </trkpt>
      <trkpt lat="44.37813" lon="5.76716">
        <ele>707.67</ele>
        <time>2021-09-18T10:18:55Z</time>
      </trkpt>
      <trkpt lat="44.37815" lon="5.76717">
        <ele>707.67</ele>
        <time>2021-09-18T10:18:56Z</time>
      </trkpt>
      <trkpt lat="44.37817" lon="5.76717">
        <ele>708.15</ele>
        <time>2021-09-18T10:18:57Z</time>
      </trkpt>
      <trkpt lat="44.3784" lon="5.76728">
        <ele>709.11</ele>
        <time>2021-09-18T10:19:10Z</time>
      </trkpt>
      <trkpt lat="44.37861" lon="5.76745">
        <ele>712.47</ele>
        <time>2021-09-18T10:19:24Z</time>
      </trkpt>
      <trkpt lat="44.37884" lon="5.76765">
        <ele>714.88</ele>
        <time>2021-09-18T10:19:39Z</time>
      </trkpt>
      <trkpt lat="44.37898" lon="5.76803">
        <ele>716.32</ele>
        <time>2021-09-18T10:19:54Z</time>
      </trkpt>
      <trkpt lat="44.37908" lon="5.76849">
        <ele>719.2</ele>
        <time>2021-09-18T10:20:12Z</time>
      </trkpt>
      <trkpt lat="44.37917" lon="5.76884">
        <ele>722.09</ele>
        <time>2021-09-18T10:20:26Z</time>
      </trkpt>
      <trkpt lat="44.37928" lon="5.7689">
        <ele>722.09</ele>
        <time>2021-09-18T10:20:31Z</time>
      </trkpt>
      <trkpt lat="44.3793" lon="5.7689">
        <ele>722.09</ele>
        <time>2021-09-18T10:20:32Z</time>
      </trkpt>
      <trkpt lat="44.37933" lon="5.76891">
        <ele>722.09</ele>
        <time>2021-09-18T10:20:33Z</time>
      </trkpt>
      <trkpt lat="44.37936" lon="5.76892">
        <ele>722.09</ele>
        <time>2021-09-18T10:20:34Z</time>
      </trkpt>
      <trkpt lat="44.37939" lon="5.76892">
        <ele>722.09</ele>
        <time>2021-09-18T10:20:35Z</time>
      </trkpt>
      <trkpt lat="44.37965" lon="5.76909">
        <ele>722.57</ele>
        <time>2021-09-18T10:20:47Z</time>
      </trkpt>
      <trkpt lat="44.37968" lon="5.7691">
        <ele>722.57</ele>
        <time>2021-09-18T10:20:48Z</time>
      </trkpt>
      <trkpt lat="44.37996" lon="5.76913">
        <ele>724.97</ele>
        <time>2021-09-18T10:21:01Z</time>
      </trkpt>
      <trkpt lat="44.38024" lon="5.76911">
        <ele>727.86</ele>
        <time>2021-09-18T10:21:14Z</time>
      </trkpt>
      <trkpt lat="44.38051" lon="5.7691">
        <ele>729.3</ele>
        <time>2021-09-18T10:21:27Z</time>
      </trkpt>
      <trkpt lat="44.38076" lon="5.76886">
        <ele>731.7</ele>
        <time>2021-09-18T10:21:42Z</time>
      </trkpt>
      <trkpt lat="44.38097" lon="5.76871">
        <ele>732.66</ele>
        <time>2021-09-18T10:21:53Z</time>
      </trkpt>
      <trkpt lat="44.3812" lon="5.76895">
        <ele>733.14</ele>
        <time>2021-09-18T10:22:05Z</time>
      </trkpt>
      <trkpt lat="44.38124" lon="5.76928">
        <ele>735.07</ele>
        <time>2021-09-18T10:22:18Z</time>
      </trkpt>
      <trkpt lat="44.38117" lon="5.76957">
        <ele>736.03</ele>
        <time>2021-09-18T10:22:30Z</time>
      </trkpt>
      <trkpt lat="44.38113" lon="5.76965">
        <ele>736.03</ele>
        <time>2021-09-18T10:22:33Z</time>
      </trkpt>
      <trkpt lat="44.38111" lon="5.76969">
        <ele>736.03</ele>
        <time>2021-09-18T10:22:44Z</time>
      </trkpt>
      <trkpt lat="44.38108" lon="5.76973">
        <ele>736.03</ele>
        <time>2021-09-18T10:22:47Z</time>
      </trkpt>
      <trkpt lat="44.38107" lon="5.76976">
        <ele>736.03</ele>
        <time>2021-09-18T10:22:48Z</time>
      </trkpt>
      <trkpt lat="44.38105" lon="5.76977">
        <ele>736.03</ele>
        <time>2021-09-18T10:22:49Z</time>
      </trkpt>
      <trkpt lat="44.38104" lon="5.7698">
        <ele>736.51</ele>
        <time>2021-09-18T10:22:50Z</time>
      </trkpt>
      <trkpt lat="44.38103" lon="5.76982">
        <ele>736.51</ele>
        <time>2021-09-18T10:22:51Z</time>
      </trkpt>
      <trkpt lat="44.38102" lon="5.76985">
        <ele>736.99</ele>
        <time>2021-09-18T10:22:52Z</time>
      </trkpt>
      <trkpt lat="44.38101" lon="5.77022">
        <ele>738.91</ele>
        <time>2021-09-18T10:23:05Z</time>
      </trkpt>
      <trkpt lat="44.38113" lon="5.77054">
        <ele>741.79</ele>
        <time>2021-09-18T10:23:19Z</time>
      </trkpt>
      <trkpt lat="44.38134" lon="5.77077">
        <ele>743.72</ele>
        <time>2021-09-18T10:23:34Z</time>
      </trkpt>
      <trkpt lat="44.3814" lon="5.7708">
        <ele>745.16</ele>
        <time>2021-09-18T10:23:38Z</time>
      </trkpt>
      <trkpt lat="44.38159" lon="5.77086">
        <ele>747.08</ele>
        <time>2021-09-18T10:23:50Z</time>
      </trkpt>
      <trkpt lat="44.3816" lon="5.77087">
        <ele>747.08</ele>
        <time>2021-09-18T10:23:51Z</time>
      </trkpt>
      <trkpt lat="44.38161" lon="5.77088">
        <ele>747.08</ele>
        <time>2021-09-18T10:23:52Z</time>
      </trkpt>
      <trkpt lat="44.38163" lon="5.77088">
        <ele>747.56</ele>
        <time>2021-09-18T10:23:53Z</time>
      </trkpt>
      <trkpt lat="44.38164" lon="5.77088">
        <ele>747.56</ele>
        <time>2021-09-18T10:23:54Z</time>
      </trkpt>
      <trkpt lat="44.38185" lon="5.77097">
        <ele>749</ele>
        <time>2021-09-18T10:24:08Z</time>
      </trkpt>
      <trkpt lat="44.382" lon="5.77112">
        <ele>749</ele>
        <time>2021-09-18T10:24:16Z</time>
      </trkpt>
      <trkpt lat="44.38202" lon="5.77112">
        <ele>749</ele>
        <time>2021-09-18T10:24:17Z</time>
      </trkpt>
      <trkpt lat="44.38204" lon="5.77111">
        <ele>749</ele>
        <time>2021-09-18T10:24:18Z</time>
      </trkpt>
      <trkpt lat="44.38226" lon="5.77085">
        <ele>749</ele>
        <time>2021-09-18T10:24:30Z</time>
      </trkpt>
      <trkpt lat="44.38233" lon="5.77077">
        <ele>747.56</ele>
        <time>2021-09-18T10:24:32Z</time>
      </trkpt>
      <trkpt lat="44.38256" lon="5.77051">
        <ele>745.64</ele>
        <time>2021-09-18T10:24:42Z</time>
      </trkpt>
      <trkpt lat="44.38257" lon="5.77053">
        <ele>745.64</ele>
        <time>2021-09-18T10:24:43Z</time>
      </trkpt>
      <trkpt lat="44.38257" lon="5.77056">
        <ele>745.64</ele>
        <time>2021-09-18T10:24:44Z</time>
      </trkpt>
      <trkpt lat="44.38257" lon="5.77061">
        <ele>745.64</ele>
        <time>2021-09-18T10:24:45Z</time>
      </trkpt>
      <trkpt lat="44.38257" lon="5.77066">
        <ele>745.64</ele>
        <time>2021-09-18T10:24:46Z</time>
      </trkpt>
      <trkpt lat="44.38258" lon="5.77071">
        <ele>745.64</ele>
        <time>2021-09-18T10:24:47Z</time>
      </trkpt>
      <trkpt lat="44.38259" lon="5.77076">
        <ele>745.16</ele>
        <time>2021-09-18T10:24:48Z</time>
      </trkpt>
      <trkpt lat="44.38261" lon="5.77081">
        <ele>745.16</ele>
        <time>2021-09-18T10:24:49Z</time>
      </trkpt>
      <trkpt lat="44.38264" lon="5.77083">
        <ele>745.16</ele>
        <time>2021-09-18T10:24:50Z</time>
      </trkpt>
      <trkpt lat="44.38267" lon="5.77085">
        <ele>745.16</ele>
        <time>2021-09-18T10:24:51Z</time>
      </trkpt>
      <trkpt lat="44.38267" lon="5.77088">
        <ele>745.16</ele>
        <time>2021-09-18T10:24:52Z</time>
      </trkpt>
      <trkpt lat="44.38267" lon="5.77092">
        <ele>745.16</ele>
        <time>2021-09-18T10:24:53Z</time>
      </trkpt>
      <trkpt lat="44.38266" lon="5.77096">
        <ele>745.16</ele>
        <time>2021-09-18T10:24:54Z</time>
      </trkpt>
      <trkpt lat="44.38267" lon="5.77101">
        <ele>745.16</ele>
        <time>2021-09-18T10:24:55Z</time>
      </trkpt>
      <trkpt lat="44.38268" lon="5.77106">
        <ele>745.16</ele>
        <time>2021-09-18T10:24:56Z</time>
      </trkpt>
      <trkpt lat="44.38269" lon="5.7711">
        <ele>745.16</ele>
        <time>2021-09-18T10:24:57Z</time>
      </trkpt>
      <trkpt lat="44.38268" lon="5.77114">
        <ele>744.68</ele>
        <time>2021-09-18T10:24:58Z</time>
      </trkpt>
      <trkpt lat="44.38268" lon="5.77119">
        <ele>744.68</ele>
        <time>2021-09-18T10:24:59Z</time>
      </trkpt>
      <trkpt lat="44.38267" lon="5.77123">
        <ele>743.72</ele>
        <time>2021-09-18T10:25:00Z</time>
      </trkpt>
      <trkpt lat="44.38255" lon="5.77164">
        <ele>743.24</ele>
        <time>2021-09-18T10:25:10Z</time>
      </trkpt>
      <trkpt lat="44.38254" lon="5.77217">
        <ele>742.76</ele>
        <time>2021-09-18T10:25:21Z</time>
      </trkpt>
      <trkpt lat="44.38259" lon="5.77242">
        <ele>741.79</ele>
        <time>2021-09-18T10:25:26Z</time>
      </trkpt>
      <trkpt lat="44.38262" lon="5.77253">
        <ele>741.31</ele>
        <time>2021-09-18T10:25:28Z</time>
      </trkpt>
      <trkpt lat="44.38265" lon="5.77259">
        <ele>741.31</ele>
        <time>2021-09-18T10:25:29Z</time>
      </trkpt>
      <trkpt lat="44.38268" lon="5.77263">
        <ele>740.83</ele>
        <time>2021-09-18T10:25:30Z</time>
      </trkpt>
      <trkpt lat="44.38279" lon="5.77276">
        <ele>739.87</ele>
        <time>2021-09-18T10:25:33Z</time>
      </trkpt>
      <trkpt lat="44.38279" lon="5.7728">
        <ele>739.87</ele>
        <time>2021-09-18T10:25:34Z</time>
      </trkpt>
      <trkpt lat="44.3828" lon="5.77285">
        <ele>739.87</ele>
        <time>2021-09-18T10:25:35Z</time>
      </trkpt>
      <trkpt lat="44.38284" lon="5.773">
        <ele>739.87</ele>
        <time>2021-09-18T10:25:38Z</time>
      </trkpt>
      <trkpt lat="44.38293" lon="5.77323">
        <ele>741.31</ele>
        <time>2021-09-18T10:25:43Z</time>
      </trkpt>
      <trkpt lat="44.38294" lon="5.77328">
        <ele>741.31</ele>
        <time>2021-09-18T10:25:44Z</time>
      </trkpt>
      <trkpt lat="44.38303" lon="5.77385">
        <ele>741.79</ele>
        <time>2021-09-18T10:25:55Z</time>
      </trkpt>
      <trkpt lat="44.38307" lon="5.774">
        <ele>741.79</ele>
        <time>2021-09-18T10:25:58Z</time>
      </trkpt>
      <trkpt lat="44.3831" lon="5.77405">
        <ele>741.79</ele>
        <time>2021-09-18T10:25:59Z</time>
      </trkpt>
      <trkpt lat="44.38312" lon="5.77409">
        <ele>741.79</ele>
        <time>2021-09-18T10:26:00Z</time>
      </trkpt>
      <trkpt lat="44.38314" lon="5.77414">
        <ele>741.79</ele>
        <time>2021-09-18T10:26:01Z</time>
      </trkpt>
      <trkpt lat="44.38315" lon="5.77419">
        <ele>741.79</ele>
        <time>2021-09-18T10:26:02Z</time>
      </trkpt>
      <trkpt lat="44.38315" lon="5.77425">
        <ele>741.79</ele>
        <time>2021-09-18T10:26:03Z</time>
      </trkpt>
      <trkpt lat="44.38316" lon="5.77431">
        <ele>741.79</ele>
        <time>2021-09-18T10:26:04Z</time>
      </trkpt>
      <trkpt lat="44.38317" lon="5.77436">
        <ele>741.79</ele>
        <time>2021-09-18T10:26:05Z</time>
      </trkpt>
      <trkpt lat="44.38319" lon="5.77441">
        <ele>741.79</ele>
        <time>2021-09-18T10:26:06Z</time>
      </trkpt>
      <trkpt lat="44.38323" lon="5.77444">
        <ele>741.79</ele>
        <time>2021-09-18T10:26:07Z</time>
      </trkpt>
      <trkpt lat="44.38326" lon="5.77446">
        <ele>741.79</ele>
        <time>2021-09-18T10:26:08Z</time>
      </trkpt>
      <trkpt lat="44.38329" lon="5.7745">
        <ele>741.79</ele>
        <time>2021-09-18T10:26:09Z</time>
      </trkpt>
      <trkpt lat="44.3835" lon="5.77475">
        <ele>741.79</ele>
        <time>2021-09-18T10:26:17Z</time>
      </trkpt>
      <trkpt lat="44.38353" lon="5.77484">
        <ele>741.79</ele>
        <time>2021-09-18T10:26:19Z</time>
      </trkpt>
      <trkpt lat="44.38353" lon="5.77487">
        <ele>741.79</ele>
        <time>2021-09-18T10:26:20Z</time>
      </trkpt>
      <trkpt lat="44.38353" lon="5.77492">
        <ele>741.79</ele>
        <time>2021-09-18T10:26:21Z</time>
      </trkpt>
      <trkpt lat="44.38361" lon="5.77536">
        <ele>740.83</ele>
        <time>2021-09-18T10:26:31Z</time>
      </trkpt>
      <trkpt lat="44.3838" lon="5.77583">
        <ele>740.83</ele>
        <time>2021-09-18T10:26:42Z</time>
      </trkpt>
      <trkpt lat="44.38394" lon="5.77636">
        <ele>739.87</ele>
        <time>2021-09-18T10:26:52Z</time>
      </trkpt>
      <trkpt lat="44.38395" lon="5.77642">
        <ele>739.39</ele>
        <time>2021-09-18T10:26:53Z</time>
      </trkpt>
      <trkpt lat="44.38395" lon="5.77649">
        <ele>739.39</ele>
        <time>2021-09-18T10:26:54Z</time>
      </trkpt>
      <trkpt lat="44.38396" lon="5.77655">
        <ele>739.39</ele>
        <time>2021-09-18T10:26:55Z</time>
      </trkpt>
      <trkpt lat="44.38397" lon="5.7766">
        <ele>739.39</ele>
        <time>2021-09-18T10:26:56Z</time>
      </trkpt>
      <trkpt lat="44.38402" lon="5.77719">
        <ele>739.39</ele>
        <time>2021-09-18T10:27:07Z</time>
      </trkpt>
      <trkpt lat="44.38401" lon="5.77724">
        <ele>739.39</ele>
        <time>2021-09-18T10:27:08Z</time>
      </trkpt>
      <trkpt lat="44.38399" lon="5.7773">
        <ele>739.39</ele>
        <time>2021-09-18T10:27:09Z</time>
      </trkpt>
      <trkpt lat="44.38396" lon="5.77752">
        <ele>739.39</ele>
        <time>2021-09-18T10:27:13Z</time>
      </trkpt>
      <trkpt lat="44.38395" lon="5.7777">
        <ele>739.39</ele>
        <time>2021-09-18T10:27:16Z</time>
      </trkpt>
      <trkpt lat="44.38394" lon="5.77776">
        <ele>739.39</ele>
        <time>2021-09-18T10:27:17Z</time>
      </trkpt>
      <trkpt lat="44.38393" lon="5.77816">
        <ele>738.91</ele>
        <time>2021-09-18T10:27:23Z</time>
      </trkpt>
      <trkpt lat="44.38395" lon="5.77823">
        <ele>738.43</ele>
        <time>2021-09-18T10:27:24Z</time>
      </trkpt>
      <trkpt lat="44.38398" lon="5.77838">
        <ele>736.99</ele>
        <time>2021-09-18T10:27:26Z</time>
      </trkpt>
      <trkpt lat="44.384" lon="5.77845">
        <ele>736.99</ele>
        <time>2021-09-18T10:27:27Z</time>
      </trkpt>
      <trkpt lat="44.38405" lon="5.77894">
        <ele>736.03</ele>
        <time>2021-09-18T10:27:34Z</time>
      </trkpt>
      <trkpt lat="44.38406" lon="5.77901">
        <ele>736.03</ele>
        <time>2021-09-18T10:27:35Z</time>
      </trkpt>
      <trkpt lat="44.38406" lon="5.77907">
        <ele>736.03</ele>
        <time>2021-09-18T10:27:36Z</time>
      </trkpt>
      <trkpt lat="44.3841" lon="5.77948">
        <ele>736.03</ele>
        <time>2021-09-18T10:27:43Z</time>
      </trkpt>
      <trkpt lat="44.38415" lon="5.77988">
        <ele>737.95</ele>
        <time>2021-09-18T10:27:51Z</time>
      </trkpt>
      <trkpt lat="44.38433" lon="5.78031">
        <ele>739.87</ele>
        <time>2021-09-18T10:28:03Z</time>
      </trkpt>
      <trkpt lat="44.38457" lon="5.78083">
        <ele>739.87</ele>
        <time>2021-09-18T10:28:15Z</time>
      </trkpt>
      <trkpt lat="44.38459" lon="5.78088">
        <ele>739.87</ele>
        <time>2021-09-18T10:28:16Z</time>
      </trkpt>
      <trkpt lat="44.38462" lon="5.78105">
        <ele>737.95</ele>
        <time>2021-09-18T10:28:19Z</time>
      </trkpt>
      <trkpt lat="44.38464" lon="5.78128">
        <ele>737.95</ele>
        <time>2021-09-18T10:28:23Z</time>
      </trkpt>
      <trkpt lat="44.38469" lon="5.78147">
        <ele>737.47</ele>
        <time>2021-09-18T10:28:26Z</time>
      </trkpt>
      <trkpt lat="44.38471" lon="5.78153">
        <ele>736.51</ele>
        <time>2021-09-18T10:28:27Z</time>
      </trkpt>
      <trkpt lat="44.38483" lon="5.78183">
        <ele>736.03</ele>
        <time>2021-09-18T10:28:32Z</time>
      </trkpt>
      <trkpt lat="44.38495" lon="5.78222">
        <ele>735.07</ele>
        <time>2021-09-18T10:28:38Z</time>
      </trkpt>
      <trkpt lat="44.38498" lon="5.78228">
        <ele>735.07</ele>
        <time>2021-09-18T10:28:39Z</time>
      </trkpt>
      <trkpt lat="44.38502" lon="5.78234">
        <ele>735.07</ele>
        <time>2021-09-18T10:28:40Z</time>
      </trkpt>
      <trkpt lat="44.38512" lon="5.78254">
        <ele>735.07</ele>
        <time>2021-09-18T10:28:43Z</time>
      </trkpt>
      <trkpt lat="44.38515" lon="5.78259">
        <ele>735.07</ele>
        <time>2021-09-18T10:28:44Z</time>
      </trkpt>
      <trkpt lat="44.38527" lon="5.78287">
        <ele>735.07</ele>
        <time>2021-09-18T10:28:49Z</time>
      </trkpt>
      <trkpt lat="44.3853" lon="5.78293">
        <ele>735.07</ele>
        <time>2021-09-18T10:28:50Z</time>
      </trkpt>
      <trkpt lat="44.38542" lon="5.78314">
        <ele>734.58</ele>
        <time>2021-09-18T10:28:54Z</time>
      </trkpt>
      <trkpt lat="44.38551" lon="5.78329">
        <ele>734.58</ele>
        <time>2021-09-18T10:28:57Z</time>
      </trkpt>
      <trkpt lat="44.38555" lon="5.78334">
        <ele>734.58</ele>
        <time>2021-09-18T10:28:58Z</time>
      </trkpt>
      <trkpt lat="44.3856" lon="5.78339">
        <ele>734.58</ele>
        <time>2021-09-18T10:28:59Z</time>
      </trkpt>
      <trkpt lat="44.38575" lon="5.78356">
        <ele>734.58</ele>
        <time>2021-09-18T10:29:03Z</time>
      </trkpt>
      <trkpt lat="44.38586" lon="5.7837">
        <ele>734.58</ele>
        <time>2021-09-18T10:29:06Z</time>
      </trkpt>
      <trkpt lat="44.38601" lon="5.7839">
        <ele>734.58</ele>
        <time>2021-09-18T10:29:11Z</time>
      </trkpt>
      <trkpt lat="44.38611" lon="5.78403">
        <ele>736.03</ele>
        <time>2021-09-18T10:29:16Z</time>
      </trkpt>
      <trkpt lat="44.38615" lon="5.78411">
        <ele>736.51</ele>
        <time>2021-09-18T10:29:20Z</time>
      </trkpt>
      <trkpt lat="44.38615" lon="5.78414">
        <ele>736.99</ele>
        <time>2021-09-18T10:29:21Z</time>
      </trkpt>
      <trkpt lat="44.38626" lon="5.78448">
        <ele>738.43</ele>
        <time>2021-09-18T10:29:32Z</time>
      </trkpt>
      <trkpt lat="44.38646" lon="5.78483">
        <ele>739.39</ele>
        <time>2021-09-18T10:29:44Z</time>
      </trkpt>
      <trkpt lat="44.38655" lon="5.78518">
        <ele>740.35</ele>
        <time>2021-09-18T10:29:56Z</time>
      </trkpt>
      <trkpt lat="44.38668" lon="5.78562">
        <ele>742.28</ele>
        <time>2021-09-18T10:30:10Z</time>
      </trkpt>
      <trkpt lat="44.38682" lon="5.78586">
        <ele>743.72</ele>
        <time>2021-09-18T10:30:20Z</time>
      </trkpt>
      <trkpt lat="44.38683" lon="5.78595">
        <ele>743.72</ele>
        <time>2021-09-18T10:30:23Z</time>
      </trkpt>
      <trkpt lat="44.38686" lon="5.78608">
        <ele>744.2</ele>
        <time>2021-09-18T10:30:27Z</time>
      </trkpt>
      <trkpt lat="44.38686" lon="5.78647">
        <ele>745.64</ele>
        <time>2021-09-18T10:30:38Z</time>
      </trkpt>
      <trkpt lat="44.38686" lon="5.7865">
        <ele>745.64</ele>
        <time>2021-09-18T10:30:39Z</time>
      </trkpt>
      <trkpt lat="44.38687" lon="5.78653">
        <ele>745.64</ele>
        <time>2021-09-18T10:30:40Z</time>
      </trkpt>
      <trkpt lat="44.387" lon="5.78674">
        <ele>746.6</ele>
        <time>2021-09-18T10:30:50Z</time>
      </trkpt>
      <trkpt lat="44.38703" lon="5.78675">
        <ele>746.6</ele>
        <time>2021-09-18T10:30:51Z</time>
      </trkpt>
      <trkpt lat="44.38723" lon="5.78688">
        <ele>747.56</ele>
        <time>2021-09-18T10:31:01Z</time>
      </trkpt>
      <trkpt lat="44.3874" lon="5.7871">
        <ele>749.49</ele>
        <time>2021-09-18T10:31:12Z</time>
      </trkpt>
      <trkpt lat="44.38743" lon="5.78745">
        <ele>750.45</ele>
        <time>2021-09-18T10:31:23Z</time>
      </trkpt>
      <trkpt lat="44.38743" lon="5.78748">
        <ele>750.93</ele>
        <time>2021-09-18T10:31:24Z</time>
      </trkpt>
      <trkpt lat="44.38743" lon="5.78751">
        <ele>751.41</ele>
        <time>2021-09-18T10:31:25Z</time>
      </trkpt>
      <trkpt lat="44.38744" lon="5.78754">
        <ele>751.41</ele>
        <time>2021-09-18T10:31:26Z</time>
      </trkpt>
      <trkpt lat="44.38745" lon="5.78757">
        <ele>751.41</ele>
        <time>2021-09-18T10:31:27Z</time>
      </trkpt>
      <trkpt lat="44.38745" lon="5.7876">
        <ele>751.41</ele>
        <time>2021-09-18T10:31:28Z</time>
      </trkpt>
      <trkpt lat="44.38746" lon="5.78764">
        <ele>751.41</ele>
        <time>2021-09-18T10:31:29Z</time>
      </trkpt>
      <trkpt lat="44.38746" lon="5.78767">
        <ele>751.89</ele>
        <time>2021-09-18T10:31:30Z</time>
      </trkpt>
      <trkpt lat="44.38749" lon="5.78799">
        <ele>753.33</ele>
        <time>2021-09-18T10:31:40Z</time>
      </trkpt>
      <trkpt lat="44.38773" lon="5.78824">
        <ele>754.29</ele>
        <time>2021-09-18T10:31:51Z</time>
      </trkpt>
      <trkpt lat="44.38789" lon="5.78833">
        <ele>754.77</ele>
        <time>2021-09-18T10:32:00Z</time>
      </trkpt>
      <trkpt lat="44.3881" lon="5.78853">
        <ele>756.21</ele>
        <time>2021-09-18T10:32:09Z</time>
      </trkpt>
      <trkpt lat="44.38819" lon="5.78864">
        <ele>757.18</ele>
        <time>2021-09-18T10:32:13Z</time>
      </trkpt>
      <trkpt lat="44.38819" lon="5.78873">
        <ele>757.18</ele>
        <time>2021-09-18T10:32:16Z</time>
      </trkpt>
      <trkpt lat="44.38823" lon="5.78906">
        <ele>758.14</ele>
        <time>2021-09-18T10:32:26Z</time>
      </trkpt>
      <trkpt lat="44.38823" lon="5.78908">
        <ele>758.14</ele>
        <time>2021-09-18T10:32:27Z</time>
      </trkpt>
      <trkpt lat="44.38822" lon="5.7891">
        <ele>758.62</ele>
        <time>2021-09-18T10:32:28Z</time>
      </trkpt>
      <trkpt lat="44.38823" lon="5.78925">
        <ele>760.54</ele>
        <time>2021-09-18T10:32:40Z</time>
      </trkpt>
      <trkpt lat="44.38822" lon="5.7893">
        <ele>761.02</ele>
        <time>2021-09-18T10:32:50Z</time>
      </trkpt>
      <trkpt lat="44.38821" lon="5.78931">
        <ele>761.02</ele>
        <time>2021-09-18T10:32:51Z</time>
      </trkpt>
      <trkpt lat="44.38819" lon="5.78933">
        <ele>761.02</ele>
        <time>2021-09-18T10:32:53Z</time>
      </trkpt>
      <trkpt lat="44.38819" lon="5.78934">
        <ele>761.98</ele>
        <time>2021-09-18T10:32:54Z</time>
      </trkpt>
      <trkpt lat="44.38814" lon="5.7894">
        <ele>762.94</ele>
        <time>2021-09-18T10:32:59Z</time>
      </trkpt>
      <trkpt lat="44.38812" lon="5.78942">
        <ele>762.94</ele>
        <time>2021-09-18T10:33:00Z</time>
      </trkpt>
      <trkpt lat="44.38811" lon="5.78945">
        <ele>762.94</ele>
        <time>2021-09-18T10:33:01Z</time>
      </trkpt>
      <trkpt lat="44.38808" lon="5.78954">
        <ele>763.42</ele>
        <time>2021-09-18T10:33:04Z</time>
      </trkpt>
      <trkpt lat="44.38804" lon="5.78952">
        <ele>763.9</ele>
        <time>2021-09-18T10:33:06Z</time>
      </trkpt>
      <trkpt lat="44.38802" lon="5.78954">
        <ele>764.39</ele>
        <time>2021-09-18T10:33:08Z</time>
      </trkpt>
      <trkpt lat="44.38788" lon="5.78971">
        <ele>766.79</ele>
        <time>2021-09-18T10:33:20Z</time>
      </trkpt>
      <trkpt lat="44.38787" lon="5.78973">
        <ele>766.79</ele>
        <time>2021-09-18T10:33:21Z</time>
      </trkpt>
      <trkpt lat="44.38787" lon="5.78974">
        <ele>767.27</ele>
        <time>2021-09-18T10:33:22Z</time>
      </trkpt>
      <trkpt lat="44.38786" lon="5.78976">
        <ele>767.27</ele>
        <time>2021-09-18T10:33:23Z</time>
      </trkpt>
      <trkpt lat="44.38786" lon="5.78978">
        <ele>767.75</ele>
        <time>2021-09-18T10:33:24Z</time>
      </trkpt>
      <trkpt lat="44.38786" lon="5.78979">
        <ele>767.75</ele>
        <time>2021-09-18T10:33:25Z</time>
      </trkpt>
      <trkpt lat="44.38787" lon="5.78981">
        <ele>767.75</ele>
        <time>2021-09-18T10:33:26Z</time>
      </trkpt>
      <trkpt lat="44.38787" lon="5.78986">
        <ele>768.71</ele>
        <time>2021-09-18T10:33:29Z</time>
      </trkpt>
      <trkpt lat="44.38787" lon="5.78988">
        <ele>768.71</ele>
        <time>2021-09-18T10:33:30Z</time>
      </trkpt>
      <trkpt lat="44.38786" lon="5.79002">
        <ele>769.67</ele>
        <time>2021-09-18T10:33:36Z</time>
      </trkpt>
      <trkpt lat="44.38787" lon="5.79005">
        <ele>770.63</ele>
        <time>2021-09-18T10:33:38Z</time>
      </trkpt>
      <trkpt lat="44.38787" lon="5.79009">
        <ele>771.11</ele>
        <time>2021-09-18T10:33:40Z</time>
      </trkpt>
      <trkpt lat="44.38788" lon="5.79011">
        <ele>772.08</ele>
        <time>2021-09-18T10:33:42Z</time>
      </trkpt>
      <trkpt lat="44.38788" lon="5.79012">
        <ele>772.08</ele>
        <time>2021-09-18T10:33:43Z</time>
      </trkpt>
      <trkpt lat="44.38798" lon="5.79029">
        <ele>774</ele>
        <time>2021-09-18T10:33:54Z</time>
      </trkpt>
      <trkpt lat="44.388" lon="5.79032">
        <ele>774.96</ele>
        <time>2021-09-18T10:33:57Z</time>
      </trkpt>
      <trkpt lat="44.38804" lon="5.79035">
        <ele>775.44</ele>
        <time>2021-09-18T10:34:00Z</time>
      </trkpt>
      <trkpt lat="44.38809" lon="5.79037">
        <ele>775.92</ele>
        <time>2021-09-18T10:34:03Z</time>
      </trkpt>
      <trkpt lat="44.38809" lon="5.79038">
        <ele>776.4</ele>
        <time>2021-09-18T10:34:04Z</time>
      </trkpt>
      <trkpt lat="44.38811" lon="5.79041">
        <ele>776.88</ele>
        <time>2021-09-18T10:34:07Z</time>
      </trkpt>
      <trkpt lat="44.38811" lon="5.79043">
        <ele>777.36</ele>
        <time>2021-09-18T10:34:08Z</time>
      </trkpt>
      <trkpt lat="44.38811" lon="5.79044">
        <ele>777.36</ele>
        <time>2021-09-18T10:34:09Z</time>
      </trkpt>
      <trkpt lat="44.3881" lon="5.79046">
        <ele>777.36</ele>
        <time>2021-09-18T10:34:10Z</time>
      </trkpt>
      <trkpt lat="44.38808" lon="5.79047">
        <ele>777.84</ele>
        <time>2021-09-18T10:34:11Z</time>
      </trkpt>
      <trkpt lat="44.38808" lon="5.79048">
        <ele>778.32</ele>
        <time>2021-09-18T10:34:12Z</time>
      </trkpt>
      <trkpt lat="44.388" lon="5.79066">
        <ele>779.77</ele>
        <time>2021-09-18T10:34:24Z</time>
      </trkpt>
      <trkpt lat="44.38799" lon="5.79071">
        <ele>780.73</ele>
        <time>2021-09-18T10:34:33Z</time>
      </trkpt>
      <trkpt lat="44.38793" lon="5.79069">
        <ele>781.21</ele>
        <time>2021-09-18T10:34:52Z</time>
      </trkpt>
      <trkpt lat="44.38799" lon="5.79071">
        <ele>781.21</ele>
        <time>2021-09-18T10:35:20Z</time>
      </trkpt>
      <trkpt lat="44.38806" lon="5.79071">
        <ele>781.21</ele>
        <time>2021-09-18T10:35:40Z</time>
      </trkpt>
      <trkpt lat="44.3881" lon="5.79072">
        <ele>781.21</ele>
        <time>2021-09-18T10:36:13Z</time>
      </trkpt>
      <trkpt lat="44.38814" lon="5.79072">
        <ele>781.21</ele>
        <time>2021-09-18T10:36:43Z</time>
      </trkpt>
      <trkpt lat="44.38802" lon="5.7906">
        <ele>781.21</ele>
        <time>2021-09-18T10:37:14Z</time>
      </trkpt>
      <trkpt lat="44.38804" lon="5.79073">
        <ele>781.21</ele>
        <time>2021-09-18T10:37:41Z</time>
      </trkpt>
      <trkpt lat="44.38807" lon="5.79073">
        <ele>781.69</ele>
        <time>2021-09-18T10:38:12Z</time>
      </trkpt>
      <trkpt lat="44.38805" lon="5.79074">
        <ele>781.69</ele>
        <time>2021-09-18T10:38:27Z</time>
      </trkpt>
      <trkpt lat="44.38802" lon="5.79077">
        <ele>781.69</ele>
        <time>2021-09-18T10:38:38Z</time>
      </trkpt>
      <trkpt lat="44.38801" lon="5.79078">
        <ele>781.69</ele>
        <time>2021-09-18T10:38:39Z</time>
      </trkpt>
      <trkpt lat="44.388" lon="5.7908">
        <ele>781.69</ele>
        <time>2021-09-18T10:38:40Z</time>
      </trkpt>
      <trkpt lat="44.388" lon="5.79082">
        <ele>782.17</ele>
        <time>2021-09-18T10:38:41Z</time>
      </trkpt>
      <trkpt lat="44.38799" lon="5.79083">
        <ele>782.17</ele>
        <time>2021-09-18T10:38:42Z</time>
      </trkpt>
      <trkpt lat="44.38798" lon="5.79085">
        <ele>782.17</ele>
        <time>2021-09-18T10:38:43Z</time>
      </trkpt>
      <trkpt lat="44.38798" lon="5.79087">
        <ele>782.65</ele>
        <time>2021-09-18T10:38:44Z</time>
      </trkpt>
      <trkpt lat="44.38797" lon="5.79088">
        <ele>782.65</ele>
        <time>2021-09-18T10:38:45Z</time>
      </trkpt>
      <trkpt lat="44.38795" lon="5.79089">
        <ele>782.65</ele>
        <time>2021-09-18T10:38:46Z</time>
      </trkpt>
      <trkpt lat="44.38794" lon="5.79091">
        <ele>783.13</ele>
        <time>2021-09-18T10:38:47Z</time>
      </trkpt>
      <trkpt lat="44.38794" lon="5.79092">
        <ele>783.13</ele>
        <time>2021-09-18T10:38:48Z</time>
      </trkpt>
      <trkpt lat="44.38794" lon="5.79094">
        <ele>783.13</ele>
        <time>2021-09-18T10:38:49Z</time>
      </trkpt>
      <trkpt lat="44.38793" lon="5.79096">
        <ele>784.09</ele>
        <time>2021-09-18T10:38:50Z</time>
      </trkpt>
      <trkpt lat="44.38792" lon="5.79099">
        <ele>784.09</ele>
        <time>2021-09-18T10:38:52Z</time>
      </trkpt>
      <trkpt lat="44.38791" lon="5.79102">
        <ele>784.57</ele>
        <time>2021-09-18T10:38:53Z</time>
      </trkpt>
      <trkpt lat="44.38785" lon="5.79108">
        <ele>786.02</ele>
        <time>2021-09-18T10:39:03Z</time>
      </trkpt>
      <trkpt lat="44.38777" lon="5.7911">
        <ele>786.5</ele>
        <time>2021-09-18T10:39:07Z</time>
      </trkpt>
      <trkpt lat="44.38773" lon="5.79112">
        <ele>786.98</ele>
        <time>2021-09-18T10:39:10Z</time>
      </trkpt>
      <trkpt lat="44.38762" lon="5.79115">
        <ele>788.42</ele>
        <time>2021-09-18T10:39:19Z</time>
      </trkpt>
      <trkpt lat="44.38756" lon="5.79118">
        <ele>788.9</ele>
        <time>2021-09-18T10:39:23Z</time>
      </trkpt>
      <trkpt lat="44.38753" lon="5.79123">
        <ele>789.86</ele>
        <time>2021-09-18T10:39:27Z</time>
      </trkpt>
      <trkpt lat="44.38747" lon="5.79129">
        <ele>789.86</ele>
        <time>2021-09-18T10:39:33Z</time>
      </trkpt>
      <trkpt lat="44.38749" lon="5.79135">
        <ele>791.3</ele>
        <time>2021-09-18T10:39:41Z</time>
      </trkpt>
      <trkpt lat="44.38751" lon="5.79135">
        <ele>791.78</ele>
        <time>2021-09-18T10:39:48Z</time>
      </trkpt>
      <trkpt lat="44.38758" lon="5.79138">
        <ele>793.71</ele>
        <time>2021-09-18T10:39:58Z</time>
      </trkpt>
      <trkpt lat="44.38769" lon="5.79141">
        <ele>795.15</ele>
        <time>2021-09-18T10:40:09Z</time>
      </trkpt>
      <trkpt lat="44.38776" lon="5.79154">
        <ele>797.55</ele>
        <time>2021-09-18T10:40:20Z</time>
      </trkpt>
      <trkpt lat="44.38775" lon="5.79174">
        <ele>799.47</ele>
        <time>2021-09-18T10:40:31Z</time>
      </trkpt>
      <trkpt lat="44.38776" lon="5.79192">
        <ele>800.92</ele>
        <time>2021-09-18T10:40:39Z</time>
      </trkpt>
      <trkpt lat="44.38776" lon="5.79204">
        <ele>802.36</ele>
        <time>2021-09-18T10:40:46Z</time>
      </trkpt>
      <trkpt lat="44.38776" lon="5.79206">
        <ele>802.36</ele>
        <time>2021-09-18T10:40:47Z</time>
      </trkpt>
      <trkpt lat="44.38776" lon="5.79208">
        <ele>802.84</ele>
        <time>2021-09-18T10:40:48Z</time>
      </trkpt>
      <trkpt lat="44.38776" lon="5.7921">
        <ele>803.32</ele>
        <time>2021-09-18T10:40:49Z</time>
      </trkpt>
      <trkpt lat="44.38777" lon="5.79212">
        <ele>803.32</ele>
        <time>2021-09-18T10:40:50Z</time>
      </trkpt>
      <trkpt lat="44.38777" lon="5.79218">
        <ele>803.8</ele>
        <time>2021-09-18T10:40:53Z</time>
      </trkpt>
      <trkpt lat="44.38778" lon="5.7922">
        <ele>804.28</ele>
        <time>2021-09-18T10:40:54Z</time>
      </trkpt>
      <trkpt lat="44.38778" lon="5.79221">
        <ele>804.28</ele>
        <time>2021-09-18T10:40:55Z</time>
      </trkpt>
      <trkpt lat="44.38786" lon="5.79236">
        <ele>806.68</ele>
        <time>2021-09-18T10:41:05Z</time>
      </trkpt>
      <trkpt lat="44.38787" lon="5.79237">
        <ele>806.68</ele>
        <time>2021-09-18T10:41:06Z</time>
      </trkpt>
      <trkpt lat="44.38788" lon="5.79238">
        <ele>807.16</ele>
        <time>2021-09-18T10:41:07Z</time>
      </trkpt>
      <trkpt lat="44.38791" lon="5.79241">
        <ele>808.13</ele>
        <time>2021-09-18T10:41:18Z</time>
      </trkpt>
      <trkpt lat="44.38792" lon="5.79237">
        <ele>809.09</ele>
        <time>2021-09-18T10:41:22Z</time>
      </trkpt>
      <trkpt lat="44.38794" lon="5.79229">
        <ele>810.05</ele>
        <time>2021-09-18T10:41:33Z</time>
      </trkpt>
      <trkpt lat="44.38797" lon="5.79213">
        <ele>811.01</ele>
        <time>2021-09-18T10:41:46Z</time>
      </trkpt>
      <trkpt lat="44.38803" lon="5.79202">
        <ele>812.45</ele>
        <time>2021-09-18T10:41:53Z</time>
      </trkpt>
      <trkpt lat="44.38804" lon="5.792">
        <ele>812.93</ele>
        <time>2021-09-18T10:41:54Z</time>
      </trkpt>
      <trkpt lat="44.38805" lon="5.79199">
        <ele>812.93</ele>
        <time>2021-09-18T10:41:55Z</time>
      </trkpt>
      <trkpt lat="44.38812" lon="5.7919">
        <ele>814.85</ele>
        <time>2021-09-18T10:42:01Z</time>
      </trkpt>
      <trkpt lat="44.38813" lon="5.79188">
        <ele>814.85</ele>
        <time>2021-09-18T10:42:02Z</time>
      </trkpt>
      <trkpt lat="44.38813" lon="5.79187">
        <ele>814.85</ele>
        <time>2021-09-18T10:42:03Z</time>
      </trkpt>
      <trkpt lat="44.38815" lon="5.79185">
        <ele>814.85</ele>
        <time>2021-09-18T10:42:04Z</time>
      </trkpt>
      <trkpt lat="44.38816" lon="5.79184">
        <ele>815.34</ele>
        <time>2021-09-18T10:42:05Z</time>
      </trkpt>
      <trkpt lat="44.38817" lon="5.79183">
        <ele>815.34</ele>
        <time>2021-09-18T10:42:06Z</time>
      </trkpt>
      <trkpt lat="44.38818" lon="5.79182">
        <ele>815.82</ele>
        <time>2021-09-18T10:42:07Z</time>
      </trkpt>
      <trkpt lat="44.38819" lon="5.79181">
        <ele>815.82</ele>
        <time>2021-09-18T10:42:08Z</time>
      </trkpt>
      <trkpt lat="44.38821" lon="5.79181">
        <ele>816.3</ele>
        <time>2021-09-18T10:42:09Z</time>
      </trkpt>
      <trkpt lat="44.38822" lon="5.7918">
        <ele>816.3</ele>
        <time>2021-09-18T10:42:10Z</time>
      </trkpt>
      <trkpt lat="44.38823" lon="5.7918">
        <ele>816.3</ele>
        <time>2021-09-18T10:42:11Z</time>
      </trkpt>
      <trkpt lat="44.38825" lon="5.79181">
        <ele>816.78</ele>
        <time>2021-09-18T10:42:12Z</time>
      </trkpt>
      <trkpt lat="44.38826" lon="5.79181">
        <ele>816.78</ele>
        <time>2021-09-18T10:42:13Z</time>
      </trkpt>
      <trkpt lat="44.38828" lon="5.79182">
        <ele>817.26</ele>
        <time>2021-09-18T10:42:14Z</time>
      </trkpt>
      <trkpt lat="44.38829" lon="5.79184">
        <ele>817.26</ele>
        <time>2021-09-18T10:42:15Z</time>
      </trkpt>
      <trkpt lat="44.38829" lon="5.79185">
        <ele>817.26</ele>
        <time>2021-09-18T10:42:16Z</time>
      </trkpt>
      <trkpt lat="44.3883" lon="5.79187">
        <ele>817.26</ele>
        <time>2021-09-18T10:42:17Z</time>
      </trkpt>
      <trkpt lat="44.3884" lon="5.79209">
        <ele>820.62</ele>
        <time>2021-09-18T10:42:31Z</time>
      </trkpt>
      <trkpt lat="44.38854" lon="5.79227">
        <ele>822.55</ele>
        <time>2021-09-18T10:42:45Z</time>
      </trkpt>
      <trkpt lat="44.38869" lon="5.79243">
        <ele>825.91</ele>
        <time>2021-09-18T10:42:59Z</time>
      </trkpt>
      <trkpt lat="44.38884" lon="5.79254">
        <ele>828.79</ele>
        <time>2021-09-18T10:43:11Z</time>
      </trkpt>
      <trkpt lat="44.38899" lon="5.79264">
        <ele>830.72</ele>
        <time>2021-09-18T10:43:23Z</time>
      </trkpt>
      <trkpt lat="44.3891" lon="5.79268">
        <ele>832.16</ele>
        <time>2021-09-18T10:43:32Z</time>
      </trkpt>
      <trkpt lat="44.38911" lon="5.79269">
        <ele>832.64</ele>
        <time>2021-09-18T10:43:33Z</time>
      </trkpt>
      <trkpt lat="44.38917" lon="5.79271">
        <ele>833.6</ele>
        <time>2021-09-18T10:43:38Z</time>
      </trkpt>
      <trkpt lat="44.38917" lon="5.79274">
        <ele>834.08</ele>
        <time>2021-09-18T10:43:41Z</time>
      </trkpt>
      <trkpt lat="44.38917" lon="5.79276">
        <ele>834.08</ele>
        <time>2021-09-18T10:43:42Z</time>
      </trkpt>
      <trkpt lat="44.38903" lon="5.79291">
        <ele>835.04</ele>
        <time>2021-09-18T10:43:55Z</time>
      </trkpt>
      <trkpt lat="44.38893" lon="5.79303">
        <ele>836.48</ele>
        <time>2021-09-18T10:44:03Z</time>
      </trkpt>
      <trkpt lat="44.38893" lon="5.79305">
        <ele>836.48</ele>
        <time>2021-09-18T10:44:04Z</time>
      </trkpt>
      <trkpt lat="44.38891" lon="5.79306">
        <ele>836.96</ele>
        <time>2021-09-18T10:44:05Z</time>
      </trkpt>
      <trkpt lat="44.3889" lon="5.79307">
        <ele>836.96</ele>
        <time>2021-09-18T10:44:06Z</time>
      </trkpt>
      <trkpt lat="44.38889" lon="5.79308">
        <ele>836.96</ele>
        <time>2021-09-18T10:44:07Z</time>
      </trkpt>
      <trkpt lat="44.38882" lon="5.79319">
        <ele>837.93</ele>
        <time>2021-09-18T10:44:14Z</time>
      </trkpt>
      <trkpt lat="44.38881" lon="5.79321">
        <ele>838.41</ele>
        <time>2021-09-18T10:44:15Z</time>
      </trkpt>
      <trkpt lat="44.38881" lon="5.79322">
        <ele>838.41</ele>
        <time>2021-09-18T10:44:16Z</time>
      </trkpt>
      <trkpt lat="44.38872" lon="5.79334">
        <ele>839.85</ele>
        <time>2021-09-18T10:44:24Z</time>
      </trkpt>
      <trkpt lat="44.38871" lon="5.79336">
        <ele>840.33</ele>
        <time>2021-09-18T10:44:25Z</time>
      </trkpt>
      <trkpt lat="44.3887" lon="5.79338">
        <ele>840.33</ele>
        <time>2021-09-18T10:44:26Z</time>
      </trkpt>
      <trkpt lat="44.38869" lon="5.7934">
        <ele>840.33</ele>
        <time>2021-09-18T10:44:27Z</time>
      </trkpt>
      <trkpt lat="44.38868" lon="5.79342">
        <ele>840.33</ele>
        <time>2021-09-18T10:44:28Z</time>
      </trkpt>
      <trkpt lat="44.38867" lon="5.79344">
        <ele>840.81</ele>
        <time>2021-09-18T10:44:29Z</time>
      </trkpt>
      <trkpt lat="44.38865" lon="5.79345">
        <ele>840.81</ele>
        <time>2021-09-18T10:44:30Z</time>
      </trkpt>
      <trkpt lat="44.38864" lon="5.79347">
        <ele>840.81</ele>
        <time>2021-09-18T10:44:31Z</time>
      </trkpt>
      <trkpt lat="44.38863" lon="5.79349">
        <ele>841.29</ele>
        <time>2021-09-18T10:44:32Z</time>
      </trkpt>
      <trkpt lat="44.38862" lon="5.7935">
        <ele>841.29</ele>
        <time>2021-09-18T10:44:33Z</time>
      </trkpt>
      <trkpt lat="44.38855" lon="5.79374">
        <ele>843.21</ele>
        <time>2021-09-18T10:44:46Z</time>
      </trkpt>
      <trkpt lat="44.38853" lon="5.79393">
        <ele>845.14</ele>
        <time>2021-09-18T10:44:58Z</time>
      </trkpt>
      <trkpt lat="44.38853" lon="5.79395">
        <ele>845.14</ele>
        <time>2021-09-18T10:44:59Z</time>
      </trkpt>
      <trkpt lat="44.38853" lon="5.79402">
        <ele>846.1</ele>
        <time>2021-09-18T10:45:03Z</time>
      </trkpt>
      <trkpt lat="44.38852" lon="5.79403">
        <ele>846.1</ele>
        <time>2021-09-18T10:45:04Z</time>
      </trkpt>
      <trkpt lat="44.38851" lon="5.79404">
        <ele>846.58</ele>
        <time>2021-09-18T10:45:05Z</time>
      </trkpt>
      <trkpt lat="44.3885" lon="5.79404">
        <ele>846.58</ele>
        <time>2021-09-18T10:45:06Z</time>
      </trkpt>
      <trkpt lat="44.38849" lon="5.79403">
        <ele>847.06</ele>
        <time>2021-09-18T10:45:07Z</time>
      </trkpt>
      <trkpt lat="44.38848" lon="5.79401">
        <ele>847.06</ele>
        <time>2021-09-18T10:45:08Z</time>
      </trkpt>
      <trkpt lat="44.38848" lon="5.79399">
        <ele>847.06</ele>
        <time>2021-09-18T10:45:09Z</time>
      </trkpt>
      <trkpt lat="44.38847" lon="5.79396">
        <ele>847.06</ele>
        <time>2021-09-18T10:45:11Z</time>
      </trkpt>
      <trkpt lat="44.38847" lon="5.79394">
        <ele>847.06</ele>
        <time>2021-09-18T10:45:12Z</time>
      </trkpt>
      <trkpt lat="44.38845" lon="5.79388">
        <ele>847.06</ele>
        <time>2021-09-18T10:45:16Z</time>
      </trkpt>
      <trkpt lat="44.38844" lon="5.79387">
        <ele>847.06</ele>
        <time>2021-09-18T10:45:17Z</time>
      </trkpt>
      <trkpt lat="44.38842" lon="5.79386">
        <ele>847.06</ele>
        <time>2021-09-18T10:45:18Z</time>
      </trkpt>
      <trkpt lat="44.38841" lon="5.79384">
        <ele>847.06</ele>
        <time>2021-09-18T10:45:19Z</time>
      </trkpt>
      <trkpt lat="44.3884" lon="5.79382">
        <ele>847.54</ele>
        <time>2021-09-18T10:45:28Z</time>
      </trkpt>
      <trkpt lat="44.38839" lon="5.79378">
        <ele>847.54</ele>
        <time>2021-09-18T10:45:49Z</time>
      </trkpt>
      <trkpt lat="44.38841" lon="5.79384">
        <ele>847.54</ele>
        <time>2021-09-18T10:46:12Z</time>
      </trkpt>
      <trkpt lat="44.3884" lon="5.79382">
        <ele>847.54</ele>
        <time>2021-09-18T10:46:42Z</time>
      </trkpt>
      <trkpt lat="44.3884" lon="5.79381">
        <ele>847.54</ele>
        <time>2021-09-18T10:47:04Z</time>
      </trkpt>
      <trkpt lat="44.38829" lon="5.79372">
        <ele>847.54</ele>
        <time>2021-09-18T10:47:19Z</time>
      </trkpt>
      <trkpt lat="44.38807" lon="5.79385">
        <ele>848.98</ele>
        <time>2021-09-18T10:47:33Z</time>
      </trkpt>
      <trkpt lat="44.38788" lon="5.79398">
        <ele>852.35</ele>
        <time>2021-09-18T10:47:46Z</time>
      </trkpt>
      <trkpt lat="44.38766" lon="5.79412">
        <ele>854.27</ele>
        <time>2021-09-18T10:48:00Z</time>
      </trkpt>
      <trkpt lat="44.38748" lon="5.79437">
        <ele>856.19</ele>
        <time>2021-09-18T10:48:15Z</time>
      </trkpt>
      <trkpt lat="44.38731" lon="5.79469">
        <ele>858.59</ele>
        <time>2021-09-18T10:48:32Z</time>
      </trkpt>
      <trkpt lat="44.38727" lon="5.79481">
        <ele>859.08</ele>
        <time>2021-09-18T10:48:38Z</time>
      </trkpt>
      <trkpt lat="44.38725" lon="5.79483">
        <ele>859.56</ele>
        <time>2021-09-18T10:48:39Z</time>
      </trkpt>
      <trkpt lat="44.38724" lon="5.79485">
        <ele>859.56</ele>
        <time>2021-09-18T10:48:40Z</time>
      </trkpt>
      <trkpt lat="44.38724" lon="5.79487">
        <ele>859.56</ele>
        <time>2021-09-18T10:48:41Z</time>
      </trkpt>
      <trkpt lat="44.38722" lon="5.79488">
        <ele>860.04</ele>
        <time>2021-09-18T10:48:42Z</time>
      </trkpt>
      <trkpt lat="44.38721" lon="5.7949">
        <ele>860.04</ele>
        <time>2021-09-18T10:48:43Z</time>
      </trkpt>
      <trkpt lat="44.3872" lon="5.79492">
        <ele>860.04</ele>
        <time>2021-09-18T10:48:44Z</time>
      </trkpt>
      <trkpt lat="44.38719" lon="5.79494">
        <ele>860.04</ele>
        <time>2021-09-18T10:48:45Z</time>
      </trkpt>
      <trkpt lat="44.38718" lon="5.79495">
        <ele>860.52</ele>
        <time>2021-09-18T10:48:46Z</time>
      </trkpt>
      <trkpt lat="44.38711" lon="5.79499">
        <ele>861.48</ele>
        <time>2021-09-18T10:48:51Z</time>
      </trkpt>
      <trkpt lat="44.3871" lon="5.79499">
        <ele>861.48</ele>
        <time>2021-09-18T10:48:52Z</time>
      </trkpt>
      <trkpt lat="44.38708" lon="5.79498">
        <ele>861.48</ele>
        <time>2021-09-18T10:48:53Z</time>
      </trkpt>
      <trkpt lat="44.38707" lon="5.79496">
        <ele>861.48</ele>
        <time>2021-09-18T10:48:54Z</time>
      </trkpt>
      <trkpt lat="44.38706" lon="5.79494">
        <ele>861.96</ele>
        <time>2021-09-18T10:48:55Z</time>
      </trkpt>
      <trkpt lat="44.38705" lon="5.79492">
        <ele>861.96</ele>
        <time>2021-09-18T10:48:56Z</time>
      </trkpt>
      <trkpt lat="44.38705" lon="5.7949">
        <ele>861.96</ele>
        <time>2021-09-18T10:48:57Z</time>
      </trkpt>
      <trkpt lat="44.38705" lon="5.79488">
        <ele>862.44</ele>
        <time>2021-09-18T10:48:58Z</time>
      </trkpt>
      <trkpt lat="44.38705" lon="5.79485">
        <ele>862.44</ele>
        <time>2021-09-18T10:48:59Z</time>
      </trkpt>
      <trkpt lat="44.38704" lon="5.79483">
        <ele>862.44</ele>
        <time>2021-09-18T10:49:00Z</time>
      </trkpt>
      <trkpt lat="44.38702" lon="5.79467">
        <ele>863.88</ele>
        <time>2021-09-18T10:49:07Z</time>
      </trkpt>
      <trkpt lat="44.38702" lon="5.79465">
        <ele>863.88</ele>
        <time>2021-09-18T10:49:08Z</time>
      </trkpt>
      <trkpt lat="44.38702" lon="5.79462">
        <ele>864.36</ele>
        <time>2021-09-18T10:49:09Z</time>
      </trkpt>
      <trkpt lat="44.38702" lon="5.7946">
        <ele>864.36</ele>
        <time>2021-09-18T10:49:10Z</time>
      </trkpt>
      <trkpt lat="44.38702" lon="5.79458">
        <ele>864.36</ele>
        <time>2021-09-18T10:49:11Z</time>
      </trkpt>
      <trkpt lat="44.38702" lon="5.79456">
        <ele>864.36</ele>
        <time>2021-09-18T10:49:12Z</time>
      </trkpt>
      <trkpt lat="44.38701" lon="5.79453">
        <ele>864.84</ele>
        <time>2021-09-18T10:49:13Z</time>
      </trkpt>
      <trkpt lat="44.38701" lon="5.79451">
        <ele>864.84</ele>
        <time>2021-09-18T10:49:14Z</time>
      </trkpt>
      <trkpt lat="44.387" lon="5.79449">
        <ele>865.32</ele>
        <time>2021-09-18T10:49:15Z</time>
      </trkpt>
      <trkpt lat="44.387" lon="5.79447">
        <ele>865.32</ele>
        <time>2021-09-18T10:49:16Z</time>
      </trkpt>
      <trkpt lat="44.38699" lon="5.79445">
        <ele>865.32</ele>
        <time>2021-09-18T10:49:17Z</time>
      </trkpt>
      <trkpt lat="44.38698" lon="5.79442">
        <ele>865.32</ele>
        <time>2021-09-18T10:49:18Z</time>
      </trkpt>
      <trkpt lat="44.38698" lon="5.7944">
        <ele>865.32</ele>
        <time>2021-09-18T10:49:19Z</time>
      </trkpt>
      <trkpt lat="44.38698" lon="5.79439">
        <ele>866.29</ele>
        <time>2021-09-18T10:49:20Z</time>
      </trkpt>
      <trkpt lat="44.38697" lon="5.79437">
        <ele>866.29</ele>
        <time>2021-09-18T10:49:21Z</time>
      </trkpt>
      <trkpt lat="44.38696" lon="5.79435">
        <ele>866.29</ele>
        <time>2021-09-18T10:49:22Z</time>
      </trkpt>
      <trkpt lat="44.38695" lon="5.79433">
        <ele>866.29</ele>
        <time>2021-09-18T10:49:23Z</time>
      </trkpt>
      <trkpt lat="44.38695" lon="5.79431">
        <ele>866.77</ele>
        <time>2021-09-18T10:49:24Z</time>
      </trkpt>
      <trkpt lat="44.38694" lon="5.79426">
        <ele>866.77</ele>
        <time>2021-09-18T10:49:26Z</time>
      </trkpt>
      <trkpt lat="44.38693" lon="5.79424">
        <ele>867.25</ele>
        <time>2021-09-18T10:49:27Z</time>
      </trkpt>
      <trkpt lat="44.38687" lon="5.79402">
        <ele>869.17</ele>
        <time>2021-09-18T10:49:37Z</time>
      </trkpt>
      <trkpt lat="44.38687" lon="5.794">
        <ele>869.65</ele>
        <time>2021-09-18T10:49:38Z</time>
      </trkpt>
      <trkpt lat="44.38686" lon="5.79398">
        <ele>869.65</ele>
        <time>2021-09-18T10:49:39Z</time>
      </trkpt>
      <trkpt lat="44.38682" lon="5.7939">
        <ele>871.09</ele>
        <time>2021-09-18T10:49:43Z</time>
      </trkpt>
      <trkpt lat="44.38674" lon="5.79386">
        <ele>871.57</ele>
        <time>2021-09-18T10:49:51Z</time>
      </trkpt>
      <trkpt lat="44.38667" lon="5.79391">
        <ele>872.05</ele>
        <time>2021-09-18T10:49:57Z</time>
      </trkpt>
      <trkpt lat="44.38663" lon="5.79398">
        <ele>872.05</ele>
        <time>2021-09-18T10:50:01Z</time>
      </trkpt>
      <trkpt lat="44.38655" lon="5.79407">
        <ele>872.53</ele>
        <time>2021-09-18T10:50:06Z</time>
      </trkpt>
      <trkpt lat="44.38631" lon="5.7943">
        <ele>874.46</ele>
        <time>2021-09-18T10:50:22Z</time>
      </trkpt>
      <trkpt lat="44.38613" lon="5.79445">
        <ele>875.9</ele>
        <time>2021-09-18T10:50:33Z</time>
      </trkpt>
      <trkpt lat="44.38589" lon="5.79472">
        <ele>875.9</ele>
        <time>2021-09-18T10:50:47Z</time>
      </trkpt>
      <trkpt lat="44.38562" lon="5.79507">
        <ele>875.9</ele>
        <time>2021-09-18T10:51:02Z</time>
      </trkpt>
      <trkpt lat="44.38533" lon="5.79544">
        <ele>874.94</ele>
        <time>2021-09-18T10:51:15Z</time>
      </trkpt>
      <trkpt lat="44.38483" lon="5.7958">
        <ele>873.5</ele>
        <time>2021-09-18T10:51:30Z</time>
      </trkpt>
      <trkpt lat="44.38459" lon="5.79585">
        <ele>874.94</ele>
        <time>2021-09-18T10:51:38Z</time>
      </trkpt>
      <trkpt lat="44.38457" lon="5.79582">
        <ele>874.94</ele>
        <time>2021-09-18T10:51:39Z</time>
      </trkpt>
      <trkpt lat="44.38456" lon="5.79579">
        <ele>874.94</ele>
        <time>2021-09-18T10:51:40Z</time>
      </trkpt>
      <trkpt lat="44.38459" lon="5.79545">
        <ele>878.3</ele>
        <time>2021-09-18T10:51:53Z</time>
      </trkpt>
      <trkpt lat="44.38459" lon="5.7954">
        <ele>878.3</ele>
        <time>2021-09-18T10:51:55Z</time>
      </trkpt>
      <trkpt lat="44.38459" lon="5.79538">
        <ele>878.3</ele>
        <time>2021-09-18T10:51:56Z</time>
      </trkpt>
      <trkpt lat="44.38459" lon="5.79536">
        <ele>879.26</ele>
        <time>2021-09-18T10:51:57Z</time>
      </trkpt>
      <trkpt lat="44.38459" lon="5.79533">
        <ele>879.26</ele>
        <time>2021-09-18T10:51:58Z</time>
      </trkpt>
      <trkpt lat="44.38459" lon="5.79531">
        <ele>879.74</ele>
        <time>2021-09-18T10:51:59Z</time>
      </trkpt>
      <trkpt lat="44.3846" lon="5.7953">
        <ele>879.74</ele>
        <time>2021-09-18T10:52:00Z</time>
      </trkpt>
      <trkpt lat="44.38465" lon="5.79499">
        <ele>883.11</ele>
        <time>2021-09-18T10:52:14Z</time>
      </trkpt>
      <trkpt lat="44.38466" lon="5.79495">
        <ele>883.59</ele>
        <time>2021-09-18T10:52:16Z</time>
      </trkpt>
      <trkpt lat="44.38465" lon="5.79493">
        <ele>883.59</ele>
        <time>2021-09-18T10:52:17Z</time>
      </trkpt>
      <trkpt lat="44.38465" lon="5.79491">
        <ele>884.07</ele>
        <time>2021-09-18T10:52:18Z</time>
      </trkpt>
      <trkpt lat="44.38465" lon="5.79488">
        <ele>884.07</ele>
        <time>2021-09-18T10:52:19Z</time>
      </trkpt>
      <trkpt lat="44.38465" lon="5.79486">
        <ele>884.55</ele>
        <time>2021-09-18T10:52:20Z</time>
      </trkpt>
      <trkpt lat="44.38465" lon="5.79484">
        <ele>884.55</ele>
        <time>2021-09-18T10:52:21Z</time>
      </trkpt>
      <trkpt lat="44.38464" lon="5.79482">
        <ele>884.55</ele>
        <time>2021-09-18T10:52:22Z</time>
      </trkpt>
      <trkpt lat="44.38464" lon="5.7948">
        <ele>884.55</ele>
        <time>2021-09-18T10:52:23Z</time>
      </trkpt>
      <trkpt lat="44.38464" lon="5.79478">
        <ele>884.55</ele>
        <time>2021-09-18T10:52:24Z</time>
      </trkpt>
      <trkpt lat="44.38463" lon="5.79476">
        <ele>884.55</ele>
        <time>2021-09-18T10:52:25Z</time>
      </trkpt>
      <trkpt lat="44.38463" lon="5.79474">
        <ele>884.55</ele>
        <time>2021-09-18T10:52:26Z</time>
      </trkpt>
      <trkpt lat="44.38462" lon="5.79472">
        <ele>885.51</ele>
        <time>2021-09-18T10:52:27Z</time>
      </trkpt>
      <trkpt lat="44.3846" lon="5.7947">
        <ele>885.51</ele>
        <time>2021-09-18T10:52:28Z</time>
      </trkpt>
      <trkpt lat="44.38459" lon="5.79469">
        <ele>885.99</ele>
        <time>2021-09-18T10:52:29Z</time>
      </trkpt>
      <trkpt lat="44.38458" lon="5.79467">
        <ele>885.99</ele>
        <time>2021-09-18T10:52:30Z</time>
      </trkpt>
      <trkpt lat="44.38456" lon="5.79465">
        <ele>885.99</ele>
        <time>2021-09-18T10:52:31Z</time>
      </trkpt>
      <trkpt lat="44.38439" lon="5.79434">
        <ele>888.4</ele>
        <time>2021-09-18T10:52:46Z</time>
      </trkpt>
      <trkpt lat="44.38431" lon="5.79403">
        <ele>891.28</ele>
        <time>2021-09-18T10:53:00Z</time>
      </trkpt>
      <trkpt lat="44.38431" lon="5.7939">
        <ele>893.2</ele>
        <time>2021-09-18T10:53:07Z</time>
      </trkpt>
      <trkpt lat="44.38431" lon="5.79389">
        <ele>893.2</ele>
        <time>2021-09-18T10:53:08Z</time>
      </trkpt>
      <trkpt lat="44.38431" lon="5.79387">
        <ele>893.2</ele>
        <time>2021-09-18T10:53:09Z</time>
      </trkpt>
      <trkpt lat="44.38431" lon="5.79384">
        <ele>893.2</ele>
        <time>2021-09-18T10:53:10Z</time>
      </trkpt>
      <trkpt lat="44.38431" lon="5.79382">
        <ele>893.68</ele>
        <time>2021-09-18T10:53:11Z</time>
      </trkpt>
      <trkpt lat="44.38431" lon="5.7938">
        <ele>893.68</ele>
        <time>2021-09-18T10:53:12Z</time>
      </trkpt>
      <trkpt lat="44.38431" lon="5.79377">
        <ele>894.16</ele>
        <time>2021-09-18T10:53:13Z</time>
      </trkpt>
      <trkpt lat="44.38426" lon="5.79352">
        <ele>895.61</ele>
        <time>2021-09-18T10:53:23Z</time>
      </trkpt>
      <trkpt lat="44.38425" lon="5.7935">
        <ele>895.61</ele>
        <time>2021-09-18T10:53:24Z</time>
      </trkpt>
      <trkpt lat="44.38424" lon="5.79347">
        <ele>896.09</ele>
        <time>2021-09-18T10:53:25Z</time>
      </trkpt>
      <trkpt lat="44.38413" lon="5.79315">
        <ele>897.53</ele>
        <time>2021-09-18T10:53:39Z</time>
      </trkpt>
      <trkpt lat="44.38411" lon="5.79297">
        <ele>898.49</ele>
        <time>2021-09-18T10:53:46Z</time>
      </trkpt>
      <trkpt lat="44.3841" lon="5.79266">
        <ele>900.89</ele>
        <time>2021-09-18T10:53:59Z</time>
      </trkpt>
      <trkpt lat="44.38415" lon="5.79224">
        <ele>903.3</ele>
        <time>2021-09-18T10:54:15Z</time>
      </trkpt>
      <trkpt lat="44.38419" lon="5.79173">
        <ele>903.78</ele>
        <time>2021-09-18T10:54:31Z</time>
      </trkpt>
      <trkpt lat="44.38424" lon="5.79124">
        <ele>904.74</ele>
        <time>2021-09-18T10:54:46Z</time>
      </trkpt>
      <trkpt lat="44.38396" lon="5.79097">
        <ele>904.74</ele>
        <time>2021-09-18T10:54:57Z</time>
      </trkpt>
      <trkpt lat="44.38377" lon="5.79085">
        <ele>903.3</ele>
        <time>2021-09-18T10:55:04Z</time>
      </trkpt>
      <trkpt lat="44.38347" lon="5.79054">
        <ele>902.82</ele>
        <time>2021-09-18T10:55:15Z</time>
      </trkpt>
      <trkpt lat="44.38332" lon="5.79013">
        <ele>904.26</ele>
        <time>2021-09-18T10:55:25Z</time>
      </trkpt>
      <trkpt lat="44.38328" lon="5.78987">
        <ele>905.7</ele>
        <time>2021-09-18T10:55:34Z</time>
      </trkpt>
      <trkpt lat="44.38321" lon="5.78945">
        <ele>908.1</ele>
        <time>2021-09-18T10:55:48Z</time>
      </trkpt>
      <trkpt lat="44.38313" lon="5.7891">
        <ele>910.99</ele>
        <time>2021-09-18T10:56:00Z</time>
      </trkpt>
      <trkpt lat="44.38306" lon="5.78872">
        <ele>913.87</ele>
        <time>2021-09-18T10:56:14Z</time>
      </trkpt>
      <trkpt lat="44.38298" lon="5.78828">
        <ele>914.35</ele>
        <time>2021-09-18T10:56:29Z</time>
      </trkpt>
      <trkpt lat="44.38294" lon="5.78793">
        <ele>915.31</ele>
        <time>2021-09-18T10:56:41Z</time>
      </trkpt>
      <trkpt lat="44.38289" lon="5.78768">
        <ele>918.68</ele>
        <time>2021-09-18T10:56:51Z</time>
      </trkpt>
      <trkpt lat="44.38288" lon="5.78759">
        <ele>919.16</ele>
        <time>2021-09-18T10:56:55Z</time>
      </trkpt>
      <trkpt lat="44.38287" lon="5.78758">
        <ele>919.64</ele>
        <time>2021-09-18T10:56:56Z</time>
      </trkpt>
      <trkpt lat="44.38286" lon="5.78756">
        <ele>919.64</ele>
        <time>2021-09-18T10:56:57Z</time>
      </trkpt>
      <trkpt lat="44.3828" lon="5.78725">
        <ele>921.56</ele>
        <time>2021-09-18T10:57:12Z</time>
      </trkpt>
      <trkpt lat="44.38273" lon="5.78699">
        <ele>924.93</ele>
        <time>2021-09-18T10:57:26Z</time>
      </trkpt>
      <trkpt lat="44.38265" lon="5.78671">
        <ele>927.81</ele>
        <time>2021-09-18T10:57:39Z</time>
      </trkpt>
      <trkpt lat="44.38264" lon="5.78656">
        <ele>929.25</ele>
        <time>2021-09-18T10:57:45Z</time>
      </trkpt>
      <trkpt lat="44.38264" lon="5.78654">
        <ele>929.25</ele>
        <time>2021-09-18T10:57:46Z</time>
      </trkpt>
      <trkpt lat="44.38264" lon="5.78652">
        <ele>930.21</ele>
        <time>2021-09-18T10:57:47Z</time>
      </trkpt>
      <trkpt lat="44.38264" lon="5.7865">
        <ele>930.21</ele>
        <time>2021-09-18T10:57:48Z</time>
      </trkpt>
      <trkpt lat="44.38264" lon="5.78647">
        <ele>930.21</ele>
        <time>2021-09-18T10:57:49Z</time>
      </trkpt>
      <trkpt lat="44.38263" lon="5.78646">
        <ele>930.69</ele>
        <time>2021-09-18T10:57:50Z</time>
      </trkpt>
      <trkpt lat="44.38261" lon="5.78625">
        <ele>933.58</ele>
        <time>2021-09-18T10:58:00Z</time>
      </trkpt>
      <trkpt lat="44.38262" lon="5.78617">
        <ele>934.06</ele>
        <time>2021-09-18T10:58:04Z</time>
      </trkpt>
      <trkpt lat="44.38262" lon="5.78616">
        <ele>934.54</ele>
        <time>2021-09-18T10:58:05Z</time>
      </trkpt>
      <trkpt lat="44.38262" lon="5.78614">
        <ele>934.54</ele>
        <time>2021-09-18T10:58:06Z</time>
      </trkpt>
      <trkpt lat="44.38262" lon="5.78612">
        <ele>934.54</ele>
        <time>2021-09-18T10:58:07Z</time>
      </trkpt>
      <trkpt lat="44.38262" lon="5.78611">
        <ele>935.02</ele>
        <time>2021-09-18T10:58:08Z</time>
      </trkpt>
      <trkpt lat="44.38262" lon="5.78605">
        <ele>935.98</ele>
        <time>2021-09-18T10:58:11Z</time>
      </trkpt>
      <trkpt lat="44.38261" lon="5.786">
        <ele>936.94</ele>
        <time>2021-09-18T10:58:14Z</time>
      </trkpt>
      <trkpt lat="44.38256" lon="5.78574">
        <ele>939.35</ele>
        <time>2021-09-18T10:58:29Z</time>
      </trkpt>
      <trkpt lat="44.38254" lon="5.78566">
        <ele>940.31</ele>
        <time>2021-09-18T10:58:34Z</time>
      </trkpt>
      <trkpt lat="44.38253" lon="5.78564">
        <ele>940.31</ele>
        <time>2021-09-18T10:58:35Z</time>
      </trkpt>
      <trkpt lat="44.3825" lon="5.78543">
        <ele>942.23</ele>
        <time>2021-09-18T10:58:47Z</time>
      </trkpt>
      <trkpt lat="44.38235" lon="5.7853">
        <ele>945.11</ele>
        <time>2021-09-18T10:58:59Z</time>
      </trkpt>
      <trkpt lat="44.38234" lon="5.78531">
        <ele>945.11</ele>
        <time>2021-09-18T10:59:00Z</time>
      </trkpt>
      <trkpt lat="44.38233" lon="5.78532">
        <ele>945.59</ele>
        <time>2021-09-18T10:59:01Z</time>
      </trkpt>
      <trkpt lat="44.38232" lon="5.78534">
        <ele>945.59</ele>
        <time>2021-09-18T10:59:02Z</time>
      </trkpt>
      <trkpt lat="44.38231" lon="5.78535">
        <ele>945.59</ele>
        <time>2021-09-18T10:59:03Z</time>
      </trkpt>
      <trkpt lat="44.3823" lon="5.78537">
        <ele>946.56</ele>
        <time>2021-09-18T10:59:04Z</time>
      </trkpt>
      <trkpt lat="44.38229" lon="5.78538">
        <ele>946.56</ele>
        <time>2021-09-18T10:59:05Z</time>
      </trkpt>
      <trkpt lat="44.38228" lon="5.7854">
        <ele>946.56</ele>
        <time>2021-09-18T10:59:06Z</time>
      </trkpt>
      <trkpt lat="44.38228" lon="5.78542">
        <ele>947.04</ele>
        <time>2021-09-18T10:59:07Z</time>
      </trkpt>
      <trkpt lat="44.38227" lon="5.78544">
        <ele>947.04</ele>
        <time>2021-09-18T10:59:08Z</time>
      </trkpt>
      <trkpt lat="44.38226" lon="5.78545">
        <ele>947.04</ele>
        <time>2021-09-18T10:59:09Z</time>
      </trkpt>
      <trkpt lat="44.38225" lon="5.78547">
        <ele>947.52</ele>
        <time>2021-09-18T10:59:10Z</time>
      </trkpt>
      <trkpt lat="44.38224" lon="5.78548">
        <ele>947.52</ele>
        <time>2021-09-18T10:59:11Z</time>
      </trkpt>
      <trkpt lat="44.38224" lon="5.78549">
        <ele>948</ele>
        <time>2021-09-18T10:59:12Z</time>
      </trkpt>
      <trkpt lat="44.38222" lon="5.78552">
        <ele>948</ele>
        <time>2021-09-18T10:59:14Z</time>
      </trkpt>
      <trkpt lat="44.38222" lon="5.78554">
        <ele>948.48</ele>
        <time>2021-09-18T10:59:15Z</time>
      </trkpt>
      <trkpt lat="44.38222" lon="5.78557">
        <ele>948.48</ele>
        <time>2021-09-18T10:59:16Z</time>
      </trkpt>
      <trkpt lat="44.38223" lon="5.78559">
        <ele>948.48</ele>
        <time>2021-09-18T10:59:17Z</time>
      </trkpt>
      <trkpt lat="44.38222" lon="5.78562">
        <ele>948.96</ele>
        <time>2021-09-18T10:59:18Z</time>
      </trkpt>
      <trkpt lat="44.38222" lon="5.78564">
        <ele>948.96</ele>
        <time>2021-09-18T10:59:19Z</time>
      </trkpt>
      <trkpt lat="44.38221" lon="5.78565">
        <ele>948.96</ele>
        <time>2021-09-18T10:59:20Z</time>
      </trkpt>
      <trkpt lat="44.38221" lon="5.78567">
        <ele>949.44</ele>
        <time>2021-09-18T10:59:21Z</time>
      </trkpt>
      <trkpt lat="44.38218" lon="5.78578">
        <ele>950.4</ele>
        <time>2021-09-18T10:59:28Z</time>
      </trkpt>
      <trkpt lat="44.38217" lon="5.78579">
        <ele>950.4</ele>
        <time>2021-09-18T10:59:29Z</time>
      </trkpt>
      <trkpt lat="44.382" lon="5.786">
        <ele>952.32</ele>
        <time>2021-09-18T10:59:44Z</time>
      </trkpt>
      <trkpt lat="44.38188" lon="5.78628">
        <ele>952.32</ele>
        <time>2021-09-18T10:59:58Z</time>
      </trkpt>
      <trkpt lat="44.38177" lon="5.78652">
        <ele>952.32</ele>
        <time>2021-09-18T11:00:09Z</time>
      </trkpt>
      <trkpt lat="44.38176" lon="5.78654">
        <ele>952.32</ele>
        <time>2021-09-18T11:00:10Z</time>
      </trkpt>
      <trkpt lat="44.38161" lon="5.7869">
        <ele>954.25</ele>
        <time>2021-09-18T11:00:25Z</time>
      </trkpt>
      <trkpt lat="44.38149" lon="5.78724">
        <ele>955.69</ele>
        <time>2021-09-18T11:00:38Z</time>
      </trkpt>
      <trkpt lat="44.38135" lon="5.78762">
        <ele>957.61</ele>
        <time>2021-09-18T11:00:53Z</time>
      </trkpt>
      <trkpt lat="44.3812" lon="5.78791">
        <ele>958.09</ele>
        <time>2021-09-18T11:01:05Z</time>
      </trkpt>
      <trkpt lat="44.38119" lon="5.78794">
        <ele>958.09</ele>
        <time>2021-09-18T11:01:06Z</time>
      </trkpt>
      <trkpt lat="44.38104" lon="5.78829">
        <ele>958.57</ele>
        <time>2021-09-18T11:01:20Z</time>
      </trkpt>
      <trkpt lat="44.38102" lon="5.78834">
        <ele>959.05</ele>
        <time>2021-09-18T11:01:22Z</time>
      </trkpt>
      <trkpt lat="44.38101" lon="5.78836">
        <ele>959.05</ele>
        <time>2021-09-18T11:01:23Z</time>
      </trkpt>
      <trkpt lat="44.381" lon="5.78838">
        <ele>959.05</ele>
        <time>2021-09-18T11:01:24Z</time>
      </trkpt>
      <trkpt lat="44.381" lon="5.78841">
        <ele>959.05</ele>
        <time>2021-09-18T11:01:25Z</time>
      </trkpt>
      <trkpt lat="44.381" lon="5.78843">
        <ele>959.53</ele>
        <time>2021-09-18T11:01:26Z</time>
      </trkpt>
      <trkpt lat="44.38099" lon="5.78846">
        <ele>959.53</ele>
        <time>2021-09-18T11:01:27Z</time>
      </trkpt>
      <trkpt lat="44.38098" lon="5.78848">
        <ele>959.53</ele>
        <time>2021-09-18T11:01:28Z</time>
      </trkpt>
      <trkpt lat="44.38097" lon="5.78851">
        <ele>960.01</ele>
        <time>2021-09-18T11:01:29Z</time>
      </trkpt>
      <trkpt lat="44.38096" lon="5.78853">
        <ele>960.01</ele>
        <time>2021-09-18T11:01:30Z</time>
      </trkpt>
      <trkpt lat="44.38096" lon="5.78856">
        <ele>960.49</ele>
        <time>2021-09-18T11:01:31Z</time>
      </trkpt>
      <trkpt lat="44.38095" lon="5.78858">
        <ele>960.49</ele>
        <time>2021-09-18T11:01:32Z</time>
      </trkpt>
      <trkpt lat="44.38095" lon="5.78861">
        <ele>960.49</ele>
        <time>2021-09-18T11:01:33Z</time>
      </trkpt>
      <trkpt lat="44.38083" lon="5.78892">
        <ele>962.42</ele>
        <time>2021-09-18T11:01:46Z</time>
      </trkpt>
      <trkpt lat="44.38079" lon="5.78904">
        <ele>962.9</ele>
        <time>2021-09-18T11:01:51Z</time>
      </trkpt>
      <trkpt lat="44.38079" lon="5.78906">
        <ele>963.38</ele>
        <time>2021-09-18T11:01:52Z</time>
      </trkpt>
      <trkpt lat="44.38077" lon="5.78908">
        <ele>963.38</ele>
        <time>2021-09-18T11:01:53Z</time>
      </trkpt>
      <trkpt lat="44.38077" lon="5.7891">
        <ele>963.38</ele>
        <time>2021-09-18T11:01:54Z</time>
      </trkpt>
      <trkpt lat="44.38076" lon="5.78912">
        <ele>963.86</ele>
        <time>2021-09-18T11:01:55Z</time>
      </trkpt>
      <trkpt lat="44.38076" lon="5.78915">
        <ele>963.86</ele>
        <time>2021-09-18T11:01:56Z</time>
      </trkpt>
      <trkpt lat="44.38075" lon="5.78917">
        <ele>963.86</ele>
        <time>2021-09-18T11:01:57Z</time>
      </trkpt>
      <trkpt lat="44.38075" lon="5.7892">
        <ele>963.86</ele>
        <time>2021-09-18T11:01:58Z</time>
      </trkpt>
      <trkpt lat="44.38075" lon="5.78922">
        <ele>963.86</ele>
        <time>2021-09-18T11:01:59Z</time>
      </trkpt>
      <trkpt lat="44.38075" lon="5.78924">
        <ele>963.86</ele>
        <time>2021-09-18T11:02:00Z</time>
      </trkpt>
      <trkpt lat="44.38074" lon="5.78926">
        <ele>963.86</ele>
        <time>2021-09-18T11:02:01Z</time>
      </trkpt>
      <trkpt lat="44.38073" lon="5.78929">
        <ele>963.86</ele>
        <time>2021-09-18T11:02:02Z</time>
      </trkpt>
      <trkpt lat="44.38073" lon="5.78931">
        <ele>963.86</ele>
        <time>2021-09-18T11:02:03Z</time>
      </trkpt>
      <trkpt lat="44.38072" lon="5.78934">
        <ele>964.34</ele>
        <time>2021-09-18T11:02:04Z</time>
      </trkpt>
      <trkpt lat="44.38072" lon="5.78937">
        <ele>964.82</ele>
        <time>2021-09-18T11:02:05Z</time>
      </trkpt>
      <trkpt lat="44.38071" lon="5.7894">
        <ele>964.82</ele>
        <time>2021-09-18T11:02:06Z</time>
      </trkpt>
      <trkpt lat="44.38068" lon="5.78955">
        <ele>965.3</ele>
        <time>2021-09-18T11:02:12Z</time>
      </trkpt>
      <trkpt lat="44.38067" lon="5.78958">
        <ele>965.3</ele>
        <time>2021-09-18T11:02:13Z</time>
      </trkpt>
      <trkpt lat="44.38067" lon="5.7896">
        <ele>965.3</ele>
        <time>2021-09-18T11:02:14Z</time>
      </trkpt>
      <trkpt lat="44.38066" lon="5.78962">
        <ele>965.78</ele>
        <time>2021-09-18T11:02:15Z</time>
      </trkpt>
      <trkpt lat="44.38066" lon="5.78964">
        <ele>965.78</ele>
        <time>2021-09-18T11:02:16Z</time>
      </trkpt>
      <trkpt lat="44.38065" lon="5.78966">
        <ele>966.26</ele>
        <time>2021-09-18T11:02:17Z</time>
      </trkpt>
      <trkpt lat="44.38065" lon="5.78968">
        <ele>966.26</ele>
        <time>2021-09-18T11:02:18Z</time>
      </trkpt>
      <trkpt lat="44.38062" lon="5.78979">
        <ele>967.22</ele>
        <time>2021-09-18T11:02:31Z</time>
      </trkpt>
      <trkpt lat="44.38062" lon="5.7898">
        <ele>967.22</ele>
        <time>2021-09-18T11:02:32Z</time>
      </trkpt>
      <trkpt lat="44.38062" lon="5.78982">
        <ele>967.22</ele>
        <time>2021-09-18T11:02:33Z</time>
      </trkpt>
      <trkpt lat="44.38061" lon="5.78985">
        <ele>967.22</ele>
        <time>2021-09-18T11:02:34Z</time>
      </trkpt>
      <trkpt lat="44.38057" lon="5.79026">
        <ele>970.11</ele>
        <time>2021-09-18T11:02:50Z</time>
      </trkpt>
      <trkpt lat="44.38054" lon="5.79064">
        <ele>971.55</ele>
        <time>2021-09-18T11:03:04Z</time>
      </trkpt>
      <trkpt lat="44.38054" lon="5.79067">
        <ele>972.03</ele>
        <time>2021-09-18T11:03:05Z</time>
      </trkpt>
      <trkpt lat="44.38053" lon="5.79069">
        <ele>972.03</ele>
        <time>2021-09-18T11:03:06Z</time>
      </trkpt>
      <trkpt lat="44.38048" lon="5.79105">
        <ele>973.95</ele>
        <time>2021-09-18T11:03:19Z</time>
      </trkpt>
      <trkpt lat="44.38044" lon="5.79143">
        <ele>975.88</ele>
        <time>2021-09-18T11:03:33Z</time>
      </trkpt>
      <trkpt lat="44.3804" lon="5.79185">
        <ele>979.24</ele>
        <time>2021-09-18T11:03:49Z</time>
      </trkpt>
      <trkpt lat="44.3804" lon="5.79187">
        <ele>979.24</ele>
        <time>2021-09-18T11:03:50Z</time>
      </trkpt>
      <trkpt lat="44.38041" lon="5.7919">
        <ele>979.24</ele>
        <time>2021-09-18T11:03:51Z</time>
      </trkpt>
      <trkpt lat="44.3804" lon="5.79192">
        <ele>979.24</ele>
        <time>2021-09-18T11:03:52Z</time>
      </trkpt>
      <trkpt lat="44.3804" lon="5.79194">
        <ele>979.24</ele>
        <time>2021-09-18T11:03:53Z</time>
      </trkpt>
      <trkpt lat="44.3804" lon="5.79196">
        <ele>979.72</ele>
        <time>2021-09-18T11:03:54Z</time>
      </trkpt>
      <trkpt lat="44.3804" lon="5.79198">
        <ele>979.72</ele>
        <time>2021-09-18T11:03:55Z</time>
      </trkpt>
      <trkpt lat="44.3804" lon="5.792">
        <ele>979.72</ele>
        <time>2021-09-18T11:03:56Z</time>
      </trkpt>
      <trkpt lat="44.3804" lon="5.79203">
        <ele>980.68</ele>
        <time>2021-09-18T11:03:57Z</time>
      </trkpt>
      <trkpt lat="44.38041" lon="5.79205">
        <ele>980.2</ele>
        <time>2021-09-18T11:03:58Z</time>
      </trkpt>
      <trkpt lat="44.38041" lon="5.79207">
        <ele>980.68</ele>
        <time>2021-09-18T11:03:59Z</time>
      </trkpt>
      <trkpt lat="44.38041" lon="5.79209">
        <ele>980.68</ele>
        <time>2021-09-18T11:04:00Z</time>
      </trkpt>
      <trkpt lat="44.38042" lon="5.79212">
        <ele>980.68</ele>
        <time>2021-09-18T11:04:01Z</time>
      </trkpt>
      <trkpt lat="44.38042" lon="5.79214">
        <ele>981.16</ele>
        <time>2021-09-18T11:04:02Z</time>
      </trkpt>
      <trkpt lat="44.38047" lon="5.79249">
        <ele>983.57</ele>
        <time>2021-09-18T11:04:16Z</time>
      </trkpt>
      <trkpt lat="44.38042" lon="5.79286">
        <ele>985.97</ele>
        <time>2021-09-18T11:04:30Z</time>
      </trkpt>
      <trkpt lat="44.38038" lon="5.79326">
        <ele>985.49</ele>
        <time>2021-09-18T11:04:42Z</time>
      </trkpt>
      <trkpt lat="44.38039" lon="5.79369">
        <ele>984.53</ele>
        <time>2021-09-18T11:04:53Z</time>
      </trkpt>
      <trkpt lat="44.38039" lon="5.79375">
        <ele>984.53</ele>
        <time>2021-09-18T11:04:54Z</time>
      </trkpt>
      <trkpt lat="44.38038" lon="5.79416">
        <ele>982.6</ele>
        <time>2021-09-18T11:05:01Z</time>
      </trkpt>
      <trkpt lat="44.38046" lon="5.79458">
        <ele>981.64</ele>
        <time>2021-09-18T11:05:08Z</time>
      </trkpt>
      <trkpt lat="44.38048" lon="5.79463">
        <ele>981.64</ele>
        <time>2021-09-18T11:05:09Z</time>
      </trkpt>
      <trkpt lat="44.3805" lon="5.79468">
        <ele>981.64</ele>
        <time>2021-09-18T11:05:10Z</time>
      </trkpt>
      <trkpt lat="44.38064" lon="5.7953">
        <ele>981.64</ele>
        <time>2021-09-18T11:05:23Z</time>
      </trkpt>
      <trkpt lat="44.38075" lon="5.79591">
        <ele>983.09</ele>
        <time>2021-09-18T11:05:37Z</time>
      </trkpt>
      <trkpt lat="44.38082" lon="5.79648">
        <ele>983.57</ele>
        <time>2021-09-18T11:05:50Z</time>
      </trkpt>
      <trkpt lat="44.38084" lon="5.79702">
        <ele>984.53</ele>
        <time>2021-09-18T11:06:03Z</time>
      </trkpt>
      <trkpt lat="44.38083" lon="5.79759">
        <ele>985.97</ele>
        <time>2021-09-18T11:06:17Z</time>
      </trkpt>
      <trkpt lat="44.38074" lon="5.79801">
        <ele>987.41</ele>
        <time>2021-09-18T11:06:29Z</time>
      </trkpt>
      <trkpt lat="44.38059" lon="5.79858">
        <ele>989.33</ele>
        <time>2021-09-18T11:06:46Z</time>
      </trkpt>
      <trkpt lat="44.38062" lon="5.79897">
        <ele>990.78</ele>
        <time>2021-09-18T11:06:57Z</time>
      </trkpt>
      <trkpt lat="44.38068" lon="5.79945">
        <ele>992.22</ele>
        <time>2021-09-18T11:07:10Z</time>
      </trkpt>
      <trkpt lat="44.3808" lon="5.79987">
        <ele>993.66</ele>
        <time>2021-09-18T11:07:22Z</time>
      </trkpt>
      <trkpt lat="44.38094" lon="5.80027">
        <ele>994.62</ele>
        <time>2021-09-18T11:07:34Z</time>
      </trkpt>
      <trkpt lat="44.38107" lon="5.8008">
        <ele>996.54</ele>
        <time>2021-09-18T11:07:49Z</time>
      </trkpt>
      <trkpt lat="44.38116" lon="5.80111">
        <ele>997.51</ele>
        <time>2021-09-18T11:08:04Z</time>
      </trkpt>
      <trkpt lat="44.38117" lon="5.80114">
        <ele>997.51</ele>
        <time>2021-09-18T11:08:07Z</time>
      </trkpt>
      <trkpt lat="44.38117" lon="5.80116">
        <ele>997.51</ele>
        <time>2021-09-18T11:08:08Z</time>
      </trkpt>
      <trkpt lat="44.38115" lon="5.80116">
        <ele>997.51</ele>
        <time>2021-09-18T11:08:22Z</time>
      </trkpt>
      <trkpt lat="44.38115" lon="5.80118">
        <ele>997.51</ele>
        <time>2021-09-18T11:08:34Z</time>
      </trkpt>
      <trkpt lat="44.38114" lon="5.8012">
        <ele>997.51</ele>
        <time>2021-09-18T11:08:35Z</time>
      </trkpt>
      <trkpt lat="44.38113" lon="5.80121">
        <ele>997.51</ele>
        <time>2021-09-18T11:08:36Z</time>
      </trkpt>
      <trkpt lat="44.38112" lon="5.80122">
        <ele>997.51</ele>
        <time>2021-09-18T11:08:37Z</time>
      </trkpt>
      <trkpt lat="44.38111" lon="5.80124">
        <ele>997.51</ele>
        <time>2021-09-18T11:08:38Z</time>
      </trkpt>
      <trkpt lat="44.3811" lon="5.80126">
        <ele>997.51</ele>
        <time>2021-09-18T11:08:39Z</time>
      </trkpt>
      <trkpt lat="44.38109" lon="5.80128">
        <ele>997.51</ele>
        <time>2021-09-18T11:08:40Z</time>
      </trkpt>
      <trkpt lat="44.38108" lon="5.80129">
        <ele>997.51</ele>
        <time>2021-09-18T11:08:41Z</time>
      </trkpt>
      <trkpt lat="44.38106" lon="5.80128">
        <ele>997.51</ele>
        <time>2021-09-18T11:08:50Z</time>
      </trkpt>
      <trkpt lat="44.38104" lon="5.80126">
        <ele>997.99</ele>
        <time>2021-09-18T11:09:06Z</time>
      </trkpt>
      <trkpt lat="44.38106" lon="5.80131">
        <ele>997.99</ele>
        <time>2021-09-18T11:09:35Z</time>
      </trkpt>
      <trkpt lat="44.38105" lon="5.80126">
        <ele>997.99</ele>
        <time>2021-09-18T11:10:03Z</time>
      </trkpt>
      <trkpt lat="44.38105" lon="5.80126">
        <ele>997.51</ele>
        <time>2021-09-18T11:10:38Z</time>
      </trkpt>
      <trkpt lat="44.38105" lon="5.80127">
        <ele>997.51</ele>
        <time>2021-09-18T11:11:19Z</time>
      </trkpt>
      <trkpt lat="44.38104" lon="5.80128">
        <ele>997.51</ele>
        <time>2021-09-18T11:11:53Z</time>
      </trkpt>
      <trkpt lat="44.38103" lon="5.80126">
        <ele>997.51</ele>
        <time>2021-09-18T11:12:21Z</time>
      </trkpt>
      <trkpt lat="44.38103" lon="5.80124">
        <ele>997.99</ele>
        <time>2021-09-18T11:13:00Z</time>
      </trkpt>
      <trkpt lat="44.38104" lon="5.80124">
        <ele>997.99</ele>
        <time>2021-09-18T11:13:32Z</time>
      </trkpt>
      <trkpt lat="44.38103" lon="5.80129">
        <ele>997.99</ele>
        <time>2021-09-18T11:14:12Z</time>
      </trkpt>
      <trkpt lat="44.38103" lon="5.80128">
        <ele>997.99</ele>
        <time>2021-09-18T11:14:41Z</time>
      </trkpt>
      <trkpt lat="44.38103" lon="5.80122">
        <ele>997.99</ele>
        <time>2021-09-18T11:15:21Z</time>
      </trkpt>
      <trkpt lat="44.38103" lon="5.80123">
        <ele>997.99</ele>
        <time>2021-09-18T11:15:52Z</time>
      </trkpt>
      <trkpt lat="44.38101" lon="5.80125">
        <ele>997.99</ele>
        <time>2021-09-18T11:16:26Z</time>
      </trkpt>
      <trkpt lat="44.38105" lon="5.80123">
        <ele>997.99</ele>
        <time>2021-09-18T11:16:53Z</time>
      </trkpt>
      <trkpt lat="44.38106" lon="5.80124">
        <ele>997.99</ele>
        <time>2021-09-18T11:17:17Z</time>
      </trkpt>
      <trkpt lat="44.38106" lon="5.80124">
        <ele>997.99</ele>
        <time>2021-09-18T11:17:42Z</time>
      </trkpt>
      <trkpt lat="44.38099" lon="5.80122">
        <ele>997.99</ele>
        <time>2021-09-18T11:18:13Z</time>
      </trkpt>
      <trkpt lat="44.38099" lon="5.80122">
        <ele>997.99</ele>
        <time>2021-09-18T11:18:42Z</time>
      </trkpt>
      <trkpt lat="44.38106" lon="5.80126">
        <ele>997.99</ele>
        <time>2021-09-18T11:19:10Z</time>
      </trkpt>
      <trkpt lat="44.38104" lon="5.80124">
        <ele>997.99</ele>
        <time>2021-09-18T11:19:45Z</time>
      </trkpt>
      <trkpt lat="44.381" lon="5.80125">
        <ele>998.47</ele>
        <time>2021-09-18T11:20:15Z</time>
      </trkpt>
      <trkpt lat="44.381" lon="5.80125">
        <ele>998.47</ele>
        <time>2021-09-18T11:20:37Z</time>
      </trkpt>
      <trkpt lat="44.381" lon="5.80124">
        <ele>998.47</ele>
        <time>2021-09-18T11:21:02Z</time>
      </trkpt>
      <trkpt lat="44.38103" lon="5.80125">
        <ele>998.47</ele>
        <time>2021-09-18T11:21:34Z</time>
      </trkpt>
      <trkpt lat="44.38104" lon="5.80127">
        <ele>998.47</ele>
        <time>2021-09-18T11:22:13Z</time>
      </trkpt>
      <trkpt lat="44.38104" lon="5.80125">
        <ele>998.95</ele>
        <time>2021-09-18T11:22:41Z</time>
      </trkpt>
      <trkpt lat="44.38105" lon="5.80127">
        <ele>998.95</ele>
        <time>2021-09-18T11:23:20Z</time>
      </trkpt>
      <trkpt lat="44.38103" lon="5.80124">
        <ele>998.95</ele>
        <time>2021-09-18T11:23:52Z</time>
      </trkpt>
      <trkpt lat="44.38104" lon="5.80126">
        <ele>998.95</ele>
        <time>2021-09-18T11:24:22Z</time>
      </trkpt>
      <trkpt lat="44.38103" lon="5.80125">
        <ele>998.95</ele>
        <time>2021-09-18T11:24:58Z</time>
      </trkpt>
      <trkpt lat="44.38105" lon="5.80126">
        <ele>998.95</ele>
        <time>2021-09-18T11:25:39Z</time>
      </trkpt>
      <trkpt lat="44.38104" lon="5.80123">
        <ele>998.95</ele>
        <time>2021-09-18T11:26:18Z</time>
      </trkpt>
      <trkpt lat="44.38107" lon="5.80127">
        <ele>998.95</ele>
        <time>2021-09-18T11:26:48Z</time>
      </trkpt>
      <trkpt lat="44.38104" lon="5.80128">
        <ele>998.95</ele>
        <time>2021-09-18T11:27:30Z</time>
      </trkpt>
      <trkpt lat="44.38104" lon="5.80128">
        <ele>998.95</ele>
        <time>2021-09-18T11:28:00Z</time>
      </trkpt>
      <trkpt lat="44.38105" lon="5.80129">
        <ele>998.95</ele>
        <time>2021-09-18T11:28:30Z</time>
      </trkpt>
      <trkpt lat="44.38109" lon="5.80128">
        <ele>998.95</ele>
        <time>2021-09-18T11:28:52Z</time>
      </trkpt>
      <trkpt lat="44.38106" lon="5.80127">
        <ele>998.95</ele>
        <time>2021-09-18T11:29:25Z</time>
      </trkpt>
      <trkpt lat="44.38104" lon="5.80125">
        <ele>998.95</ele>
        <time>2021-09-18T11:29:58Z</time>
      </trkpt>
      <trkpt lat="44.38102" lon="5.80124">
        <ele>998.95</ele>
        <time>2021-09-18T11:30:28Z</time>
      </trkpt>
      <trkpt lat="44.38105" lon="5.80129">
        <ele>998.95</ele>
        <time>2021-09-18T11:31:06Z</time>
      </trkpt>
      <trkpt lat="44.38104" lon="5.8013">
        <ele>998.47</ele>
        <time>2021-09-18T11:31:45Z</time>
      </trkpt>
      <trkpt lat="44.38104" lon="5.80128">
        <ele>998.47</ele>
        <time>2021-09-18T11:32:13Z</time>
      </trkpt>
      <trkpt lat="44.38104" lon="5.80127">
        <ele>998.47</ele>
        <time>2021-09-18T11:33:01Z</time>
      </trkpt>
      <trkpt lat="44.38104" lon="5.80129">
        <ele>998.47</ele>
        <time>2021-09-18T11:33:37Z</time>
      </trkpt>
      <trkpt lat="44.38103" lon="5.80126">
        <ele>998.47</ele>
        <time>2021-09-18T11:34:18Z</time>
      </trkpt>
      <trkpt lat="44.38105" lon="5.80127">
        <ele>997.99</ele>
        <time>2021-09-18T11:35:02Z</time>
      </trkpt>
      <trkpt lat="44.38103" lon="5.80125">
        <ele>997.99</ele>
        <time>2021-09-18T11:35:52Z</time>
      </trkpt>
      <trkpt lat="44.38104" lon="5.80128">
        <ele>997.99</ele>
        <time>2021-09-18T11:36:31Z</time>
      </trkpt>
      <trkpt lat="44.38106" lon="5.80128">
        <ele>997.99</ele>
        <time>2021-09-18T11:37:06Z</time>
      </trkpt>
      <trkpt lat="44.38107" lon="5.80127">
        <ele>997.99</ele>
        <time>2021-09-18T11:37:45Z</time>
      </trkpt>
      <trkpt lat="44.38106" lon="5.80127">
        <ele>997.99</ele>
        <time>2021-09-18T11:38:16Z</time>
      </trkpt>
      <trkpt lat="44.38102" lon="5.80124">
        <ele>997.99</ele>
        <time>2021-09-18T11:38:53Z</time>
      </trkpt>
      <trkpt lat="44.38104" lon="5.80126">
        <ele>997.99</ele>
        <time>2021-09-18T11:39:24Z</time>
      </trkpt>
      <trkpt lat="44.38104" lon="5.80127">
        <ele>997.99</ele>
        <time>2021-09-18T11:40:02Z</time>
      </trkpt>
      <trkpt lat="44.38104" lon="5.80127">
        <ele>997.99</ele>
        <time>2021-09-18T11:40:41Z</time>
      </trkpt>
      <trkpt lat="44.38101" lon="5.80126">
        <ele>997.99</ele>
        <time>2021-09-18T11:41:15Z</time>
      </trkpt>
      <trkpt lat="44.38102" lon="5.80122">
        <ele>997.99</ele>
        <time>2021-09-18T11:41:44Z</time>
      </trkpt>
      <trkpt lat="44.38107" lon="5.8013">
        <ele>997.99</ele>
        <time>2021-09-18T11:42:18Z</time>
      </trkpt>
      <trkpt lat="44.38103" lon="5.80127">
        <ele>997.99</ele>
        <time>2021-09-18T11:42:52Z</time>
      </trkpt>
      <trkpt lat="44.38102" lon="5.80132">
        <ele>997.99</ele>
        <time>2021-09-18T11:43:20Z</time>
      </trkpt>
      <trkpt lat="44.38103" lon="5.80128">
        <ele>997.99</ele>
        <time>2021-09-18T11:43:49Z</time>
      </trkpt>
      <trkpt lat="44.38104" lon="5.80132">
        <ele>997.99</ele>
        <time>2021-09-18T11:43:57Z</time>
      </trkpt>
      <trkpt lat="44.38104" lon="5.80133">
        <ele>997.99</ele>
        <time>2021-09-18T11:43:58Z</time>
      </trkpt>
      <trkpt lat="44.38097" lon="5.80144">
        <ele>997.99</ele>
        <time>2021-09-18T11:44:08Z</time>
      </trkpt>
      <trkpt lat="44.38076" lon="5.80167">
        <ele>997.99</ele>
        <time>2021-09-18T11:44:24Z</time>
      </trkpt>
      <trkpt lat="44.3806" lon="5.8019">
        <ele>998.47</ele>
        <time>2021-09-18T11:44:39Z</time>
      </trkpt>
      <trkpt lat="44.3806" lon="5.80192">
        <ele>998.47</ele>
        <time>2021-09-18T11:44:40Z</time>
      </trkpt>
      <trkpt lat="44.38059" lon="5.80194">
        <ele>998.95</ele>
        <time>2021-09-18T11:44:41Z</time>
      </trkpt>
      <trkpt lat="44.38046" lon="5.80227">
        <ele>1000.87</ele>
        <time>2021-09-18T11:44:57Z</time>
      </trkpt>
      <trkpt lat="44.38029" lon="5.80261">
        <ele>1003.27</ele>
        <time>2021-09-18T11:45:13Z</time>
      </trkpt>
      <trkpt lat="44.38011" lon="5.80295">
        <ele>1005.2</ele>
        <time>2021-09-18T11:45:30Z</time>
      </trkpt>
      <trkpt lat="44.3799" lon="5.80325">
        <ele>1007.12</ele>
        <time>2021-09-18T11:45:47Z</time>
      </trkpt>
      <trkpt lat="44.37981" lon="5.80355">
        <ele>1008.08</ele>
        <time>2021-09-18T11:46:01Z</time>
      </trkpt>
      <trkpt lat="44.37979" lon="5.80377">
        <ele>1009.04</ele>
        <time>2021-09-18T11:46:10Z</time>
      </trkpt>
      <trkpt lat="44.37978" lon="5.80418">
        <ele>1011.44</ele>
        <time>2021-09-18T11:46:23Z</time>
      </trkpt>
      <trkpt lat="44.37972" lon="5.80462">
        <ele>1013.37</ele>
        <time>2021-09-18T11:46:39Z</time>
      </trkpt>
      <trkpt lat="44.37966" lon="5.80502">
        <ele>1014.81</ele>
        <time>2021-09-18T11:46:54Z</time>
      </trkpt>
      <trkpt lat="44.37957" lon="5.80551">
        <ele>1017.21</ele>
        <time>2021-09-18T11:47:12Z</time>
      </trkpt>
      <trkpt lat="44.37948" lon="5.80593">
        <ele>1018.17</ele>
        <time>2021-09-18T11:47:27Z</time>
      </trkpt>
      <trkpt lat="44.37937" lon="5.80647">
        <ele>1019.62</ele>
        <time>2021-09-18T11:47:46Z</time>
      </trkpt>
      <trkpt lat="44.37936" lon="5.80692">
        <ele>1022.5</ele>
        <time>2021-09-18T11:48:01Z</time>
      </trkpt>
      <trkpt lat="44.37921" lon="5.80725">
        <ele>1023.94</ele>
        <time>2021-09-18T11:48:15Z</time>
      </trkpt>
      <trkpt lat="44.37913" lon="5.80757">
        <ele>1025.86</ele>
        <time>2021-09-18T11:48:28Z</time>
      </trkpt>
      <trkpt lat="44.37916" lon="5.80807">
        <ele>1028.27</ele>
        <time>2021-09-18T11:48:44Z</time>
      </trkpt>
      <trkpt lat="44.37902" lon="5.80839">
        <ele>1029.71</ele>
        <time>2021-09-18T11:48:57Z</time>
      </trkpt>
      <trkpt lat="44.37882" lon="5.80863">
        <ele>1031.15</ele>
        <time>2021-09-18T11:49:10Z</time>
      </trkpt>
      <trkpt lat="44.37876" lon="5.8088">
        <ele>1032.11</ele>
        <time>2021-09-18T11:49:17Z</time>
      </trkpt>
      <trkpt lat="44.37877" lon="5.80883">
        <ele>1032.11</ele>
        <time>2021-09-18T11:49:18Z</time>
      </trkpt>
      <trkpt lat="44.37877" lon="5.80885">
        <ele>1032.59</ele>
        <time>2021-09-18T11:49:19Z</time>
      </trkpt>
      <trkpt lat="44.37877" lon="5.80888">
        <ele>1032.59</ele>
        <time>2021-09-18T11:49:20Z</time>
      </trkpt>
      <trkpt lat="44.37877" lon="5.80891">
        <ele>1032.59</ele>
        <time>2021-09-18T11:49:21Z</time>
      </trkpt>
      <trkpt lat="44.37877" lon="5.80894">
        <ele>1032.59</ele>
        <time>2021-09-18T11:49:22Z</time>
      </trkpt>
      <trkpt lat="44.37871" lon="5.80917">
        <ele>1033.55</ele>
        <time>2021-09-18T11:49:30Z</time>
      </trkpt>
      <trkpt lat="44.3787" lon="5.80919">
        <ele>1034.52</ele>
        <time>2021-09-18T11:49:31Z</time>
      </trkpt>
      <trkpt lat="44.37869" lon="5.80922">
        <ele>1034.52</ele>
        <time>2021-09-18T11:49:32Z</time>
      </trkpt>
      <trkpt lat="44.37868" lon="5.80925">
        <ele>1034.52</ele>
        <time>2021-09-18T11:49:33Z</time>
      </trkpt>
      <trkpt lat="44.37867" lon="5.80928">
        <ele>1034.52</ele>
        <time>2021-09-18T11:49:34Z</time>
      </trkpt>
      <trkpt lat="44.37858" lon="5.80961">
        <ele>1035.96</ele>
        <time>2021-09-18T11:49:47Z</time>
      </trkpt>
      <trkpt lat="44.37858" lon="5.80964">
        <ele>1035.96</ele>
        <time>2021-09-18T11:49:48Z</time>
      </trkpt>
      <trkpt lat="44.37858" lon="5.80967">
        <ele>1035.96</ele>
        <time>2021-09-18T11:49:49Z</time>
      </trkpt>
      <trkpt lat="44.37857" lon="5.8097">
        <ele>1036.92</ele>
        <time>2021-09-18T11:49:50Z</time>
      </trkpt>
      <trkpt lat="44.37857" lon="5.80973">
        <ele>1036.92</ele>
        <time>2021-09-18T11:49:51Z</time>
      </trkpt>
      <trkpt lat="44.37856" lon="5.80975">
        <ele>1037.4</ele>
        <time>2021-09-18T11:49:52Z</time>
      </trkpt>
      <trkpt lat="44.37856" lon="5.80978">
        <ele>1037.4</ele>
        <time>2021-09-18T11:49:53Z</time>
      </trkpt>
      <trkpt lat="44.37843" lon="5.81011">
        <ele>1039.8</ele>
        <time>2021-09-18T11:50:07Z</time>
      </trkpt>
      <trkpt lat="44.37836" lon="5.81029">
        <ele>1041.25</ele>
        <time>2021-09-18T11:50:16Z</time>
      </trkpt>
      <trkpt lat="44.37835" lon="5.81031">
        <ele>1041.73</ele>
        <time>2021-09-18T11:50:17Z</time>
      </trkpt>
      <trkpt lat="44.37835" lon="5.81033">
        <ele>1042.21</ele>
        <time>2021-09-18T11:50:18Z</time>
      </trkpt>
      <trkpt lat="44.37835" lon="5.81036">
        <ele>1042.21</ele>
        <time>2021-09-18T11:50:19Z</time>
      </trkpt>
      <trkpt lat="44.37834" lon="5.81038">
        <ele>1042.21</ele>
        <time>2021-09-18T11:50:20Z</time>
      </trkpt>
      <trkpt lat="44.37834" lon="5.8104">
        <ele>1042.69</ele>
        <time>2021-09-18T11:50:21Z</time>
      </trkpt>
      <trkpt lat="44.37834" lon="5.81043">
        <ele>1042.69</ele>
        <time>2021-09-18T11:50:22Z</time>
      </trkpt>
      <trkpt lat="44.37834" lon="5.81045">
        <ele>1042.69</ele>
        <time>2021-09-18T11:50:23Z</time>
      </trkpt>
      <trkpt lat="44.37834" lon="5.81048">
        <ele>1043.17</ele>
        <time>2021-09-18T11:50:24Z</time>
      </trkpt>
      <trkpt lat="44.37833" lon="5.81051">
        <ele>1043.17</ele>
        <time>2021-09-18T11:50:25Z</time>
      </trkpt>
      <trkpt lat="44.37833" lon="5.81054">
        <ele>1043.65</ele>
        <time>2021-09-18T11:50:26Z</time>
      </trkpt>
      <trkpt lat="44.37824" lon="5.81087">
        <ele>1046.05</ele>
        <time>2021-09-18T11:50:38Z</time>
      </trkpt>
      <trkpt lat="44.37806" lon="5.81114">
        <ele>1047.97</ele>
        <time>2021-09-18T11:50:50Z</time>
      </trkpt>
      <trkpt lat="44.37802" lon="5.81125">
        <ele>1049.42</ele>
        <time>2021-09-18T11:50:56Z</time>
      </trkpt>
      <trkpt lat="44.37802" lon="5.81127">
        <ele>1049.42</ele>
        <time>2021-09-18T11:50:57Z</time>
      </trkpt>
      <trkpt lat="44.37803" lon="5.81129">
        <ele>1049.42</ele>
        <time>2021-09-18T11:50:58Z</time>
      </trkpt>
      <trkpt lat="44.37803" lon="5.81132">
        <ele>1049.42</ele>
        <time>2021-09-18T11:50:59Z</time>
      </trkpt>
      <trkpt lat="44.37803" lon="5.81134">
        <ele>1049.9</ele>
        <time>2021-09-18T11:51:00Z</time>
      </trkpt>
      <trkpt lat="44.37803" lon="5.81138">
        <ele>1050.38</ele>
        <time>2021-09-18T11:51:01Z</time>
      </trkpt>
      <trkpt lat="44.37803" lon="5.8114">
        <ele>1050.38</ele>
        <time>2021-09-18T11:51:02Z</time>
      </trkpt>
      <trkpt lat="44.37802" lon="5.81143">
        <ele>1050.38</ele>
        <time>2021-09-18T11:51:03Z</time>
      </trkpt>
      <trkpt lat="44.37801" lon="5.81146">
        <ele>1050.86</ele>
        <time>2021-09-18T11:51:04Z</time>
      </trkpt>
      <trkpt lat="44.37794" lon="5.81175">
        <ele>1053.26</ele>
        <time>2021-09-18T11:51:16Z</time>
      </trkpt>
      <trkpt lat="44.37779" lon="5.81206">
        <ele>1055.18</ele>
        <time>2021-09-18T11:51:28Z</time>
      </trkpt>
      <trkpt lat="44.37761" lon="5.81241">
        <ele>1057.11</ele>
        <time>2021-09-18T11:51:42Z</time>
      </trkpt>
      <trkpt lat="44.3776" lon="5.81243">
        <ele>1057.59</ele>
        <time>2021-09-18T11:51:43Z</time>
      </trkpt>
      <trkpt lat="44.37759" lon="5.81245">
        <ele>1058.07</ele>
        <time>2021-09-18T11:51:44Z</time>
      </trkpt>
      <trkpt lat="44.37754" lon="5.81256">
        <ele>1059.03</ele>
        <time>2021-09-18T11:51:50Z</time>
      </trkpt>
      <trkpt lat="44.37753" lon="5.81257">
        <ele>1059.03</ele>
        <time>2021-09-18T11:51:51Z</time>
      </trkpt>
      <trkpt lat="44.37752" lon="5.8126">
        <ele>1059.51</ele>
        <time>2021-09-18T11:51:52Z</time>
      </trkpt>
      <trkpt lat="44.37751" lon="5.81261">
        <ele>1059.51</ele>
        <time>2021-09-18T11:51:53Z</time>
      </trkpt>
      <trkpt lat="44.3775" lon="5.81264">
        <ele>1059.51</ele>
        <time>2021-09-18T11:51:54Z</time>
      </trkpt>
      <trkpt lat="44.37749" lon="5.81266">
        <ele>1059.99</ele>
        <time>2021-09-18T11:51:55Z</time>
      </trkpt>
      <trkpt lat="44.37748" lon="5.81269">
        <ele>1059.99</ele>
        <time>2021-09-18T11:51:56Z</time>
      </trkpt>
      <trkpt lat="44.37746" lon="5.81271">
        <ele>1059.99</ele>
        <time>2021-09-18T11:51:57Z</time>
      </trkpt>
      <trkpt lat="44.37745" lon="5.81273">
        <ele>1060.47</ele>
        <time>2021-09-18T11:51:58Z</time>
      </trkpt>
      <trkpt lat="44.37744" lon="5.81276">
        <ele>1060.47</ele>
        <time>2021-09-18T11:51:59Z</time>
      </trkpt>
      <trkpt lat="44.37732" lon="5.81311">
        <ele>1062.87</ele>
        <time>2021-09-18T11:52:13Z</time>
      </trkpt>
      <trkpt lat="44.37729" lon="5.81345">
        <ele>1065.28</ele>
        <time>2021-09-18T11:52:26Z</time>
      </trkpt>
      <trkpt lat="44.37729" lon="5.81376">
        <ele>1068.16</ele>
        <time>2021-09-18T11:52:39Z</time>
      </trkpt>
      <trkpt lat="44.37732" lon="5.8141">
        <ele>1070.08</ele>
        <time>2021-09-18T11:52:51Z</time>
      </trkpt>
      <trkpt lat="44.3774" lon="5.81449">
        <ele>1072.49</ele>
        <time>2021-09-18T11:53:05Z</time>
      </trkpt>
      <trkpt lat="44.3774" lon="5.81451">
        <ele>1072.49</ele>
        <time>2021-09-18T11:53:06Z</time>
      </trkpt>
      <trkpt lat="44.3774" lon="5.81454">
        <ele>1072.49</ele>
        <time>2021-09-18T11:53:07Z</time>
      </trkpt>
      <trkpt lat="44.3774" lon="5.81456">
        <ele>1072.97</ele>
        <time>2021-09-18T11:53:08Z</time>
      </trkpt>
      <trkpt lat="44.3774" lon="5.81457">
        <ele>1072.97</ele>
        <time>2021-09-18T11:53:09Z</time>
      </trkpt>
      <trkpt lat="44.3774" lon="5.8146">
        <ele>1072.97</ele>
        <time>2021-09-18T11:53:10Z</time>
      </trkpt>
      <trkpt lat="44.37739" lon="5.81462">
        <ele>1073.45</ele>
        <time>2021-09-18T11:53:11Z</time>
      </trkpt>
      <trkpt lat="44.37739" lon="5.81465">
        <ele>1073.45</ele>
        <time>2021-09-18T11:53:12Z</time>
      </trkpt>
      <trkpt lat="44.37738" lon="5.81468">
        <ele>1073.45</ele>
        <time>2021-09-18T11:53:13Z</time>
      </trkpt>
      <trkpt lat="44.37738" lon="5.8147">
        <ele>1073.45</ele>
        <time>2021-09-18T11:53:14Z</time>
      </trkpt>
      <trkpt lat="44.37737" lon="5.81473">
        <ele>1073.45</ele>
        <time>2021-09-18T11:53:15Z</time>
      </trkpt>
      <trkpt lat="44.37736" lon="5.81477">
        <ele>1073.93</ele>
        <time>2021-09-18T11:53:17Z</time>
      </trkpt>
      <trkpt lat="44.37735" lon="5.81479">
        <ele>1073.93</ele>
        <time>2021-09-18T11:53:18Z</time>
      </trkpt>
      <trkpt lat="44.37735" lon="5.81481">
        <ele>1073.93</ele>
        <time>2021-09-18T11:53:19Z</time>
      </trkpt>
      <trkpt lat="44.37734" lon="5.81483">
        <ele>1073.93</ele>
        <time>2021-09-18T11:53:20Z</time>
      </trkpt>
      <trkpt lat="44.37733" lon="5.81486">
        <ele>1074.41</ele>
        <time>2021-09-18T11:53:21Z</time>
      </trkpt>
      <trkpt lat="44.37732" lon="5.81488">
        <ele>1074.41</ele>
        <time>2021-09-18T11:53:22Z</time>
      </trkpt>
      <trkpt lat="44.37724" lon="5.81524">
        <ele>1077.29</ele>
        <time>2021-09-18T11:53:36Z</time>
      </trkpt>
      <trkpt lat="44.37722" lon="5.81568">
        <ele>1079.22</ele>
        <time>2021-09-18T11:53:51Z</time>
      </trkpt>
      <trkpt lat="44.37717" lon="5.81607">
        <ele>1082.1</ele>
        <time>2021-09-18T11:54:05Z</time>
      </trkpt>
      <trkpt lat="44.37716" lon="5.81634">
        <ele>1083.54</ele>
        <time>2021-09-18T11:54:15Z</time>
      </trkpt>
      <trkpt lat="44.37715" lon="5.81673">
        <ele>1084.5</ele>
        <time>2021-09-18T11:54:28Z</time>
      </trkpt>
      <trkpt lat="44.37694" lon="5.8171">
        <ele>1086.91</ele>
        <time>2021-09-18T11:54:43Z</time>
      </trkpt>
      <trkpt lat="44.37667" lon="5.81723">
        <ele>1089.31</ele>
        <time>2021-09-18T11:54:57Z</time>
      </trkpt>
      <trkpt lat="44.37662" lon="5.81728">
        <ele>1089.31</ele>
        <time>2021-09-18T11:55:00Z</time>
      </trkpt>
      <trkpt lat="44.37662" lon="5.81729">
        <ele>1089.31</ele>
        <time>2021-09-18T11:55:01Z</time>
      </trkpt>
      <trkpt lat="44.37661" lon="5.81731">
        <ele>1089.79</ele>
        <time>2021-09-18T11:55:02Z</time>
      </trkpt>
      <trkpt lat="44.37654" lon="5.81758">
        <ele>1091.71</ele>
        <time>2021-09-18T11:55:15Z</time>
      </trkpt>
      <trkpt lat="44.37656" lon="5.81792">
        <ele>1094.12</ele>
        <time>2021-09-18T11:55:28Z</time>
      </trkpt>
      <trkpt lat="44.37643" lon="5.81826">
        <ele>1095.56</ele>
        <time>2021-09-18T11:55:43Z</time>
      </trkpt>
      <trkpt lat="44.3764" lon="5.81864">
        <ele>1097.48</ele>
        <time>2021-09-18T11:55:57Z</time>
      </trkpt>
      <trkpt lat="44.37634" lon="5.81905">
        <ele>1099.89</ele>
        <time>2021-09-18T11:56:12Z</time>
      </trkpt>
      <trkpt lat="44.3763" lon="5.81947">
        <ele>1101.81</ele>
        <time>2021-09-18T11:56:29Z</time>
      </trkpt>
      <trkpt lat="44.37626" lon="5.81985">
        <ele>1104.21</ele>
        <time>2021-09-18T11:56:46Z</time>
      </trkpt>
      <trkpt lat="44.37622" lon="5.8202">
        <ele>1106.13</ele>
        <time>2021-09-18T11:57:01Z</time>
      </trkpt>
      <trkpt lat="44.37622" lon="5.82023">
        <ele>1106.13</ele>
        <time>2021-09-18T11:57:02Z</time>
      </trkpt>
      <trkpt lat="44.37619" lon="5.82062">
        <ele>1108.54</ele>
        <time>2021-09-18T11:57:20Z</time>
      </trkpt>
      <trkpt lat="44.37612" lon="5.821">
        <ele>1110.46</ele>
        <time>2021-09-18T11:57:36Z</time>
      </trkpt>
      <trkpt lat="44.37608" lon="5.82136">
        <ele>1112.38</ele>
        <time>2021-09-18T11:57:50Z</time>
      </trkpt>
      <trkpt lat="44.37608" lon="5.82173">
        <ele>1114.79</ele>
        <time>2021-09-18T11:58:05Z</time>
      </trkpt>
      <trkpt lat="44.37601" lon="5.82207">
        <ele>1116.23</ele>
        <time>2021-09-18T11:58:19Z</time>
      </trkpt>
      <trkpt lat="44.37599" lon="5.82242">
        <ele>1118.63</ele>
        <time>2021-09-18T11:58:35Z</time>
      </trkpt>
      <trkpt lat="44.37595" lon="5.82274">
        <ele>1119.59</ele>
        <time>2021-09-18T11:58:48Z</time>
      </trkpt>
      <trkpt lat="44.37589" lon="5.82307">
        <ele>1122</ele>
        <time>2021-09-18T11:59:02Z</time>
      </trkpt>
      <trkpt lat="44.37584" lon="5.82347">
        <ele>1124.4</ele>
        <time>2021-09-18T11:59:19Z</time>
      </trkpt>
      <trkpt lat="44.37581" lon="5.82382">
        <ele>1126.32</ele>
        <time>2021-09-18T11:59:35Z</time>
      </trkpt>
      <trkpt lat="44.3758" lon="5.82394">
        <ele>1126.8</ele>
        <time>2021-09-18T11:59:40Z</time>
      </trkpt>
      <trkpt lat="44.3758" lon="5.82397">
        <ele>1126.8</ele>
        <time>2021-09-18T11:59:41Z</time>
      </trkpt>
      <trkpt lat="44.37576" lon="5.82435">
        <ele>1128.24</ele>
        <time>2021-09-18T11:59:56Z</time>
      </trkpt>
      <trkpt lat="44.37573" lon="5.82475">
        <ele>1130.65</ele>
        <time>2021-09-18T12:00:13Z</time>
      </trkpt>
      <trkpt lat="44.37572" lon="5.82493">
        <ele>1131.61</ele>
        <time>2021-09-18T12:00:21Z</time>
      </trkpt>
      <trkpt lat="44.37572" lon="5.82496">
        <ele>1132.09</ele>
        <time>2021-09-18T12:00:22Z</time>
      </trkpt>
      <trkpt lat="44.37571" lon="5.82498">
        <ele>1131.61</ele>
        <time>2021-09-18T12:00:23Z</time>
      </trkpt>
      <trkpt lat="44.37562" lon="5.82535">
        <ele>1134.49</ele>
        <time>2021-09-18T12:00:41Z</time>
      </trkpt>
      <trkpt lat="44.37553" lon="5.82573">
        <ele>1136.9</ele>
        <time>2021-09-18T12:00:58Z</time>
      </trkpt>
      <trkpt lat="44.37546" lon="5.82617">
        <ele>1138.34</ele>
        <time>2021-09-18T12:01:16Z</time>
      </trkpt>
      <trkpt lat="44.37541" lon="5.82651">
        <ele>1140.26</ele>
        <time>2021-09-18T12:01:31Z</time>
      </trkpt>
      <trkpt lat="44.37546" lon="5.82693">
        <ele>1142.66</ele>
        <time>2021-09-18T12:01:49Z</time>
      </trkpt>
      <trkpt lat="44.37548" lon="5.82723">
        <ele>1144.11</ele>
        <time>2021-09-18T12:02:02Z</time>
      </trkpt>
      <trkpt lat="44.37544" lon="5.82757">
        <ele>1146.51</ele>
        <time>2021-09-18T12:02:17Z</time>
      </trkpt>
      <trkpt lat="44.3754" lon="5.82802">
        <ele>1148.91</ele>
        <time>2021-09-18T12:02:36Z</time>
      </trkpt>
      <trkpt lat="44.37539" lon="5.82824">
        <ele>1150.35</ele>
        <time>2021-09-18T12:02:45Z</time>
      </trkpt>
      <trkpt lat="44.37539" lon="5.82827">
        <ele>1150.35</ele>
        <time>2021-09-18T12:02:46Z</time>
      </trkpt>
      <trkpt lat="44.37539" lon="5.82829">
        <ele>1150.35</ele>
        <time>2021-09-18T12:02:47Z</time>
      </trkpt>
      <trkpt lat="44.37534" lon="5.82861">
        <ele>1152.76</ele>
        <time>2021-09-18T12:03:02Z</time>
      </trkpt>
      <trkpt lat="44.37534" lon="5.82863">
        <ele>1152.76</ele>
        <time>2021-09-18T12:03:03Z</time>
      </trkpt>
      <trkpt lat="44.37531" lon="5.8287">
        <ele>1153.72</ele>
        <time>2021-09-18T12:03:07Z</time>
      </trkpt>
      <trkpt lat="44.37531" lon="5.82872">
        <ele>1153.72</ele>
        <time>2021-09-18T12:03:08Z</time>
      </trkpt>
      <trkpt lat="44.3753" lon="5.82875">
        <ele>1153.72</ele>
        <time>2021-09-18T12:03:09Z</time>
      </trkpt>
      <trkpt lat="44.37529" lon="5.82877">
        <ele>1153.72</ele>
        <time>2021-09-18T12:03:10Z</time>
      </trkpt>
      <trkpt lat="44.37528" lon="5.82879">
        <ele>1154.2</ele>
        <time>2021-09-18T12:03:11Z</time>
      </trkpt>
      <trkpt lat="44.3752" lon="5.82905">
        <ele>1156.12</ele>
        <time>2021-09-18T12:03:24Z</time>
      </trkpt>
      <trkpt lat="44.37516" lon="5.82916">
        <ele>1156.6</ele>
        <time>2021-09-18T12:03:29Z</time>
      </trkpt>
      <trkpt lat="44.37515" lon="5.82919">
        <ele>1156.6</ele>
        <time>2021-09-18T12:03:30Z</time>
      </trkpt>
      <trkpt lat="44.37514" lon="5.82927">
        <ele>1157.08</ele>
        <time>2021-09-18T12:03:34Z</time>
      </trkpt>
      <trkpt lat="44.3751" lon="5.8296">
        <ele>1159.49</ele>
        <time>2021-09-18T12:03:49Z</time>
      </trkpt>
      <trkpt lat="44.3751" lon="5.82991">
        <ele>1161.41</ele>
        <time>2021-09-18T12:04:02Z</time>
      </trkpt>
      <trkpt lat="44.37509" lon="5.83027">
        <ele>1163.81</ele>
        <time>2021-09-18T12:04:16Z</time>
      </trkpt>
      <trkpt lat="44.37503" lon="5.83059">
        <ele>1165.26</ele>
        <time>2021-09-18T12:04:29Z</time>
      </trkpt>
      <trkpt lat="44.37495" lon="5.83079">
        <ele>1166.22</ele>
        <time>2021-09-18T12:04:38Z</time>
      </trkpt>
      <trkpt lat="44.37495" lon="5.83082">
        <ele>1166.22</ele>
        <time>2021-09-18T12:04:39Z</time>
      </trkpt>
      <trkpt lat="44.37494" lon="5.83084">
        <ele>1167.18</ele>
        <time>2021-09-18T12:04:40Z</time>
      </trkpt>
      <trkpt lat="44.37494" lon="5.83086">
        <ele>1167.18</ele>
        <time>2021-09-18T12:04:41Z</time>
      </trkpt>
      <trkpt lat="44.37493" lon="5.83089">
        <ele>1167.66</ele>
        <time>2021-09-18T12:04:42Z</time>
      </trkpt>
      <trkpt lat="44.37493" lon="5.83092">
        <ele>1167.66</ele>
        <time>2021-09-18T12:04:43Z</time>
      </trkpt>
      <trkpt lat="44.37493" lon="5.83094">
        <ele>1167.66</ele>
        <time>2021-09-18T12:04:44Z</time>
      </trkpt>
      <trkpt lat="44.37492" lon="5.83096">
        <ele>1167.66</ele>
        <time>2021-09-18T12:04:45Z</time>
      </trkpt>
      <trkpt lat="44.37492" lon="5.83099">
        <ele>1168.14</ele>
        <time>2021-09-18T12:04:46Z</time>
      </trkpt>
      <trkpt lat="44.37486" lon="5.8315">
        <ele>1170.06</ele>
        <time>2021-09-18T12:05:06Z</time>
      </trkpt>
      <trkpt lat="44.37486" lon="5.83192">
        <ele>1172.47</ele>
        <time>2021-09-18T12:05:22Z</time>
      </trkpt>
      <trkpt lat="44.37487" lon="5.83199">
        <ele>1172.95</ele>
        <time>2021-09-18T12:05:25Z</time>
      </trkpt>
      <trkpt lat="44.37487" lon="5.83202">
        <ele>1172.95</ele>
        <time>2021-09-18T12:05:26Z</time>
      </trkpt>
      <trkpt lat="44.37486" lon="5.83246">
        <ele>1175.35</ele>
        <time>2021-09-18T12:05:43Z</time>
      </trkpt>
      <trkpt lat="44.37483" lon="5.83278">
        <ele>1177.27</ele>
        <time>2021-09-18T12:05:55Z</time>
      </trkpt>
      <trkpt lat="44.37486" lon="5.83322">
        <ele>1178.23</ele>
        <time>2021-09-18T12:06:10Z</time>
      </trkpt>
      <trkpt lat="44.37481" lon="5.83359">
        <ele>1180.64</ele>
        <time>2021-09-18T12:06:24Z</time>
      </trkpt>
      <trkpt lat="44.37475" lon="5.83402">
        <ele>1183.04</ele>
        <time>2021-09-18T12:06:39Z</time>
      </trkpt>
      <trkpt lat="44.37482" lon="5.83445">
        <ele>1184.96</ele>
        <time>2021-09-18T12:06:55Z</time>
      </trkpt>
      <trkpt lat="44.37498" lon="5.83491">
        <ele>1187.85</ele>
        <time>2021-09-18T12:07:13Z</time>
      </trkpt>
      <trkpt lat="44.37519" lon="5.83519">
        <ele>1190.25</ele>
        <time>2021-09-18T12:07:28Z</time>
      </trkpt>
      <trkpt lat="44.3753" lon="5.83528">
        <ele>1191.21</ele>
        <time>2021-09-18T12:07:36Z</time>
      </trkpt>
      <trkpt lat="44.37531" lon="5.8353">
        <ele>1191.21</ele>
        <time>2021-09-18T12:07:37Z</time>
      </trkpt>
      <trkpt lat="44.37531" lon="5.83531">
        <ele>1191.69</ele>
        <time>2021-09-18T12:07:38Z</time>
      </trkpt>
      <trkpt lat="44.37535" lon="5.83564">
        <ele>1192.17</ele>
        <time>2021-09-18T12:07:53Z</time>
      </trkpt>
      <trkpt lat="44.3754" lon="5.83599">
        <ele>1192.17</ele>
        <time>2021-09-18T12:08:06Z</time>
      </trkpt>
      <trkpt lat="44.37539" lon="5.83605">
        <ele>1192.17</ele>
        <time>2021-09-18T12:08:09Z</time>
      </trkpt>
      <trkpt lat="44.37539" lon="5.83609">
        <ele>1191.21</ele>
        <time>2021-09-18T12:08:12Z</time>
      </trkpt>
      <trkpt lat="44.37539" lon="5.8361">
        <ele>1191.21</ele>
        <time>2021-09-18T12:08:13Z</time>
      </trkpt>
      <trkpt lat="44.3754" lon="5.83614">
        <ele>1191.21</ele>
        <time>2021-09-18T12:08:15Z</time>
      </trkpt>
      <trkpt lat="44.3754" lon="5.83615">
        <ele>1191.21</ele>
        <time>2021-09-18T12:08:28Z</time>
      </trkpt>
      <trkpt lat="44.37539" lon="5.83613">
        <ele>1191.21</ele>
        <time>2021-09-18T12:08:51Z</time>
      </trkpt>
      <trkpt lat="44.37538" lon="5.83613">
        <ele>1192.17</ele>
        <time>2021-09-18T12:09:20Z</time>
      </trkpt>
      <trkpt lat="44.37538" lon="5.83616">
        <ele>1192.17</ele>
        <time>2021-09-18T12:09:48Z</time>
      </trkpt>
      <trkpt lat="44.3754" lon="5.83616">
        <ele>1192.17</ele>
        <time>2021-09-18T12:10:18Z</time>
      </trkpt>
      <trkpt lat="44.37541" lon="5.83611">
        <ele>1192.17</ele>
        <time>2021-09-18T12:10:51Z</time>
      </trkpt>
      <trkpt lat="44.37539" lon="5.83615">
        <ele>1192.17</ele>
        <time>2021-09-18T12:11:18Z</time>
      </trkpt>
      <trkpt lat="44.3754" lon="5.83614">
        <ele>1192.17</ele>
        <time>2021-09-18T12:11:49Z</time>
      </trkpt>
      <trkpt lat="44.37538" lon="5.83611">
        <ele>1192.17</ele>
        <time>2021-09-18T12:12:18Z</time>
      </trkpt>
      <trkpt lat="44.3754" lon="5.83614">
        <ele>1192.17</ele>
        <time>2021-09-18T12:12:43Z</time>
      </trkpt>
      <trkpt lat="44.37538" lon="5.83615">
        <ele>1192.17</ele>
        <time>2021-09-18T12:13:20Z</time>
      </trkpt>
      <trkpt lat="44.37535" lon="5.83618">
        <ele>1192.17</ele>
        <time>2021-09-18T12:13:45Z</time>
      </trkpt>
      <trkpt lat="44.37536" lon="5.83617">
        <ele>1191.69</ele>
        <time>2021-09-18T12:14:17Z</time>
      </trkpt>
      <trkpt lat="44.37539" lon="5.83611">
        <ele>1192.17</ele>
        <time>2021-09-18T12:14:49Z</time>
      </trkpt>
      <trkpt lat="44.37539" lon="5.83613">
        <ele>1192.17</ele>
        <time>2021-09-18T12:15:23Z</time>
      </trkpt>
      <trkpt lat="44.37535" lon="5.83617">
        <ele>1192.17</ele>
        <time>2021-09-18T12:15:54Z</time>
      </trkpt>
      <trkpt lat="44.37539" lon="5.83612">
        <ele>1192.17</ele>
        <time>2021-09-18T12:16:14Z</time>
      </trkpt>
      <trkpt lat="44.37539" lon="5.83611">
        <ele>1192.17</ele>
        <time>2021-09-18T12:16:35Z</time>
      </trkpt>
      <trkpt lat="44.37537" lon="5.83605">
        <ele>1192.17</ele>
        <time>2021-09-18T12:16:48Z</time>
      </trkpt>
      <trkpt lat="44.37531" lon="5.83615">
        <ele>1189.77</ele>
        <time>2021-09-18T12:17:02Z</time>
      </trkpt>
      <trkpt lat="44.37531" lon="5.83625">
        <ele>1185.92</ele>
        <time>2021-09-18T12:17:06Z</time>
      </trkpt>
      <trkpt lat="44.37528" lon="5.83638">
        <ele>1182.56</ele>
        <time>2021-09-18T12:17:10Z</time>
      </trkpt>
      <trkpt lat="44.37528" lon="5.83641">
        <ele>1181.6</ele>
        <time>2021-09-18T12:17:11Z</time>
      </trkpt>
      <trkpt lat="44.37526" lon="5.83659">
        <ele>1178.23</ele>
        <time>2021-09-18T12:17:16Z</time>
      </trkpt>
      <trkpt lat="44.37524" lon="5.83663">
        <ele>1176.79</ele>
        <time>2021-09-18T12:17:17Z</time>
      </trkpt>
      <trkpt lat="44.37522" lon="5.83667">
        <ele>1175.83</ele>
        <time>2021-09-18T12:17:18Z</time>
      </trkpt>
      <trkpt lat="44.37519" lon="5.8367">
        <ele>1173.91</ele>
        <time>2021-09-18T12:17:19Z</time>
      </trkpt>
      <trkpt lat="44.37518" lon="5.83674">
        <ele>1172.95</ele>
        <time>2021-09-18T12:17:20Z</time>
      </trkpt>
      <trkpt lat="44.37517" lon="5.83677">
        <ele>1171.5</ele>
        <time>2021-09-18T12:17:21Z</time>
      </trkpt>
      <trkpt lat="44.37517" lon="5.8368">
        <ele>1170.54</ele>
        <time>2021-09-18T12:17:22Z</time>
      </trkpt>
      <trkpt lat="44.37517" lon="5.83683">
        <ele>1170.06</ele>
        <time>2021-09-18T12:17:23Z</time>
      </trkpt>
      <trkpt lat="44.37518" lon="5.83685">
        <ele>1169.1</ele>
        <time>2021-09-18T12:17:24Z</time>
      </trkpt>
      <trkpt lat="44.37521" lon="5.83695">
        <ele>1168.14</ele>
        <time>2021-09-18T12:17:27Z</time>
      </trkpt>
      <trkpt lat="44.37521" lon="5.837">
        <ele>1167.66</ele>
        <time>2021-09-18T12:17:28Z</time>
      </trkpt>
      <trkpt lat="44.3752" lon="5.83705">
        <ele>1167.18</ele>
        <time>2021-09-18T12:17:29Z</time>
      </trkpt>
      <trkpt lat="44.3752" lon="5.83721">
        <ele>1163.81</ele>
        <time>2021-09-18T12:17:32Z</time>
      </trkpt>
      <trkpt lat="44.3752" lon="5.83741">
        <ele>1159.97</ele>
        <time>2021-09-18T12:17:36Z</time>
      </trkpt>
      <trkpt lat="44.37522" lon="5.83744">
        <ele>1159.01</ele>
        <time>2021-09-18T12:17:37Z</time>
      </trkpt>
      <trkpt lat="44.37522" lon="5.83747">
        <ele>1158.53</ele>
        <time>2021-09-18T12:17:38Z</time>
      </trkpt>
      <trkpt lat="44.37523" lon="5.83751">
        <ele>1158.05</ele>
        <time>2021-09-18T12:17:39Z</time>
      </trkpt>
      <trkpt lat="44.37522" lon="5.83754">
        <ele>1157.56</ele>
        <time>2021-09-18T12:17:40Z</time>
      </trkpt>
      <trkpt lat="44.37523" lon="5.83756">
        <ele>1156.12</ele>
        <time>2021-09-18T12:17:41Z</time>
      </trkpt>
      <trkpt lat="44.37524" lon="5.83758">
        <ele>1156.12</ele>
        <time>2021-09-18T12:17:42Z</time>
      </trkpt>
      <trkpt lat="44.37524" lon="5.83761">
        <ele>1155.16</ele>
        <time>2021-09-18T12:17:43Z</time>
      </trkpt>
      <trkpt lat="44.37524" lon="5.83764">
        <ele>1155.16</ele>
        <time>2021-09-18T12:17:44Z</time>
      </trkpt>
      <trkpt lat="44.37523" lon="5.83767">
        <ele>1154.2</ele>
        <time>2021-09-18T12:17:45Z</time>
      </trkpt>
      <trkpt lat="44.37523" lon="5.8377">
        <ele>1153.72</ele>
        <time>2021-09-18T12:17:46Z</time>
      </trkpt>
      <trkpt lat="44.37524" lon="5.83773">
        <ele>1152.28</ele>
        <time>2021-09-18T12:17:47Z</time>
      </trkpt>
      <trkpt lat="44.37525" lon="5.83777">
        <ele>1151.8</ele>
        <time>2021-09-18T12:17:48Z</time>
      </trkpt>
      <trkpt lat="44.37524" lon="5.83781">
        <ele>1151.8</ele>
        <time>2021-09-18T12:17:49Z</time>
      </trkpt>
      <trkpt lat="44.37523" lon="5.83786">
        <ele>1149.39</ele>
        <time>2021-09-18T12:17:50Z</time>
      </trkpt>
      <trkpt lat="44.37521" lon="5.8379">
        <ele>1149.39</ele>
        <time>2021-09-18T12:17:51Z</time>
      </trkpt>
      <trkpt lat="44.37518" lon="5.83806">
        <ele>1146.51</ele>
        <time>2021-09-18T12:17:54Z</time>
      </trkpt>
      <trkpt lat="44.37516" lon="5.8383">
        <ele>1143.14</ele>
        <time>2021-09-18T12:17:58Z</time>
      </trkpt>
      <trkpt lat="44.37517" lon="5.83845">
        <ele>1140.26</ele>
        <time>2021-09-18T12:18:02Z</time>
      </trkpt>
      <trkpt lat="44.37515" lon="5.83845">
        <ele>1139.3</ele>
        <time>2021-09-18T12:18:03Z</time>
      </trkpt>
      <trkpt lat="44.37505" lon="5.83834">
        <ele>1135.45</ele>
        <time>2021-09-18T12:18:08Z</time>
      </trkpt>
      <trkpt lat="44.37504" lon="5.83831">
        <ele>1135.45</ele>
        <time>2021-09-18T12:18:09Z</time>
      </trkpt>
      <trkpt lat="44.37501" lon="5.83829">
        <ele>1134.01</ele>
        <time>2021-09-18T12:18:12Z</time>
      </trkpt>
      <trkpt lat="44.37502" lon="5.83831">
        <ele>1133.53</ele>
        <time>2021-09-18T12:18:13Z</time>
      </trkpt>
      <trkpt lat="44.37502" lon="5.83835">
        <ele>1133.05</ele>
        <time>2021-09-18T12:18:17Z</time>
      </trkpt>
      <trkpt lat="44.37503" lon="5.83838">
        <ele>1133.05</ele>
        <time>2021-09-18T12:18:19Z</time>
      </trkpt>
      <trkpt lat="44.37503" lon="5.83839">
        <ele>1133.05</ele>
        <time>2021-09-18T12:18:20Z</time>
      </trkpt>
      <trkpt lat="44.37504" lon="5.83842">
        <ele>1133.05</ele>
        <time>2021-09-18T12:18:21Z</time>
      </trkpt>
      <trkpt lat="44.37505" lon="5.83844">
        <ele>1133.05</ele>
        <time>2021-09-18T12:18:22Z</time>
      </trkpt>
      <trkpt lat="44.37505" lon="5.83847">
        <ele>1132.57</ele>
        <time>2021-09-18T12:18:23Z</time>
      </trkpt>
      <trkpt lat="44.37507" lon="5.83849">
        <ele>1132.57</ele>
        <time>2021-09-18T12:18:24Z</time>
      </trkpt>
      <trkpt lat="44.37508" lon="5.83861">
        <ele>1130.65</ele>
        <time>2021-09-18T12:18:28Z</time>
      </trkpt>
      <trkpt lat="44.37508" lon="5.83864">
        <ele>1129.69</ele>
        <time>2021-09-18T12:18:29Z</time>
      </trkpt>
      <trkpt lat="44.37509" lon="5.83867">
        <ele>1128.24</ele>
        <time>2021-09-18T12:18:30Z</time>
      </trkpt>
      <trkpt lat="44.37509" lon="5.83869">
        <ele>1127.76</ele>
        <time>2021-09-18T12:18:31Z</time>
      </trkpt>
      <trkpt lat="44.3751" lon="5.83871">
        <ele>1126.32</ele>
        <time>2021-09-18T12:18:32Z</time>
      </trkpt>
      <trkpt lat="44.37511" lon="5.83873">
        <ele>1125.84</ele>
        <time>2021-09-18T12:18:33Z</time>
      </trkpt>
      <trkpt lat="44.37511" lon="5.83875">
        <ele>1125.36</ele>
        <time>2021-09-18T12:18:34Z</time>
      </trkpt>
      <trkpt lat="44.3751" lon="5.83877">
        <ele>1124.4</ele>
        <time>2021-09-18T12:18:35Z</time>
      </trkpt>
      <trkpt lat="44.37509" lon="5.8388">
        <ele>1123.44</ele>
        <time>2021-09-18T12:18:36Z</time>
      </trkpt>
      <trkpt lat="44.37507" lon="5.83882">
        <ele>1121.52</ele>
        <time>2021-09-18T12:18:37Z</time>
      </trkpt>
      <trkpt lat="44.37504" lon="5.83886">
        <ele>1119.11</ele>
        <time>2021-09-18T12:18:39Z</time>
      </trkpt>
      <trkpt lat="44.37501" lon="5.83887">
        <ele>1117.19</ele>
        <time>2021-09-18T12:18:40Z</time>
      </trkpt>
      <trkpt lat="44.37498" lon="5.83887">
        <ele>1116.23</ele>
        <time>2021-09-18T12:18:41Z</time>
      </trkpt>
      <trkpt lat="44.37495" lon="5.83887">
        <ele>1114.31</ele>
        <time>2021-09-18T12:18:42Z</time>
      </trkpt>
      <trkpt lat="44.37493" lon="5.83886">
        <ele>1113.34</ele>
        <time>2021-09-18T12:18:43Z</time>
      </trkpt>
      <trkpt lat="44.37491" lon="5.83884">
        <ele>1112.86</ele>
        <time>2021-09-18T12:18:44Z</time>
      </trkpt>
      <trkpt lat="44.37489" lon="5.83882">
        <ele>1111.9</ele>
        <time>2021-09-18T12:18:45Z</time>
      </trkpt>
      <trkpt lat="44.37488" lon="5.83881">
        <ele>1111.9</ele>
        <time>2021-09-18T12:18:46Z</time>
      </trkpt>
      <trkpt lat="44.37486" lon="5.83882">
        <ele>1110.94</ele>
        <time>2021-09-18T12:18:47Z</time>
      </trkpt>
      <trkpt lat="44.37485" lon="5.83883">
        <ele>1110.46</ele>
        <time>2021-09-18T12:18:48Z</time>
      </trkpt>
      <trkpt lat="44.37484" lon="5.83885">
        <ele>1110.46</ele>
        <time>2021-09-18T12:18:49Z</time>
      </trkpt>
      <trkpt lat="44.37484" lon="5.83888">
        <ele>1110.46</ele>
        <time>2021-09-18T12:18:50Z</time>
      </trkpt>
      <trkpt lat="44.37483" lon="5.83891">
        <ele>1109.02</ele>
        <time>2021-09-18T12:18:51Z</time>
      </trkpt>
      <trkpt lat="44.37481" lon="5.83893">
        <ele>1109.02</ele>
        <time>2021-09-18T12:18:52Z</time>
      </trkpt>
      <trkpt lat="44.37479" lon="5.83895">
        <ele>1108.54</ele>
        <time>2021-09-18T12:18:53Z</time>
      </trkpt>
      <trkpt lat="44.37477" lon="5.83896">
        <ele>1107.58</ele>
        <time>2021-09-18T12:18:54Z</time>
      </trkpt>
      <trkpt lat="44.37475" lon="5.83899">
        <ele>1107.1</ele>
        <time>2021-09-18T12:18:55Z</time>
      </trkpt>
      <trkpt lat="44.37465" lon="5.8391">
        <ele>1104.21</ele>
        <time>2021-09-18T12:18:59Z</time>
      </trkpt>
      <trkpt lat="44.37453" lon="5.83919">
        <ele>1100.37</ele>
        <time>2021-09-18T12:19:03Z</time>
      </trkpt>
      <trkpt lat="44.3744" lon="5.83928">
        <ele>1097.96</ele>
        <time>2021-09-18T12:19:07Z</time>
      </trkpt>
      <trkpt lat="44.37424" lon="5.83935">
        <ele>1094.12</ele>
        <time>2021-09-18T12:19:11Z</time>
      </trkpt>
      <trkpt lat="44.37418" lon="5.83934">
        <ele>1093.16</ele>
        <time>2021-09-18T12:19:13Z</time>
      </trkpt>
      <trkpt lat="44.37401" lon="5.83924">
        <ele>1095.08</ele>
        <time>2021-09-18T12:19:21Z</time>
      </trkpt>
      <trkpt lat="44.37394" lon="5.83919">
        <ele>1096.52</ele>
        <time>2021-09-18T12:19:25Z</time>
      </trkpt>
      <trkpt lat="44.37392" lon="5.83918">
        <ele>1096.52</ele>
        <time>2021-09-18T12:19:36Z</time>
      </trkpt>
      <trkpt lat="44.37386" lon="5.83905">
        <ele>1096.52</ele>
        <time>2021-09-18T12:19:51Z</time>
      </trkpt>
      <trkpt lat="44.37383" lon="5.83902">
        <ele>1095.08</ele>
        <time>2021-09-18T12:19:53Z</time>
      </trkpt>
      <trkpt lat="44.37379" lon="5.83897">
        <ele>1093.16</ele>
        <time>2021-09-18T12:19:57Z</time>
      </trkpt>
      <trkpt lat="44.37378" lon="5.83893">
        <ele>1092.2</ele>
        <time>2021-09-18T12:19:58Z</time>
      </trkpt>
      <trkpt lat="44.37377" lon="5.83889">
        <ele>1092.2</ele>
        <time>2021-09-18T12:19:59Z</time>
      </trkpt>
      <trkpt lat="44.37375" lon="5.83885">
        <ele>1091.23</ele>
        <time>2021-09-18T12:20:00Z</time>
      </trkpt>
      <trkpt lat="44.37373" lon="5.83881">
        <ele>1090.75</ele>
        <time>2021-09-18T12:20:01Z</time>
      </trkpt>
      <trkpt lat="44.37371" lon="5.83878">
        <ele>1089.79</ele>
        <time>2021-09-18T12:20:02Z</time>
      </trkpt>
      <trkpt lat="44.37369" lon="5.83875">
        <ele>1089.79</ele>
        <time>2021-09-18T12:20:03Z</time>
      </trkpt>
      <trkpt lat="44.37366" lon="5.83872">
        <ele>1089.79</ele>
        <time>2021-09-18T12:20:04Z</time>
      </trkpt>
      <trkpt lat="44.37363" lon="5.8387">
        <ele>1089.31</ele>
        <time>2021-09-18T12:20:05Z</time>
      </trkpt>
      <trkpt lat="44.37361" lon="5.83869">
        <ele>1088.83</ele>
        <time>2021-09-18T12:20:06Z</time>
      </trkpt>
      <trkpt lat="44.37356" lon="5.83868">
        <ele>1087.39</ele>
        <time>2021-09-18T12:20:09Z</time>
      </trkpt>
      <trkpt lat="44.37353" lon="5.83868">
        <ele>1086.91</ele>
        <time>2021-09-18T12:20:10Z</time>
      </trkpt>
      <trkpt lat="44.37351" lon="5.83867">
        <ele>1085.47</ele>
        <time>2021-09-18T12:20:11Z</time>
      </trkpt>
      <trkpt lat="44.37348" lon="5.83865">
        <ele>1084.99</ele>
        <time>2021-09-18T12:20:12Z</time>
      </trkpt>
      <trkpt lat="44.37345" lon="5.83862">
        <ele>1084.5</ele>
        <time>2021-09-18T12:20:13Z</time>
      </trkpt>
      <trkpt lat="44.37343" lon="5.83859">
        <ele>1084.02</ele>
        <time>2021-09-18T12:20:14Z</time>
      </trkpt>
      <trkpt lat="44.3734" lon="5.83858">
        <ele>1083.54</ele>
        <time>2021-09-18T12:20:15Z</time>
      </trkpt>
      <trkpt lat="44.37337" lon="5.83858">
        <ele>1082.1</ele>
        <time>2021-09-18T12:20:16Z</time>
      </trkpt>
      <trkpt lat="44.3733" lon="5.83858">
        <ele>1080.18</ele>
        <time>2021-09-18T12:20:18Z</time>
      </trkpt>
      <trkpt lat="44.37327" lon="5.83857">
        <ele>1078.74</ele>
        <time>2021-09-18T12:20:19Z</time>
      </trkpt>
      <trkpt lat="44.37324" lon="5.83856">
        <ele>1077.78</ele>
        <time>2021-09-18T12:20:20Z</time>
      </trkpt>
      <trkpt lat="44.37321" lon="5.83855">
        <ele>1076.33</ele>
        <time>2021-09-18T12:20:21Z</time>
      </trkpt>
      <trkpt lat="44.37317" lon="5.83854">
        <ele>1075.37</ele>
        <time>2021-09-18T12:20:22Z</time>
      </trkpt>
      <trkpt lat="44.37314" lon="5.83853">
        <ele>1074.41</ele>
        <time>2021-09-18T12:20:23Z</time>
      </trkpt>
      <trkpt lat="44.37311" lon="5.83851">
        <ele>1072.97</ele>
        <time>2021-09-18T12:20:24Z</time>
      </trkpt>
      <trkpt lat="44.37298" lon="5.83843">
        <ele>1069.6</ele>
        <time>2021-09-18T12:20:28Z</time>
      </trkpt>
      <trkpt lat="44.37287" lon="5.83836">
        <ele>1067.2</ele>
        <time>2021-09-18T12:20:31Z</time>
      </trkpt>
      <trkpt lat="44.37283" lon="5.83833">
        <ele>1065.28</ele>
        <time>2021-09-18T12:20:32Z</time>
      </trkpt>
      <trkpt lat="44.3728" lon="5.83831">
        <ele>1064.8</ele>
        <time>2021-09-18T12:20:33Z</time>
      </trkpt>
      <trkpt lat="44.37277" lon="5.83828">
        <ele>1064.8</ele>
        <time>2021-09-18T12:20:34Z</time>
      </trkpt>
      <trkpt lat="44.37274" lon="5.83826">
        <ele>1064.8</ele>
        <time>2021-09-18T12:20:35Z</time>
      </trkpt>
      <trkpt lat="44.37272" lon="5.83823">
        <ele>1063.84</ele>
        <time>2021-09-18T12:20:36Z</time>
      </trkpt>
      <trkpt lat="44.3727" lon="5.8382">
        <ele>1062.87</ele>
        <time>2021-09-18T12:20:37Z</time>
      </trkpt>
      <trkpt lat="44.37267" lon="5.83818">
        <ele>1062.39</ele>
        <time>2021-09-18T12:20:38Z</time>
      </trkpt>
      <trkpt lat="44.37263" lon="5.83817">
        <ele>1062.39</ele>
        <time>2021-09-18T12:20:39Z</time>
      </trkpt>
      <trkpt lat="44.37259" lon="5.83815">
        <ele>1061.43</ele>
        <time>2021-09-18T12:20:40Z</time>
      </trkpt>
      <trkpt lat="44.37243" lon="5.83814">
        <ele>1057.59</ele>
        <time>2021-09-18T12:20:45Z</time>
      </trkpt>
      <trkpt lat="44.37234" lon="5.83816">
        <ele>1053.74</ele>
        <time>2021-09-18T12:20:49Z</time>
      </trkpt>
      <trkpt lat="44.37228" lon="5.83817">
        <ele>1052.3</ele>
        <time>2021-09-18T12:20:51Z</time>
      </trkpt>
      <trkpt lat="44.37225" lon="5.83817">
        <ele>1050.86</ele>
        <time>2021-09-18T12:20:52Z</time>
      </trkpt>
      <trkpt lat="44.37216" lon="5.83819">
        <ele>1047.01</ele>
        <time>2021-09-18T12:20:55Z</time>
      </trkpt>
      <trkpt lat="44.37208" lon="5.8382">
        <ele>1043.17</ele>
        <time>2021-09-18T12:20:58Z</time>
      </trkpt>
      <trkpt lat="44.37198" lon="5.83818">
        <ele>1039.8</ele>
        <time>2021-09-18T12:21:01Z</time>
      </trkpt>
      <trkpt lat="44.37189" lon="5.83815">
        <ele>1037.4</ele>
        <time>2021-09-18T12:21:04Z</time>
      </trkpt>
      <trkpt lat="44.37185" lon="5.83815">
        <ele>1035.96</ele>
        <time>2021-09-18T12:21:06Z</time>
      </trkpt>
      <trkpt lat="44.37184" lon="5.83816">
        <ele>1035</ele>
        <time>2021-09-18T12:21:07Z</time>
      </trkpt>
      <trkpt lat="44.37183" lon="5.83819">
        <ele>1035</ele>
        <time>2021-09-18T12:21:08Z</time>
      </trkpt>
      <trkpt lat="44.37182" lon="5.83821">
        <ele>1033.55</ele>
        <time>2021-09-18T12:21:09Z</time>
      </trkpt>
      <trkpt lat="44.37179" lon="5.83822">
        <ele>1032.11</ele>
        <time>2021-09-18T12:21:10Z</time>
      </trkpt>
      <trkpt lat="44.37177" lon="5.83821">
        <ele>1031.63</ele>
        <time>2021-09-18T12:21:11Z</time>
      </trkpt>
      <trkpt lat="44.37174" lon="5.8382">
        <ele>1030.19</ele>
        <time>2021-09-18T12:21:12Z</time>
      </trkpt>
      <trkpt lat="44.37171" lon="5.83819">
        <ele>1029.23</ele>
        <time>2021-09-18T12:21:13Z</time>
      </trkpt>
      <trkpt lat="44.37168" lon="5.83819">
        <ele>1028.27</ele>
        <time>2021-09-18T12:21:14Z</time>
      </trkpt>
      <trkpt lat="44.37159" lon="5.83818">
        <ele>1025.38</ele>
        <time>2021-09-18T12:21:17Z</time>
      </trkpt>
      <trkpt lat="44.37153" lon="5.83818">
        <ele>1021.06</ele>
        <time>2021-09-18T12:21:19Z</time>
      </trkpt>
      <trkpt lat="44.37142" lon="5.83814">
        <ele>1017.69</ele>
        <time>2021-09-18T12:21:23Z</time>
      </trkpt>
      <trkpt lat="44.37138" lon="5.83814">
        <ele>1016.25</ele>
        <time>2021-09-18T12:21:24Z</time>
      </trkpt>
      <trkpt lat="44.37134" lon="5.83813">
        <ele>1014.81</ele>
        <time>2021-09-18T12:21:25Z</time>
      </trkpt>
      <trkpt lat="44.37131" lon="5.83811">
        <ele>1014.33</ele>
        <time>2021-09-18T12:21:26Z</time>
      </trkpt>
      <trkpt lat="44.37127" lon="5.83811">
        <ele>1013.37</ele>
        <time>2021-09-18T12:21:27Z</time>
      </trkpt>
      <trkpt lat="44.37123" lon="5.83811">
        <ele>1011.93</ele>
        <time>2021-09-18T12:21:28Z</time>
      </trkpt>
      <trkpt lat="44.37118" lon="5.8381">
        <ele>1010.48</ele>
        <time>2021-09-18T12:21:29Z</time>
      </trkpt>
      <trkpt lat="44.37114" lon="5.83809">
        <ele>1009.04</ele>
        <time>2021-09-18T12:21:30Z</time>
      </trkpt>
      <trkpt lat="44.3711" lon="5.83808">
        <ele>1008.56</ele>
        <time>2021-09-18T12:21:31Z</time>
      </trkpt>
      <trkpt lat="44.37105" lon="5.83807">
        <ele>1006.16</ele>
        <time>2021-09-18T12:21:32Z</time>
      </trkpt>
      <trkpt lat="44.37101" lon="5.83806">
        <ele>1005.2</ele>
        <time>2021-09-18T12:21:33Z</time>
      </trkpt>
      <trkpt lat="44.37096" lon="5.83805">
        <ele>1003.75</ele>
        <time>2021-09-18T12:21:34Z</time>
      </trkpt>
      <trkpt lat="44.37086" lon="5.83811">
        <ele>1000.39</ele>
        <time>2021-09-18T12:21:37Z</time>
      </trkpt>
      <trkpt lat="44.37085" lon="5.83815">
        <ele>998.95</ele>
        <time>2021-09-18T12:21:38Z</time>
      </trkpt>
      <trkpt lat="44.37085" lon="5.8382">
        <ele>997.99</ele>
        <time>2021-09-18T12:21:39Z</time>
      </trkpt>
      <trkpt lat="44.37084" lon="5.83825">
        <ele>997.02</ele>
        <time>2021-09-18T12:21:40Z</time>
      </trkpt>
      <trkpt lat="44.37081" lon="5.83829">
        <ele>995.1</ele>
        <time>2021-09-18T12:21:41Z</time>
      </trkpt>
      <trkpt lat="44.37078" lon="5.83833">
        <ele>994.14</ele>
        <time>2021-09-18T12:21:42Z</time>
      </trkpt>
      <trkpt lat="44.37076" lon="5.83838">
        <ele>993.18</ele>
        <time>2021-09-18T12:21:43Z</time>
      </trkpt>
      <trkpt lat="44.37074" lon="5.83843">
        <ele>991.74</ele>
        <time>2021-09-18T12:21:44Z</time>
      </trkpt>
      <trkpt lat="44.37071" lon="5.83846">
        <ele>989.81</ele>
        <time>2021-09-18T12:21:45Z</time>
      </trkpt>
      <trkpt lat="44.37067" lon="5.83847">
        <ele>988.85</ele>
        <time>2021-09-18T12:21:46Z</time>
      </trkpt>
      <trkpt lat="44.37063" lon="5.83847">
        <ele>987.89</ele>
        <time>2021-09-18T12:21:47Z</time>
      </trkpt>
      <trkpt lat="44.3706" lon="5.8385">
        <ele>986.45</ele>
        <time>2021-09-18T12:21:48Z</time>
      </trkpt>
      <trkpt lat="44.37057" lon="5.83853">
        <ele>985.49</ele>
        <time>2021-09-18T12:21:49Z</time>
      </trkpt>
      <trkpt lat="44.37055" lon="5.83857">
        <ele>984.05</ele>
        <time>2021-09-18T12:21:50Z</time>
      </trkpt>
      <trkpt lat="44.37053" lon="5.83861">
        <ele>983.09</ele>
        <time>2021-09-18T12:21:51Z</time>
      </trkpt>
      <trkpt lat="44.37051" lon="5.83865">
        <ele>981.64</ele>
        <time>2021-09-18T12:21:52Z</time>
      </trkpt>
      <trkpt lat="44.37049" lon="5.83868">
        <ele>980.2</ele>
        <time>2021-09-18T12:21:53Z</time>
      </trkpt>
      <trkpt lat="44.37046" lon="5.83871">
        <ele>979.24</ele>
        <time>2021-09-18T12:21:54Z</time>
      </trkpt>
      <trkpt lat="44.37044" lon="5.83873">
        <ele>978.76</ele>
        <time>2021-09-18T12:21:55Z</time>
      </trkpt>
      <trkpt lat="44.37042" lon="5.83876">
        <ele>976.84</ele>
        <time>2021-09-18T12:21:56Z</time>
      </trkpt>
      <trkpt lat="44.37034" lon="5.83883">
        <ele>973.47</ele>
        <time>2021-09-18T12:21:59Z</time>
      </trkpt>
      <trkpt lat="44.37031" lon="5.83883">
        <ele>972.03</ele>
        <time>2021-09-18T12:22:00Z</time>
      </trkpt>
      <trkpt lat="44.37028" lon="5.83883">
        <ele>971.07</ele>
        <time>2021-09-18T12:22:01Z</time>
      </trkpt>
      <trkpt lat="44.37026" lon="5.83885">
        <ele>971.07</ele>
        <time>2021-09-18T12:22:02Z</time>
      </trkpt>
      <trkpt lat="44.37023" lon="5.83886">
        <ele>970.59</ele>
        <time>2021-09-18T12:22:03Z</time>
      </trkpt>
      <trkpt lat="44.37022" lon="5.83888">
        <ele>969.63</ele>
        <time>2021-09-18T12:22:04Z</time>
      </trkpt>
      <trkpt lat="44.37021" lon="5.8389">
        <ele>970.59</ele>
        <time>2021-09-18T12:22:16Z</time>
      </trkpt>
      <trkpt lat="44.37021" lon="5.8389">
        <ele>970.11</ele>
        <time>2021-09-18T12:22:30Z</time>
      </trkpt>
      <trkpt lat="44.37021" lon="5.8389">
        <ele>970.11</ele>
        <time>2021-09-18T12:22:59Z</time>
      </trkpt>
      <trkpt lat="44.37019" lon="5.83888">
        <ele>970.11</ele>
        <time>2021-09-18T12:23:17Z</time>
      </trkpt>
      <trkpt lat="44.37016" lon="5.83891">
        <ele>969.63</ele>
        <time>2021-09-18T12:23:49Z</time>
      </trkpt>
      <trkpt lat="44.37009" lon="5.83896">
        <ele>968.18</ele>
        <time>2021-09-18T12:24:00Z</time>
      </trkpt>
      <trkpt lat="44.36997" lon="5.83906">
        <ele>964.82</ele>
        <time>2021-09-18T12:24:08Z</time>
      </trkpt>
      <trkpt lat="44.36985" lon="5.83917">
        <ele>961.94</ele>
        <time>2021-09-18T12:24:12Z</time>
      </trkpt>
      <trkpt lat="44.36979" lon="5.83921">
        <ele>960.49</ele>
        <time>2021-09-18T12:24:14Z</time>
      </trkpt>
      <trkpt lat="44.36976" lon="5.83924">
        <ele>959.53</ele>
        <time>2021-09-18T12:24:15Z</time>
      </trkpt>
      <trkpt lat="44.36971" lon="5.8393">
        <ele>956.65</ele>
        <time>2021-09-18T12:24:17Z</time>
      </trkpt>
      <trkpt lat="44.36967" lon="5.83933">
        <ele>956.65</ele>
        <time>2021-09-18T12:24:18Z</time>
      </trkpt>
      <trkpt lat="44.36963" lon="5.83937">
        <ele>954.73</ele>
        <time>2021-09-18T12:24:19Z</time>
      </trkpt>
      <trkpt lat="44.3696" lon="5.8394">
        <ele>953.28</ele>
        <time>2021-09-18T12:24:20Z</time>
      </trkpt>
      <trkpt lat="44.36957" lon="5.83942">
        <ele>952.32</ele>
        <time>2021-09-18T12:24:21Z</time>
      </trkpt>
      <trkpt lat="44.36955" lon="5.83944">
        <ele>951.84</ele>
        <time>2021-09-18T12:24:22Z</time>
      </trkpt>
      <trkpt lat="44.36952" lon="5.83946">
        <ele>950.4</ele>
        <time>2021-09-18T12:24:23Z</time>
      </trkpt>
      <trkpt lat="44.3695" lon="5.83948">
        <ele>949.92</ele>
        <time>2021-09-18T12:24:24Z</time>
      </trkpt>
      <trkpt lat="44.3695" lon="5.83952">
        <ele>948.96</ele>
        <time>2021-09-18T12:24:25Z</time>
      </trkpt>
      <trkpt lat="44.36951" lon="5.83955">
        <ele>948.48</ele>
        <time>2021-09-18T12:24:26Z</time>
      </trkpt>
      <trkpt lat="44.3695" lon="5.83959">
        <ele>946.56</ele>
        <time>2021-09-18T12:24:27Z</time>
      </trkpt>
      <trkpt lat="44.36949" lon="5.83964">
        <ele>945.59</ele>
        <time>2021-09-18T12:24:28Z</time>
      </trkpt>
      <trkpt lat="44.36945" lon="5.83969">
        <ele>943.67</ele>
        <time>2021-09-18T12:24:29Z</time>
      </trkpt>
      <trkpt lat="44.36941" lon="5.83974">
        <ele>942.71</ele>
        <time>2021-09-18T12:24:30Z</time>
      </trkpt>
      <trkpt lat="44.36938" lon="5.83978">
        <ele>941.75</ele>
        <time>2021-09-18T12:24:31Z</time>
      </trkpt>
      <trkpt lat="44.36934" lon="5.83983">
        <ele>941.27</ele>
        <time>2021-09-18T12:24:32Z</time>
      </trkpt>
      <trkpt lat="44.36924" lon="5.83996">
        <ele>936.46</ele>
        <time>2021-09-18T12:24:35Z</time>
      </trkpt>
      <trkpt lat="44.36918" lon="5.84004">
        <ele>934.06</ele>
        <time>2021-09-18T12:24:37Z</time>
      </trkpt>
      <trkpt lat="44.36915" lon="5.84006">
        <ele>932.62</ele>
        <time>2021-09-18T12:24:38Z</time>
      </trkpt>
      <trkpt lat="44.36911" lon="5.84007">
        <ele>932.62</ele>
        <time>2021-09-18T12:24:39Z</time>
      </trkpt>
      <trkpt lat="44.36907" lon="5.84009">
        <ele>931.17</ele>
        <time>2021-09-18T12:24:40Z</time>
      </trkpt>
      <trkpt lat="44.36905" lon="5.84012">
        <ele>929.73</ele>
        <time>2021-09-18T12:24:41Z</time>
      </trkpt>
      <trkpt lat="44.36905" lon="5.84015">
        <ele>929.73</ele>
        <time>2021-09-18T12:24:42Z</time>
      </trkpt>
      <trkpt lat="44.36905" lon="5.84018">
        <ele>928.77</ele>
        <time>2021-09-18T12:24:43Z</time>
      </trkpt>
      <trkpt lat="44.36903" lon="5.84021">
        <ele>927.81</ele>
        <time>2021-09-18T12:24:44Z</time>
      </trkpt>
      <trkpt lat="44.36901" lon="5.84024">
        <ele>926.85</ele>
        <time>2021-09-18T12:24:45Z</time>
      </trkpt>
      <trkpt lat="44.36898" lon="5.84026">
        <ele>925.41</ele>
        <time>2021-09-18T12:24:46Z</time>
      </trkpt>
      <trkpt lat="44.36896" lon="5.84027">
        <ele>924.93</ele>
        <time>2021-09-18T12:24:47Z</time>
      </trkpt>
      <trkpt lat="44.36894" lon="5.84027">
        <ele>923.48</ele>
        <time>2021-09-18T12:24:48Z</time>
      </trkpt>
      <trkpt lat="44.36892" lon="5.84028">
        <ele>923</ele>
        <time>2021-09-18T12:24:49Z</time>
      </trkpt>
      <trkpt lat="44.36889" lon="5.8403">
        <ele>922.04</ele>
        <time>2021-09-18T12:24:50Z</time>
      </trkpt>
      <trkpt lat="44.36887" lon="5.84031">
        <ele>921.08</ele>
        <time>2021-09-18T12:24:51Z</time>
      </trkpt>
      <trkpt lat="44.36885" lon="5.84032">
        <ele>920.12</ele>
        <time>2021-09-18T12:24:52Z</time>
      </trkpt>
      <trkpt lat="44.36883" lon="5.84032">
        <ele>919.64</ele>
        <time>2021-09-18T12:24:53Z</time>
      </trkpt>
      <trkpt lat="44.36881" lon="5.84031">
        <ele>919.16</ele>
        <time>2021-09-18T12:24:54Z</time>
      </trkpt>
      <trkpt lat="44.36879" lon="5.8403">
        <ele>918.2</ele>
        <time>2021-09-18T12:24:55Z</time>
      </trkpt>
      <trkpt lat="44.36876" lon="5.84028">
        <ele>917.24</ele>
        <time>2021-09-18T12:24:57Z</time>
      </trkpt>
      <trkpt lat="44.36872" lon="5.84026">
        <ele>914.83</ele>
        <time>2021-09-18T12:24:59Z</time>
      </trkpt>
      <trkpt lat="44.36871" lon="5.84024">
        <ele>914.35</ele>
        <time>2021-09-18T12:25:00Z</time>
      </trkpt>
      <trkpt lat="44.36869" lon="5.84023">
        <ele>913.87</ele>
        <time>2021-09-18T12:25:01Z</time>
      </trkpt>
      <trkpt lat="44.36859" lon="5.84021">
        <ele>911.95</ele>
        <time>2021-09-18T12:25:11Z</time>
      </trkpt>
      <trkpt lat="44.36854" lon="5.84023">
        <ele>910.03</ele>
        <time>2021-09-18T12:25:22Z</time>
      </trkpt>
      <trkpt lat="44.36851" lon="5.84025">
        <ele>909.54</ele>
        <time>2021-09-18T12:25:38Z</time>
      </trkpt>
      <trkpt lat="44.3685" lon="5.84024">
        <ele>909.06</ele>
        <time>2021-09-18T12:25:39Z</time>
      </trkpt>
      <trkpt lat="44.36849" lon="5.84024">
        <ele>908.58</ele>
        <time>2021-09-18T12:25:40Z</time>
      </trkpt>
      <trkpt lat="44.36847" lon="5.84024">
        <ele>908.1</ele>
        <time>2021-09-18T12:25:41Z</time>
      </trkpt>
      <trkpt lat="44.36845" lon="5.84023">
        <ele>907.14</ele>
        <time>2021-09-18T12:25:42Z</time>
      </trkpt>
      <trkpt lat="44.3684" lon="5.84023">
        <ele>906.18</ele>
        <time>2021-09-18T12:25:44Z</time>
      </trkpt>
      <trkpt lat="44.36831" lon="5.84027">
        <ele>903.3</ele>
        <time>2021-09-18T12:25:48Z</time>
      </trkpt>
      <trkpt lat="44.36824" lon="5.84028">
        <ele>901.85</ele>
        <time>2021-09-18T12:25:51Z</time>
      </trkpt>
      <trkpt lat="44.36816" lon="5.84032">
        <ele>898.01</ele>
        <time>2021-09-18T12:25:56Z</time>
      </trkpt>
      <trkpt lat="44.36809" lon="5.84036">
        <ele>894.16</ele>
        <time>2021-09-18T12:25:59Z</time>
      </trkpt>
      <trkpt lat="44.36799" lon="5.84035">
        <ele>892.24</ele>
        <time>2021-09-18T12:26:02Z</time>
      </trkpt>
      <trkpt lat="44.36791" lon="5.84038">
        <ele>890.32</ele>
        <time>2021-09-18T12:26:05Z</time>
      </trkpt>
      <trkpt lat="44.3679" lon="5.84038">
        <ele>889.84</ele>
        <time>2021-09-18T12:26:17Z</time>
      </trkpt>
      <trkpt lat="44.3679" lon="5.84038">
        <ele>889.84</ele>
        <time>2021-09-18T12:26:48Z</time>
      </trkpt>
      <trkpt lat="44.36778" lon="5.84041">
        <ele>888.4</ele>
        <time>2021-09-18T12:27:15Z</time>
      </trkpt>
      <trkpt lat="44.36768" lon="5.84042">
        <ele>884.55</ele>
        <time>2021-09-18T12:27:18Z</time>
      </trkpt>
      <trkpt lat="44.36753" lon="5.84047">
        <ele>881.67</ele>
        <time>2021-09-18T12:27:23Z</time>
      </trkpt>
      <trkpt lat="44.36748" lon="5.84047">
        <ele>880.71</ele>
        <time>2021-09-18T12:27:25Z</time>
      </trkpt>
      <trkpt lat="44.36746" lon="5.84048">
        <ele>880.71</ele>
        <time>2021-09-18T12:27:26Z</time>
      </trkpt>
      <trkpt lat="44.36735" lon="5.84059">
        <ele>877.82</ele>
        <time>2021-09-18T12:27:31Z</time>
      </trkpt>
      <trkpt lat="44.36728" lon="5.8407">
        <ele>875.9</ele>
        <time>2021-09-18T12:27:34Z</time>
      </trkpt>
      <trkpt lat="44.36721" lon="5.84083">
        <ele>873.01</ele>
        <time>2021-09-18T12:27:38Z</time>
      </trkpt>
      <trkpt lat="44.36717" lon="5.84088">
        <ele>872.05</ele>
        <time>2021-09-18T12:27:40Z</time>
      </trkpt>
      <trkpt lat="44.36716" lon="5.84091">
        <ele>872.05</ele>
        <time>2021-09-18T12:27:41Z</time>
      </trkpt>
      <trkpt lat="44.36716" lon="5.84094">
        <ele>871.09</ele>
        <time>2021-09-18T12:27:42Z</time>
      </trkpt>
      <trkpt lat="44.36716" lon="5.84096">
        <ele>870.61</ele>
        <time>2021-09-18T12:27:43Z</time>
      </trkpt>
      <trkpt lat="44.36714" lon="5.84097">
        <ele>870.61</ele>
        <time>2021-09-18T12:27:44Z</time>
      </trkpt>
      <trkpt lat="44.36711" lon="5.84098">
        <ele>870.13</ele>
        <time>2021-09-18T12:27:58Z</time>
      </trkpt>
      <trkpt lat="44.3671" lon="5.84098">
        <ele>870.13</ele>
        <time>2021-09-18T12:27:59Z</time>
      </trkpt>
      <trkpt lat="44.36708" lon="5.84096">
        <ele>871.57</ele>
        <time>2021-09-18T12:28:03Z</time>
      </trkpt>
      <trkpt lat="44.36694" lon="5.84093">
        <ele>874.46</ele>
        <time>2021-09-18T12:28:16Z</time>
      </trkpt>
      <trkpt lat="44.36683" lon="5.84099">
        <ele>877.82</ele>
        <time>2021-09-18T12:28:29Z</time>
      </trkpt>
      <trkpt lat="44.36681" lon="5.84102">
        <ele>878.3</ele>
        <time>2021-09-18T12:28:32Z</time>
      </trkpt>
      <trkpt lat="44.36675" lon="5.84116">
        <ele>881.67</ele>
        <time>2021-09-18T12:28:45Z</time>
      </trkpt>
      <trkpt lat="44.36674" lon="5.8412">
        <ele>882.15</ele>
        <time>2021-09-18T12:29:00Z</time>
      </trkpt>
      <trkpt lat="44.36673" lon="5.84123">
        <ele>881.67</ele>
        <time>2021-09-18T12:29:14Z</time>
      </trkpt>
      <trkpt lat="44.36674" lon="5.84125">
        <ele>881.67</ele>
        <time>2021-09-18T12:29:15Z</time>
      </trkpt>
      <trkpt lat="44.36674" lon="5.84127">
        <ele>881.67</ele>
        <time>2021-09-18T12:29:16Z</time>
      </trkpt>
      <trkpt lat="44.36675" lon="5.8413">
        <ele>880.71</ele>
        <time>2021-09-18T12:29:17Z</time>
      </trkpt>
      <trkpt lat="44.36675" lon="5.84133">
        <ele>879.74</ele>
        <time>2021-09-18T12:29:18Z</time>
      </trkpt>
      <trkpt lat="44.36674" lon="5.84136">
        <ele>878.78</ele>
        <time>2021-09-18T12:29:19Z</time>
      </trkpt>
      <trkpt lat="44.36674" lon="5.84139">
        <ele>877.82</ele>
        <time>2021-09-18T12:29:20Z</time>
      </trkpt>
      <trkpt lat="44.36673" lon="5.84141">
        <ele>877.34</ele>
        <time>2021-09-18T12:29:21Z</time>
      </trkpt>
      <trkpt lat="44.36673" lon="5.84144">
        <ele>876.38</ele>
        <time>2021-09-18T12:29:22Z</time>
      </trkpt>
      <trkpt lat="44.36673" lon="5.84147">
        <ele>875.9</ele>
        <time>2021-09-18T12:29:23Z</time>
      </trkpt>
      <trkpt lat="44.36674" lon="5.84153">
        <ele>874.46</ele>
        <time>2021-09-18T12:29:35Z</time>
      </trkpt>
      <trkpt lat="44.36675" lon="5.84155">
        <ele>874.46</ele>
        <time>2021-09-18T12:29:36Z</time>
      </trkpt>
      <trkpt lat="44.36676" lon="5.84167">
        <ele>871.57</ele>
        <time>2021-09-18T12:29:40Z</time>
      </trkpt>
      <trkpt lat="44.36682" lon="5.84183">
        <ele>873.01</ele>
        <time>2021-09-18T12:29:48Z</time>
      </trkpt>
      <trkpt lat="44.36684" lon="5.84194">
        <ele>875.42</ele>
        <time>2021-09-18T12:29:53Z</time>
      </trkpt>
      <trkpt lat="44.3668" lon="5.8423">
        <ele>874.46</ele>
        <time>2021-09-18T12:30:06Z</time>
      </trkpt>
      <trkpt lat="44.36677" lon="5.84247">
        <ele>873.01</ele>
        <time>2021-09-18T12:30:15Z</time>
      </trkpt>
      <trkpt lat="44.36677" lon="5.84249">
        <ele>873.01</ele>
        <time>2021-09-18T12:30:16Z</time>
      </trkpt>
      <trkpt lat="44.36677" lon="5.84251">
        <ele>873.01</ele>
        <time>2021-09-18T12:30:17Z</time>
      </trkpt>
      <trkpt lat="44.36677" lon="5.84255">
        <ele>873.98</ele>
        <time>2021-09-18T12:30:19Z</time>
      </trkpt>
      <trkpt lat="44.36677" lon="5.84274">
        <ele>875.9</ele>
        <time>2021-09-18T12:30:31Z</time>
      </trkpt>
      <trkpt lat="44.36676" lon="5.84277">
        <ele>874.46</ele>
        <time>2021-09-18T12:30:33Z</time>
      </trkpt>
      <trkpt lat="44.36674" lon="5.84278">
        <ele>874.46</ele>
        <time>2021-09-18T12:30:34Z</time>
      </trkpt>
      <trkpt lat="44.3667" lon="5.8428">
        <ele>873.01</ele>
        <time>2021-09-18T12:30:37Z</time>
      </trkpt>
      <trkpt lat="44.36659" lon="5.84284">
        <ele>869.17</ele>
        <time>2021-09-18T12:30:43Z</time>
      </trkpt>
      <trkpt lat="44.36652" lon="5.84288">
        <ele>867.25</ele>
        <time>2021-09-18T12:30:45Z</time>
      </trkpt>
      <trkpt lat="44.36648" lon="5.8429">
        <ele>867.25</ele>
        <time>2021-09-18T12:30:46Z</time>
      </trkpt>
      <trkpt lat="44.36644" lon="5.84291">
        <ele>866.77</ele>
        <time>2021-09-18T12:30:47Z</time>
      </trkpt>
      <trkpt lat="44.36641" lon="5.84292">
        <ele>866.29</ele>
        <time>2021-09-18T12:30:48Z</time>
      </trkpt>
      <trkpt lat="44.36638" lon="5.84294">
        <ele>866.29</ele>
        <time>2021-09-18T12:30:49Z</time>
      </trkpt>
      <trkpt lat="44.36636" lon="5.84296">
        <ele>866.29</ele>
        <time>2021-09-18T12:30:50Z</time>
      </trkpt>
      <trkpt lat="44.36635" lon="5.84297">
        <ele>866.29</ele>
        <time>2021-09-18T12:30:51Z</time>
      </trkpt>
      <trkpt lat="44.36633" lon="5.84299">
        <ele>867.25</ele>
        <time>2021-09-18T12:30:52Z</time>
      </trkpt>
      <trkpt lat="44.36631" lon="5.84299">
        <ele>867.25</ele>
        <time>2021-09-18T12:30:53Z</time>
      </trkpt>
      <trkpt lat="44.3661" lon="5.84309">
        <ele>867.73</ele>
        <time>2021-09-18T12:31:01Z</time>
      </trkpt>
      <trkpt lat="44.36604" lon="5.84312">
        <ele>866.29</ele>
        <time>2021-09-18T12:31:03Z</time>
      </trkpt>
      <trkpt lat="44.36586" lon="5.84327">
        <ele>868.21</ele>
        <time>2021-09-18T12:31:14Z</time>
      </trkpt>
      <trkpt lat="44.36582" lon="5.84334">
        <ele>869.17</ele>
        <time>2021-09-18T12:31:25Z</time>
      </trkpt>
      <trkpt lat="44.36582" lon="5.84335">
        <ele>868.69</ele>
        <time>2021-09-18T12:31:55Z</time>
      </trkpt>
      <trkpt lat="44.3658" lon="5.84334">
        <ele>868.69</ele>
        <time>2021-09-18T12:32:24Z</time>
      </trkpt>
      <trkpt lat="44.36581" lon="5.84333">
        <ele>868.21</ele>
        <time>2021-09-18T12:33:08Z</time>
      </trkpt>
      <trkpt lat="44.3658" lon="5.84333">
        <ele>868.21</ele>
        <time>2021-09-18T12:34:01Z</time>
      </trkpt>
      <trkpt lat="44.36582" lon="5.84333">
        <ele>868.21</ele>
        <time>2021-09-18T12:34:47Z</time>
      </trkpt>
      <trkpt lat="44.3658" lon="5.84332">
        <ele>867.73</ele>
        <time>2021-09-18T12:35:32Z</time>
      </trkpt>
      <trkpt lat="44.36583" lon="5.84332">
        <ele>867.25</ele>
        <time>2021-09-18T12:36:18Z</time>
      </trkpt>
      <trkpt lat="44.36578" lon="5.84343">
        <ele>867.25</ele>
        <time>2021-09-18T12:36:41Z</time>
      </trkpt>
      <trkpt lat="44.36574" lon="5.84356">
        <ele>868.21</ele>
        <time>2021-09-18T12:36:50Z</time>
      </trkpt>
      <trkpt lat="44.36565" lon="5.84378">
        <ele>867.25</ele>
        <time>2021-09-18T12:37:05Z</time>
      </trkpt>
      <trkpt lat="44.36563" lon="5.84381">
        <ele>867.25</ele>
        <time>2021-09-18T12:37:06Z</time>
      </trkpt>
      <trkpt lat="44.36557" lon="5.8439">
        <ele>868.69</ele>
        <time>2021-09-18T12:37:11Z</time>
      </trkpt>
      <trkpt lat="44.36547" lon="5.8441">
        <ele>871.09</ele>
        <time>2021-09-18T12:37:22Z</time>
      </trkpt>
      <trkpt lat="44.36528" lon="5.84428">
        <ele>872.53</ele>
        <time>2021-09-18T12:37:35Z</time>
      </trkpt>
      <trkpt lat="44.36522" lon="5.84432">
        <ele>871.09</ele>
        <time>2021-09-18T12:37:37Z</time>
      </trkpt>
      <trkpt lat="44.36518" lon="5.84435">
        <ele>870.61</ele>
        <time>2021-09-18T12:37:39Z</time>
      </trkpt>
      <trkpt lat="44.36511" lon="5.84446">
        <ele>867.25</ele>
        <time>2021-09-18T12:37:43Z</time>
      </trkpt>
      <trkpt lat="44.36486" lon="5.84457">
        <ele>866.77</ele>
        <time>2021-09-18T12:37:55Z</time>
      </trkpt>
      <trkpt lat="44.36483" lon="5.84457">
        <ele>867.73</ele>
        <time>2021-09-18T12:38:00Z</time>
      </trkpt>
      <trkpt lat="44.36481" lon="5.84458">
        <ele>870.13</ele>
        <time>2021-09-18T12:38:17Z</time>
      </trkpt>
      <trkpt lat="44.36483" lon="5.84456">
        <ele>868.21</ele>
        <time>2021-09-18T12:38:30Z</time>
      </trkpt>
      <trkpt lat="44.3649" lon="5.84457">
        <ele>867.73</ele>
        <time>2021-09-18T12:38:48Z</time>
      </trkpt>
      <trkpt lat="44.36494" lon="5.84455">
        <ele>867.73</ele>
        <time>2021-09-18T12:38:54Z</time>
      </trkpt>
      <trkpt lat="44.36498" lon="5.84453">
        <ele>862.44</ele>
        <time>2021-09-18T12:39:05Z</time>
      </trkpt>
      <trkpt lat="44.36498" lon="5.84453">
        <ele>868.69</ele>
        <time>2021-09-18T12:39:06Z</time>
      </trkpt>
      <trkpt lat="44.36498" lon="5.84453">
        <ele>868.69</ele>
        <time>2021-09-18T12:39:07Z</time>
      </trkpt>
      <trkpt lat="44.36498" lon="5.84454">
        <ele>864.84</ele>
        <time>2021-09-18T12:39:09Z</time>
      </trkpt>
      <trkpt lat="44.36498" lon="5.84454">
        <ele>869.65</ele>
        <time>2021-09-18T12:39:10Z</time>
      </trkpt>
      <trkpt lat="44.36498" lon="5.84454">
        <ele>869.65</ele>
        <time>2021-09-18T12:39:11Z</time>
      </trkpt>
      <trkpt lat="44.36501" lon="5.84454">
        <ele>866.29</ele>
        <time>2021-09-18T12:39:25Z</time>
      </trkpt>
      <trkpt lat="44.365" lon="5.84455">
        <ele>865.8</ele>
        <time>2021-09-18T12:39:38Z</time>
      </trkpt>
      <trkpt lat="44.36501" lon="5.84455">
        <ele>865.32</ele>
        <time>2021-09-18T12:39:53Z</time>
      </trkpt>
      <trkpt lat="44.36504" lon="5.8445">
        <ele>865.32</ele>
        <time>2021-09-18T12:40:10Z</time>
      </trkpt>
      <trkpt lat="44.36514" lon="5.84442">
        <ele>867.73</ele>
        <time>2021-09-18T12:40:24Z</time>
      </trkpt>
      <trkpt lat="44.3652" lon="5.84435">
        <ele>870.13</ele>
        <time>2021-09-18T12:40:41Z</time>
      </trkpt>
      <trkpt lat="44.36533" lon="5.8443">
        <ele>871.09</ele>
        <time>2021-09-18T12:40:55Z</time>
      </trkpt>
      <trkpt lat="44.36539" lon="5.84431">
        <ele>872.05</ele>
        <time>2021-09-18T12:41:09Z</time>
      </trkpt>
      <trkpt lat="44.36542" lon="5.84429">
        <ele>871.57</ele>
        <time>2021-09-18T12:41:15Z</time>
      </trkpt>
      <trkpt lat="44.36545" lon="5.84432">
        <ele>870.13</ele>
        <time>2021-09-18T12:41:17Z</time>
      </trkpt>
      <trkpt lat="44.36547" lon="5.84435">
        <ele>869.65</ele>
        <time>2021-09-18T12:41:18Z</time>
      </trkpt>
      <trkpt lat="44.36552" lon="5.84441">
        <ele>865.8</ele>
        <time>2021-09-18T12:41:21Z</time>
      </trkpt>
      <trkpt lat="44.36553" lon="5.84443">
        <ele>865.32</ele>
        <time>2021-09-18T12:41:22Z</time>
      </trkpt>
      <trkpt lat="44.36556" lon="5.84443">
        <ele>864.36</ele>
        <time>2021-09-18T12:41:23Z</time>
      </trkpt>
      <trkpt lat="44.36558" lon="5.84446">
        <ele>862.44</ele>
        <time>2021-09-18T12:41:24Z</time>
      </trkpt>
      <trkpt lat="44.36563" lon="5.84452">
        <ele>859.56</ele>
        <time>2021-09-18T12:41:27Z</time>
      </trkpt>
      <trkpt lat="44.36563" lon="5.84454">
        <ele>859.56</ele>
        <time>2021-09-18T12:41:28Z</time>
      </trkpt>
      <trkpt lat="44.36564" lon="5.84463">
        <ele>855.71</ele>
        <time>2021-09-18T12:41:32Z</time>
      </trkpt>
      <trkpt lat="44.36564" lon="5.84465">
        <ele>855.23</ele>
        <time>2021-09-18T12:41:33Z</time>
      </trkpt>
      <trkpt lat="44.36564" lon="5.84467">
        <ele>854.27</ele>
        <time>2021-09-18T12:41:34Z</time>
      </trkpt>
      <trkpt lat="44.36565" lon="5.84469">
        <ele>853.31</ele>
        <time>2021-09-18T12:41:35Z</time>
      </trkpt>
      <trkpt lat="44.36566" lon="5.84472">
        <ele>852.35</ele>
        <time>2021-09-18T12:41:36Z</time>
      </trkpt>
      <trkpt lat="44.36568" lon="5.84475">
        <ele>851.38</ele>
        <time>2021-09-18T12:41:37Z</time>
      </trkpt>
      <trkpt lat="44.3657" lon="5.84478">
        <ele>850.42</ele>
        <time>2021-09-18T12:41:38Z</time>
      </trkpt>
      <trkpt lat="44.36571" lon="5.8448">
        <ele>849.94</ele>
        <time>2021-09-18T12:41:39Z</time>
      </trkpt>
      <trkpt lat="44.36572" lon="5.84483">
        <ele>848.98</ele>
        <time>2021-09-18T12:41:40Z</time>
      </trkpt>
      <trkpt lat="44.36572" lon="5.84487">
        <ele>848.02</ele>
        <time>2021-09-18T12:41:41Z</time>
      </trkpt>
      <trkpt lat="44.36572" lon="5.84491">
        <ele>847.54</ele>
        <time>2021-09-18T12:41:42Z</time>
      </trkpt>
      <trkpt lat="44.36572" lon="5.84495">
        <ele>846.58</ele>
        <time>2021-09-18T12:41:43Z</time>
      </trkpt>
      <trkpt lat="44.36572" lon="5.84499">
        <ele>845.62</ele>
        <time>2021-09-18T12:41:44Z</time>
      </trkpt>
      <trkpt lat="44.36572" lon="5.84502">
        <ele>845.14</ele>
        <time>2021-09-18T12:41:45Z</time>
      </trkpt>
      <trkpt lat="44.36572" lon="5.84505">
        <ele>844.66</ele>
        <time>2021-09-18T12:41:46Z</time>
      </trkpt>
      <trkpt lat="44.36572" lon="5.84507">
        <ele>844.66</ele>
        <time>2021-09-18T12:41:47Z</time>
      </trkpt>
      <trkpt lat="44.36577" lon="5.84516">
        <ele>846.1</ele>
        <time>2021-09-18T12:41:51Z</time>
      </trkpt>
      <trkpt lat="44.3658" lon="5.8452">
        <ele>848.02</ele>
        <time>2021-09-18T12:41:54Z</time>
      </trkpt>
      <trkpt lat="44.3658" lon="5.84521">
        <ele>848.5</ele>
        <time>2021-09-18T12:41:55Z</time>
      </trkpt>
      <trkpt lat="44.36581" lon="5.84524">
        <ele>848.5</ele>
        <time>2021-09-18T12:41:56Z</time>
      </trkpt>
      <trkpt lat="44.36581" lon="5.84527">
        <ele>848.5</ele>
        <time>2021-09-18T12:41:57Z</time>
      </trkpt>
      <trkpt lat="44.36579" lon="5.8456">
        <ele>847.06</ele>
        <time>2021-09-18T12:42:05Z</time>
      </trkpt>
      <trkpt lat="44.36579" lon="5.84571">
        <ele>845.62</ele>
        <time>2021-09-18T12:42:13Z</time>
      </trkpt>
      <trkpt lat="44.36581" lon="5.84597">
        <ele>844.66</ele>
        <time>2021-09-18T12:42:24Z</time>
      </trkpt>
      <trkpt lat="44.36584" lon="5.84609">
        <ele>846.1</ele>
        <time>2021-09-18T12:42:29Z</time>
      </trkpt>
      <trkpt lat="44.36586" lon="5.84634">
        <ele>842.25</ele>
        <time>2021-09-18T12:42:36Z</time>
      </trkpt>
      <trkpt lat="44.36586" lon="5.8466">
        <ele>838.41</ele>
        <time>2021-09-18T12:42:46Z</time>
      </trkpt>
      <trkpt lat="44.36586" lon="5.84668">
        <ele>835.04</ele>
        <time>2021-09-18T12:42:50Z</time>
      </trkpt>
      <trkpt lat="44.36585" lon="5.8468">
        <ele>831.2</ele>
        <time>2021-09-18T12:42:54Z</time>
      </trkpt>
      <trkpt lat="44.36584" lon="5.84683">
        <ele>831.2</ele>
        <time>2021-09-18T12:42:55Z</time>
      </trkpt>
      <trkpt lat="44.3658" lon="5.84695">
        <ele>827.83</ele>
        <time>2021-09-18T12:42:59Z</time>
      </trkpt>
      <trkpt lat="44.3658" lon="5.84699">
        <ele>827.83</ele>
        <time>2021-09-18T12:43:00Z</time>
      </trkpt>
      <trkpt lat="44.36581" lon="5.84724">
        <ele>826.87</ele>
        <time>2021-09-18T12:43:09Z</time>
      </trkpt>
      <trkpt lat="44.36579" lon="5.84727">
        <ele>826.87</ele>
        <time>2021-09-18T12:43:10Z</time>
      </trkpt>
      <trkpt lat="44.36578" lon="5.84731">
        <ele>826.87</ele>
        <time>2021-09-18T12:43:11Z</time>
      </trkpt>
      <trkpt lat="44.36577" lon="5.84744">
        <ele>828.31</ele>
        <time>2021-09-18T12:43:16Z</time>
      </trkpt>
      <trkpt lat="44.36572" lon="5.84777">
        <ele>830.24</ele>
        <time>2021-09-18T12:43:29Z</time>
      </trkpt>
      <trkpt lat="44.36571" lon="5.84779">
        <ele>830.24</ele>
        <time>2021-09-18T12:43:30Z</time>
      </trkpt>
      <trkpt lat="44.36569" lon="5.84782">
        <ele>830.24</ele>
        <time>2021-09-18T12:43:31Z</time>
      </trkpt>
      <trkpt lat="44.36569" lon="5.84783">
        <ele>830.24</ele>
        <time>2021-09-18T12:43:39Z</time>
      </trkpt>
      <trkpt lat="44.36569" lon="5.84782">
        <ele>830.24</ele>
        <time>2021-09-18T12:44:03Z</time>
      </trkpt>
      <trkpt lat="44.36567" lon="5.84786">
        <ele>830.24</ele>
        <time>2021-09-18T12:44:26Z</time>
      </trkpt>
      <trkpt lat="44.36561" lon="5.84802">
        <ele>828.31</ele>
        <time>2021-09-18T12:44:32Z</time>
      </trkpt>
      <trkpt lat="44.3655" lon="5.84834">
        <ele>825.43</ele>
        <time>2021-09-18T12:44:40Z</time>
      </trkpt>
      <trkpt lat="44.36551" lon="5.8484">
        <ele>825.43</ele>
        <time>2021-09-18T12:44:41Z</time>
      </trkpt>
      <trkpt lat="44.36543" lon="5.84862">
        <ele>823.03</ele>
        <time>2021-09-18T12:44:47Z</time>
      </trkpt>
      <trkpt lat="44.36541" lon="5.84863">
        <ele>823.03</ele>
        <time>2021-09-18T12:44:48Z</time>
      </trkpt>
      <trkpt lat="44.36539" lon="5.84864">
        <ele>823.03</ele>
        <time>2021-09-18T12:44:49Z</time>
      </trkpt>
      <trkpt lat="44.36531" lon="5.84873">
        <ele>824.95</ele>
        <time>2021-09-18T12:45:02Z</time>
      </trkpt>
      <trkpt lat="44.36523" lon="5.84891">
        <ele>823.99</ele>
        <time>2021-09-18T12:45:07Z</time>
      </trkpt>
      <trkpt lat="44.36519" lon="5.84908">
        <ele>821.1</ele>
        <time>2021-09-18T12:45:11Z</time>
      </trkpt>
      <trkpt lat="44.36517" lon="5.8491">
        <ele>820.14</ele>
        <time>2021-09-18T12:45:12Z</time>
      </trkpt>
      <trkpt lat="44.36514" lon="5.84912">
        <ele>820.14</ele>
        <time>2021-09-18T12:45:13Z</time>
      </trkpt>
      <trkpt lat="44.36512" lon="5.84914">
        <ele>820.14</ele>
        <time>2021-09-18T12:45:14Z</time>
      </trkpt>
      <trkpt lat="44.3651" lon="5.84916">
        <ele>819.66</ele>
        <time>2021-09-18T12:45:15Z</time>
      </trkpt>
      <trkpt lat="44.36505" lon="5.84923">
        <ele>818.22</ele>
        <time>2021-09-18T12:45:18Z</time>
      </trkpt>
      <trkpt lat="44.36505" lon="5.84926">
        <ele>816.78</ele>
        <time>2021-09-18T12:45:19Z</time>
      </trkpt>
      <trkpt lat="44.36504" lon="5.8493">
        <ele>815.82</ele>
        <time>2021-09-18T12:45:20Z</time>
      </trkpt>
      <trkpt lat="44.36504" lon="5.84935">
        <ele>815.34</ele>
        <time>2021-09-18T12:45:21Z</time>
      </trkpt>
      <trkpt lat="44.36506" lon="5.8494">
        <ele>813.41</ele>
        <time>2021-09-18T12:45:22Z</time>
      </trkpt>
      <trkpt lat="44.36507" lon="5.84945">
        <ele>812.45</ele>
        <time>2021-09-18T12:45:23Z</time>
      </trkpt>
      <trkpt lat="44.36509" lon="5.84949">
        <ele>812.45</ele>
        <time>2021-09-18T12:45:24Z</time>
      </trkpt>
      <trkpt lat="44.36515" lon="5.84959">
        <ele>809.09</ele>
        <time>2021-09-18T12:45:26Z</time>
      </trkpt>
      <trkpt lat="44.36521" lon="5.8497">
        <ele>805.24</ele>
        <time>2021-09-18T12:45:28Z</time>
      </trkpt>
      <trkpt lat="44.36523" lon="5.84975">
        <ele>805.24</ele>
        <time>2021-09-18T12:45:29Z</time>
      </trkpt>
      <trkpt lat="44.36523" lon="5.84979">
        <ele>805.24</ele>
        <time>2021-09-18T12:45:30Z</time>
      </trkpt>
      <trkpt lat="44.36522" lon="5.84983">
        <ele>805.24</ele>
        <time>2021-09-18T12:45:31Z</time>
      </trkpt>
      <trkpt lat="44.36521" lon="5.84987">
        <ele>805.24</ele>
        <time>2021-09-18T12:45:32Z</time>
      </trkpt>
      <trkpt lat="44.3652" lon="5.84993">
        <ele>805.24</ele>
        <time>2021-09-18T12:45:33Z</time>
      </trkpt>
      <trkpt lat="44.3652" lon="5.84997">
        <ele>805.24</ele>
        <time>2021-09-18T12:45:34Z</time>
      </trkpt>
      <trkpt lat="44.3652" lon="5.85002">
        <ele>804.28</ele>
        <time>2021-09-18T12:45:35Z</time>
      </trkpt>
      <trkpt lat="44.36519" lon="5.85007">
        <ele>804.28</ele>
        <time>2021-09-18T12:45:36Z</time>
      </trkpt>
      <trkpt lat="44.36518" lon="5.8501">
        <ele>803.8</ele>
        <time>2021-09-18T12:45:37Z</time>
      </trkpt>
      <trkpt lat="44.36517" lon="5.85013">
        <ele>803.8</ele>
        <time>2021-09-18T12:45:38Z</time>
      </trkpt>
      <trkpt lat="44.36517" lon="5.85017">
        <ele>802.36</ele>
        <time>2021-09-18T12:45:39Z</time>
      </trkpt>
      <trkpt lat="44.36518" lon="5.85021">
        <ele>801.88</ele>
        <time>2021-09-18T12:45:40Z</time>
      </trkpt>
      <trkpt lat="44.36518" lon="5.85027">
        <ele>800.44</ele>
        <time>2021-09-18T12:45:41Z</time>
      </trkpt>
      <trkpt lat="44.36518" lon="5.85037">
        <ele>797.07</ele>
        <time>2021-09-18T12:45:43Z</time>
      </trkpt>
      <trkpt lat="44.36518" lon="5.85051">
        <ele>795.15</ele>
        <time>2021-09-18T12:45:46Z</time>
      </trkpt>
      <trkpt lat="44.36511" lon="5.85065">
        <ele>792.26</ele>
        <time>2021-09-18T12:45:50Z</time>
      </trkpt>
      <trkpt lat="44.36507" lon="5.85068">
        <ele>791.3</ele>
        <time>2021-09-18T12:45:51Z</time>
      </trkpt>
      <trkpt lat="44.36503" lon="5.85071">
        <ele>789.86</ele>
        <time>2021-09-18T12:45:52Z</time>
      </trkpt>
      <trkpt lat="44.36499" lon="5.85074">
        <ele>788.9</ele>
        <time>2021-09-18T12:45:53Z</time>
      </trkpt>
      <trkpt lat="44.36495" lon="5.85078">
        <ele>787.94</ele>
        <time>2021-09-18T12:45:54Z</time>
      </trkpt>
      <trkpt lat="44.36492" lon="5.85083">
        <ele>787.94</ele>
        <time>2021-09-18T12:45:55Z</time>
      </trkpt>
      <trkpt lat="44.3649" lon="5.85089">
        <ele>786.02</ele>
        <time>2021-09-18T12:45:56Z</time>
      </trkpt>
      <trkpt lat="44.3649" lon="5.85095">
        <ele>785.05</ele>
        <time>2021-09-18T12:45:57Z</time>
      </trkpt>
      <trkpt lat="44.3649" lon="5.85099">
        <ele>785.05</ele>
        <time>2021-09-18T12:45:58Z</time>
      </trkpt>
      <trkpt lat="44.3649" lon="5.85103">
        <ele>784.57</ele>
        <time>2021-09-18T12:45:59Z</time>
      </trkpt>
      <trkpt lat="44.36489" lon="5.85105">
        <ele>784.57</ele>
        <time>2021-09-18T12:46:00Z</time>
      </trkpt>
      <trkpt lat="44.36486" lon="5.85106">
        <ele>784.57</ele>
        <time>2021-09-18T12:46:01Z</time>
      </trkpt>
      <trkpt lat="44.36483" lon="5.85109">
        <ele>783.13</ele>
        <time>2021-09-18T12:46:02Z</time>
      </trkpt>
      <trkpt lat="44.3648" lon="5.85112">
        <ele>783.13</ele>
        <time>2021-09-18T12:46:03Z</time>
      </trkpt>
      <trkpt lat="44.36463" lon="5.85126">
        <ele>782.65</ele>
        <time>2021-09-18T12:46:12Z</time>
      </trkpt>
      <trkpt lat="44.36458" lon="5.85142">
        <ele>781.21</ele>
        <time>2021-09-18T12:46:20Z</time>
      </trkpt>
      <trkpt lat="44.36454" lon="5.85155">
        <ele>780.25</ele>
        <time>2021-09-18T12:46:22Z</time>
      </trkpt>
      <trkpt lat="44.36453" lon="5.85161">
        <ele>779.29</ele>
        <time>2021-09-18T12:46:23Z</time>
      </trkpt>
      <trkpt lat="44.36453" lon="5.85166">
        <ele>779.29</ele>
        <time>2021-09-18T12:46:24Z</time>
      </trkpt>
      <trkpt lat="44.36454" lon="5.85173">
        <ele>779.29</ele>
        <time>2021-09-18T12:46:25Z</time>
      </trkpt>
      <trkpt lat="44.36455" lon="5.85179">
        <ele>778.81</ele>
        <time>2021-09-18T12:46:26Z</time>
      </trkpt>
      <trkpt lat="44.36456" lon="5.85186">
        <ele>777.36</ele>
        <time>2021-09-18T12:46:27Z</time>
      </trkpt>
      <trkpt lat="44.36457" lon="5.85192">
        <ele>776.88</ele>
        <time>2021-09-18T12:46:28Z</time>
      </trkpt>
      <trkpt lat="44.36457" lon="5.85199">
        <ele>776.88</ele>
        <time>2021-09-18T12:46:29Z</time>
      </trkpt>
      <trkpt lat="44.36457" lon="5.85205">
        <ele>776.88</ele>
        <time>2021-09-18T12:46:30Z</time>
      </trkpt>
      <trkpt lat="44.36456" lon="5.85211">
        <ele>776.88</ele>
        <time>2021-09-18T12:46:31Z</time>
      </trkpt>
      <trkpt lat="44.36456" lon="5.85218">
        <ele>775.92</ele>
        <time>2021-09-18T12:46:32Z</time>
      </trkpt>
      <trkpt lat="44.36455" lon="5.85224">
        <ele>775.44</ele>
        <time>2021-09-18T12:46:33Z</time>
      </trkpt>
      <trkpt lat="44.3645" lon="5.85257">
        <ele>774.96</ele>
        <time>2021-09-18T12:46:42Z</time>
      </trkpt>
      <trkpt lat="44.36449" lon="5.85275">
        <ele>771.6</ele>
        <time>2021-09-18T12:46:50Z</time>
      </trkpt>
      <trkpt lat="44.36449" lon="5.85278">
        <ele>770.63</ele>
        <time>2021-09-18T12:46:52Z</time>
      </trkpt>
      <trkpt lat="44.36448" lon="5.8528">
        <ele>770.63</ele>
        <time>2021-09-18T12:46:53Z</time>
      </trkpt>
      <trkpt lat="44.36447" lon="5.85281">
        <ele>769.19</ele>
        <time>2021-09-18T12:46:54Z</time>
      </trkpt>
      <trkpt lat="44.36446" lon="5.85283">
        <ele>768.71</ele>
        <time>2021-09-18T12:46:55Z</time>
      </trkpt>
      <trkpt lat="44.36444" lon="5.85284">
        <ele>768.71</ele>
        <time>2021-09-18T12:46:56Z</time>
      </trkpt>
      <trkpt lat="44.36442" lon="5.85284">
        <ele>768.23</ele>
        <time>2021-09-18T12:46:57Z</time>
      </trkpt>
      <trkpt lat="44.36435" lon="5.85291">
        <ele>764.39</ele>
        <time>2021-09-18T12:47:01Z</time>
      </trkpt>
      <trkpt lat="44.36429" lon="5.85298">
        <ele>760.54</ele>
        <time>2021-09-18T12:47:05Z</time>
      </trkpt>
      <trkpt lat="44.36428" lon="5.853">
        <ele>760.06</ele>
        <time>2021-09-18T12:47:06Z</time>
      </trkpt>
      <trkpt lat="44.36428" lon="5.85302">
        <ele>759.1</ele>
        <time>2021-09-18T12:47:07Z</time>
      </trkpt>
      <trkpt lat="44.36427" lon="5.85304">
        <ele>759.1</ele>
        <time>2021-09-18T12:47:08Z</time>
      </trkpt>
      <trkpt lat="44.36428" lon="5.85308">
        <ele>757.66</ele>
        <time>2021-09-18T12:47:10Z</time>
      </trkpt>
      <trkpt lat="44.36429" lon="5.85312">
        <ele>756.69</ele>
        <time>2021-09-18T12:47:12Z</time>
      </trkpt>
      <trkpt lat="44.3643" lon="5.85319">
        <ele>753.33</ele>
        <time>2021-09-18T12:47:16Z</time>
      </trkpt>
      <trkpt lat="44.3643" lon="5.85323">
        <ele>752.37</ele>
        <time>2021-09-18T12:47:18Z</time>
      </trkpt>
      <trkpt lat="44.3643" lon="5.85324">
        <ele>751.41</ele>
        <time>2021-09-18T12:47:28Z</time>
      </trkpt>
      <trkpt lat="44.36434" lon="5.85323">
        <ele>751.41</ele>
        <time>2021-09-18T12:47:37Z</time>
      </trkpt>
      <trkpt lat="44.36435" lon="5.85324">
        <ele>751.41</ele>
        <time>2021-09-18T12:47:38Z</time>
      </trkpt>
      <trkpt lat="44.36436" lon="5.85326">
        <ele>751.41</ele>
        <time>2021-09-18T12:47:39Z</time>
      </trkpt>
      <trkpt lat="44.36438" lon="5.85328">
        <ele>750.93</ele>
        <time>2021-09-18T12:47:40Z</time>
      </trkpt>
      <trkpt lat="44.36439" lon="5.85331">
        <ele>749.97</ele>
        <time>2021-09-18T12:47:41Z</time>
      </trkpt>
      <trkpt lat="44.36439" lon="5.85334">
        <ele>749</ele>
        <time>2021-09-18T12:47:42Z</time>
      </trkpt>
      <trkpt lat="44.36438" lon="5.85336">
        <ele>749</ele>
        <time>2021-09-18T12:47:43Z</time>
      </trkpt>
      <trkpt lat="44.36439" lon="5.85337">
        <ele>748.52</ele>
        <time>2021-09-18T12:47:55Z</time>
      </trkpt>
      <trkpt lat="44.36437" lon="5.85336">
        <ele>748.52</ele>
        <time>2021-09-18T12:48:09Z</time>
      </trkpt>
      <trkpt lat="44.36436" lon="5.85333">
        <ele>748.52</ele>
        <time>2021-09-18T12:48:22Z</time>
      </trkpt>
      <trkpt lat="44.36435" lon="5.85333">
        <ele>748.52</ele>
        <time>2021-09-18T12:48:43Z</time>
      </trkpt>
      <trkpt lat="44.36434" lon="5.85335">
        <ele>748.04</ele>
        <time>2021-09-18T12:49:05Z</time>
      </trkpt>
      <trkpt lat="44.36433" lon="5.85334">
        <ele>748.04</ele>
        <time>2021-09-18T12:49:06Z</time>
      </trkpt>
      <trkpt lat="44.36432" lon="5.85334">
        <ele>748.04</ele>
        <time>2021-09-18T12:49:07Z</time>
      </trkpt>
      <trkpt lat="44.36426" lon="5.85333">
        <ele>747.08</ele>
        <time>2021-09-18T12:49:11Z</time>
      </trkpt>
      <trkpt lat="44.36425" lon="5.85333">
        <ele>746.6</ele>
        <time>2021-09-18T12:49:12Z</time>
      </trkpt>
      <trkpt lat="44.36423" lon="5.85333">
        <ele>745.64</ele>
        <time>2021-09-18T12:49:13Z</time>
      </trkpt>
      <trkpt lat="44.36421" lon="5.85332">
        <ele>745.16</ele>
        <time>2021-09-18T12:49:14Z</time>
      </trkpt>
      <trkpt lat="44.3642" lon="5.85331">
        <ele>745.16</ele>
        <time>2021-09-18T12:49:15Z</time>
      </trkpt>
      <trkpt lat="44.36405" lon="5.85324">
        <ele>741.79</ele>
        <time>2021-09-18T12:49:23Z</time>
      </trkpt>
      <trkpt lat="44.36391" lon="5.85314">
        <ele>738.91</ele>
        <time>2021-09-18T12:49:31Z</time>
      </trkpt>
      <trkpt lat="44.36385" lon="5.85308">
        <ele>737.47</ele>
        <time>2021-09-18T12:49:34Z</time>
      </trkpt>
      <trkpt lat="44.36377" lon="5.853">
        <ele>735.55</ele>
        <time>2021-09-18T12:49:39Z</time>
      </trkpt>
      <trkpt lat="44.36366" lon="5.85296">
        <ele>735.07</ele>
        <time>2021-09-18T12:49:46Z</time>
      </trkpt>
      <trkpt lat="44.36364" lon="5.85295">
        <ele>734.1</ele>
        <time>2021-09-18T12:49:47Z</time>
      </trkpt>
      <trkpt lat="44.36363" lon="5.85294">
        <ele>733.62</ele>
        <time>2021-09-18T12:49:48Z</time>
      </trkpt>
      <trkpt lat="44.36361" lon="5.85292">
        <ele>733.62</ele>
        <time>2021-09-18T12:49:49Z</time>
      </trkpt>
      <trkpt lat="44.3636" lon="5.85289">
        <ele>733.14</ele>
        <time>2021-09-18T12:49:50Z</time>
      </trkpt>
      <trkpt lat="44.36357" lon="5.85286">
        <ele>733.14</ele>
        <time>2021-09-18T12:49:52Z</time>
      </trkpt>
      <trkpt lat="44.36357" lon="5.85284">
        <ele>733.14</ele>
        <time>2021-09-18T12:49:53Z</time>
      </trkpt>
      <trkpt lat="44.36356" lon="5.85282">
        <ele>732.66</ele>
        <time>2021-09-18T12:49:54Z</time>
      </trkpt>
      <trkpt lat="44.36355" lon="5.8528">
        <ele>732.66</ele>
        <time>2021-09-18T12:49:55Z</time>
      </trkpt>
      <trkpt lat="44.36355" lon="5.85278">
        <ele>732.66</ele>
        <time>2021-09-18T12:49:56Z</time>
      </trkpt>
      <trkpt lat="44.36349" lon="5.85268">
        <ele>731.7</ele>
        <time>2021-09-18T12:50:01Z</time>
      </trkpt>
      <trkpt lat="44.36344" lon="5.85264">
        <ele>730.74</ele>
        <time>2021-09-18T12:50:10Z</time>
      </trkpt>
      <trkpt lat="44.36343" lon="5.85264">
        <ele>730.74</ele>
        <time>2021-09-18T12:50:11Z</time>
      </trkpt>
      <trkpt lat="44.36341" lon="5.85261">
        <ele>730.74</ele>
        <time>2021-09-18T12:50:14Z</time>
      </trkpt>
      <trkpt lat="44.36339" lon="5.85261">
        <ele>730.74</ele>
        <time>2021-09-18T12:50:15Z</time>
      </trkpt>
      <trkpt lat="44.36338" lon="5.8526">
        <ele>730.74</ele>
        <time>2021-09-18T12:50:16Z</time>
      </trkpt>
      <trkpt lat="44.3633" lon="5.8525">
        <ele>730.74</ele>
        <time>2021-09-18T12:50:23Z</time>
      </trkpt>
      <trkpt lat="44.36328" lon="5.85249">
        <ele>730.74</ele>
        <time>2021-09-18T12:50:24Z</time>
      </trkpt>
      <trkpt lat="44.36324" lon="5.85247">
        <ele>729.3</ele>
        <time>2021-09-18T12:50:26Z</time>
      </trkpt>
      <trkpt lat="44.36322" lon="5.85248">
        <ele>729.3</ele>
        <time>2021-09-18T12:50:27Z</time>
      </trkpt>
      <trkpt lat="44.3632" lon="5.85247">
        <ele>729.3</ele>
        <time>2021-09-18T12:50:28Z</time>
      </trkpt>
      <trkpt lat="44.36319" lon="5.85247">
        <ele>729.3</ele>
        <time>2021-09-18T12:50:29Z</time>
      </trkpt>
      <trkpt lat="44.36317" lon="5.85246">
        <ele>728.82</ele>
        <time>2021-09-18T12:50:30Z</time>
      </trkpt>
      <trkpt lat="44.36315" lon="5.85244">
        <ele>728.82</ele>
        <time>2021-09-18T12:50:31Z</time>
      </trkpt>
      <trkpt lat="44.36314" lon="5.85241">
        <ele>727.86</ele>
        <time>2021-09-18T12:50:32Z</time>
      </trkpt>
      <trkpt lat="44.36307" lon="5.8523">
        <ele>727.37</ele>
        <time>2021-09-18T12:50:38Z</time>
      </trkpt>
      <trkpt lat="44.36306" lon="5.85226">
        <ele>726.41</ele>
        <time>2021-09-18T12:50:39Z</time>
      </trkpt>
      <trkpt lat="44.36303" lon="5.85222">
        <ele>726.41</ele>
        <time>2021-09-18T12:50:40Z</time>
      </trkpt>
      <trkpt lat="44.36301" lon="5.85219">
        <ele>726.41</ele>
        <time>2021-09-18T12:50:41Z</time>
      </trkpt>
      <trkpt lat="44.36299" lon="5.85216">
        <ele>725.45</ele>
        <time>2021-09-18T12:50:42Z</time>
      </trkpt>
      <trkpt lat="44.36297" lon="5.85215">
        <ele>724.97</ele>
        <time>2021-09-18T12:50:43Z</time>
      </trkpt>
      <trkpt lat="44.36295" lon="5.85214">
        <ele>724.97</ele>
        <time>2021-09-18T12:50:44Z</time>
      </trkpt>
      <trkpt lat="44.36293" lon="5.85215">
        <ele>724.97</ele>
        <time>2021-09-18T12:50:45Z</time>
      </trkpt>
      <trkpt lat="44.36292" lon="5.85216">
        <ele>724.97</ele>
        <time>2021-09-18T12:50:46Z</time>
      </trkpt>
      <trkpt lat="44.36291" lon="5.85217">
        <ele>724.97</ele>
        <time>2021-09-18T12:50:47Z</time>
      </trkpt>
      <trkpt lat="44.36286" lon="5.85219">
        <ele>724.01</ele>
        <time>2021-09-18T12:50:50Z</time>
      </trkpt>
      <trkpt lat="44.36284" lon="5.85218">
        <ele>723.05</ele>
        <time>2021-09-18T12:50:51Z</time>
      </trkpt>
      <trkpt lat="44.36282" lon="5.85218">
        <ele>722.09</ele>
        <time>2021-09-18T12:50:52Z</time>
      </trkpt>
      <trkpt lat="44.3628" lon="5.85219">
        <ele>721.61</ele>
        <time>2021-09-18T12:50:53Z</time>
      </trkpt>
      <trkpt lat="44.36278" lon="5.85219">
        <ele>720.16</ele>
        <time>2021-09-18T12:50:54Z</time>
      </trkpt>
      <trkpt lat="44.36278" lon="5.85218">
        <ele>720.16</ele>
        <time>2021-09-18T12:50:55Z</time>
      </trkpt>
      <trkpt lat="44.36277" lon="5.85218">
        <ele>720.65</ele>
        <time>2021-09-18T12:51:15Z</time>
      </trkpt>
      <trkpt lat="44.36277" lon="5.8522">
        <ele>720.16</ele>
        <time>2021-09-18T12:51:37Z</time>
      </trkpt>
      <trkpt lat="44.36275" lon="5.85222">
        <ele>720.16</ele>
        <time>2021-09-18T12:51:49Z</time>
      </trkpt>
      <trkpt lat="44.36274" lon="5.85222">
        <ele>720.16</ele>
        <time>2021-09-18T12:51:51Z</time>
      </trkpt>
      <trkpt lat="44.36272" lon="5.8522">
        <ele>719.68</ele>
        <time>2021-09-18T12:51:52Z</time>
      </trkpt>
      <trkpt lat="44.3627" lon="5.85218">
        <ele>718.72</ele>
        <time>2021-09-18T12:51:53Z</time>
      </trkpt>
      <trkpt lat="44.36267" lon="5.85218">
        <ele>718.72</ele>
        <time>2021-09-18T12:52:03Z</time>
      </trkpt>
      <trkpt lat="44.36264" lon="5.8522">
        <ele>717.76</ele>
        <time>2021-09-18T12:52:17Z</time>
      </trkpt>
      <trkpt lat="44.36264" lon="5.85223">
        <ele>716.8</ele>
        <time>2021-09-18T12:52:29Z</time>
      </trkpt>
      <trkpt lat="44.36265" lon="5.85222">
        <ele>716.8</ele>
        <time>2021-09-18T12:53:00Z</time>
      </trkpt>
      <trkpt lat="44.36263" lon="5.85224">
        <ele>716.32</ele>
        <time>2021-09-18T12:53:14Z</time>
      </trkpt>
      <trkpt lat="44.36262" lon="5.85224">
        <ele>716.32</ele>
        <time>2021-09-18T12:53:15Z</time>
      </trkpt>
      <trkpt lat="44.3626" lon="5.85224">
        <ele>716.32</ele>
        <time>2021-09-18T12:53:16Z</time>
      </trkpt>
      <trkpt lat="44.36259" lon="5.85224">
        <ele>716.32</ele>
        <time>2021-09-18T12:53:17Z</time>
      </trkpt>
      <trkpt lat="44.36257" lon="5.85224">
        <ele>714.88</ele>
        <time>2021-09-18T12:53:18Z</time>
      </trkpt>
      <trkpt lat="44.36255" lon="5.85224">
        <ele>714.4</ele>
        <time>2021-09-18T12:53:19Z</time>
      </trkpt>
      <trkpt lat="44.36253" lon="5.85224">
        <ele>714.4</ele>
        <time>2021-09-18T12:53:20Z</time>
      </trkpt>
      <trkpt lat="44.36252" lon="5.85224">
        <ele>713.44</ele>
        <time>2021-09-18T12:53:21Z</time>
      </trkpt>
      <trkpt lat="44.36249" lon="5.85224">
        <ele>712.47</ele>
        <time>2021-09-18T12:53:23Z</time>
      </trkpt>
      <trkpt lat="44.36245" lon="5.85224">
        <ele>710.55</ele>
        <time>2021-09-18T12:53:25Z</time>
      </trkpt>
      <trkpt lat="44.36229" lon="5.85222">
        <ele>707.19</ele>
        <time>2021-09-18T12:53:33Z</time>
      </trkpt>
      <trkpt lat="44.36223" lon="5.85227">
        <ele>707.19</ele>
        <time>2021-09-18T12:53:42Z</time>
      </trkpt>
      <trkpt lat="44.36221" lon="5.85235">
        <ele>707.19</ele>
        <time>2021-09-18T12:53:54Z</time>
      </trkpt>
      <trkpt lat="44.3622" lon="5.85236">
        <ele>707.19</ele>
        <time>2021-09-18T12:54:01Z</time>
      </trkpt>
      <trkpt lat="44.36218" lon="5.85237">
        <ele>707.19</ele>
        <time>2021-09-18T12:54:02Z</time>
      </trkpt>
      <trkpt lat="44.36216" lon="5.85237">
        <ele>707.19</ele>
        <time>2021-09-18T12:54:03Z</time>
      </trkpt>
      <trkpt lat="44.36211" lon="5.85236">
        <ele>705.75</ele>
        <time>2021-09-18T12:54:11Z</time>
      </trkpt>
      <trkpt lat="44.36198" lon="5.85235">
        <ele>707.67</ele>
        <time>2021-09-18T12:54:25Z</time>
      </trkpt>
      <trkpt lat="44.36195" lon="5.85238">
        <ele>706.23</ele>
        <time>2021-09-18T12:54:27Z</time>
      </trkpt>
      <trkpt lat="44.36189" lon="5.8524">
        <ele>704.78</ele>
        <time>2021-09-18T12:54:30Z</time>
      </trkpt>
      <trkpt lat="44.36186" lon="5.85242">
        <ele>703.34</ele>
        <time>2021-09-18T12:54:31Z</time>
      </trkpt>
      <trkpt lat="44.36183" lon="5.85244">
        <ele>702.86</ele>
        <time>2021-09-18T12:54:32Z</time>
      </trkpt>
      <trkpt lat="44.36181" lon="5.85246">
        <ele>702.86</ele>
        <time>2021-09-18T12:54:33Z</time>
      </trkpt>
      <trkpt lat="44.36179" lon="5.85248">
        <ele>702.38</ele>
        <time>2021-09-18T12:54:34Z</time>
      </trkpt>
      <trkpt lat="44.36178" lon="5.85251">
        <ele>702.38</ele>
        <time>2021-09-18T12:54:35Z</time>
      </trkpt>
      <trkpt lat="44.36177" lon="5.85254">
        <ele>701.9</ele>
        <time>2021-09-18T12:54:36Z</time>
      </trkpt>
      <trkpt lat="44.36175" lon="5.85255">
        <ele>701.9</ele>
        <time>2021-09-18T12:54:37Z</time>
      </trkpt>
      <trkpt lat="44.36168" lon="5.85259">
        <ele>701.42</ele>
        <time>2021-09-18T12:54:48Z</time>
      </trkpt>
      <trkpt lat="44.36151" lon="5.85272">
        <ele>699.98</ele>
        <time>2021-09-18T12:54:54Z</time>
      </trkpt>
      <trkpt lat="44.36144" lon="5.85272">
        <ele>699.98</ele>
        <time>2021-09-18T12:54:57Z</time>
      </trkpt>
      <trkpt lat="44.36144" lon="5.85273">
        <ele>699.5</ele>
        <time>2021-09-18T12:55:05Z</time>
      </trkpt>
      <trkpt lat="44.36145" lon="5.85273">
        <ele>699.5</ele>
        <time>2021-09-18T12:55:07Z</time>
      </trkpt>
      <trkpt lat="44.36146" lon="5.85273">
        <ele>699.5</ele>
        <time>2021-09-18T12:55:08Z</time>
      </trkpt>
      <trkpt lat="44.36147" lon="5.85272">
        <ele>699.5</ele>
        <time>2021-09-18T12:55:09Z</time>
      </trkpt>
      <trkpt lat="44.36148" lon="5.85272">
        <ele>699.5</ele>
        <time>2021-09-18T12:55:10Z</time>
      </trkpt>
      <trkpt lat="44.36148" lon="5.85273">
        <ele>699.5</ele>
        <time>2021-09-18T12:55:11Z</time>
      </trkpt>
      <trkpt lat="44.36147" lon="5.85276">
        <ele>699.5</ele>
        <time>2021-09-18T12:55:15Z</time>
      </trkpt>
      <trkpt lat="44.36146" lon="5.85278">
        <ele>699.5</ele>
        <time>2021-09-18T12:55:17Z</time>
      </trkpt>
      <trkpt lat="44.36145" lon="5.8528">
        <ele>699.5</ele>
        <time>2021-09-18T12:55:18Z</time>
      </trkpt>
      <trkpt lat="44.36144" lon="5.85283">
        <ele>699.5</ele>
        <time>2021-09-18T12:55:19Z</time>
      </trkpt>
      <trkpt lat="44.36142" lon="5.85285">
        <ele>699.5</ele>
        <time>2021-09-18T12:55:20Z</time>
      </trkpt>
      <trkpt lat="44.3614" lon="5.85286">
        <ele>699.5</ele>
        <time>2021-09-18T12:55:21Z</time>
      </trkpt>
      <trkpt lat="44.36138" lon="5.85287">
        <ele>699.5</ele>
        <time>2021-09-18T12:55:22Z</time>
      </trkpt>
      <trkpt lat="44.36136" lon="5.85287">
        <ele>699.5</ele>
        <time>2021-09-18T12:55:23Z</time>
      </trkpt>
      <trkpt lat="44.36134" lon="5.85287">
        <ele>699.02</ele>
        <time>2021-09-18T12:55:24Z</time>
      </trkpt>
      <trkpt lat="44.36129" lon="5.85287">
        <ele>698.53</ele>
        <time>2021-09-18T12:55:37Z</time>
      </trkpt>
      <trkpt lat="44.36127" lon="5.85286">
        <ele>698.53</ele>
        <time>2021-09-18T12:55:38Z</time>
      </trkpt>
      <trkpt lat="44.36125" lon="5.85286">
        <ele>698.05</ele>
        <time>2021-09-18T12:55:40Z</time>
      </trkpt>
      <trkpt lat="44.36122" lon="5.85288">
        <ele>698.05</ele>
        <time>2021-09-18T12:55:42Z</time>
      </trkpt>
      <trkpt lat="44.36121" lon="5.85288">
        <ele>698.05</ele>
        <time>2021-09-18T12:55:43Z</time>
      </trkpt>
      <trkpt lat="44.36094" lon="5.85293">
        <ele>696.61</ele>
        <time>2021-09-18T12:55:52Z</time>
      </trkpt>
      <trkpt lat="44.36088" lon="5.85293">
        <ele>695.65</ele>
        <time>2021-09-18T12:55:54Z</time>
      </trkpt>
      <trkpt lat="44.36079" lon="5.85296">
        <ele>695.65</ele>
        <time>2021-09-18T12:56:01Z</time>
      </trkpt>
      <trkpt lat="44.36077" lon="5.85295">
        <ele>695.65</ele>
        <time>2021-09-18T12:56:02Z</time>
      </trkpt>
      <trkpt lat="44.36075" lon="5.85294">
        <ele>694.69</ele>
        <time>2021-09-18T12:56:03Z</time>
      </trkpt>
      <trkpt lat="44.36071" lon="5.85294">
        <ele>694.69</ele>
        <time>2021-09-18T12:56:04Z</time>
      </trkpt>
      <trkpt lat="44.36067" lon="5.85295">
        <ele>694.21</ele>
        <time>2021-09-18T12:56:05Z</time>
      </trkpt>
      <trkpt lat="44.36063" lon="5.85298">
        <ele>693.73</ele>
        <time>2021-09-18T12:56:06Z</time>
      </trkpt>
      <trkpt lat="44.36059" lon="5.85299">
        <ele>692.77</ele>
        <time>2021-09-18T12:56:07Z</time>
      </trkpt>
      <trkpt lat="44.36055" lon="5.85301">
        <ele>692.77</ele>
        <time>2021-09-18T12:56:08Z</time>
      </trkpt>
      <trkpt lat="44.36034" lon="5.85317">
        <ele>689.88</ele>
        <time>2021-09-18T12:56:15Z</time>
      </trkpt>
      <trkpt lat="44.36025" lon="5.85329">
        <ele>688.44</ele>
        <time>2021-09-18T12:56:20Z</time>
      </trkpt>
      <trkpt lat="44.36023" lon="5.8533">
        <ele>688.44</ele>
        <time>2021-09-18T12:56:21Z</time>
      </trkpt>
      <trkpt lat="44.3602" lon="5.8533">
        <ele>688.92</ele>
        <time>2021-09-18T12:56:22Z</time>
      </trkpt>
      <trkpt lat="44.36007" lon="5.85333">
        <ele>690.36</ele>
        <time>2021-09-18T12:56:31Z</time>
      </trkpt>
      <trkpt lat="44.36004" lon="5.85334">
        <ele>690.84</ele>
        <time>2021-09-18T12:56:36Z</time>
      </trkpt>
      <trkpt lat="44.36003" lon="5.85336">
        <ele>690.84</ele>
        <time>2021-09-18T12:56:37Z</time>
      </trkpt>
      <trkpt lat="44.36001" lon="5.85337">
        <ele>690.84</ele>
        <time>2021-09-18T12:56:38Z</time>
      </trkpt>
      <trkpt lat="44.35999" lon="5.85339">
        <ele>689.4</ele>
        <time>2021-09-18T12:56:39Z</time>
      </trkpt>
      <trkpt lat="44.35998" lon="5.85341">
        <ele>689.4</ele>
        <time>2021-09-18T12:56:40Z</time>
      </trkpt>
      <trkpt lat="44.35996" lon="5.85342">
        <ele>689.4</ele>
        <time>2021-09-18T12:56:41Z</time>
      </trkpt>
      <trkpt lat="44.35978" lon="5.8535">
        <ele>689.4</ele>
        <time>2021-09-18T12:56:49Z</time>
      </trkpt>
      <trkpt lat="44.35976" lon="5.8535">
        <ele>689.4</ele>
        <time>2021-09-18T12:56:50Z</time>
      </trkpt>
      <trkpt lat="44.35974" lon="5.85351">
        <ele>689.4</ele>
        <time>2021-09-18T12:56:51Z</time>
      </trkpt>
      <trkpt lat="44.35971" lon="5.85352">
        <ele>690.84</ele>
        <time>2021-09-18T12:56:52Z</time>
      </trkpt>
      <trkpt lat="44.35969" lon="5.85353">
        <ele>690.84</ele>
        <time>2021-09-18T12:56:53Z</time>
      </trkpt>
      <trkpt lat="44.35968" lon="5.85353">
        <ele>690.84</ele>
        <time>2021-09-18T12:56:54Z</time>
      </trkpt>
      <trkpt lat="44.35965" lon="5.85352">
        <ele>690.84</ele>
        <time>2021-09-18T12:56:55Z</time>
      </trkpt>
      <trkpt lat="44.35963" lon="5.85351">
        <ele>690.84</ele>
        <time>2021-09-18T12:56:56Z</time>
      </trkpt>
      <trkpt lat="44.35961" lon="5.8535">
        <ele>690.84</ele>
        <time>2021-09-18T12:56:57Z</time>
      </trkpt>
      <trkpt lat="44.35949" lon="5.85354">
        <ele>689.4</ele>
        <time>2021-09-18T12:57:03Z</time>
      </trkpt>
      <trkpt lat="44.35945" lon="5.85354">
        <ele>688.92</ele>
        <time>2021-09-18T12:57:04Z</time>
      </trkpt>
      <trkpt lat="44.35942" lon="5.85355">
        <ele>687.96</ele>
        <time>2021-09-18T12:57:05Z</time>
      </trkpt>
      <trkpt lat="44.35935" lon="5.85357">
        <ele>685.56</ele>
        <time>2021-09-18T12:57:07Z</time>
      </trkpt>
      <trkpt lat="44.3593" lon="5.85359">
        <ele>685.08</ele>
        <time>2021-09-18T12:57:08Z</time>
      </trkpt>
      <trkpt lat="44.35918" lon="5.85369">
        <ele>685.56</ele>
        <time>2021-09-18T12:57:12Z</time>
      </trkpt>
      <trkpt lat="44.35916" lon="5.85373">
        <ele>685.08</ele>
        <time>2021-09-18T12:57:13Z</time>
      </trkpt>
      <trkpt lat="44.35915" lon="5.85375">
        <ele>685.08</ele>
        <time>2021-09-18T12:57:14Z</time>
      </trkpt>
      <trkpt lat="44.3591" lon="5.85387">
        <ele>684.6</ele>
        <time>2021-09-18T12:57:23Z</time>
      </trkpt>
      <trkpt lat="44.35909" lon="5.85387">
        <ele>683.63</ele>
        <time>2021-09-18T12:57:24Z</time>
      </trkpt>
      <trkpt lat="44.35892" lon="5.85398">
        <ele>682.19</ele>
        <time>2021-09-18T12:57:36Z</time>
      </trkpt>
      <trkpt lat="44.35887" lon="5.854">
        <ele>681.71</ele>
        <time>2021-09-18T12:57:45Z</time>
      </trkpt>
      <trkpt lat="44.35885" lon="5.854">
        <ele>681.71</ele>
        <time>2021-09-18T12:57:46Z</time>
      </trkpt>
      <trkpt lat="44.35881" lon="5.85403">
        <ele>682.67</ele>
        <time>2021-09-18T12:57:50Z</time>
      </trkpt>
      <trkpt lat="44.35873" lon="5.85408">
        <ele>684.12</ele>
        <time>2021-09-18T12:57:57Z</time>
      </trkpt>
      <trkpt lat="44.35872" lon="5.8541">
        <ele>684.12</ele>
        <time>2021-09-18T12:57:58Z</time>
      </trkpt>
      <trkpt lat="44.3587" lon="5.85413">
        <ele>684.12</ele>
        <time>2021-09-18T12:57:59Z</time>
      </trkpt>
      <trkpt lat="44.35869" lon="5.85415">
        <ele>684.12</ele>
        <time>2021-09-18T12:58:00Z</time>
      </trkpt>
      <trkpt lat="44.35867" lon="5.85416">
        <ele>684.12</ele>
        <time>2021-09-18T12:58:01Z</time>
      </trkpt>
      <trkpt lat="44.35866" lon="5.85418">
        <ele>684.12</ele>
        <time>2021-09-18T12:58:02Z</time>
      </trkpt>
      <trkpt lat="44.35859" lon="5.85425">
        <ele>684.12</ele>
        <time>2021-09-18T12:58:06Z</time>
      </trkpt>
      <trkpt lat="44.35859" lon="5.85428">
        <ele>684.12</ele>
        <time>2021-09-18T12:58:07Z</time>
      </trkpt>
      <trkpt lat="44.35859" lon="5.8544">
        <ele>681.23</ele>
        <time>2021-09-18T12:58:10Z</time>
      </trkpt>
      <trkpt lat="44.35855" lon="5.85442">
        <ele>681.23</ele>
        <time>2021-09-18T12:58:12Z</time>
      </trkpt>
      <trkpt lat="44.3585" lon="5.85444">
        <ele>680.75</ele>
        <time>2021-09-18T12:58:14Z</time>
      </trkpt>
      <trkpt lat="44.35842" lon="5.85448">
        <ele>681.23</ele>
        <time>2021-09-18T12:58:17Z</time>
      </trkpt>
      <trkpt lat="44.3584" lon="5.8545">
        <ele>681.23</ele>
        <time>2021-09-18T12:58:18Z</time>
      </trkpt>
      <trkpt lat="44.35838" lon="5.85451">
        <ele>680.75</ele>
        <time>2021-09-18T12:58:19Z</time>
      </trkpt>
      <trkpt lat="44.35809" lon="5.85473">
        <ele>678.83</ele>
        <time>2021-09-18T12:58:29Z</time>
      </trkpt>
      <trkpt lat="44.35785" lon="5.85487">
        <ele>677.87</ele>
        <time>2021-09-18T12:58:35Z</time>
      </trkpt>
      <trkpt lat="44.35753" lon="5.85497">
        <ele>675.94</ele>
        <time>2021-09-18T12:58:43Z</time>
      </trkpt>
      <trkpt lat="44.35735" lon="5.85484">
        <ele>675.94</ele>
        <time>2021-09-18T12:58:51Z</time>
      </trkpt>
      <trkpt lat="44.35734" lon="5.85482">
        <ele>675.94</ele>
        <time>2021-09-18T12:58:52Z</time>
      </trkpt>
      <trkpt lat="44.35734" lon="5.85479">
        <ele>677.39</ele>
        <time>2021-09-18T12:58:54Z</time>
      </trkpt>
      <trkpt lat="44.35733" lon="5.85477">
        <ele>677.39</ele>
        <time>2021-09-18T12:58:55Z</time>
      </trkpt>
      <trkpt lat="44.35732" lon="5.85475">
        <ele>677.39</ele>
        <time>2021-09-18T12:58:56Z</time>
      </trkpt>
      <trkpt lat="44.3573" lon="5.85471">
        <ele>677.87</ele>
        <time>2021-09-18T12:58:58Z</time>
      </trkpt>
      <trkpt lat="44.35729" lon="5.8547">
        <ele>677.87</ele>
        <time>2021-09-18T12:58:59Z</time>
      </trkpt>
      <trkpt lat="44.35725" lon="5.85464">
        <ele>678.83</ele>
        <time>2021-09-18T12:59:03Z</time>
      </trkpt>
      <trkpt lat="44.35723" lon="5.85462">
        <ele>678.83</ele>
        <time>2021-09-18T12:59:04Z</time>
      </trkpt>
      <trkpt lat="44.35723" lon="5.85461">
        <ele>679.31</ele>
        <time>2021-09-18T12:59:05Z</time>
      </trkpt>
      <trkpt lat="44.35722" lon="5.8546">
        <ele>679.31</ele>
        <time>2021-09-18T12:59:06Z</time>
      </trkpt>
      <trkpt lat="44.35721" lon="5.85458">
        <ele>679.31</ele>
        <time>2021-09-18T12:59:07Z</time>
      </trkpt>
      <trkpt lat="44.35714" lon="5.85444">
        <ele>681.71</ele>
        <time>2021-09-18T12:59:19Z</time>
      </trkpt>
      <trkpt lat="44.35713" lon="5.85444">
        <ele>681.71</ele>
        <time>2021-09-18T12:59:20Z</time>
      </trkpt>
      <trkpt lat="44.35706" lon="5.85443">
        <ele>683.15</ele>
        <time>2021-09-18T12:59:31Z</time>
      </trkpt>
      <trkpt lat="44.35705" lon="5.85443">
        <ele>683.15</ele>
        <time>2021-09-18T12:59:32Z</time>
      </trkpt>
      <trkpt lat="44.35703" lon="5.85443">
        <ele>683.15</ele>
        <time>2021-09-18T12:59:33Z</time>
      </trkpt>
      <trkpt lat="44.35702" lon="5.85442">
        <ele>683.15</ele>
        <time>2021-09-18T12:59:34Z</time>
      </trkpt>
      <trkpt lat="44.35701" lon="5.85441">
        <ele>683.15</ele>
        <time>2021-09-18T12:59:35Z</time>
      </trkpt>
      <trkpt lat="44.35701" lon="5.85439">
        <ele>683.63</ele>
        <time>2021-09-18T12:59:36Z</time>
      </trkpt>
      <trkpt lat="44.35701" lon="5.85437">
        <ele>684.12</ele>
        <time>2021-09-18T12:59:37Z</time>
      </trkpt>
      <trkpt lat="44.357" lon="5.85436">
        <ele>684.12</ele>
        <time>2021-09-18T12:59:38Z</time>
      </trkpt>
      <trkpt lat="44.35701" lon="5.85434">
        <ele>684.12</ele>
        <time>2021-09-18T12:59:39Z</time>
      </trkpt>
      <trkpt lat="44.35701" lon="5.85432">
        <ele>684.12</ele>
        <time>2021-09-18T12:59:40Z</time>
      </trkpt>
      <trkpt lat="44.357" lon="5.8543">
        <ele>684.12</ele>
        <time>2021-09-18T12:59:41Z</time>
      </trkpt>
      <trkpt lat="44.357" lon="5.85427">
        <ele>684.12</ele>
        <time>2021-09-18T12:59:42Z</time>
      </trkpt>
      <trkpt lat="44.35699" lon="5.85423">
        <ele>684.12</ele>
        <time>2021-09-18T12:59:44Z</time>
      </trkpt>
      <trkpt lat="44.35698" lon="5.85421">
        <ele>684.12</ele>
        <time>2021-09-18T12:59:45Z</time>
      </trkpt>
      <trkpt lat="44.35697" lon="5.85419">
        <ele>684.12</ele>
        <time>2021-09-18T12:59:46Z</time>
      </trkpt>
      <trkpt lat="44.35697" lon="5.85418">
        <ele>684.6</ele>
        <time>2021-09-18T12:59:47Z</time>
      </trkpt>
      <trkpt lat="44.35696" lon="5.85417">
        <ele>684.12</ele>
        <time>2021-09-18T12:59:56Z</time>
      </trkpt>
      <trkpt lat="44.35695" lon="5.85397">
        <ele>682.67</ele>
        <time>2021-09-18T13:00:06Z</time>
      </trkpt>
      <trkpt lat="44.35694" lon="5.85398">
        <ele>682.67</ele>
        <time>2021-09-18T13:00:18Z</time>
      </trkpt>
      <trkpt lat="44.35692" lon="5.85397">
        <ele>682.67</ele>
        <time>2021-09-18T13:00:31Z</time>
      </trkpt>
      <trkpt lat="44.3569" lon="5.85399">
        <ele>681.71</ele>
        <time>2021-09-18T13:01:05Z</time>
      </trkpt>
      <trkpt lat="44.35693" lon="5.85399">
        <ele>681.71</ele>
        <time>2021-09-18T13:01:34Z</time>
      </trkpt>
      <trkpt lat="44.35693" lon="5.85395">
        <ele>681.71</ele>
        <time>2021-09-18T13:02:04Z</time>
      </trkpt>
      <trkpt lat="44.35693" lon="5.85395">
        <ele>681.23</ele>
        <time>2021-09-18T13:02:36Z</time>
      </trkpt>
      <trkpt lat="44.35695" lon="5.85393">
        <ele>681.23</ele>
        <time>2021-09-18T13:03:01Z</time>
      </trkpt>
      <trkpt lat="44.35695" lon="5.85392">
        <ele>680.75</ele>
        <time>2021-09-18T13:03:37Z</time>
      </trkpt>
      <trkpt lat="44.35692" lon="5.85393">
        <ele>680.75</ele>
        <time>2021-09-18T13:04:19Z</time>
      </trkpt>
      <trkpt lat="44.35695" lon="5.85392">
        <ele>680.27</ele>
        <time>2021-09-18T13:04:44Z</time>
      </trkpt>
      <trkpt lat="44.35692" lon="5.85394">
        <ele>680.27</ele>
        <time>2021-09-18T13:05:28Z</time>
      </trkpt>
      <trkpt lat="44.35695" lon="5.85394">
        <ele>679.79</ele>
        <time>2021-09-18T13:05:56Z</time>
      </trkpt>
      <trkpt lat="44.35696" lon="5.85393">
        <ele>679.79</ele>
        <time>2021-09-18T13:05:58Z</time>
      </trkpt>
      <trkpt lat="44.35697" lon="5.85392">
        <ele>679.79</ele>
        <time>2021-09-18T13:05:59Z</time>
      </trkpt>
      <trkpt lat="44.35697" lon="5.8539">
        <ele>679.79</ele>
        <time>2021-09-18T13:06:00Z</time>
      </trkpt>
      <trkpt lat="44.35697" lon="5.85387">
        <ele>679.79</ele>
        <time>2021-09-18T13:06:01Z</time>
      </trkpt>
      <trkpt lat="44.35697" lon="5.85385">
        <ele>679.79</ele>
        <time>2021-09-18T13:06:02Z</time>
      </trkpt>
      <trkpt lat="44.35697" lon="5.85381">
        <ele>679.79</ele>
        <time>2021-09-18T13:06:03Z</time>
      </trkpt>
      <trkpt lat="44.35698" lon="5.85377">
        <ele>679.79</ele>
        <time>2021-09-18T13:06:04Z</time>
      </trkpt>
      <trkpt lat="44.357" lon="5.85369">
        <ele>679.79</ele>
        <time>2021-09-18T13:06:07Z</time>
      </trkpt>
      <trkpt lat="44.35699" lon="5.85366">
        <ele>679.79</ele>
        <time>2021-09-18T13:06:08Z</time>
      </trkpt>
      <trkpt lat="44.35694" lon="5.85344">
        <ele>679.31</ele>
        <time>2021-09-18T13:06:14Z</time>
      </trkpt>
      <trkpt lat="44.35695" lon="5.8534">
        <ele>679.31</ele>
        <time>2021-09-18T13:06:15Z</time>
      </trkpt>
      <trkpt lat="44.35695" lon="5.85338">
        <ele>679.31</ele>
        <time>2021-09-18T13:06:16Z</time>
      </trkpt>
      <trkpt lat="44.35694" lon="5.85334">
        <ele>679.31</ele>
        <time>2021-09-18T13:06:17Z</time>
      </trkpt>
      <trkpt lat="44.35693" lon="5.85332">
        <ele>679.31</ele>
        <time>2021-09-18T13:06:18Z</time>
      </trkpt>
      <trkpt lat="44.3569" lon="5.8533">
        <ele>679.31</ele>
        <time>2021-09-18T13:06:19Z</time>
      </trkpt>
      <trkpt lat="44.35687" lon="5.85329">
        <ele>679.31</ele>
        <time>2021-09-18T13:06:20Z</time>
      </trkpt>
      <trkpt lat="44.35685" lon="5.85328">
        <ele>678.83</ele>
        <time>2021-09-18T13:06:21Z</time>
      </trkpt>
      <trkpt lat="44.35682" lon="5.85327">
        <ele>678.83</ele>
        <time>2021-09-18T13:06:22Z</time>
      </trkpt>
      <trkpt lat="44.3568" lon="5.85328">
        <ele>678.35</ele>
        <time>2021-09-18T13:06:23Z</time>
      </trkpt>
      <trkpt lat="44.35678" lon="5.85329">
        <ele>678.35</ele>
        <time>2021-09-18T13:06:24Z</time>
      </trkpt>
      <trkpt lat="44.35675" lon="5.85328">
        <ele>676.91</ele>
        <time>2021-09-18T13:06:25Z</time>
      </trkpt>
      <trkpt lat="44.35671" lon="5.85327">
        <ele>676.42</ele>
        <time>2021-09-18T13:06:26Z</time>
      </trkpt>
      <trkpt lat="44.35668" lon="5.85325">
        <ele>676.42</ele>
        <time>2021-09-18T13:06:27Z</time>
      </trkpt>
      <trkpt lat="44.35665" lon="5.85324">
        <ele>676.42</ele>
        <time>2021-09-18T13:06:28Z</time>
      </trkpt>
      <trkpt lat="44.35663" lon="5.85324">
        <ele>676.42</ele>
        <time>2021-09-18T13:06:29Z</time>
      </trkpt>
      <trkpt lat="44.35661" lon="5.85324">
        <ele>676.42</ele>
        <time>2021-09-18T13:06:30Z</time>
      </trkpt>
      <trkpt lat="44.35658" lon="5.85326">
        <ele>676.42</ele>
        <time>2021-09-18T13:06:31Z</time>
      </trkpt>
      <trkpt lat="44.35654" lon="5.85328">
        <ele>676.42</ele>
        <time>2021-09-18T13:06:32Z</time>
      </trkpt>
      <trkpt lat="44.35649" lon="5.85328">
        <ele>675.46</ele>
        <time>2021-09-18T13:06:33Z</time>
      </trkpt>
      <trkpt lat="44.35645" lon="5.85326">
        <ele>675.46</ele>
        <time>2021-09-18T13:06:34Z</time>
      </trkpt>
      <trkpt lat="44.35643" lon="5.85323">
        <ele>675.46</ele>
        <time>2021-09-18T13:06:35Z</time>
      </trkpt>
      <trkpt lat="44.3564" lon="5.85321">
        <ele>675.46</ele>
        <time>2021-09-18T13:06:36Z</time>
      </trkpt>
      <trkpt lat="44.35638" lon="5.85319">
        <ele>675.46</ele>
        <time>2021-09-18T13:06:37Z</time>
      </trkpt>
      <trkpt lat="44.35637" lon="5.85317">
        <ele>675.46</ele>
        <time>2021-09-18T13:06:38Z</time>
      </trkpt>
      <trkpt lat="44.35635" lon="5.85316">
        <ele>675.46</ele>
        <time>2021-09-18T13:06:39Z</time>
      </trkpt>
      <trkpt lat="44.35633" lon="5.85314">
        <ele>675.46</ele>
        <time>2021-09-18T13:06:40Z</time>
      </trkpt>
      <trkpt lat="44.35632" lon="5.85312">
        <ele>675.46</ele>
        <time>2021-09-18T13:06:41Z</time>
      </trkpt>
      <trkpt lat="44.3563" lon="5.8531">
        <ele>675.46</ele>
        <time>2021-09-18T13:06:42Z</time>
      </trkpt>
      <trkpt lat="44.35629" lon="5.85307">
        <ele>675.46</ele>
        <time>2021-09-18T13:06:43Z</time>
      </trkpt>
      <trkpt lat="44.35628" lon="5.85304">
        <ele>675.46</ele>
        <time>2021-09-18T13:06:44Z</time>
      </trkpt>
      <trkpt lat="44.35624" lon="5.85296">
        <ele>676.91</ele>
        <time>2021-09-18T13:06:47Z</time>
      </trkpt>
      <trkpt lat="44.35619" lon="5.85249">
        <ele>677.39</ele>
        <time>2021-09-18T13:07:00Z</time>
      </trkpt>
      <trkpt lat="44.35611" lon="5.85226">
        <ele>677.39</ele>
        <time>2021-09-18T13:07:05Z</time>
      </trkpt>
      <trkpt lat="44.35608" lon="5.85222">
        <ele>677.39</ele>
        <time>2021-09-18T13:07:06Z</time>
      </trkpt>
      <trkpt lat="44.35604" lon="5.8522">
        <ele>675.94</ele>
        <time>2021-09-18T13:07:07Z</time>
      </trkpt>
      <trkpt lat="44.356" lon="5.85218">
        <ele>675.46</ele>
        <time>2021-09-18T13:07:08Z</time>
      </trkpt>
      <trkpt lat="44.35595" lon="5.85217">
        <ele>674.02</ele>
        <time>2021-09-18T13:07:09Z</time>
      </trkpt>
      <trkpt lat="44.35591" lon="5.85217">
        <ele>673.54</ele>
        <time>2021-09-18T13:07:10Z</time>
      </trkpt>
      <trkpt lat="44.3558" lon="5.85216">
        <ele>672.58</ele>
        <time>2021-09-18T13:07:12Z</time>
      </trkpt>
      <trkpt lat="44.35574" lon="5.85216">
        <ele>672.1</ele>
        <time>2021-09-18T13:07:13Z</time>
      </trkpt>
      <trkpt lat="44.35562" lon="5.85216">
        <ele>670.66</ele>
        <time>2021-09-18T13:07:15Z</time>
      </trkpt>
      <trkpt lat="44.35556" lon="5.85217">
        <ele>669.7</ele>
        <time>2021-09-18T13:07:16Z</time>
      </trkpt>
      <trkpt lat="44.35551" lon="5.85217">
        <ele>669.7</ele>
        <time>2021-09-18T13:07:17Z</time>
      </trkpt>
      <trkpt lat="44.35545" lon="5.85218">
        <ele>668.73</ele>
        <time>2021-09-18T13:07:18Z</time>
      </trkpt>
      <trkpt lat="44.3554" lon="5.85217">
        <ele>668.73</ele>
        <time>2021-09-18T13:07:19Z</time>
      </trkpt>
      <trkpt lat="44.35521" lon="5.85216">
        <ele>668.25</ele>
        <time>2021-09-18T13:07:22Z</time>
      </trkpt>
      <trkpt lat="44.35515" lon="5.85215">
        <ele>667.29</ele>
        <time>2021-09-18T13:07:23Z</time>
      </trkpt>
      <trkpt lat="44.35508" lon="5.85214">
        <ele>666.33</ele>
        <time>2021-09-18T13:07:24Z</time>
      </trkpt>
      <trkpt lat="44.35501" lon="5.85214">
        <ele>665.85</ele>
        <time>2021-09-18T13:07:25Z</time>
      </trkpt>
      <trkpt lat="44.35494" lon="5.85216">
        <ele>665.37</ele>
        <time>2021-09-18T13:07:26Z</time>
      </trkpt>
      <trkpt lat="44.35487" lon="5.85218">
        <ele>664.41</ele>
        <time>2021-09-18T13:07:27Z</time>
      </trkpt>
      <trkpt lat="44.35481" lon="5.85221">
        <ele>664.41</ele>
        <time>2021-09-18T13:07:28Z</time>
      </trkpt>
      <trkpt lat="44.35454" lon="5.85235">
        <ele>661.52</ele>
        <time>2021-09-18T13:07:32Z</time>
      </trkpt>
      <trkpt lat="44.35448" lon="5.85239">
        <ele>660.56</ele>
        <time>2021-09-18T13:07:33Z</time>
      </trkpt>
      <trkpt lat="44.35441" lon="5.85243">
        <ele>660.56</ele>
        <time>2021-09-18T13:07:34Z</time>
      </trkpt>
      <trkpt lat="44.35395" lon="5.85276">
        <ele>657.68</ele>
        <time>2021-09-18T13:07:42Z</time>
      </trkpt>
      <trkpt lat="44.35372" lon="5.85287">
        <ele>656.72</ele>
        <time>2021-09-18T13:07:46Z</time>
      </trkpt>
      <trkpt lat="44.35366" lon="5.85288">
        <ele>655.76</ele>
        <time>2021-09-18T13:07:47Z</time>
      </trkpt>
      <trkpt lat="44.3536" lon="5.85288">
        <ele>655.76</ele>
        <time>2021-09-18T13:07:48Z</time>
      </trkpt>
      <trkpt lat="44.35348" lon="5.85287">
        <ele>655.76</ele>
        <time>2021-09-18T13:07:50Z</time>
      </trkpt>
      <trkpt lat="44.35343" lon="5.85288">
        <ele>655.76</ele>
        <time>2021-09-18T13:07:51Z</time>
      </trkpt>
      <trkpt lat="44.35338" lon="5.85289">
        <ele>655.76</ele>
        <time>2021-09-18T13:07:52Z</time>
      </trkpt>
      <trkpt lat="44.35328" lon="5.85292">
        <ele>654.8</ele>
        <time>2021-09-18T13:07:54Z</time>
      </trkpt>
      <trkpt lat="44.35302" lon="5.85279">
        <ele>654.31</ele>
        <time>2021-09-18T13:08:03Z</time>
      </trkpt>
      <trkpt lat="44.35278" lon="5.85231">
        <ele>652.87</ele>
        <time>2021-09-18T13:08:16Z</time>
      </trkpt>
      <trkpt lat="44.35264" lon="5.85169">
        <ele>651.43</ele>
        <time>2021-09-18T13:08:29Z</time>
      </trkpt>
      <trkpt lat="44.35258" lon="5.85153">
        <ele>650.95</ele>
        <time>2021-09-18T13:08:33Z</time>
      </trkpt>
      <trkpt lat="44.35234" lon="5.85108">
        <ele>649.99</ele>
        <time>2021-09-18T13:08:46Z</time>
      </trkpt>
      <trkpt lat="44.35212" lon="5.85069">
        <ele>649.03</ele>
        <time>2021-09-18T13:08:58Z</time>
      </trkpt>
      <trkpt lat="44.35203" lon="5.85049">
        <ele>649.03</ele>
        <time>2021-09-18T13:09:09Z</time>
      </trkpt>
      <trkpt lat="44.35201" lon="5.85051">
        <ele>648.55</ele>
        <time>2021-09-18T13:09:16Z</time>
      </trkpt>
      <trkpt lat="44.35195" lon="5.85046">
        <ele>648.55</ele>
        <time>2021-09-18T13:09:30Z</time>
      </trkpt>
      <trkpt lat="44.35193" lon="5.85045">
        <ele>648.55</ele>
        <time>2021-09-18T13:09:33Z</time>
      </trkpt>
      <trkpt lat="44.35189" lon="5.85042">
        <ele>647.59</ele>
        <time>2021-09-18T13:09:44Z</time>
      </trkpt>
      <trkpt lat="44.35187" lon="5.85039">
        <ele>647.59</ele>
        <time>2021-09-18T13:09:54Z</time>
      </trkpt>
      <trkpt lat="44.3518" lon="5.85028">
        <ele>648.55</ele>
        <time>2021-09-18T13:10:08Z</time>
      </trkpt>
      <trkpt lat="44.3518" lon="5.85024">
        <ele>648.55</ele>
        <time>2021-09-18T13:10:21Z</time>
      </trkpt>
      <trkpt lat="44.3519" lon="5.84989">
        <ele>648.55</ele>
        <time>2021-09-18T13:10:33Z</time>
      </trkpt>
      <trkpt lat="44.35184" lon="5.84947">
        <ele>647.59</ele>
        <time>2021-09-18T13:10:45Z</time>
      </trkpt>
      <trkpt lat="44.35166" lon="5.849">
        <ele>646.14</ele>
        <time>2021-09-18T13:10:57Z</time>
      </trkpt>
      <trkpt lat="44.35163" lon="5.84893">
        <ele>646.14</ele>
        <time>2021-09-18T13:11:10Z</time>
      </trkpt>
      <trkpt lat="44.35154" lon="5.84879">
        <ele>646.14</ele>
        <time>2021-09-18T13:11:20Z</time>
      </trkpt>
      <trkpt lat="44.35126" lon="5.84828">
        <ele>645.66</ele>
        <time>2021-09-18T13:11:36Z</time>
      </trkpt>
      <trkpt lat="44.35109" lon="5.84786">
        <ele>645.66</ele>
        <time>2021-09-18T13:11:47Z</time>
      </trkpt>
      <trkpt lat="44.35099" lon="5.84733">
        <ele>645.66</ele>
        <time>2021-09-18T13:11:59Z</time>
      </trkpt>
      <trkpt lat="44.35089" lon="5.84687">
        <ele>645.66</ele>
        <time>2021-09-18T13:12:10Z</time>
      </trkpt>
      <trkpt lat="44.35087" lon="5.84683">
        <ele>645.66</ele>
        <time>2021-09-18T13:12:11Z</time>
      </trkpt>
      <trkpt lat="44.35076" lon="5.84638">
        <ele>647.1</ele>
        <time>2021-09-18T13:12:22Z</time>
      </trkpt>
      <trkpt lat="44.35077" lon="5.84636">
        <ele>647.1</ele>
        <time>2021-09-18T13:12:23Z</time>
      </trkpt>
      <trkpt lat="44.35098" lon="5.84606">
        <ele>648.07</ele>
        <time>2021-09-18T13:12:34Z</time>
      </trkpt>
      <trkpt lat="44.35118" lon="5.84561">
        <ele>648.55</ele>
        <time>2021-09-18T13:12:46Z</time>
      </trkpt>
      <trkpt lat="44.35108" lon="5.8449">
        <ele>649.51</ele>
        <time>2021-09-18T13:13:00Z</time>
      </trkpt>
      <trkpt lat="44.35099" lon="5.84425">
        <ele>649.51</ele>
        <time>2021-09-18T13:13:12Z</time>
      </trkpt>
      <trkpt lat="44.35099" lon="5.8442">
        <ele>649.51</ele>
        <time>2021-09-18T13:13:13Z</time>
      </trkpt>
      <trkpt lat="44.35098" lon="5.84414">
        <ele>649.51</ele>
        <time>2021-09-18T13:13:14Z</time>
      </trkpt>
      <trkpt lat="44.35098" lon="5.84326">
        <ele>647.1</ele>
        <time>2021-09-18T13:13:27Z</time>
      </trkpt>
      <trkpt lat="44.35097" lon="5.84317">
        <ele>647.1</ele>
        <time>2021-09-18T13:13:28Z</time>
      </trkpt>
      <trkpt lat="44.35096" lon="5.8431">
        <ele>646.62</ele>
        <time>2021-09-18T13:13:29Z</time>
      </trkpt>
      <trkpt lat="44.35093" lon="5.84304">
        <ele>646.62</ele>
        <time>2021-09-18T13:13:30Z</time>
      </trkpt>
      <trkpt lat="44.35089" lon="5.84299">
        <ele>646.62</ele>
        <time>2021-09-18T13:13:31Z</time>
      </trkpt>
      <trkpt lat="44.35086" lon="5.84294">
        <ele>646.62</ele>
        <time>2021-09-18T13:13:32Z</time>
      </trkpt>
      <trkpt lat="44.35045" lon="5.84241">
        <ele>649.03</ele>
        <time>2021-09-18T13:13:47Z</time>
      </trkpt>
      <trkpt lat="44.35006" lon="5.84216">
        <ele>647.1</ele>
        <time>2021-09-18T13:13:56Z</time>
      </trkpt>
      <trkpt lat="44.35001" lon="5.84212">
        <ele>646.62</ele>
        <time>2021-09-18T13:13:57Z</time>
      </trkpt>
      <trkpt lat="44.34997" lon="5.84208">
        <ele>646.62</ele>
        <time>2021-09-18T13:13:58Z</time>
      </trkpt>
      <trkpt lat="44.34993" lon="5.84202">
        <ele>646.62</ele>
        <time>2021-09-18T13:13:59Z</time>
      </trkpt>
      <trkpt lat="44.3499" lon="5.84196">
        <ele>645.66</ele>
        <time>2021-09-18T13:14:00Z</time>
      </trkpt>
      <trkpt lat="44.34987" lon="5.84189">
        <ele>645.66</ele>
        <time>2021-09-18T13:14:01Z</time>
      </trkpt>
      <trkpt lat="44.34985" lon="5.84182">
        <ele>645.66</ele>
        <time>2021-09-18T13:14:02Z</time>
      </trkpt>
      <trkpt lat="44.34955" lon="5.84082">
        <ele>645.18</ele>
        <time>2021-09-18T13:14:17Z</time>
      </trkpt>
      <trkpt lat="44.34933" lon="5.84013">
        <ele>644.7</ele>
        <time>2021-09-18T13:14:27Z</time>
      </trkpt>
      <trkpt lat="44.34929" lon="5.84007">
        <ele>644.7</ele>
        <time>2021-09-18T13:14:28Z</time>
      </trkpt>
      <trkpt lat="44.34925" lon="5.84002">
        <ele>644.7</ele>
        <time>2021-09-18T13:14:29Z</time>
      </trkpt>
      <trkpt lat="44.3492" lon="5.83997">
        <ele>644.7</ele>
        <time>2021-09-18T13:14:30Z</time>
      </trkpt>
      <trkpt lat="44.34915" lon="5.83994">
        <ele>644.7</ele>
        <time>2021-09-18T13:14:31Z</time>
      </trkpt>
      <trkpt lat="44.34871" lon="5.83965">
        <ele>644.7</ele>
        <time>2021-09-18T13:14:40Z</time>
      </trkpt>
      <trkpt lat="44.34866" lon="5.8396">
        <ele>644.7</ele>
        <time>2021-09-18T13:14:41Z</time>
      </trkpt>
      <trkpt lat="44.34862" lon="5.83955">
        <ele>644.7</ele>
        <time>2021-09-18T13:14:42Z</time>
      </trkpt>
      <trkpt lat="44.34847" lon="5.83929">
        <ele>644.7</ele>
        <time>2021-09-18T13:14:47Z</time>
      </trkpt>
      <trkpt lat="44.34846" lon="5.83923">
        <ele>645.66</ele>
        <time>2021-09-18T13:14:48Z</time>
      </trkpt>
      <trkpt lat="44.34845" lon="5.83917">
        <ele>645.66</ele>
        <time>2021-09-18T13:14:49Z</time>
      </trkpt>
      <trkpt lat="44.34846" lon="5.83913">
        <ele>645.66</ele>
        <time>2021-09-18T13:14:50Z</time>
      </trkpt>
      <trkpt lat="44.34846" lon="5.83908">
        <ele>646.62</ele>
        <time>2021-09-18T13:14:51Z</time>
      </trkpt>
      <trkpt lat="44.34847" lon="5.83905">
        <ele>647.1</ele>
        <time>2021-09-18T13:14:52Z</time>
      </trkpt>
      <trkpt lat="44.34848" lon="5.83901">
        <ele>647.1</ele>
        <time>2021-09-18T13:14:53Z</time>
      </trkpt>
      <trkpt lat="44.34861" lon="5.83856">
        <ele>649.51</ele>
        <time>2021-09-18T13:15:08Z</time>
      </trkpt>
      <trkpt lat="44.34868" lon="5.83819">
        <ele>652.39</ele>
        <time>2021-09-18T13:15:23Z</time>
      </trkpt>
      <trkpt lat="44.34871" lon="5.83785">
        <ele>655.76</ele>
        <time>2021-09-18T13:15:37Z</time>
      </trkpt>
      <trkpt lat="44.34856" lon="5.83759">
        <ele>658.64</ele>
        <time>2021-09-18T13:15:51Z</time>
      </trkpt>
      <trkpt lat="44.34851" lon="5.83755">
        <ele>658.64</ele>
        <time>2021-09-18T13:15:55Z</time>
      </trkpt>
      <trkpt lat="44.34851" lon="5.83754">
        <ele>658.64</ele>
        <time>2021-09-18T13:15:56Z</time>
      </trkpt>
      <trkpt lat="44.3485" lon="5.83752">
        <ele>659.12</ele>
        <time>2021-09-18T13:15:57Z</time>
      </trkpt>
      <trkpt lat="44.34841" lon="5.83727">
        <ele>659.6</ele>
        <time>2021-09-18T13:16:10Z</time>
      </trkpt>
      <trkpt lat="44.34841" lon="5.83726">
        <ele>659.6</ele>
        <time>2021-09-18T13:16:11Z</time>
      </trkpt>
      <trkpt lat="44.34842" lon="5.83724">
        <ele>659.6</ele>
        <time>2021-09-18T13:16:22Z</time>
      </trkpt>
      <trkpt lat="44.34844" lon="5.83724">
        <ele>659.6</ele>
        <time>2021-09-18T13:16:46Z</time>
      </trkpt>
      <trkpt lat="44.34864" lon="5.837">
        <ele>661.04</ele>
        <time>2021-09-18T13:17:00Z</time>
      </trkpt>
      <trkpt lat="44.34879" lon="5.83653">
        <ele>662.49</ele>
        <time>2021-09-18T13:17:16Z</time>
      </trkpt>
      <trkpt lat="44.349" lon="5.83596">
        <ele>663.93</ele>
        <time>2021-09-18T13:17:35Z</time>
      </trkpt>
      <trkpt lat="44.34913" lon="5.83564">
        <ele>663.93</ele>
        <time>2021-09-18T13:17:49Z</time>
      </trkpt>
      <trkpt lat="44.34915" lon="5.83564">
        <ele>663.45</ele>
        <time>2021-09-18T13:18:19Z</time>
      </trkpt>
      <trkpt lat="44.34916" lon="5.83564">
        <ele>662.49</ele>
        <time>2021-09-18T13:18:47Z</time>
      </trkpt>
      <trkpt lat="44.34917" lon="5.83563">
        <ele>662.97</ele>
        <time>2021-09-18T13:19:14Z</time>
      </trkpt>
      <trkpt lat="44.34916" lon="5.83562">
        <ele>662.49</ele>
        <time>2021-09-18T13:19:51Z</time>
      </trkpt>
      <trkpt lat="44.34913" lon="5.83566">
        <ele>662.49</ele>
        <time>2021-09-18T13:20:35Z</time>
      </trkpt>
      <trkpt lat="44.34912" lon="5.83564">
        <ele>662.49</ele>
        <time>2021-09-18T13:21:18Z</time>
      </trkpt>
      <trkpt lat="44.34914" lon="5.83563">
        <ele>662.49</ele>
        <time>2021-09-18T13:22:03Z</time>
      </trkpt>
      <trkpt lat="44.34912" lon="5.83564">
        <ele>662.49</ele>
        <time>2021-09-18T13:22:32Z</time>
      </trkpt>
      <trkpt lat="44.34913" lon="5.83565">
        <ele>662.01</ele>
        <time>2021-09-18T13:23:07Z</time>
      </trkpt>
      <trkpt lat="44.34917" lon="5.83564">
        <ele>662.01</ele>
        <time>2021-09-18T13:23:44Z</time>
      </trkpt>
      <trkpt lat="44.34915" lon="5.83564">
        <ele>662.01</ele>
        <time>2021-09-18T13:24:17Z</time>
      </trkpt>
      <trkpt lat="44.34917" lon="5.83556">
        <ele>661.52</ele>
        <time>2021-09-18T13:24:39Z</time>
      </trkpt>
      <trkpt lat="44.34921" lon="5.83546">
        <ele>659.6</ele>
        <time>2021-09-18T13:24:43Z</time>
      </trkpt>
      <trkpt lat="44.34913" lon="5.83539">
        <ele>658.16</ele>
        <time>2021-09-18T13:24:48Z</time>
      </trkpt>
      <trkpt lat="44.34885" lon="5.83514">
        <ele>655.76</ele>
        <time>2021-09-18T13:25:00Z</time>
      </trkpt>
      <trkpt lat="44.34859" lon="5.83495">
        <ele>652.39</ele>
        <time>2021-09-18T13:25:12Z</time>
      </trkpt>
      <trkpt lat="44.3484" lon="5.83475">
        <ele>650.47</ele>
        <time>2021-09-18T13:25:24Z</time>
      </trkpt>
      <trkpt lat="44.34841" lon="5.83475">
        <ele>649.99</ele>
        <time>2021-09-18T13:25:35Z</time>
      </trkpt>
      <trkpt lat="44.34837" lon="5.83472">
        <ele>649.99</ele>
        <time>2021-09-18T13:25:50Z</time>
      </trkpt>
      <trkpt lat="44.34836" lon="5.83471">
        <ele>649.51</ele>
        <time>2021-09-18T13:26:05Z</time>
      </trkpt>
      <trkpt lat="44.34831" lon="5.83474">
        <ele>649.51</ele>
        <time>2021-09-18T13:26:13Z</time>
      </trkpt>
      <trkpt lat="44.34819" lon="5.83463">
        <ele>646.62</ele>
        <time>2021-09-18T13:26:19Z</time>
      </trkpt>
      <trkpt lat="44.34808" lon="5.83459">
        <ele>643.26</ele>
        <time>2021-09-18T13:26:22Z</time>
      </trkpt>
      <trkpt lat="44.34806" lon="5.8345">
        <ele>641.34</ele>
        <time>2021-09-18T13:26:29Z</time>
      </trkpt>
      <trkpt lat="44.3481" lon="5.83443">
        <ele>640.38</ele>
        <time>2021-09-18T13:26:32Z</time>
      </trkpt>
      <trkpt lat="44.34819" lon="5.83427">
        <ele>639.41</ele>
        <time>2021-09-18T13:26:43Z</time>
      </trkpt>
      <trkpt lat="44.34819" lon="5.83426">
        <ele>639.41</ele>
        <time>2021-09-18T13:26:44Z</time>
      </trkpt>
      <trkpt lat="44.34818" lon="5.83424">
        <ele>640.86</ele>
        <time>2021-09-18T13:26:46Z</time>
      </trkpt>
      <trkpt lat="44.34816" lon="5.83422">
        <ele>641.34</ele>
        <time>2021-09-18T13:26:48Z</time>
      </trkpt>
      <trkpt lat="44.34807" lon="5.83424">
        <ele>641.82</ele>
        <time>2021-09-18T13:26:54Z</time>
      </trkpt>
      <trkpt lat="44.34791" lon="5.83419">
        <ele>642.78</ele>
        <time>2021-09-18T13:27:07Z</time>
      </trkpt>
      <trkpt lat="44.34784" lon="5.83416">
        <ele>643.26</ele>
        <time>2021-09-18T13:27:20Z</time>
      </trkpt>
      <trkpt lat="44.3477" lon="5.83421">
        <ele>642.78</ele>
        <time>2021-09-18T13:27:29Z</time>
      </trkpt>
      <trkpt lat="44.34757" lon="5.83434">
        <ele>643.74</ele>
        <time>2021-09-18T13:27:42Z</time>
      </trkpt>
      <trkpt lat="44.34745" lon="5.83441">
        <ele>644.7</ele>
        <time>2021-09-18T13:27:49Z</time>
      </trkpt>
      <trkpt lat="44.34728" lon="5.83441">
        <ele>646.62</ele>
        <time>2021-09-18T13:27:59Z</time>
      </trkpt>
      <trkpt lat="44.34726" lon="5.83439">
        <ele>646.62</ele>
        <time>2021-09-18T13:28:01Z</time>
      </trkpt>
      <trkpt lat="44.34725" lon="5.8343">
        <ele>647.1</ele>
        <time>2021-09-18T13:28:16Z</time>
      </trkpt>
      <trkpt lat="44.34726" lon="5.83433">
        <ele>647.1</ele>
        <time>2021-09-18T13:28:40Z</time>
      </trkpt>
      <trkpt lat="44.34726" lon="5.83432">
        <ele>647.1</ele>
        <time>2021-09-18T13:29:06Z</time>
      </trkpt>
      <trkpt lat="44.34729" lon="5.83422">
        <ele>647.1</ele>
        <time>2021-09-18T13:29:11Z</time>
      </trkpt>
      <trkpt lat="44.34732" lon="5.83407">
        <ele>647.59</ele>
        <time>2021-09-18T13:29:17Z</time>
      </trkpt>
      <trkpt lat="44.34732" lon="5.83404">
        <ele>647.59</ele>
        <time>2021-09-18T13:29:18Z</time>
      </trkpt>
      <trkpt lat="44.34733" lon="5.83402">
        <ele>647.59</ele>
        <time>2021-09-18T13:29:19Z</time>
      </trkpt>
      <trkpt lat="44.34732" lon="5.83368">
        <ele>649.03</ele>
        <time>2021-09-18T13:29:31Z</time>
      </trkpt>
      <trkpt lat="44.34746" lon="5.8333">
        <ele>648.55</ele>
        <time>2021-09-18T13:29:43Z</time>
      </trkpt>
      <trkpt lat="44.34747" lon="5.83315">
        <ele>647.59</ele>
        <time>2021-09-18T13:29:46Z</time>
      </trkpt>
      <trkpt lat="44.3475" lon="5.83299">
        <ele>646.62</ele>
        <time>2021-09-18T13:29:49Z</time>
      </trkpt>
      <trkpt lat="44.34751" lon="5.83294">
        <ele>646.62</ele>
        <time>2021-09-18T13:29:50Z</time>
      </trkpt>
      <trkpt lat="44.34752" lon="5.83289">
        <ele>646.62</ele>
        <time>2021-09-18T13:29:51Z</time>
      </trkpt>
      <trkpt lat="44.34754" lon="5.83284">
        <ele>646.62</ele>
        <time>2021-09-18T13:29:52Z</time>
      </trkpt>
      <trkpt lat="44.34756" lon="5.83279">
        <ele>646.62</ele>
        <time>2021-09-18T13:29:53Z</time>
      </trkpt>
      <trkpt lat="44.34756" lon="5.83275">
        <ele>646.62</ele>
        <time>2021-09-18T13:29:54Z</time>
      </trkpt>
      <trkpt lat="44.34755" lon="5.8327">
        <ele>646.62</ele>
        <time>2021-09-18T13:29:55Z</time>
      </trkpt>
      <trkpt lat="44.34753" lon="5.83267">
        <ele>646.62</ele>
        <time>2021-09-18T13:29:56Z</time>
      </trkpt>
      <trkpt lat="44.34751" lon="5.83265">
        <ele>646.62</ele>
        <time>2021-09-18T13:29:57Z</time>
      </trkpt>
      <trkpt lat="44.34737" lon="5.83248">
        <ele>648.07</ele>
        <time>2021-09-18T13:30:05Z</time>
      </trkpt>
      <trkpt lat="44.34726" lon="5.83216">
        <ele>650.47</ele>
        <time>2021-09-18T13:30:18Z</time>
      </trkpt>
      <trkpt lat="44.34712" lon="5.83186">
        <ele>651.43</ele>
        <time>2021-09-18T13:30:32Z</time>
      </trkpt>
      <trkpt lat="44.34664" lon="5.83188">
        <ele>651.91</ele>
        <time>2021-09-18T13:30:49Z</time>
      </trkpt>
      <trkpt lat="44.34609" lon="5.8321">
        <ele>649.99</ele>
        <time>2021-09-18T13:31:04Z</time>
      </trkpt>
      <trkpt lat="44.34561" lon="5.83231">
        <ele>652.87</ele>
        <time>2021-09-18T13:31:20Z</time>
      </trkpt>
      <trkpt lat="44.34517" lon="5.83231">
        <ele>655.76</ele>
        <time>2021-09-18T13:31:38Z</time>
      </trkpt>
      <trkpt lat="44.34504" lon="5.832">
        <ele>659.12</ele>
        <time>2021-09-18T13:31:53Z</time>
      </trkpt>
      <trkpt lat="44.34502" lon="5.83166">
        <ele>662.01</ele>
        <time>2021-09-18T13:32:07Z</time>
      </trkpt>
      <trkpt lat="44.3451" lon="5.83135">
        <ele>665.37</ele>
        <time>2021-09-18T13:32:21Z</time>
      </trkpt>
      <trkpt lat="44.34528" lon="5.83103">
        <ele>667.77</ele>
        <time>2021-09-18T13:32:37Z</time>
      </trkpt>
      <trkpt lat="44.34546" lon="5.83074">
        <ele>671.14</ele>
        <time>2021-09-18T13:32:51Z</time>
      </trkpt>
      <trkpt lat="44.34572" lon="5.83045">
        <ele>672.58</ele>
        <time>2021-09-18T13:33:07Z</time>
      </trkpt>
      <trkpt lat="44.34608" lon="5.83005">
        <ele>674.5</ele>
        <time>2021-09-18T13:33:26Z</time>
      </trkpt>
      <trkpt lat="44.34643" lon="5.82967">
        <ele>676.91</ele>
        <time>2021-09-18T13:33:45Z</time>
      </trkpt>
      <trkpt lat="44.34669" lon="5.82931">
        <ele>678.83</ele>
        <time>2021-09-18T13:34:01Z</time>
      </trkpt>
      <trkpt lat="44.34689" lon="5.82902">
        <ele>681.23</ele>
        <time>2021-09-18T13:34:16Z</time>
      </trkpt>
      <trkpt lat="44.34713" lon="5.82878">
        <ele>683.15</ele>
        <time>2021-09-18T13:34:33Z</time>
      </trkpt>
      <trkpt lat="44.3473" lon="5.82853">
        <ele>684.6</ele>
        <time>2021-09-18T13:34:47Z</time>
      </trkpt>
      <trkpt lat="44.34751" lon="5.82823">
        <ele>686.52</ele>
        <time>2021-09-18T13:35:03Z</time>
      </trkpt>
      <trkpt lat="44.34776" lon="5.82788">
        <ele>688.44</ele>
        <time>2021-09-18T13:35:22Z</time>
      </trkpt>
      <trkpt lat="44.34802" lon="5.82763">
        <ele>689.4</ele>
        <time>2021-09-18T13:35:39Z</time>
      </trkpt>
      <trkpt lat="44.34824" lon="5.82728">
        <ele>691.81</ele>
        <time>2021-09-18T13:35:57Z</time>
      </trkpt>
      <trkpt lat="44.34849" lon="5.82693">
        <ele>693.73</ele>
        <time>2021-09-18T13:36:15Z</time>
      </trkpt>
      <trkpt lat="44.34875" lon="5.82665">
        <ele>696.61</ele>
        <time>2021-09-18T13:36:33Z</time>
      </trkpt>
      <trkpt lat="44.34898" lon="5.82638">
        <ele>699.02</ele>
        <time>2021-09-18T13:36:49Z</time>
      </trkpt>
      <trkpt lat="44.34924" lon="5.8261">
        <ele>701.42</ele>
        <time>2021-09-18T13:37:07Z</time>
      </trkpt>
      <trkpt lat="44.34944" lon="5.82592">
        <ele>704.78</ele>
        <time>2021-09-18T13:37:20Z</time>
      </trkpt>
      <trkpt lat="44.34966" lon="5.82576">
        <ele>708.15</ele>
        <time>2021-09-18T13:37:34Z</time>
      </trkpt>
      <trkpt lat="44.34987" lon="5.82558">
        <ele>710.07</ele>
        <time>2021-09-18T13:37:48Z</time>
      </trkpt>
      <trkpt lat="44.35011" lon="5.82537">
        <ele>711.99</ele>
        <time>2021-09-18T13:38:04Z</time>
      </trkpt>
      <trkpt lat="44.35032" lon="5.8252">
        <ele>713.92</ele>
        <time>2021-09-18T13:38:18Z</time>
      </trkpt>
      <trkpt lat="44.35059" lon="5.82503">
        <ele>717.76</ele>
        <time>2021-09-18T13:38:34Z</time>
      </trkpt>
      <trkpt lat="44.35083" lon="5.8249">
        <ele>720.16</ele>
        <time>2021-09-18T13:38:48Z</time>
      </trkpt>
      <trkpt lat="44.35108" lon="5.82476">
        <ele>722.57</ele>
        <time>2021-09-18T13:39:03Z</time>
      </trkpt>
      <trkpt lat="44.35137" lon="5.82459">
        <ele>724.97</ele>
        <time>2021-09-18T13:39:20Z</time>
      </trkpt>
      <trkpt lat="44.35162" lon="5.82438">
        <ele>726.89</ele>
        <time>2021-09-18T13:39:36Z</time>
      </trkpt>
      <trkpt lat="44.35191" lon="5.82428">
        <ele>729.78</ele>
        <time>2021-09-18T13:39:51Z</time>
      </trkpt>
      <trkpt lat="44.35215" lon="5.82414">
        <ele>731.22</ele>
        <time>2021-09-18T13:40:04Z</time>
      </trkpt>
      <trkpt lat="44.35222" lon="5.82407">
        <ele>731.7</ele>
        <time>2021-09-18T13:40:16Z</time>
      </trkpt>
      <trkpt lat="44.35223" lon="5.82407">
        <ele>731.7</ele>
        <time>2021-09-18T13:40:41Z</time>
      </trkpt>
      <trkpt lat="44.35224" lon="5.82407">
        <ele>732.18</ele>
        <time>2021-09-18T13:41:15Z</time>
      </trkpt>
      <trkpt lat="44.35222" lon="5.82407">
        <ele>732.18</ele>
        <time>2021-09-18T13:41:47Z</time>
      </trkpt>
      <trkpt lat="44.35222" lon="5.82408">
        <ele>732.18</ele>
        <time>2021-09-18T13:42:16Z</time>
      </trkpt>
      <trkpt lat="44.35221" lon="5.82408">
        <ele>732.18</ele>
        <time>2021-09-18T13:42:34Z</time>
      </trkpt>
      <trkpt lat="44.35222" lon="5.82408">
        <ele>732.18</ele>
        <time>2021-09-18T13:43:00Z</time>
      </trkpt>
      <trkpt lat="44.3522" lon="5.82407">
        <ele>732.18</ele>
        <time>2021-09-18T13:43:28Z</time>
      </trkpt>
      <trkpt lat="44.35221" lon="5.82408">
        <ele>732.18</ele>
        <time>2021-09-18T13:43:56Z</time>
      </trkpt>
      <trkpt lat="44.35223" lon="5.82408">
        <ele>732.18</ele>
        <time>2021-09-18T13:44:29Z</time>
      </trkpt>
      <trkpt lat="44.35222" lon="5.82407">
        <ele>732.18</ele>
        <time>2021-09-18T13:45:00Z</time>
      </trkpt>
      <trkpt lat="44.35221" lon="5.82407">
        <ele>732.18</ele>
        <time>2021-09-18T13:45:30Z</time>
      </trkpt>
      <trkpt lat="44.3522" lon="5.82407">
        <ele>732.18</ele>
        <time>2021-09-18T13:45:55Z</time>
      </trkpt>
      <trkpt lat="44.3522" lon="5.82406">
        <ele>732.18</ele>
        <time>2021-09-18T13:46:16Z</time>
      </trkpt>
      <trkpt lat="44.35219" lon="5.82406">
        <ele>732.18</ele>
        <time>2021-09-18T13:46:33Z</time>
      </trkpt>
      <trkpt lat="44.35222" lon="5.82408">
        <ele>732.18</ele>
        <time>2021-09-18T13:46:59Z</time>
      </trkpt>
      <trkpt lat="44.35221" lon="5.82407">
        <ele>732.18</ele>
        <time>2021-09-18T13:47:32Z</time>
      </trkpt>
      <trkpt lat="44.35222" lon="5.82409">
        <ele>732.18</ele>
        <time>2021-09-18T13:47:55Z</time>
      </trkpt>
      <trkpt lat="44.35223" lon="5.82408">
        <ele>732.18</ele>
        <time>2021-09-18T13:48:29Z</time>
      </trkpt>
      <trkpt lat="44.35222" lon="5.82411">
        <ele>732.18</ele>
        <time>2021-09-18T13:49:06Z</time>
      </trkpt>
      <trkpt lat="44.35221" lon="5.82411">
        <ele>732.18</ele>
        <time>2021-09-18T13:49:42Z</time>
      </trkpt>
      <trkpt lat="44.3522" lon="5.8241">
        <ele>732.18</ele>
        <time>2021-09-18T13:50:18Z</time>
      </trkpt>
      <trkpt lat="44.35221" lon="5.82408">
        <ele>732.18</ele>
        <time>2021-09-18T13:50:56Z</time>
      </trkpt>
      <trkpt lat="44.35223" lon="5.82411">
        <ele>732.18</ele>
        <time>2021-09-18T13:51:41Z</time>
      </trkpt>
      <trkpt lat="44.3522" lon="5.8241">
        <ele>732.66</ele>
        <time>2021-09-18T13:52:18Z</time>
      </trkpt>
      <trkpt lat="44.35221" lon="5.8241">
        <ele>732.66</ele>
        <time>2021-09-18T13:53:02Z</time>
      </trkpt>
      <trkpt lat="44.35222" lon="5.82409">
        <ele>732.66</ele>
        <time>2021-09-18T13:53:41Z</time>
      </trkpt>
      <trkpt lat="44.35221" lon="5.8241">
        <ele>732.66</ele>
        <time>2021-09-18T13:54:09Z</time>
      </trkpt>
      <trkpt lat="44.35222" lon="5.82409">
        <ele>732.66</ele>
        <time>2021-09-18T13:54:46Z</time>
      </trkpt>
      <trkpt lat="44.35223" lon="5.82408">
        <ele>733.14</ele>
        <time>2021-09-18T13:54:58Z</time>
      </trkpt>
      <trkpt lat="44.35227" lon="5.82406">
        <ele>733.62</ele>
        <time>2021-09-18T13:55:23Z</time>
      </trkpt>
      <trkpt lat="44.35247" lon="5.82402">
        <ele>733.62</ele>
        <time>2021-09-18T13:55:36Z</time>
      </trkpt>
      <trkpt lat="44.35259" lon="5.82379">
        <ele>735.07</ele>
        <time>2021-09-18T13:55:47Z</time>
      </trkpt>
      <trkpt lat="44.3526" lon="5.82371">
        <ele>735.55</ele>
        <time>2021-09-18T13:55:51Z</time>
      </trkpt>
      <trkpt lat="44.3526" lon="5.82369">
        <ele>736.03</ele>
        <time>2021-09-18T13:55:52Z</time>
      </trkpt>
      <trkpt lat="44.3526" lon="5.82367">
        <ele>736.03</ele>
        <time>2021-09-18T13:55:53Z</time>
      </trkpt>
      <trkpt lat="44.35261" lon="5.82364">
        <ele>736.03</ele>
        <time>2021-09-18T13:55:54Z</time>
      </trkpt>
      <trkpt lat="44.35261" lon="5.82362">
        <ele>736.03</ele>
        <time>2021-09-18T13:55:55Z</time>
      </trkpt>
      <trkpt lat="44.35269" lon="5.82344">
        <ele>736.51</ele>
        <time>2021-09-18T13:56:03Z</time>
      </trkpt>
      <trkpt lat="44.35271" lon="5.82341">
        <ele>736.51</ele>
        <time>2021-09-18T13:56:04Z</time>
      </trkpt>
      <trkpt lat="44.35273" lon="5.82339">
        <ele>736.51</ele>
        <time>2021-09-18T13:56:05Z</time>
      </trkpt>
      <trkpt lat="44.35303" lon="5.82306">
        <ele>736.51</ele>
        <time>2021-09-18T13:56:18Z</time>
      </trkpt>
      <trkpt lat="44.35339" lon="5.82283">
        <ele>735.55</ele>
        <time>2021-09-18T13:56:30Z</time>
      </trkpt>
      <trkpt lat="44.35381" lon="5.82245">
        <ele>735.07</ele>
        <time>2021-09-18T13:56:43Z</time>
      </trkpt>
      <trkpt lat="44.35395" lon="5.82228">
        <ele>735.07</ele>
        <time>2021-09-18T13:56:48Z</time>
      </trkpt>
      <trkpt lat="44.35448" lon="5.82159">
        <ele>732.66</ele>
        <time>2021-09-18T13:57:04Z</time>
      </trkpt>
      <trkpt lat="44.3546" lon="5.82147">
        <ele>732.66</ele>
        <time>2021-09-18T13:57:07Z</time>
      </trkpt>
      <trkpt lat="44.35471" lon="5.82134">
        <ele>732.18</ele>
        <time>2021-09-18T13:57:10Z</time>
      </trkpt>
      <trkpt lat="44.35479" lon="5.82128">
        <ele>732.18</ele>
        <time>2021-09-18T13:57:12Z</time>
      </trkpt>
      <trkpt lat="44.35487" lon="5.82122">
        <ele>732.18</ele>
        <time>2021-09-18T13:57:14Z</time>
      </trkpt>
      <trkpt lat="44.3551" lon="5.82105">
        <ele>731.7</ele>
        <time>2021-09-18T13:57:20Z</time>
      </trkpt>
      <trkpt lat="44.35514" lon="5.82103">
        <ele>731.7</ele>
        <time>2021-09-18T13:57:21Z</time>
      </trkpt>
      <trkpt lat="44.35519" lon="5.82101">
        <ele>731.7</ele>
        <time>2021-09-18T13:57:22Z</time>
      </trkpt>
      <trkpt lat="44.35523" lon="5.821">
        <ele>731.7</ele>
        <time>2021-09-18T13:57:23Z</time>
      </trkpt>
      <trkpt lat="44.35527" lon="5.82099">
        <ele>731.7</ele>
        <time>2021-09-18T13:57:24Z</time>
      </trkpt>
      <trkpt lat="44.35544" lon="5.82098">
        <ele>731.7</ele>
        <time>2021-09-18T13:57:28Z</time>
      </trkpt>
      <trkpt lat="44.35548" lon="5.82098">
        <ele>731.7</ele>
        <time>2021-09-18T13:57:29Z</time>
      </trkpt>
      <trkpt lat="44.35552" lon="5.82098">
        <ele>731.7</ele>
        <time>2021-09-18T13:57:30Z</time>
      </trkpt>
      <trkpt lat="44.35556" lon="5.82099">
        <ele>731.7</ele>
        <time>2021-09-18T13:57:31Z</time>
      </trkpt>
      <trkpt lat="44.35559" lon="5.82098">
        <ele>731.7</ele>
        <time>2021-09-18T13:57:32Z</time>
      </trkpt>
      <trkpt lat="44.35563" lon="5.82097">
        <ele>731.22</ele>
        <time>2021-09-18T13:57:33Z</time>
      </trkpt>
      <trkpt lat="44.35568" lon="5.82095">
        <ele>730.74</ele>
        <time>2021-09-18T13:57:34Z</time>
      </trkpt>
      <trkpt lat="44.35571" lon="5.82091">
        <ele>730.74</ele>
        <time>2021-09-18T13:57:35Z</time>
      </trkpt>
      <trkpt lat="44.35575" lon="5.82085">
        <ele>730.74</ele>
        <time>2021-09-18T13:57:36Z</time>
      </trkpt>
      <trkpt lat="44.35579" lon="5.8208">
        <ele>730.26</ele>
        <time>2021-09-18T13:57:37Z</time>
      </trkpt>
      <trkpt lat="44.35582" lon="5.82075">
        <ele>729.78</ele>
        <time>2021-09-18T13:57:38Z</time>
      </trkpt>
      <trkpt lat="44.35586" lon="5.8207">
        <ele>729.3</ele>
        <time>2021-09-18T13:57:39Z</time>
      </trkpt>
      <trkpt lat="44.35588" lon="5.82064">
        <ele>729.3</ele>
        <time>2021-09-18T13:57:40Z</time>
      </trkpt>
      <trkpt lat="44.3559" lon="5.82059">
        <ele>729.3</ele>
        <time>2021-09-18T13:57:41Z</time>
      </trkpt>
      <trkpt lat="44.35591" lon="5.82054">
        <ele>729.3</ele>
        <time>2021-09-18T13:57:42Z</time>
      </trkpt>
      <trkpt lat="44.35592" lon="5.82051">
        <ele>729.3</ele>
        <time>2021-09-18T13:57:43Z</time>
      </trkpt>
      <trkpt lat="44.35592" lon="5.82049">
        <ele>728.82</ele>
        <time>2021-09-18T13:57:52Z</time>
      </trkpt>
      <trkpt lat="44.35592" lon="5.82047">
        <ele>728.34</ele>
        <time>2021-09-18T13:58:03Z</time>
      </trkpt>
      <trkpt lat="44.35591" lon="5.82045">
        <ele>728.34</ele>
        <time>2021-09-18T13:58:04Z</time>
      </trkpt>
      <trkpt lat="44.35587" lon="5.82044">
        <ele>728.34</ele>
        <time>2021-09-18T13:58:06Z</time>
      </trkpt>
      <trkpt lat="44.35584" lon="5.82045">
        <ele>727.86</ele>
        <time>2021-09-18T13:58:07Z</time>
      </trkpt>
      <trkpt lat="44.35583" lon="5.82045">
        <ele>727.86</ele>
        <time>2021-09-18T13:58:08Z</time>
      </trkpt>
      <trkpt lat="44.35579" lon="5.82046">
        <ele>727.86</ele>
        <time>2021-09-18T13:58:10Z</time>
      </trkpt>
      <trkpt lat="44.35577" lon="5.82044">
        <ele>727.37</ele>
        <time>2021-09-18T13:58:11Z</time>
      </trkpt>
      <trkpt lat="44.35576" lon="5.82042">
        <ele>727.37</ele>
        <time>2021-09-18T13:58:12Z</time>
      </trkpt>
      <trkpt lat="44.35574" lon="5.82039">
        <ele>727.37</ele>
        <time>2021-09-18T13:58:13Z</time>
      </trkpt>
      <trkpt lat="44.35573" lon="5.82036">
        <ele>726.41</ele>
        <time>2021-09-18T13:58:14Z</time>
      </trkpt>
      <trkpt lat="44.35546" lon="5.81997">
        <ele>724.01</ele>
        <time>2021-09-18T13:58:26Z</time>
      </trkpt>
      <trkpt lat="44.35533" lon="5.81981">
        <ele>723.53</ele>
        <time>2021-09-18T13:58:33Z</time>
      </trkpt>
      <trkpt lat="44.35531" lon="5.81979">
        <ele>723.05</ele>
        <time>2021-09-18T13:58:34Z</time>
      </trkpt>
      <trkpt lat="44.35529" lon="5.81976">
        <ele>723.05</ele>
        <time>2021-09-18T13:58:35Z</time>
      </trkpt>
      <trkpt lat="44.35527" lon="5.81973">
        <ele>723.05</ele>
        <time>2021-09-18T13:58:36Z</time>
      </trkpt>
      <trkpt lat="44.35525" lon="5.8197">
        <ele>723.05</ele>
        <time>2021-09-18T13:58:37Z</time>
      </trkpt>
      <trkpt lat="44.35507" lon="5.81944">
        <ele>722.57</ele>
        <time>2021-09-18T13:58:49Z</time>
      </trkpt>
      <trkpt lat="44.35501" lon="5.81933">
        <ele>722.09</ele>
        <time>2021-09-18T13:58:53Z</time>
      </trkpt>
      <trkpt lat="44.35497" lon="5.81925">
        <ele>723.53</ele>
        <time>2021-09-18T13:58:59Z</time>
      </trkpt>
      <trkpt lat="44.3549" lon="5.81917">
        <ele>724.97</ele>
        <time>2021-09-18T13:59:13Z</time>
      </trkpt>
      <trkpt lat="44.35486" lon="5.81918">
        <ele>724.97</ele>
        <time>2021-09-18T13:59:15Z</time>
      </trkpt>
      <trkpt lat="44.35477" lon="5.8192">
        <ele>723.53</ele>
        <time>2021-09-18T13:59:20Z</time>
      </trkpt>
      <trkpt lat="44.35471" lon="5.81923">
        <ele>723.53</ele>
        <time>2021-09-18T13:59:36Z</time>
      </trkpt>
      <trkpt lat="44.35462" lon="5.81927">
        <ele>723.53</ele>
        <time>2021-09-18T13:59:47Z</time>
      </trkpt>
      <trkpt lat="44.3546" lon="5.81932">
        <ele>724.49</ele>
        <time>2021-09-18T13:59:57Z</time>
      </trkpt>
      <trkpt lat="44.35458" lon="5.81934">
        <ele>724.49</ele>
        <time>2021-09-18T14:00:00Z</time>
      </trkpt>
      <trkpt lat="44.35457" lon="5.81936">
        <ele>724.49</ele>
        <time>2021-09-18T14:00:02Z</time>
      </trkpt>
      <trkpt lat="44.35449" lon="5.8194">
        <ele>724.49</ele>
        <time>2021-09-18T14:00:14Z</time>
      </trkpt>
      <trkpt lat="44.35438" lon="5.81937">
        <ele>724.49</ele>
        <time>2021-09-18T14:00:33Z</time>
      </trkpt>
      <trkpt lat="44.35435" lon="5.81935">
        <ele>724.97</ele>
        <time>2021-09-18T14:00:40Z</time>
      </trkpt>
      <trkpt lat="44.35424" lon="5.81933">
        <ele>726.41</ele>
        <time>2021-09-18T14:00:56Z</time>
      </trkpt>
      <trkpt lat="44.35422" lon="5.81928">
        <ele>727.37</ele>
        <time>2021-09-18T14:01:10Z</time>
      </trkpt>
      <trkpt lat="44.35424" lon="5.81924">
        <ele>729.3</ele>
        <time>2021-09-18T14:01:23Z</time>
      </trkpt>
      <trkpt lat="44.35424" lon="5.81908">
        <ele>731.7</ele>
        <time>2021-09-18T14:01:39Z</time>
      </trkpt>
      <trkpt lat="44.35418" lon="5.81902">
        <ele>733.62</ele>
        <time>2021-09-18T14:01:49Z</time>
      </trkpt>
      <trkpt lat="44.35397" lon="5.81894">
        <ele>735.07</ele>
        <time>2021-09-18T14:02:03Z</time>
      </trkpt>
      <trkpt lat="44.3538" lon="5.81877">
        <ele>734.58</ele>
        <time>2021-09-18T14:02:14Z</time>
      </trkpt>
      <trkpt lat="44.35378" lon="5.81876">
        <ele>734.58</ele>
        <time>2021-09-18T14:02:16Z</time>
      </trkpt>
      <trkpt lat="44.35377" lon="5.81876">
        <ele>734.58</ele>
        <time>2021-09-18T14:02:17Z</time>
      </trkpt>
      <trkpt lat="44.35372" lon="5.81875">
        <ele>734.58</ele>
        <time>2021-09-18T14:02:29Z</time>
      </trkpt>
      <trkpt lat="44.35368" lon="5.81869">
        <ele>736.03</ele>
        <time>2021-09-18T14:02:40Z</time>
      </trkpt>
      <trkpt lat="44.35366" lon="5.81866">
        <ele>736.03</ele>
        <time>2021-09-18T14:02:43Z</time>
      </trkpt>
      <trkpt lat="44.35368" lon="5.81852">
        <ele>738.43</ele>
        <time>2021-09-18T14:02:56Z</time>
      </trkpt>
      <trkpt lat="44.35363" lon="5.81841">
        <ele>740.35</ele>
        <time>2021-09-18T14:03:11Z</time>
      </trkpt>
      <trkpt lat="44.35353" lon="5.81839">
        <ele>742.28</ele>
        <time>2021-09-18T14:03:24Z</time>
      </trkpt>
      <trkpt lat="44.35346" lon="5.81828">
        <ele>745.16</ele>
        <time>2021-09-18T14:03:38Z</time>
      </trkpt>
      <trkpt lat="44.35347" lon="5.81812">
        <ele>748.04</ele>
        <time>2021-09-18T14:03:51Z</time>
      </trkpt>
      <trkpt lat="44.35346" lon="5.81797">
        <ele>749.49</ele>
        <time>2021-09-18T14:04:01Z</time>
      </trkpt>
      <trkpt lat="44.35345" lon="5.81795">
        <ele>749.49</ele>
        <time>2021-09-18T14:04:02Z</time>
      </trkpt>
      <trkpt lat="44.35344" lon="5.81791">
        <ele>749</ele>
        <time>2021-09-18T14:04:03Z</time>
      </trkpt>
      <trkpt lat="44.35341" lon="5.81772">
        <ele>749</ele>
        <time>2021-09-18T14:04:09Z</time>
      </trkpt>
      <trkpt lat="44.35331" lon="5.81738">
        <ele>748.52</ele>
        <time>2021-09-18T14:04:22Z</time>
      </trkpt>
      <trkpt lat="44.3533" lon="5.81736">
        <ele>748.04</ele>
        <time>2021-09-18T14:04:23Z</time>
      </trkpt>
      <trkpt lat="44.35329" lon="5.81733">
        <ele>748.04</ele>
        <time>2021-09-18T14:04:24Z</time>
      </trkpt>
      <trkpt lat="44.35326" lon="5.81727">
        <ele>747.08</ele>
        <time>2021-09-18T14:04:26Z</time>
      </trkpt>
      <trkpt lat="44.35325" lon="5.81723">
        <ele>746.12</ele>
        <time>2021-09-18T14:04:27Z</time>
      </trkpt>
      <trkpt lat="44.35325" lon="5.81719">
        <ele>746.12</ele>
        <time>2021-09-18T14:04:28Z</time>
      </trkpt>
      <trkpt lat="44.35326" lon="5.81717">
        <ele>746.12</ele>
        <time>2021-09-18T14:04:29Z</time>
      </trkpt>
      <trkpt lat="44.35326" lon="5.81715">
        <ele>746.12</ele>
        <time>2021-09-18T14:04:30Z</time>
      </trkpt>
      <trkpt lat="44.35326" lon="5.81713">
        <ele>746.12</ele>
        <time>2021-09-18T14:04:31Z</time>
      </trkpt>
      <trkpt lat="44.35325" lon="5.8171">
        <ele>746.12</ele>
        <time>2021-09-18T14:04:32Z</time>
      </trkpt>
      <trkpt lat="44.35323" lon="5.81702">
        <ele>747.56</ele>
        <time>2021-09-18T14:04:36Z</time>
      </trkpt>
      <trkpt lat="44.35322" lon="5.817">
        <ele>747.56</ele>
        <time>2021-09-18T14:04:37Z</time>
      </trkpt>
      <trkpt lat="44.35321" lon="5.81699">
        <ele>747.56</ele>
        <time>2021-09-18T14:04:38Z</time>
      </trkpt>
      <trkpt lat="44.35317" lon="5.81688">
        <ele>748.04</ele>
        <time>2021-09-18T14:04:48Z</time>
      </trkpt>
      <trkpt lat="44.35315" lon="5.81686">
        <ele>748.04</ele>
        <time>2021-09-18T14:05:15Z</time>
      </trkpt>
      <trkpt lat="44.35313" lon="5.81687">
        <ele>747.08</ele>
        <time>2021-09-18T14:05:16Z</time>
      </trkpt>
      <trkpt lat="44.35311" lon="5.81686">
        <ele>747.08</ele>
        <time>2021-09-18T14:05:17Z</time>
      </trkpt>
      <trkpt lat="44.35309" lon="5.81686">
        <ele>746.12</ele>
        <time>2021-09-18T14:05:18Z</time>
      </trkpt>
      <trkpt lat="44.35306" lon="5.81687">
        <ele>745.16</ele>
        <time>2021-09-18T14:05:19Z</time>
      </trkpt>
      <trkpt lat="44.353" lon="5.81689">
        <ele>742.28</ele>
        <time>2021-09-18T14:05:22Z</time>
      </trkpt>
      <trkpt lat="44.35298" lon="5.81691">
        <ele>742.28</ele>
        <time>2021-09-18T14:05:23Z</time>
      </trkpt>
      <trkpt lat="44.35295" lon="5.81691">
        <ele>741.79</ele>
        <time>2021-09-18T14:05:24Z</time>
      </trkpt>
      <trkpt lat="44.35279" lon="5.81689">
        <ele>738.43</ele>
        <time>2021-09-18T14:05:32Z</time>
      </trkpt>
      <trkpt lat="44.35277" lon="5.8169">
        <ele>738.43</ele>
        <time>2021-09-18T14:05:33Z</time>
      </trkpt>
      <trkpt lat="44.35268" lon="5.8169">
        <ele>736.99</ele>
        <time>2021-09-18T14:05:39Z</time>
      </trkpt>
      <trkpt lat="44.35266" lon="5.81689">
        <ele>736.03</ele>
        <time>2021-09-18T14:05:40Z</time>
      </trkpt>
      <trkpt lat="44.35263" lon="5.81689">
        <ele>734.58</ele>
        <time>2021-09-18T14:05:41Z</time>
      </trkpt>
      <trkpt lat="44.35261" lon="5.81688">
        <ele>734.1</ele>
        <time>2021-09-18T14:05:42Z</time>
      </trkpt>
      <trkpt lat="44.35259" lon="5.81687">
        <ele>733.14</ele>
        <time>2021-09-18T14:05:43Z</time>
      </trkpt>
      <trkpt lat="44.35258" lon="5.81686">
        <ele>733.14</ele>
        <time>2021-09-18T14:05:44Z</time>
      </trkpt>
      <trkpt lat="44.35256" lon="5.81686">
        <ele>731.7</ele>
        <time>2021-09-18T14:05:45Z</time>
      </trkpt>
      <trkpt lat="44.35255" lon="5.81685">
        <ele>730.74</ele>
        <time>2021-09-18T14:05:46Z</time>
      </trkpt>
      <trkpt lat="44.35253" lon="5.81685">
        <ele>730.74</ele>
        <time>2021-09-18T14:05:47Z</time>
      </trkpt>
      <trkpt lat="44.35243" lon="5.81684">
        <ele>727.37</ele>
        <time>2021-09-18T14:05:51Z</time>
      </trkpt>
      <trkpt lat="44.35235" lon="5.8169">
        <ele>724.01</ele>
        <time>2021-09-18T14:05:55Z</time>
      </trkpt>
      <trkpt lat="44.35233" lon="5.81692">
        <ele>724.01</ele>
        <time>2021-09-18T14:05:56Z</time>
      </trkpt>
      <trkpt lat="44.35226" lon="5.81704">
        <ele>720.16</ele>
        <time>2021-09-18T14:06:00Z</time>
      </trkpt>
      <trkpt lat="44.35211" lon="5.8171">
        <ele>716.32</ele>
        <time>2021-09-18T14:06:04Z</time>
      </trkpt>
      <trkpt lat="44.35195" lon="5.81722">
        <ele>713.92</ele>
        <time>2021-09-18T14:06:09Z</time>
      </trkpt>
      <trkpt lat="44.35179" lon="5.8173">
        <ele>710.07</ele>
        <time>2021-09-18T14:06:14Z</time>
      </trkpt>
      <trkpt lat="44.35174" lon="5.81731">
        <ele>709.11</ele>
        <time>2021-09-18T14:06:15Z</time>
      </trkpt>
      <trkpt lat="44.35171" lon="5.81731">
        <ele>708.15</ele>
        <time>2021-09-18T14:06:16Z</time>
      </trkpt>
      <trkpt lat="44.35167" lon="5.81731">
        <ele>707.19</ele>
        <time>2021-09-18T14:06:17Z</time>
      </trkpt>
      <trkpt lat="44.35164" lon="5.81731">
        <ele>706.71</ele>
        <time>2021-09-18T14:06:18Z</time>
      </trkpt>
      <trkpt lat="44.35162" lon="5.8173">
        <ele>706.71</ele>
        <time>2021-09-18T14:06:19Z</time>
      </trkpt>
      <trkpt lat="44.35153" lon="5.81725">
        <ele>703.82</ele>
        <time>2021-09-18T14:06:25Z</time>
      </trkpt>
      <trkpt lat="44.35147" lon="5.81716">
        <ele>700.46</ele>
        <time>2021-09-18T14:06:30Z</time>
      </trkpt>
      <trkpt lat="44.35145" lon="5.81715">
        <ele>699.5</ele>
        <time>2021-09-18T14:06:39Z</time>
      </trkpt>
      <trkpt lat="44.35149" lon="5.81721">
        <ele>700.94</ele>
        <time>2021-09-18T14:06:53Z</time>
      </trkpt>
      <trkpt lat="44.35155" lon="5.81727">
        <ele>702.86</ele>
        <time>2021-09-18T14:07:06Z</time>
      </trkpt>
      <trkpt lat="44.35159" lon="5.81733">
        <ele>705.75</ele>
        <time>2021-09-18T14:07:17Z</time>
      </trkpt>
      <trkpt lat="44.3516" lon="5.81736">
        <ele>705.75</ele>
        <time>2021-09-18T14:07:20Z</time>
      </trkpt>
      <trkpt lat="44.35158" lon="5.8174">
        <ele>705.75</ele>
        <time>2021-09-18T14:07:22Z</time>
      </trkpt>
      <trkpt lat="44.35157" lon="5.81743">
        <ele>705.75</ele>
        <time>2021-09-18T14:07:23Z</time>
      </trkpt>
      <trkpt lat="44.35157" lon="5.81745">
        <ele>703.82</ele>
        <time>2021-09-18T14:07:24Z</time>
      </trkpt>
      <trkpt lat="44.35156" lon="5.81748">
        <ele>703.82</ele>
        <time>2021-09-18T14:07:25Z</time>
      </trkpt>
      <trkpt lat="44.35144" lon="5.8176">
        <ele>700.46</ele>
        <time>2021-09-18T14:07:31Z</time>
      </trkpt>
      <trkpt lat="44.35131" lon="5.81763">
        <ele>697.57</ele>
        <time>2021-09-18T14:07:36Z</time>
      </trkpt>
      <trkpt lat="44.35128" lon="5.81762">
        <ele>697.57</ele>
        <time>2021-09-18T14:07:37Z</time>
      </trkpt>
      <trkpt lat="44.35126" lon="5.81764">
        <ele>697.57</ele>
        <time>2021-09-18T14:07:38Z</time>
      </trkpt>
      <trkpt lat="44.35123" lon="5.81766">
        <ele>697.57</ele>
        <time>2021-09-18T14:07:39Z</time>
      </trkpt>
      <trkpt lat="44.35121" lon="5.81766">
        <ele>697.09</ele>
        <time>2021-09-18T14:07:40Z</time>
      </trkpt>
      <trkpt lat="44.35118" lon="5.81765">
        <ele>695.65</ele>
        <time>2021-09-18T14:07:41Z</time>
      </trkpt>
      <trkpt lat="44.35115" lon="5.81765">
        <ele>695.17</ele>
        <time>2021-09-18T14:07:42Z</time>
      </trkpt>
      <trkpt lat="44.35111" lon="5.81765">
        <ele>695.17</ele>
        <time>2021-09-18T14:07:43Z</time>
      </trkpt>
      <trkpt lat="44.35107" lon="5.81764">
        <ele>694.21</ele>
        <time>2021-09-18T14:07:44Z</time>
      </trkpt>
      <trkpt lat="44.35102" lon="5.81765">
        <ele>693.25</ele>
        <time>2021-09-18T14:07:45Z</time>
      </trkpt>
      <trkpt lat="44.35096" lon="5.81767">
        <ele>693.25</ele>
        <time>2021-09-18T14:07:46Z</time>
      </trkpt>
      <trkpt lat="44.35091" lon="5.8177">
        <ele>692.77</ele>
        <time>2021-09-18T14:07:47Z</time>
      </trkpt>
      <trkpt lat="44.35087" lon="5.81771">
        <ele>692.77</ele>
        <time>2021-09-18T14:07:48Z</time>
      </trkpt>
      <trkpt lat="44.35084" lon="5.81772">
        <ele>693.73</ele>
        <time>2021-09-18T14:07:49Z</time>
      </trkpt>
      <trkpt lat="44.35082" lon="5.81772">
        <ele>694.21</ele>
        <time>2021-09-18T14:07:50Z</time>
      </trkpt>
      <trkpt lat="44.3508" lon="5.81772">
        <ele>694.21</ele>
        <time>2021-09-18T14:07:51Z</time>
      </trkpt>
      <trkpt lat="44.35078" lon="5.81772">
        <ele>694.69</ele>
        <time>2021-09-18T14:07:52Z</time>
      </trkpt>
      <trkpt lat="44.35076" lon="5.8177">
        <ele>694.69</ele>
        <time>2021-09-18T14:07:53Z</time>
      </trkpt>
      <trkpt lat="44.35073" lon="5.81769">
        <ele>694.69</ele>
        <time>2021-09-18T14:07:54Z</time>
      </trkpt>
      <trkpt lat="44.3507" lon="5.81768">
        <ele>694.69</ele>
        <time>2021-09-18T14:07:55Z</time>
      </trkpt>
      <trkpt lat="44.35066" lon="5.81767">
        <ele>694.69</ele>
        <time>2021-09-18T14:07:57Z</time>
      </trkpt>
      <trkpt lat="44.35064" lon="5.81768">
        <ele>694.69</ele>
        <time>2021-09-18T14:07:58Z</time>
      </trkpt>
      <trkpt lat="44.35043" lon="5.81773">
        <ele>695.65</ele>
        <time>2021-09-18T14:08:08Z</time>
      </trkpt>
      <trkpt lat="44.3503" lon="5.81781">
        <ele>694.69</ele>
        <time>2021-09-18T14:08:14Z</time>
      </trkpt>
      <trkpt lat="44.35028" lon="5.81781">
        <ele>694.69</ele>
        <time>2021-09-18T14:08:15Z</time>
      </trkpt>
      <trkpt lat="44.35026" lon="5.8178">
        <ele>694.69</ele>
        <time>2021-09-18T14:08:16Z</time>
      </trkpt>
      <trkpt lat="44.35025" lon="5.81779">
        <ele>694.69</ele>
        <time>2021-09-18T14:08:17Z</time>
      </trkpt>
      <trkpt lat="44.35023" lon="5.81778">
        <ele>694.69</ele>
        <time>2021-09-18T14:08:18Z</time>
      </trkpt>
      <trkpt lat="44.35021" lon="5.81779">
        <ele>693.73</ele>
        <time>2021-09-18T14:08:19Z</time>
      </trkpt>
      <trkpt lat="44.35019" lon="5.81779">
        <ele>693.73</ele>
        <time>2021-09-18T14:08:20Z</time>
      </trkpt>
      <trkpt lat="44.35017" lon="5.81781">
        <ele>693.25</ele>
        <time>2021-09-18T14:08:21Z</time>
      </trkpt>
      <trkpt lat="44.35015" lon="5.81784">
        <ele>692.29</ele>
        <time>2021-09-18T14:08:22Z</time>
      </trkpt>
      <trkpt lat="44.35013" lon="5.81787">
        <ele>691.33</ele>
        <time>2021-09-18T14:08:23Z</time>
      </trkpt>
      <trkpt lat="44.35011" lon="5.81789">
        <ele>690.84</ele>
        <time>2021-09-18T14:08:24Z</time>
      </trkpt>
      <trkpt lat="44.35008" lon="5.81789">
        <ele>689.88</ele>
        <time>2021-09-18T14:08:25Z</time>
      </trkpt>
      <trkpt lat="44.35006" lon="5.8179">
        <ele>689.4</ele>
        <time>2021-09-18T14:08:26Z</time>
      </trkpt>
      <trkpt lat="44.35005" lon="5.8179">
        <ele>689.4</ele>
        <time>2021-09-18T14:08:27Z</time>
      </trkpt>
      <trkpt lat="44.35003" lon="5.81792">
        <ele>688.92</ele>
        <time>2021-09-18T14:08:47Z</time>
      </trkpt>
      <trkpt lat="44.35002" lon="5.81793">
        <ele>688.44</ele>
        <time>2021-09-18T14:08:48Z</time>
      </trkpt>
      <trkpt lat="44.35" lon="5.81795">
        <ele>688.44</ele>
        <time>2021-09-18T14:08:49Z</time>
      </trkpt>
      <trkpt lat="44.34998" lon="5.81797">
        <ele>687.96</ele>
        <time>2021-09-18T14:08:50Z</time>
      </trkpt>
      <trkpt lat="44.34996" lon="5.81799">
        <ele>687.96</ele>
        <time>2021-09-18T14:08:51Z</time>
      </trkpt>
      <trkpt lat="44.34993" lon="5.818">
        <ele>687.48</ele>
        <time>2021-09-18T14:08:52Z</time>
      </trkpt>
      <trkpt lat="44.34991" lon="5.81803">
        <ele>687.48</ele>
        <time>2021-09-18T14:08:53Z</time>
      </trkpt>
      <trkpt lat="44.34988" lon="5.81805">
        <ele>686.52</ele>
        <time>2021-09-18T14:08:54Z</time>
      </trkpt>
      <trkpt lat="44.34985" lon="5.81805">
        <ele>685.56</ele>
        <time>2021-09-18T14:08:55Z</time>
      </trkpt>
      <trkpt lat="44.34981" lon="5.81805">
        <ele>684.6</ele>
        <time>2021-09-18T14:08:56Z</time>
      </trkpt>
      <trkpt lat="44.34977" lon="5.81805">
        <ele>684.6</ele>
        <time>2021-09-18T14:08:57Z</time>
      </trkpt>
      <trkpt lat="44.34973" lon="5.81805">
        <ele>684.6</ele>
        <time>2021-09-18T14:08:58Z</time>
      </trkpt>
      <trkpt lat="44.3497" lon="5.81805">
        <ele>683.63</ele>
        <time>2021-09-18T14:08:59Z</time>
      </trkpt>
      <trkpt lat="44.34966" lon="5.81807">
        <ele>683.63</ele>
        <time>2021-09-18T14:09:00Z</time>
      </trkpt>
      <trkpt lat="44.34962" lon="5.8181">
        <ele>682.67</ele>
        <time>2021-09-18T14:09:01Z</time>
      </trkpt>
      <trkpt lat="44.34958" lon="5.81813">
        <ele>682.19</ele>
        <time>2021-09-18T14:09:02Z</time>
      </trkpt>
      <trkpt lat="44.34953" lon="5.81817">
        <ele>680.75</ele>
        <time>2021-09-18T14:09:03Z</time>
      </trkpt>
      <trkpt lat="44.34949" lon="5.81821">
        <ele>680.27</ele>
        <time>2021-09-18T14:09:04Z</time>
      </trkpt>
      <trkpt lat="44.34946" lon="5.81826">
        <ele>680.27</ele>
        <time>2021-09-18T14:09:05Z</time>
      </trkpt>
      <trkpt lat="44.34945" lon="5.81831">
        <ele>680.27</ele>
        <time>2021-09-18T14:09:06Z</time>
      </trkpt>
      <trkpt lat="44.34945" lon="5.81836">
        <ele>679.31</ele>
        <time>2021-09-18T14:09:07Z</time>
      </trkpt>
      <trkpt lat="44.34945" lon="5.8184">
        <ele>679.31</ele>
        <time>2021-09-18T14:09:08Z</time>
      </trkpt>
      <trkpt lat="44.34944" lon="5.81842">
        <ele>679.31</ele>
        <time>2021-09-18T14:09:09Z</time>
      </trkpt>
      <trkpt lat="44.34942" lon="5.81843">
        <ele>679.31</ele>
        <time>2021-09-18T14:09:10Z</time>
      </trkpt>
      <trkpt lat="44.34936" lon="5.81846">
        <ele>675.94</ele>
        <time>2021-09-18T14:09:15Z</time>
      </trkpt>
      <trkpt lat="44.34932" lon="5.8185">
        <ele>674.5</ele>
        <time>2021-09-18T14:09:19Z</time>
      </trkpt>
      <trkpt lat="44.34928" lon="5.81854">
        <ele>671.14</ele>
        <time>2021-09-18T14:09:22Z</time>
      </trkpt>
      <trkpt lat="44.3492" lon="5.8186">
        <ele>666.81</ele>
        <time>2021-09-18T14:09:27Z</time>
      </trkpt>
      <trkpt lat="44.34919" lon="5.81863">
        <ele>664.89</ele>
        <time>2021-09-18T14:09:29Z</time>
      </trkpt>
      <trkpt lat="44.34918" lon="5.81864">
        <ele>664.41</ele>
        <time>2021-09-18T14:09:30Z</time>
      </trkpt>
      <trkpt lat="44.34917" lon="5.81865">
        <ele>663.45</ele>
        <time>2021-09-18T14:09:32Z</time>
      </trkpt>
      <trkpt lat="44.34916" lon="5.81865">
        <ele>662.97</ele>
        <time>2021-09-18T14:09:48Z</time>
      </trkpt>
      <trkpt lat="44.34916" lon="5.81866">
        <ele>662.97</ele>
        <time>2021-09-18T14:10:07Z</time>
      </trkpt>
      <trkpt lat="44.34916" lon="5.81867">
        <ele>662.97</ele>
        <time>2021-09-18T14:10:24Z</time>
      </trkpt>
      <trkpt lat="44.34917" lon="5.81864">
        <ele>662.97</ele>
        <time>2021-09-18T14:10:46Z</time>
      </trkpt>
      <trkpt lat="44.34917" lon="5.81862">
        <ele>663.93</ele>
        <time>2021-09-18T14:10:50Z</time>
      </trkpt>
      <trkpt lat="44.34918" lon="5.81859">
        <ele>664.41</ele>
        <time>2021-09-18T14:11:27Z</time>
      </trkpt>
      <trkpt lat="44.34919" lon="5.81861">
        <ele>664.89</ele>
        <time>2021-09-18T14:11:40Z</time>
      </trkpt>
      <trkpt lat="44.34919" lon="5.81863">
        <ele>664.41</ele>
        <time>2021-09-18T14:12:02Z</time>
      </trkpt>
      <trkpt lat="44.34919" lon="5.81863">
        <ele>664.41</ele>
        <time>2021-09-18T14:12:27Z</time>
      </trkpt>
      <trkpt lat="44.34917" lon="5.81864">
        <ele>663.45</ele>
        <time>2021-09-18T14:12:29Z</time>
      </trkpt>
      <trkpt lat="44.34915" lon="5.81865">
        <ele>662.49</ele>
        <time>2021-09-18T14:12:30Z</time>
      </trkpt>
      <trkpt lat="44.34912" lon="5.81867">
        <ele>662.01</ele>
        <time>2021-09-18T14:12:31Z</time>
      </trkpt>
      <trkpt lat="44.3491" lon="5.81868">
        <ele>660.56</ele>
        <time>2021-09-18T14:12:32Z</time>
      </trkpt>
      <trkpt lat="44.34909" lon="5.8187">
        <ele>659.6</ele>
        <time>2021-09-18T14:12:33Z</time>
      </trkpt>
      <trkpt lat="44.34908" lon="5.81871">
        <ele>658.64</ele>
        <time>2021-09-18T14:12:34Z</time>
      </trkpt>
      <trkpt lat="44.34908" lon="5.81874">
        <ele>658.16</ele>
        <time>2021-09-18T14:12:35Z</time>
      </trkpt>
      <trkpt lat="44.34907" lon="5.81877">
        <ele>657.68</ele>
        <time>2021-09-18T14:12:36Z</time>
      </trkpt>
      <trkpt lat="44.34906" lon="5.81881">
        <ele>657.68</ele>
        <time>2021-09-18T14:12:40Z</time>
      </trkpt>
      <trkpt lat="44.34905" lon="5.81885">
        <ele>657.68</ele>
        <time>2021-09-18T14:12:53Z</time>
      </trkpt>
      <trkpt lat="44.34901" lon="5.81882">
        <ele>657.2</ele>
        <time>2021-09-18T14:13:11Z</time>
      </trkpt>
      <trkpt lat="44.34897" lon="5.81881">
        <ele>657.2</ele>
        <time>2021-09-18T14:13:17Z</time>
      </trkpt>
      <trkpt lat="44.34896" lon="5.81882">
        <ele>656.72</ele>
        <time>2021-09-18T14:13:18Z</time>
      </trkpt>
      <trkpt lat="44.3489" lon="5.81888">
        <ele>659.12</ele>
        <time>2021-09-18T14:13:29Z</time>
      </trkpt>
      <trkpt lat="44.34883" lon="5.81895">
        <ele>660.08</ele>
        <time>2021-09-18T14:13:43Z</time>
      </trkpt>
      <trkpt lat="44.3488" lon="5.81898">
        <ele>660.56</ele>
        <time>2021-09-18T14:13:49Z</time>
      </trkpt>
      <trkpt lat="44.34878" lon="5.819">
        <ele>660.56</ele>
        <time>2021-09-18T14:13:50Z</time>
      </trkpt>
      <trkpt lat="44.34863" lon="5.8192">
        <ele>658.16</ele>
        <time>2021-09-18T14:13:59Z</time>
      </trkpt>
      <trkpt lat="44.34855" lon="5.81916">
        <ele>657.68</ele>
        <time>2021-09-18T14:14:11Z</time>
      </trkpt>
      <trkpt lat="44.34854" lon="5.81916">
        <ele>657.68</ele>
        <time>2021-09-18T14:14:12Z</time>
      </trkpt>
      <trkpt lat="44.34852" lon="5.81917">
        <ele>659.12</ele>
        <time>2021-09-18T14:14:14Z</time>
      </trkpt>
      <trkpt lat="44.34849" lon="5.81919">
        <ele>660.08</ele>
        <time>2021-09-18T14:14:23Z</time>
      </trkpt>
      <trkpt lat="44.34848" lon="5.81919">
        <ele>660.08</ele>
        <time>2021-09-18T14:14:24Z</time>
      </trkpt>
      <trkpt lat="44.34834" lon="5.81944">
        <ele>656.72</ele>
        <time>2021-09-18T14:14:34Z</time>
      </trkpt>
      <trkpt lat="44.34832" lon="5.81945">
        <ele>656.72</ele>
        <time>2021-09-18T14:14:35Z</time>
      </trkpt>
      <trkpt lat="44.3483" lon="5.81947">
        <ele>656.72</ele>
        <time>2021-09-18T14:14:36Z</time>
      </trkpt>
      <trkpt lat="44.34828" lon="5.8195">
        <ele>656.72</ele>
        <time>2021-09-18T14:14:37Z</time>
      </trkpt>
      <trkpt lat="44.34826" lon="5.81952">
        <ele>655.76</ele>
        <time>2021-09-18T14:14:38Z</time>
      </trkpt>
      <trkpt lat="44.34824" lon="5.81953">
        <ele>655.76</ele>
        <time>2021-09-18T14:14:39Z</time>
      </trkpt>
      <trkpt lat="44.34822" lon="5.81953">
        <ele>655.76</ele>
        <time>2021-09-18T14:14:40Z</time>
      </trkpt>
      <trkpt lat="44.34821" lon="5.81953">
        <ele>655.76</ele>
        <time>2021-09-18T14:14:41Z</time>
      </trkpt>
      <trkpt lat="44.34818" lon="5.81954">
        <ele>655.76</ele>
        <time>2021-09-18T14:14:43Z</time>
      </trkpt>
      <trkpt lat="44.34817" lon="5.81956">
        <ele>655.76</ele>
        <time>2021-09-18T14:14:44Z</time>
      </trkpt>
      <trkpt lat="44.34816" lon="5.81958">
        <ele>655.76</ele>
        <time>2021-09-18T14:14:45Z</time>
      </trkpt>
      <trkpt lat="44.34815" lon="5.81968">
        <ele>653.83</ele>
        <time>2021-09-18T14:14:56Z</time>
      </trkpt>
      <trkpt lat="44.34816" lon="5.81974">
        <ele>653.83</ele>
        <time>2021-09-18T14:15:00Z</time>
      </trkpt>
      <trkpt lat="44.34815" lon="5.81976">
        <ele>653.83</ele>
        <time>2021-09-18T14:15:01Z</time>
      </trkpt>
      <trkpt lat="44.34814" lon="5.81978">
        <ele>653.83</ele>
        <time>2021-09-18T14:15:02Z</time>
      </trkpt>
      <trkpt lat="44.34813" lon="5.8198">
        <ele>653.83</ele>
        <time>2021-09-18T14:15:03Z</time>
      </trkpt>
      <trkpt lat="44.34813" lon="5.81983">
        <ele>653.83</ele>
        <time>2021-09-18T14:15:04Z</time>
      </trkpt>
      <trkpt lat="44.34814" lon="5.81986">
        <ele>653.83</ele>
        <time>2021-09-18T14:15:05Z</time>
      </trkpt>
      <trkpt lat="44.34814" lon="5.81995">
        <ele>653.83</ele>
        <time>2021-09-18T14:15:08Z</time>
      </trkpt>
      <trkpt lat="44.34813" lon="5.81997">
        <ele>652.87</ele>
        <time>2021-09-18T14:15:09Z</time>
      </trkpt>
      <trkpt lat="44.34812" lon="5.81998">
        <ele>652.87</ele>
        <time>2021-09-18T14:15:10Z</time>
      </trkpt>
      <trkpt lat="44.34812" lon="5.82">
        <ele>652.87</ele>
        <time>2021-09-18T14:15:11Z</time>
      </trkpt>
      <trkpt lat="44.34811" lon="5.82001">
        <ele>651.91</ele>
        <time>2021-09-18T14:15:12Z</time>
      </trkpt>
      <trkpt lat="44.34808" lon="5.82007">
        <ele>653.35</ele>
        <time>2021-09-18T14:15:22Z</time>
      </trkpt>
      <trkpt lat="44.34802" lon="5.82011">
        <ele>654.31</ele>
        <time>2021-09-18T14:15:32Z</time>
      </trkpt>
      <trkpt lat="44.348" lon="5.82012">
        <ele>654.31</ele>
        <time>2021-09-18T14:15:33Z</time>
      </trkpt>
      <trkpt lat="44.34799" lon="5.82013">
        <ele>654.31</ele>
        <time>2021-09-18T14:15:34Z</time>
      </trkpt>
      <trkpt lat="44.34798" lon="5.82014">
        <ele>654.31</ele>
        <time>2021-09-18T14:15:35Z</time>
      </trkpt>
      <trkpt lat="44.34796" lon="5.82015">
        <ele>654.31</ele>
        <time>2021-09-18T14:15:36Z</time>
      </trkpt>
      <trkpt lat="44.34795" lon="5.82016">
        <ele>654.31</ele>
        <time>2021-09-18T14:15:37Z</time>
      </trkpt>
      <trkpt lat="44.34793" lon="5.82017">
        <ele>654.31</ele>
        <time>2021-09-18T14:15:38Z</time>
      </trkpt>
      <trkpt lat="44.34792" lon="5.82018">
        <ele>654.31</ele>
        <time>2021-09-18T14:15:39Z</time>
      </trkpt>
      <trkpt lat="44.34779" lon="5.82034">
        <ele>651.43</ele>
        <time>2021-09-18T14:15:46Z</time>
      </trkpt>
      <trkpt lat="44.34777" lon="5.82036">
        <ele>650.95</ele>
        <time>2021-09-18T14:15:47Z</time>
      </trkpt>
      <trkpt lat="44.34774" lon="5.82038">
        <ele>650.95</ele>
        <time>2021-09-18T14:15:48Z</time>
      </trkpt>
      <trkpt lat="44.3476" lon="5.82048">
        <ele>649.51</ele>
        <time>2021-09-18T14:15:56Z</time>
      </trkpt>
      <trkpt lat="44.34758" lon="5.82049">
        <ele>650.95</ele>
        <time>2021-09-18T14:15:57Z</time>
      </trkpt>
      <trkpt lat="44.34757" lon="5.82051">
        <ele>650.95</ele>
        <time>2021-09-18T14:15:58Z</time>
      </trkpt>
      <trkpt lat="44.34755" lon="5.82052">
        <ele>650.95</ele>
        <time>2021-09-18T14:15:59Z</time>
      </trkpt>
      <trkpt lat="44.34753" lon="5.82053">
        <ele>650.95</ele>
        <time>2021-09-18T14:16:00Z</time>
      </trkpt>
      <trkpt lat="44.34749" lon="5.82055">
        <ele>650.95</ele>
        <time>2021-09-18T14:16:03Z</time>
      </trkpt>
      <trkpt lat="44.34748" lon="5.82056">
        <ele>650.95</ele>
        <time>2021-09-18T14:16:04Z</time>
      </trkpt>
      <trkpt lat="44.34746" lon="5.82056">
        <ele>650.95</ele>
        <time>2021-09-18T14:16:05Z</time>
      </trkpt>
      <trkpt lat="44.34741" lon="5.8206">
        <ele>649.99</ele>
        <time>2021-09-18T14:16:17Z</time>
      </trkpt>
      <trkpt lat="44.34736" lon="5.82062">
        <ele>647.1</ele>
        <time>2021-09-18T14:16:31Z</time>
      </trkpt>
      <trkpt lat="44.34732" lon="5.82063">
        <ele>646.62</ele>
        <time>2021-09-18T14:16:52Z</time>
      </trkpt>
      <trkpt lat="44.34733" lon="5.82065">
        <ele>646.14</ele>
        <time>2021-09-18T14:17:10Z</time>
      </trkpt>
      <trkpt lat="44.34732" lon="5.82068">
        <ele>644.7</ele>
        <time>2021-09-18T14:17:24Z</time>
      </trkpt>
      <trkpt lat="44.34731" lon="5.82071">
        <ele>644.7</ele>
        <time>2021-09-18T14:17:39Z</time>
      </trkpt>
      <trkpt lat="44.34729" lon="5.82072">
        <ele>644.7</ele>
        <time>2021-09-18T14:17:55Z</time>
      </trkpt>
      <trkpt lat="44.34724" lon="5.8207">
        <ele>644.22</ele>
        <time>2021-09-18T14:18:12Z</time>
      </trkpt>
      <trkpt lat="44.34721" lon="5.8207">
        <ele>644.22</ele>
        <time>2021-09-18T14:18:25Z</time>
      </trkpt>
      <trkpt lat="44.34721" lon="5.82071">
        <ele>644.22</ele>
        <time>2021-09-18T14:18:33Z</time>
      </trkpt>
      <trkpt lat="44.34718" lon="5.82078">
        <ele>644.22</ele>
        <time>2021-09-18T14:18:45Z</time>
      </trkpt>
      <trkpt lat="44.34717" lon="5.82085">
        <ele>644.22</ele>
        <time>2021-09-18T14:18:52Z</time>
      </trkpt>
      <trkpt lat="44.34717" lon="5.82087">
        <ele>643.74</ele>
        <time>2021-09-18T14:18:53Z</time>
      </trkpt>
      <trkpt lat="44.34717" lon="5.82096">
        <ele>643.74</ele>
        <time>2021-09-18T14:19:06Z</time>
      </trkpt>
      <trkpt lat="44.34718" lon="5.82094">
        <ele>643.26</ele>
        <time>2021-09-18T14:19:26Z</time>
      </trkpt>
      <trkpt lat="44.34717" lon="5.821">
        <ele>643.26</ele>
        <time>2021-09-18T14:19:32Z</time>
      </trkpt>
      <trkpt lat="44.34716" lon="5.82107">
        <ele>644.7</ele>
        <time>2021-09-18T14:19:43Z</time>
      </trkpt>
      <trkpt lat="44.34715" lon="5.82115">
        <ele>644.7</ele>
        <time>2021-09-18T14:19:58Z</time>
      </trkpt>
      <trkpt lat="44.34712" lon="5.8212">
        <ele>644.7</ele>
        <time>2021-09-18T14:20:21Z</time>
      </trkpt>
      <trkpt lat="44.34714" lon="5.82121">
        <ele>643.26</ele>
        <time>2021-09-18T14:20:31Z</time>
      </trkpt>
      <trkpt lat="44.34715" lon="5.82121">
        <ele>644.7</ele>
        <time>2021-09-18T14:20:35Z</time>
      </trkpt>
      <trkpt lat="44.34716" lon="5.8212">
        <ele>643.26</ele>
        <time>2021-09-18T14:20:42Z</time>
      </trkpt>
      <trkpt lat="44.34717" lon="5.82118">
        <ele>644.7</ele>
        <time>2021-09-18T14:20:47Z</time>
      </trkpt>
      <trkpt lat="44.34717" lon="5.82123">
        <ele>642.78</ele>
        <time>2021-09-18T14:20:59Z</time>
      </trkpt>
      <trkpt lat="44.34718" lon="5.82127">
        <ele>642.3</ele>
        <time>2021-09-18T14:21:26Z</time>
      </trkpt>
      <trkpt lat="44.34716" lon="5.82122">
        <ele>642.3</ele>
        <time>2021-09-18T14:22:03Z</time>
      </trkpt>
      <trkpt lat="44.34716" lon="5.82125">
        <ele>636.05</ele>
        <time>2021-09-18T14:22:18Z</time>
      </trkpt>
      <trkpt lat="44.34716" lon="5.82126">
        <ele>646.14</ele>
        <time>2021-09-18T14:22:19Z</time>
      </trkpt>
      <trkpt lat="44.34716" lon="5.82126">
        <ele>646.14</ele>
        <time>2021-09-18T14:22:20Z</time>
      </trkpt>
      <trkpt lat="44.34716" lon="5.82127">
        <ele>642.78</ele>
        <time>2021-09-18T14:22:22Z</time>
      </trkpt>
      <trkpt lat="44.34714" lon="5.82135">
        <ele>642.3</ele>
        <time>2021-09-18T14:22:31Z</time>
      </trkpt>
      <trkpt lat="44.34714" lon="5.82137">
        <ele>642.3</ele>
        <time>2021-09-18T14:22:32Z</time>
      </trkpt>
      <trkpt lat="44.34713" lon="5.82139">
        <ele>642.3</ele>
        <time>2021-09-18T14:22:33Z</time>
      </trkpt>
      <trkpt lat="44.34712" lon="5.8214">
        <ele>642.3</ele>
        <time>2021-09-18T14:22:34Z</time>
      </trkpt>
      <trkpt lat="44.34711" lon="5.82142">
        <ele>642.3</ele>
        <time>2021-09-18T14:22:35Z</time>
      </trkpt>
      <trkpt lat="44.3471" lon="5.82157">
        <ele>641.82</ele>
        <time>2021-09-18T14:22:43Z</time>
      </trkpt>
      <trkpt lat="44.34704" lon="5.82165">
        <ele>641.82</ele>
        <time>2021-09-18T14:22:49Z</time>
      </trkpt>
      <trkpt lat="44.34703" lon="5.82166">
        <ele>641.82</ele>
        <time>2021-09-18T14:22:50Z</time>
      </trkpt>
      <trkpt lat="44.347" lon="5.82165">
        <ele>641.34</ele>
        <time>2021-09-18T14:22:53Z</time>
      </trkpt>
      <trkpt lat="44.34682" lon="5.82155">
        <ele>640.86</ele>
        <time>2021-09-18T14:23:04Z</time>
      </trkpt>
      <trkpt lat="44.34665" lon="5.82153">
        <ele>640.86</ele>
        <time>2021-09-18T14:23:15Z</time>
      </trkpt>
      <trkpt lat="44.34652" lon="5.82152">
        <ele>640.86</ele>
        <time>2021-09-18T14:23:27Z</time>
      </trkpt>
      <trkpt lat="44.34646" lon="5.8215">
        <ele>640.38</ele>
        <time>2021-09-18T14:23:39Z</time>
      </trkpt>
      <trkpt lat="44.34632" lon="5.82164">
        <ele>639.89</ele>
        <time>2021-09-18T14:23:50Z</time>
      </trkpt>
      <trkpt lat="44.34625" lon="5.82174">
        <ele>639.89</ele>
        <time>2021-09-18T14:23:56Z</time>
      </trkpt>
      <trkpt lat="44.3462" lon="5.82186">
        <ele>639.41</ele>
        <time>2021-09-18T14:24:03Z</time>
      </trkpt>
      <trkpt lat="44.34618" lon="5.82188">
        <ele>639.41</ele>
        <time>2021-09-18T14:24:04Z</time>
      </trkpt>
      <trkpt lat="44.34617" lon="5.82189">
        <ele>639.41</ele>
        <time>2021-09-18T14:24:05Z</time>
      </trkpt>
      <trkpt lat="44.34615" lon="5.82191">
        <ele>639.41</ele>
        <time>2021-09-18T14:24:06Z</time>
      </trkpt>
      <trkpt lat="44.34614" lon="5.82192">
        <ele>639.41</ele>
        <time>2021-09-18T14:24:07Z</time>
      </trkpt>
      <trkpt lat="44.34599" lon="5.82202">
        <ele>638.45</ele>
        <time>2021-09-18T14:24:17Z</time>
      </trkpt>
      <trkpt lat="44.34585" lon="5.82219">
        <ele>637.97</ele>
        <time>2021-09-18T14:24:27Z</time>
      </trkpt>
      <trkpt lat="44.34583" lon="5.8222">
        <ele>637.97</ele>
        <time>2021-09-18T14:24:28Z</time>
      </trkpt>
      <trkpt lat="44.34582" lon="5.82222">
        <ele>637.97</ele>
        <time>2021-09-18T14:24:29Z</time>
      </trkpt>
      <trkpt lat="44.34578" lon="5.82226">
        <ele>637.97</ele>
        <time>2021-09-18T14:24:34Z</time>
      </trkpt>
      <trkpt lat="44.34577" lon="5.82227">
        <ele>637.97</ele>
        <time>2021-09-18T14:24:35Z</time>
      </trkpt>
      <trkpt lat="44.34559" lon="5.82239">
        <ele>637.49</ele>
        <time>2021-09-18T14:24:48Z</time>
      </trkpt>
      <trkpt lat="44.34541" lon="5.82259">
        <ele>637.01</ele>
        <time>2021-09-18T14:25:01Z</time>
      </trkpt>
      <trkpt lat="44.3452" lon="5.82263">
        <ele>637.01</ele>
        <time>2021-09-18T14:25:14Z</time>
      </trkpt>
      <trkpt lat="44.345" lon="5.82272">
        <ele>636.05</ele>
        <time>2021-09-18T14:25:27Z</time>
      </trkpt>
      <trkpt lat="44.34499" lon="5.82273">
        <ele>636.05</ele>
        <time>2021-09-18T14:25:28Z</time>
      </trkpt>
      <trkpt lat="44.34498" lon="5.82276">
        <ele>635.57</ele>
        <time>2021-09-18T14:25:41Z</time>
      </trkpt>
      <trkpt lat="44.34494" lon="5.82282">
        <ele>635.57</ele>
        <time>2021-09-18T14:25:53Z</time>
      </trkpt>
      <trkpt lat="44.34485" lon="5.82292">
        <ele>635.57</ele>
        <time>2021-09-18T14:26:07Z</time>
      </trkpt>
      <trkpt lat="44.3448" lon="5.82298">
        <ele>635.09</ele>
        <time>2021-09-18T14:26:16Z</time>
      </trkpt>
      <trkpt lat="44.34479" lon="5.82299">
        <ele>635.09</ele>
        <time>2021-09-18T14:26:17Z</time>
      </trkpt>
      <trkpt lat="44.34477" lon="5.823">
        <ele>635.09</ele>
        <time>2021-09-18T14:26:18Z</time>
      </trkpt>
      <trkpt lat="44.34476" lon="5.82302">
        <ele>635.09</ele>
        <time>2021-09-18T14:26:19Z</time>
      </trkpt>
      <trkpt lat="44.34474" lon="5.82303">
        <ele>635.09</ele>
        <time>2021-09-18T14:26:20Z</time>
      </trkpt>
      <trkpt lat="44.34473" lon="5.82304">
        <ele>635.09</ele>
        <time>2021-09-18T14:26:21Z</time>
      </trkpt>
      <trkpt lat="44.34471" lon="5.82306">
        <ele>635.09</ele>
        <time>2021-09-18T14:26:22Z</time>
      </trkpt>
      <trkpt lat="44.34469" lon="5.82307">
        <ele>634.61</ele>
        <time>2021-09-18T14:26:23Z</time>
      </trkpt>
      <trkpt lat="44.34468" lon="5.82308">
        <ele>634.61</ele>
        <time>2021-09-18T14:26:24Z</time>
      </trkpt>
      <trkpt lat="44.34467" lon="5.82308">
        <ele>634.61</ele>
        <time>2021-09-18T14:26:25Z</time>
      </trkpt>
      <trkpt lat="44.34465" lon="5.82308">
        <ele>634.61</ele>
        <time>2021-09-18T14:26:26Z</time>
      </trkpt>
      <trkpt lat="44.34449" lon="5.82314">
        <ele>634.61</ele>
        <time>2021-09-18T14:26:35Z</time>
      </trkpt>
      <trkpt lat="44.34448" lon="5.82313">
        <ele>634.61</ele>
        <time>2021-09-18T14:26:36Z</time>
      </trkpt>
      <trkpt lat="44.34439" lon="5.82312">
        <ele>634.13</ele>
        <time>2021-09-18T14:26:48Z</time>
      </trkpt>
      <trkpt lat="44.34431" lon="5.8231">
        <ele>633.65</ele>
        <time>2021-09-18T14:26:57Z</time>
      </trkpt>
      <trkpt lat="44.34425" lon="5.8231">
        <ele>633.17</ele>
        <time>2021-09-18T14:27:13Z</time>
      </trkpt>
      <trkpt lat="44.34425" lon="5.82309">
        <ele>634.13</ele>
        <time>2021-09-18T14:27:21Z</time>
      </trkpt>
      <trkpt lat="44.34421" lon="5.82309">
        <ele>634.13</ele>
        <time>2021-09-18T14:27:37Z</time>
      </trkpt>
      <trkpt lat="44.3442" lon="5.82307">
        <ele>634.13</ele>
        <time>2021-09-18T14:27:49Z</time>
      </trkpt>
      <trkpt lat="44.34419" lon="5.82296">
        <ele>636.05</ele>
        <time>2021-09-18T14:28:03Z</time>
      </trkpt>
      <trkpt lat="44.34419" lon="5.82291">
        <ele>636.53</ele>
        <time>2021-09-18T14:28:19Z</time>
      </trkpt>
      <trkpt lat="44.34417" lon="5.82285">
        <ele>637.97</ele>
        <time>2021-09-18T14:28:35Z</time>
      </trkpt>
      <trkpt lat="44.34415" lon="5.82284">
        <ele>638.93</ele>
        <time>2021-09-18T14:28:54Z</time>
      </trkpt>
      <trkpt lat="44.34415" lon="5.82285">
        <ele>638.45</ele>
        <time>2021-09-18T14:29:20Z</time>
      </trkpt>
      <trkpt lat="44.34414" lon="5.82281">
        <ele>638.45</ele>
        <time>2021-09-18T14:29:47Z</time>
      </trkpt>
      <trkpt lat="44.34416" lon="5.82275">
        <ele>639.89</ele>
        <time>2021-09-18T14:30:01Z</time>
      </trkpt>
      <trkpt lat="44.34422" lon="5.82262">
        <ele>641.34</ele>
        <time>2021-09-18T14:30:16Z</time>
      </trkpt>
      <trkpt lat="44.34424" lon="5.82258">
        <ele>642.3</ele>
        <time>2021-09-18T14:30:30Z</time>
      </trkpt>
      <trkpt lat="44.34426" lon="5.82258">
        <ele>638.93</ele>
        <time>2021-09-18T14:30:38Z</time>
      </trkpt>
      <trkpt lat="44.34426" lon="5.82258">
        <ele>642.78</ele>
        <time>2021-09-18T14:30:41Z</time>
      </trkpt>
      <trkpt lat="44.34427" lon="5.82258">
        <ele>642.78</ele>
        <time>2021-09-18T14:30:42Z</time>
      </trkpt>
      <trkpt lat="44.34426" lon="5.82259">
        <ele>646.14</ele>
        <time>2021-09-18T14:30:53Z</time>
      </trkpt>
      <trkpt lat="44.34426" lon="5.82259">
        <ele>644.22</ele>
        <time>2021-09-18T14:30:54Z</time>
      </trkpt>
      <trkpt lat="44.34426" lon="5.82258">
        <ele>641.82</ele>
        <time>2021-09-18T14:30:57Z</time>
      </trkpt>
      <trkpt lat="44.34424" lon="5.82255">
        <ele>641.82</ele>
        <time>2021-09-18T14:31:12Z</time>
      </trkpt>
      <trkpt lat="44.34422" lon="5.82229">
        <ele>643.26</ele>
        <time>2021-09-18T14:31:23Z</time>
      </trkpt>
      <trkpt lat="44.34422" lon="5.82224">
        <ele>643.26</ele>
        <time>2021-09-18T14:31:28Z</time>
      </trkpt>
      <trkpt lat="44.34422" lon="5.82216">
        <ele>643.74</ele>
        <time>2021-09-18T14:31:33Z</time>
      </trkpt>
      <trkpt lat="44.34422" lon="5.82181">
        <ele>645.66</ele>
        <time>2021-09-18T14:31:49Z</time>
      </trkpt>
      <trkpt lat="44.34433" lon="5.8214">
        <ele>647.1</ele>
        <time>2021-09-18T14:32:08Z</time>
      </trkpt>
      <trkpt lat="44.3444" lon="5.82103">
        <ele>649.03</ele>
        <time>2021-09-18T14:32:24Z</time>
      </trkpt>
      <trkpt lat="44.34453" lon="5.82074">
        <ele>649.99</ele>
        <time>2021-09-18T14:32:38Z</time>
      </trkpt>
      <trkpt lat="44.34468" lon="5.82046">
        <ele>652.39</ele>
        <time>2021-09-18T14:32:52Z</time>
      </trkpt>
      <trkpt lat="44.34478" lon="5.82005">
        <ele>654.31</ele>
        <time>2021-09-18T14:33:09Z</time>
      </trkpt>
      <trkpt lat="44.34494" lon="5.81979">
        <ele>656.24</ele>
        <time>2021-09-18T14:33:24Z</time>
      </trkpt>
      <trkpt lat="44.34523" lon="5.81972">
        <ele>658.64</ele>
        <time>2021-09-18T14:33:42Z</time>
      </trkpt>
      <trkpt lat="44.3454" lon="5.81956">
        <ele>662.01</ele>
        <time>2021-09-18T14:33:55Z</time>
      </trkpt>
      <trkpt lat="44.34551" lon="5.81909">
        <ele>663.93</ele>
        <time>2021-09-18T14:34:14Z</time>
      </trkpt>
      <trkpt lat="44.34563" lon="5.81857">
        <ele>664.89</ele>
        <time>2021-09-18T14:34:33Z</time>
      </trkpt>
      <trkpt lat="44.34585" lon="5.81816">
        <ele>666.81</ele>
        <time>2021-09-18T14:34:50Z</time>
      </trkpt>
      <trkpt lat="44.346" lon="5.81778">
        <ele>668.25</ele>
        <time>2021-09-18T14:35:05Z</time>
      </trkpt>
      <trkpt lat="44.34609" lon="5.81729">
        <ele>669.7</ele>
        <time>2021-09-18T14:35:22Z</time>
      </trkpt>
      <trkpt lat="44.3461" lon="5.81681">
        <ele>671.14</ele>
        <time>2021-09-18T14:35:39Z</time>
      </trkpt>
      <trkpt lat="44.34605" lon="5.81658">
        <ele>671.62</ele>
        <time>2021-09-18T14:35:54Z</time>
      </trkpt>
      <trkpt lat="44.34605" lon="5.81657">
        <ele>671.62</ele>
        <time>2021-09-18T14:36:26Z</time>
      </trkpt>
      <trkpt lat="44.34605" lon="5.81658">
        <ele>671.62</ele>
        <time>2021-09-18T14:36:51Z</time>
      </trkpt>
      <trkpt lat="44.34605" lon="5.81657">
        <ele>671.62</ele>
        <time>2021-09-18T14:37:01Z</time>
      </trkpt>
      <trkpt lat="44.34601" lon="5.8165">
        <ele>671.62</ele>
        <time>2021-09-18T14:37:05Z</time>
      </trkpt>
      <trkpt lat="44.3459" lon="5.81607">
        <ele>671.62</ele>
        <time>2021-09-18T14:37:22Z</time>
      </trkpt>
      <trkpt lat="44.34595" lon="5.81557">
        <ele>671.62</ele>
        <time>2021-09-18T14:37:37Z</time>
      </trkpt>
      <trkpt lat="44.3459" lon="5.81508">
        <ele>671.62</ele>
        <time>2021-09-18T14:37:50Z</time>
      </trkpt>
      <trkpt lat="44.34559" lon="5.81496">
        <ele>671.62</ele>
        <time>2021-09-18T14:38:03Z</time>
      </trkpt>
      <trkpt lat="44.34526" lon="5.81491">
        <ele>673.06</ele>
        <time>2021-09-18T14:38:17Z</time>
      </trkpt>
      <trkpt lat="44.34485" lon="5.81486">
        <ele>675.46</ele>
        <time>2021-09-18T14:38:33Z</time>
      </trkpt>
      <trkpt lat="44.34445" lon="5.81498">
        <ele>676.91</ele>
        <time>2021-09-18T14:38:48Z</time>
      </trkpt>
      <trkpt lat="44.34407" lon="5.8151">
        <ele>680.27</ele>
        <time>2021-09-18T14:39:04Z</time>
      </trkpt>
      <trkpt lat="44.34366" lon="5.81485">
        <ele>681.71</ele>
        <time>2021-09-18T14:39:22Z</time>
      </trkpt>
      <trkpt lat="44.34335" lon="5.81445">
        <ele>684.12</ele>
        <time>2021-09-18T14:39:39Z</time>
      </trkpt>
      <trkpt lat="44.3431" lon="5.81403">
        <ele>687</ele>
        <time>2021-09-18T14:39:55Z</time>
      </trkpt>
      <trkpt lat="44.34279" lon="5.81361">
        <ele>687.96</ele>
        <time>2021-09-18T14:40:10Z</time>
      </trkpt>
      <trkpt lat="44.34264" lon="5.81363">
        <ele>687.96</ele>
        <time>2021-09-18T14:40:21Z</time>
      </trkpt>
      <trkpt lat="44.34264" lon="5.81362">
        <ele>687.96</ele>
        <time>2021-09-18T14:40:45Z</time>
      </trkpt>
      <trkpt lat="44.34265" lon="5.81361">
        <ele>687.96</ele>
        <time>2021-09-18T14:41:11Z</time>
      </trkpt>
      <trkpt lat="44.34262" lon="5.81363">
        <ele>687.96</ele>
        <time>2021-09-18T14:41:42Z</time>
      </trkpt>
      <trkpt lat="44.34262" lon="5.81363">
        <ele>687</ele>
        <time>2021-09-18T14:41:48Z</time>
      </trkpt>
      <trkpt lat="44.34262" lon="5.81363">
        <ele>688.44</ele>
        <time>2021-09-18T14:41:50Z</time>
      </trkpt>
      <trkpt lat="44.34263" lon="5.81361">
        <ele>687.96</ele>
        <time>2021-09-18T14:42:22Z</time>
      </trkpt>
      <trkpt lat="44.3426" lon="5.81365">
        <ele>687.96</ele>
        <time>2021-09-18T14:43:04Z</time>
      </trkpt>
      <trkpt lat="44.34266" lon="5.8136">
        <ele>687.96</ele>
        <time>2021-09-18T14:43:54Z</time>
      </trkpt>
      <trkpt lat="44.34266" lon="5.81362">
        <ele>687.96</ele>
        <time>2021-09-18T14:44:22Z</time>
      </trkpt>
      <trkpt lat="44.34262" lon="5.81365">
        <ele>687.96</ele>
        <time>2021-09-18T14:44:50Z</time>
      </trkpt>
      <trkpt lat="44.34245" lon="5.81396">
        <ele>684.6</ele>
        <time>2021-09-18T14:44:58Z</time>
      </trkpt>
      <trkpt lat="44.34237" lon="5.81415">
        <ele>681.23</ele>
        <time>2021-09-18T14:45:01Z</time>
      </trkpt>
      <trkpt lat="44.34231" lon="5.81428">
        <ele>680.75</ele>
        <time>2021-09-18T14:45:03Z</time>
      </trkpt>
      <trkpt lat="44.34227" lon="5.81434">
        <ele>678.83</ele>
        <time>2021-09-18T14:45:04Z</time>
      </trkpt>
      <trkpt lat="44.34222" lon="5.81439">
        <ele>678.35</ele>
        <time>2021-09-18T14:45:05Z</time>
      </trkpt>
      <trkpt lat="44.34201" lon="5.81462">
        <ele>673.06</ele>
        <time>2021-09-18T14:45:09Z</time>
      </trkpt>
      <trkpt lat="44.34196" lon="5.81467">
        <ele>673.06</ele>
        <time>2021-09-18T14:45:10Z</time>
      </trkpt>
      <trkpt lat="44.34191" lon="5.81473">
        <ele>671.14</ele>
        <time>2021-09-18T14:45:11Z</time>
      </trkpt>
      <trkpt lat="44.34187" lon="5.81479">
        <ele>670.66</ele>
        <time>2021-09-18T14:45:12Z</time>
      </trkpt>
      <trkpt lat="44.34185" lon="5.81486">
        <ele>669.7</ele>
        <time>2021-09-18T14:45:13Z</time>
      </trkpt>
      <trkpt lat="44.34184" lon="5.81493">
        <ele>669.7</ele>
        <time>2021-09-18T14:45:14Z</time>
      </trkpt>
      <trkpt lat="44.34184" lon="5.81501">
        <ele>668.73</ele>
        <time>2021-09-18T14:45:15Z</time>
      </trkpt>
      <trkpt lat="44.34182" lon="5.81508">
        <ele>667.29</ele>
        <time>2021-09-18T14:45:16Z</time>
      </trkpt>
      <trkpt lat="44.34179" lon="5.81514">
        <ele>667.29</ele>
        <time>2021-09-18T14:45:17Z</time>
      </trkpt>
      <trkpt lat="44.34175" lon="5.8152">
        <ele>665.37</ele>
        <time>2021-09-18T14:45:18Z</time>
      </trkpt>
      <trkpt lat="44.34171" lon="5.81526">
        <ele>665.37</ele>
        <time>2021-09-18T14:45:19Z</time>
      </trkpt>
      <trkpt lat="44.34166" lon="5.81531">
        <ele>664.41</ele>
        <time>2021-09-18T14:45:20Z</time>
      </trkpt>
      <trkpt lat="44.34156" lon="5.81539">
        <ele>661.52</ele>
        <time>2021-09-18T14:45:22Z</time>
      </trkpt>
      <trkpt lat="44.3415" lon="5.81542">
        <ele>661.52</ele>
        <time>2021-09-18T14:45:23Z</time>
      </trkpt>
      <trkpt lat="44.34144" lon="5.81541">
        <ele>660.08</ele>
        <time>2021-09-18T14:45:24Z</time>
      </trkpt>
      <trkpt lat="44.34137" lon="5.81538">
        <ele>659.6</ele>
        <time>2021-09-18T14:45:25Z</time>
      </trkpt>
      <trkpt lat="44.34131" lon="5.81536">
        <ele>659.6</ele>
        <time>2021-09-18T14:45:26Z</time>
      </trkpt>
      <trkpt lat="44.34124" lon="5.81534">
        <ele>657.68</ele>
        <time>2021-09-18T14:45:27Z</time>
      </trkpt>
      <trkpt lat="44.34118" lon="5.81533">
        <ele>657.68</ele>
        <time>2021-09-18T14:45:28Z</time>
      </trkpt>
      <trkpt lat="44.34112" lon="5.81534">
        <ele>657.2</ele>
        <time>2021-09-18T14:45:29Z</time>
      </trkpt>
      <trkpt lat="44.34106" lon="5.81537">
        <ele>657.2</ele>
        <time>2021-09-18T14:45:30Z</time>
      </trkpt>
      <trkpt lat="44.34102" lon="5.81544">
        <ele>656.24</ele>
        <time>2021-09-18T14:45:31Z</time>
      </trkpt>
      <trkpt lat="44.34098" lon="5.81551">
        <ele>654.31</ele>
        <time>2021-09-18T14:45:32Z</time>
      </trkpt>
      <trkpt lat="44.34094" lon="5.81559">
        <ele>654.31</ele>
        <time>2021-09-18T14:45:33Z</time>
      </trkpt>
      <trkpt lat="44.34091" lon="5.81566">
        <ele>654.31</ele>
        <time>2021-09-18T14:45:34Z</time>
      </trkpt>
      <trkpt lat="44.34087" lon="5.81572">
        <ele>654.31</ele>
        <time>2021-09-18T14:45:35Z</time>
      </trkpt>
      <trkpt lat="44.34081" lon="5.81577">
        <ele>653.35</ele>
        <time>2021-09-18T14:45:36Z</time>
      </trkpt>
      <trkpt lat="44.34074" lon="5.81581">
        <ele>651.91</ele>
        <time>2021-09-18T14:45:37Z</time>
      </trkpt>
      <trkpt lat="44.34067" lon="5.81584">
        <ele>650.95</ele>
        <time>2021-09-18T14:45:38Z</time>
      </trkpt>
      <trkpt lat="44.34061" lon="5.81588">
        <ele>649.99</ele>
        <time>2021-09-18T14:45:39Z</time>
      </trkpt>
      <trkpt lat="44.34054" lon="5.81593">
        <ele>649.03</ele>
        <time>2021-09-18T14:45:40Z</time>
      </trkpt>
      <trkpt lat="44.34049" lon="5.81598">
        <ele>649.03</ele>
        <time>2021-09-18T14:45:41Z</time>
      </trkpt>
      <trkpt lat="44.34045" lon="5.81605">
        <ele>648.55</ele>
        <time>2021-09-18T14:45:42Z</time>
      </trkpt>
      <trkpt lat="44.3403" lon="5.81634">
        <ele>648.07</ele>
        <time>2021-09-18T14:45:46Z</time>
      </trkpt>
      <trkpt lat="44.34029" lon="5.81642">
        <ele>648.07</ele>
        <time>2021-09-18T14:45:47Z</time>
      </trkpt>
      <trkpt lat="44.34029" lon="5.81651">
        <ele>646.62</ele>
        <time>2021-09-18T14:45:48Z</time>
      </trkpt>
      <trkpt lat="44.3403" lon="5.81659">
        <ele>646.62</ele>
        <time>2021-09-18T14:45:49Z</time>
      </trkpt>
      <trkpt lat="44.34032" lon="5.81668">
        <ele>645.66</ele>
        <time>2021-09-18T14:45:50Z</time>
      </trkpt>
      <trkpt lat="44.34033" lon="5.81677">
        <ele>643.26</ele>
        <time>2021-09-18T14:45:51Z</time>
      </trkpt>
      <trkpt lat="44.34033" lon="5.81686">
        <ele>642.3</ele>
        <time>2021-09-18T14:45:52Z</time>
      </trkpt>
      <trkpt lat="44.34032" lon="5.81693">
        <ele>640.86</ele>
        <time>2021-09-18T14:45:53Z</time>
      </trkpt>
      <trkpt lat="44.34029" lon="5.81699">
        <ele>640.86</ele>
        <time>2021-09-18T14:45:54Z</time>
      </trkpt>
      <trkpt lat="44.34025" lon="5.81702">
        <ele>640.86</ele>
        <time>2021-09-18T14:45:55Z</time>
      </trkpt>
      <trkpt lat="44.34021" lon="5.81704">
        <ele>640.86</ele>
        <time>2021-09-18T14:45:56Z</time>
      </trkpt>
      <trkpt lat="44.34016" lon="5.81705">
        <ele>639.89</ele>
        <time>2021-09-18T14:45:57Z</time>
      </trkpt>
      <trkpt lat="44.34011" lon="5.81707">
        <ele>639.41</ele>
        <time>2021-09-18T14:45:58Z</time>
      </trkpt>
      <trkpt lat="44.34007" lon="5.81711">
        <ele>638.93</ele>
        <time>2021-09-18T14:45:59Z</time>
      </trkpt>
      <trkpt lat="44.34003" lon="5.81714">
        <ele>638.93</ele>
        <time>2021-09-18T14:46:00Z</time>
      </trkpt>
      <trkpt lat="44.33984" lon="5.8174">
        <ele>639.89</ele>
        <time>2021-09-18T14:46:10Z</time>
      </trkpt>
      <trkpt lat="44.33983" lon="5.81741">
        <ele>640.38</ele>
        <time>2021-09-18T14:46:11Z</time>
      </trkpt>
      <trkpt lat="44.33964" lon="5.81777">
        <ele>639.89</ele>
        <time>2021-09-18T14:46:23Z</time>
      </trkpt>
      <trkpt lat="44.3396" lon="5.81775">
        <ele>639.89</ele>
        <time>2021-09-18T14:46:24Z</time>
      </trkpt>
      <trkpt lat="44.33959" lon="5.81774">
        <ele>639.89</ele>
        <time>2021-09-18T14:46:25Z</time>
      </trkpt>
      <trkpt lat="44.3395" lon="5.81755">
        <ele>638.45</ele>
        <time>2021-09-18T14:46:30Z</time>
      </trkpt>
      <trkpt lat="44.3394" lon="5.81735">
        <ele>637.97</ele>
        <time>2021-09-18T14:46:34Z</time>
      </trkpt>
      <trkpt lat="44.33908" lon="5.8167">
        <ele>637.49</ele>
        <time>2021-09-18T14:46:48Z</time>
      </trkpt>
      <trkpt lat="44.33905" lon="5.81661">
        <ele>637.01</ele>
        <time>2021-09-18T14:46:50Z</time>
      </trkpt>
      <trkpt lat="44.33902" lon="5.81658">
        <ele>637.01</ele>
        <time>2021-09-18T14:46:51Z</time>
      </trkpt>
      <trkpt lat="44.33888" lon="5.8164">
        <ele>638.45</ele>
        <time>2021-09-18T14:46:56Z</time>
      </trkpt>
      <trkpt lat="44.33847" lon="5.81637">
        <ele>638.45</ele>
        <time>2021-09-18T14:47:08Z</time>
      </trkpt>
      <trkpt lat="44.33838" lon="5.81645">
        <ele>638.45</ele>
        <time>2021-09-18T14:47:11Z</time>
      </trkpt>
      <trkpt lat="44.33834" lon="5.81654">
        <ele>638.45</ele>
        <time>2021-09-18T14:47:13Z</time>
      </trkpt>
      <trkpt lat="44.33829" lon="5.81664">
        <ele>637.49</ele>
        <time>2021-09-18T14:47:15Z</time>
      </trkpt>
      <trkpt lat="44.33826" lon="5.81669">
        <ele>637.49</ele>
        <time>2021-09-18T14:47:16Z</time>
      </trkpt>
      <trkpt lat="44.33812" lon="5.81691">
        <ele>636.53</ele>
        <time>2021-09-18T14:47:21Z</time>
      </trkpt>
      <trkpt lat="44.33806" lon="5.81699">
        <ele>636.05</ele>
        <time>2021-09-18T14:47:23Z</time>
      </trkpt>
      <trkpt lat="44.33802" lon="5.81702">
        <ele>636.05</ele>
        <time>2021-09-18T14:47:24Z</time>
      </trkpt>
      <trkpt lat="44.33798" lon="5.81705">
        <ele>636.05</ele>
        <time>2021-09-18T14:47:25Z</time>
      </trkpt>
      <trkpt lat="44.33794" lon="5.81706">
        <ele>636.05</ele>
        <time>2021-09-18T14:47:26Z</time>
      </trkpt>
      <trkpt lat="44.3379" lon="5.81704">
        <ele>636.05</ele>
        <time>2021-09-18T14:47:27Z</time>
      </trkpt>
      <trkpt lat="44.33787" lon="5.81701">
        <ele>636.05</ele>
        <time>2021-09-18T14:47:28Z</time>
      </trkpt>
      <trkpt lat="44.33785" lon="5.81696">
        <ele>636.05</ele>
        <time>2021-09-18T14:47:29Z</time>
      </trkpt>
      <trkpt lat="44.33783" lon="5.81691">
        <ele>636.05</ele>
        <time>2021-09-18T14:47:30Z</time>
      </trkpt>
      <trkpt lat="44.33781" lon="5.81686">
        <ele>636.05</ele>
        <time>2021-09-18T14:47:31Z</time>
      </trkpt>
      <trkpt lat="44.3378" lon="5.8168">
        <ele>636.05</ele>
        <time>2021-09-18T14:47:32Z</time>
      </trkpt>
      <trkpt lat="44.33763" lon="5.81609">
        <ele>633.17</ele>
        <time>2021-09-18T14:47:41Z</time>
      </trkpt>
      <trkpt lat="44.3376" lon="5.81599">
        <ele>632.2</ele>
        <time>2021-09-18T14:47:42Z</time>
      </trkpt>
      <trkpt lat="44.33752" lon="5.81579">
        <ele>630.76</ele>
        <time>2021-09-18T14:47:44Z</time>
      </trkpt>
      <trkpt lat="44.33747" lon="5.81571">
        <ele>630.76</ele>
        <time>2021-09-18T14:47:45Z</time>
      </trkpt>
      <trkpt lat="44.33709" lon="5.81489">
        <ele>630.28</ele>
        <time>2021-09-18T14:47:56Z</time>
      </trkpt>
      <trkpt lat="44.33705" lon="5.8147">
        <ele>631.24</ele>
        <time>2021-09-18T14:47:59Z</time>
      </trkpt>
      <trkpt lat="44.33703" lon="5.81464">
        <ele>631.24</ele>
        <time>2021-09-18T14:48:00Z</time>
      </trkpt>
      <trkpt lat="44.33682" lon="5.81388">
        <ele>632.68</ele>
        <time>2021-09-18T14:48:12Z</time>
      </trkpt>
      <trkpt lat="44.33649" lon="5.81325">
        <ele>635.09</ele>
        <time>2021-09-18T14:48:25Z</time>
      </trkpt>
      <trkpt lat="44.33645" lon="5.81321">
        <ele>635.09</ele>
        <time>2021-09-18T14:48:26Z</time>
      </trkpt>
      <trkpt lat="44.33628" lon="5.81301">
        <ele>635.09</ele>
        <time>2021-09-18T14:48:31Z</time>
      </trkpt>
      <trkpt lat="44.33625" lon="5.81296">
        <ele>635.09</ele>
        <time>2021-09-18T14:48:32Z</time>
      </trkpt>
      <trkpt lat="44.33622" lon="5.81292">
        <ele>635.57</ele>
        <time>2021-09-18T14:48:33Z</time>
      </trkpt>
      <trkpt lat="44.3362" lon="5.81286">
        <ele>635.57</ele>
        <time>2021-09-18T14:48:34Z</time>
      </trkpt>
      <trkpt lat="44.33619" lon="5.81281">
        <ele>635.57</ele>
        <time>2021-09-18T14:48:35Z</time>
      </trkpt>
      <trkpt lat="44.33617" lon="5.81276">
        <ele>635.57</ele>
        <time>2021-09-18T14:48:36Z</time>
      </trkpt>
      <trkpt lat="44.33599" lon="5.81203">
        <ele>637.01</ele>
        <time>2021-09-18T14:48:50Z</time>
      </trkpt>
      <trkpt lat="44.3359" lon="5.81144">
        <ele>638.45</ele>
        <time>2021-09-18T14:49:02Z</time>
      </trkpt>
      <trkpt lat="44.33581" lon="5.81089">
        <ele>639.41</ele>
        <time>2021-09-18T14:49:15Z</time>
      </trkpt>
      <trkpt lat="44.33571" lon="5.81034">
        <ele>642.3</ele>
        <time>2021-09-18T14:49:30Z</time>
      </trkpt>
      <trkpt lat="44.33566" lon="5.80996">
        <ele>645.18</ele>
        <time>2021-09-18T14:49:41Z</time>
      </trkpt>
      <trkpt lat="44.33559" lon="5.80958">
        <ele>648.07</ele>
        <time>2021-09-18T14:49:52Z</time>
      </trkpt>
      <trkpt lat="44.33551" lon="5.80906">
        <ele>650.47</ele>
        <time>2021-09-18T14:50:07Z</time>
      </trkpt>
      <trkpt lat="44.33568" lon="5.80863">
        <ele>652.39</ele>
        <time>2021-09-18T14:50:20Z</time>
      </trkpt>
      <trkpt lat="44.33574" lon="5.8081">
        <ele>653.35</ele>
        <time>2021-09-18T14:50:35Z</time>
      </trkpt>
      <trkpt lat="44.33563" lon="5.80753">
        <ele>654.8</ele>
        <time>2021-09-18T14:50:51Z</time>
      </trkpt>
      <trkpt lat="44.3357" lon="5.80719">
        <ele>655.76</ele>
        <time>2021-09-18T14:51:06Z</time>
      </trkpt>
      <trkpt lat="44.3357" lon="5.80717">
        <ele>655.76</ele>
        <time>2021-09-18T14:51:07Z</time>
      </trkpt>
      <trkpt lat="44.33571" lon="5.80714">
        <ele>655.76</ele>
        <time>2021-09-18T14:51:08Z</time>
      </trkpt>
      <trkpt lat="44.33571" lon="5.80712">
        <ele>656.24</ele>
        <time>2021-09-18T14:51:09Z</time>
      </trkpt>
      <trkpt lat="44.33572" lon="5.80709">
        <ele>656.24</ele>
        <time>2021-09-18T14:51:10Z</time>
      </trkpt>
      <trkpt lat="44.33573" lon="5.80706">
        <ele>656.24</ele>
        <time>2021-09-18T14:51:11Z</time>
      </trkpt>
      <trkpt lat="44.33574" lon="5.80703">
        <ele>656.24</ele>
        <time>2021-09-18T14:51:12Z</time>
      </trkpt>
      <trkpt lat="44.3359" lon="5.8067">
        <ele>659.12</ele>
        <time>2021-09-18T14:51:27Z</time>
      </trkpt>
      <trkpt lat="44.33589" lon="5.80667">
        <ele>659.12</ele>
        <time>2021-09-18T14:51:41Z</time>
      </trkpt>
      <trkpt lat="44.33589" lon="5.80667">
        <ele>659.6</ele>
        <time>2021-09-18T14:52:10Z</time>
      </trkpt>
      <trkpt lat="44.33588" lon="5.80665">
        <ele>659.12</ele>
        <time>2021-09-18T14:52:38Z</time>
      </trkpt>
      <trkpt lat="44.33589" lon="5.80666">
        <ele>659.12</ele>
        <time>2021-09-18T14:53:10Z</time>
      </trkpt>
      <trkpt lat="44.3359" lon="5.80666">
        <ele>659.12</ele>
        <time>2021-09-18T14:53:36Z</time>
      </trkpt>
      <trkpt lat="44.3359" lon="5.80665">
        <ele>659.12</ele>
        <time>2021-09-18T14:54:10Z</time>
      </trkpt>
      <trkpt lat="44.33589" lon="5.80666">
        <ele>659.12</ele>
        <time>2021-09-18T14:54:44Z</time>
      </trkpt>
      <trkpt lat="44.33588" lon="5.80666">
        <ele>659.12</ele>
        <time>2021-09-18T14:55:13Z</time>
      </trkpt>
      <trkpt lat="44.33586" lon="5.80666">
        <ele>659.12</ele>
        <time>2021-09-18T14:55:40Z</time>
      </trkpt>
      <trkpt lat="44.33585" lon="5.80663">
        <ele>659.12</ele>
        <time>2021-09-18T14:55:47Z</time>
      </trkpt>
      <trkpt lat="44.33584" lon="5.80662">
        <ele>659.12</ele>
        <time>2021-09-18T14:55:48Z</time>
      </trkpt>
      <trkpt lat="44.33584" lon="5.8066">
        <ele>659.12</ele>
        <time>2021-09-18T14:55:49Z</time>
      </trkpt>
      <trkpt lat="44.33584" lon="5.80659">
        <ele>659.6</ele>
        <time>2021-09-18T14:55:50Z</time>
      </trkpt>
      <trkpt lat="44.33584" lon="5.80658">
        <ele>659.6</ele>
        <time>2021-09-18T14:55:51Z</time>
      </trkpt>
      <trkpt lat="44.33583" lon="5.80657">
        <ele>659.6</ele>
        <time>2021-09-18T14:55:52Z</time>
      </trkpt>
      <trkpt lat="44.33581" lon="5.80657">
        <ele>659.6</ele>
        <time>2021-09-18T14:55:53Z</time>
      </trkpt>
      <trkpt lat="44.3358" lon="5.80656">
        <ele>660.08</ele>
        <time>2021-09-18T14:55:54Z</time>
      </trkpt>
      <trkpt lat="44.33579" lon="5.80656">
        <ele>660.08</ele>
        <time>2021-09-18T14:55:55Z</time>
      </trkpt>
      <trkpt lat="44.33577" lon="5.80656">
        <ele>660.08</ele>
        <time>2021-09-18T14:55:56Z</time>
      </trkpt>
      <trkpt lat="44.33575" lon="5.80656">
        <ele>660.08</ele>
        <time>2021-09-18T14:55:57Z</time>
      </trkpt>
      <trkpt lat="44.33573" lon="5.80655">
        <ele>660.08</ele>
        <time>2021-09-18T14:55:58Z</time>
      </trkpt>
      <trkpt lat="44.33541" lon="5.8065">
        <ele>661.04</ele>
        <time>2021-09-18T14:56:13Z</time>
      </trkpt>
      <trkpt lat="44.33493" lon="5.80637">
        <ele>662.49</ele>
        <time>2021-09-18T14:56:32Z</time>
      </trkpt>
      <trkpt lat="44.33454" lon="5.80628">
        <ele>662.49</ele>
        <time>2021-09-18T14:56:45Z</time>
      </trkpt>
      <trkpt lat="44.3341" lon="5.80616">
        <ele>662.49</ele>
        <time>2021-09-18T14:56:57Z</time>
      </trkpt>
      <trkpt lat="44.334" lon="5.8061">
        <ele>662.49</ele>
        <time>2021-09-18T14:57:00Z</time>
      </trkpt>
      <trkpt lat="44.33398" lon="5.80606">
        <ele>662.49</ele>
        <time>2021-09-18T14:57:01Z</time>
      </trkpt>
      <trkpt lat="44.33398" lon="5.80601">
        <ele>662.49</ele>
        <time>2021-09-18T14:57:02Z</time>
      </trkpt>
      <trkpt lat="44.33396" lon="5.80536">
        <ele>665.37</ele>
        <time>2021-09-18T14:57:18Z</time>
      </trkpt>
      <trkpt lat="44.33384" lon="5.80483">
        <ele>667.29</ele>
        <time>2021-09-18T14:57:32Z</time>
      </trkpt>
      <trkpt lat="44.33356" lon="5.80439">
        <ele>668.25</ele>
        <time>2021-09-18T14:57:46Z</time>
      </trkpt>
      <trkpt lat="44.33325" lon="5.80386">
        <ele>670.18</ele>
        <time>2021-09-18T14:58:02Z</time>
      </trkpt>
      <trkpt lat="44.33289" lon="5.80337">
        <ele>671.62</ele>
        <time>2021-09-18T14:58:18Z</time>
      </trkpt>
      <trkpt lat="44.33255" lon="5.80269">
        <ele>674.02</ele>
        <time>2021-09-18T14:58:39Z</time>
      </trkpt>
      <trkpt lat="44.33255" lon="5.80266">
        <ele>674.02</ele>
        <time>2021-09-18T14:58:40Z</time>
      </trkpt>
      <trkpt lat="44.33256" lon="5.80264">
        <ele>674.5</ele>
        <time>2021-09-18T14:58:41Z</time>
      </trkpt>
      <trkpt lat="44.33257" lon="5.80262">
        <ele>674.5</ele>
        <time>2021-09-18T14:58:42Z</time>
      </trkpt>
      <trkpt lat="44.33258" lon="5.8026">
        <ele>674.98</ele>
        <time>2021-09-18T14:58:43Z</time>
      </trkpt>
      <trkpt lat="44.33259" lon="5.80258">
        <ele>674.98</ele>
        <time>2021-09-18T14:58:44Z</time>
      </trkpt>
      <trkpt lat="44.3326" lon="5.80256">
        <ele>674.98</ele>
        <time>2021-09-18T14:58:45Z</time>
      </trkpt>
      <trkpt lat="44.33262" lon="5.80254">
        <ele>675.46</ele>
        <time>2021-09-18T14:58:46Z</time>
      </trkpt>
      <trkpt lat="44.33263" lon="5.80252">
        <ele>675.46</ele>
        <time>2021-09-18T14:58:47Z</time>
      </trkpt>
      <trkpt lat="44.33279" lon="5.80224">
        <ele>678.35</ele>
        <time>2021-09-18T14:59:01Z</time>
      </trkpt>
      <trkpt lat="44.33298" lon="5.80194">
        <ele>681.71</ele>
        <time>2021-09-18T14:59:17Z</time>
      </trkpt>
      <trkpt lat="44.33317" lon="5.80166">
        <ele>685.08</ele>
        <time>2021-09-18T14:59:32Z</time>
      </trkpt>
      <trkpt lat="44.33339" lon="5.80156">
        <ele>688.44</ele>
        <time>2021-09-18T14:59:47Z</time>
      </trkpt>
      <trkpt lat="44.33364" lon="5.80155">
        <ele>691.81</ele>
        <time>2021-09-18T15:00:03Z</time>
      </trkpt>
      <trkpt lat="44.3339" lon="5.80165">
        <ele>694.21</ele>
        <time>2021-09-18T15:00:18Z</time>
      </trkpt>
      <trkpt lat="44.33407" lon="5.80191">
        <ele>695.65</ele>
        <time>2021-09-18T15:00:32Z</time>
      </trkpt>
      <trkpt lat="44.3343" lon="5.80189">
        <ele>698.53</ele>
        <time>2021-09-18T15:00:46Z</time>
      </trkpt>
      <trkpt lat="44.33437" lon="5.80179">
        <ele>699.02</ele>
        <time>2021-09-18T15:00:52Z</time>
      </trkpt>
      <trkpt lat="44.33439" lon="5.80177">
        <ele>699.02</ele>
        <time>2021-09-18T15:00:53Z</time>
      </trkpt>
      <trkpt lat="44.3344" lon="5.80175">
        <ele>699.02</ele>
        <time>2021-09-18T15:00:54Z</time>
      </trkpt>
      <trkpt lat="44.33441" lon="5.80173">
        <ele>699.02</ele>
        <time>2021-09-18T15:00:55Z</time>
      </trkpt>
      <trkpt lat="44.33442" lon="5.80172">
        <ele>699.02</ele>
        <time>2021-09-18T15:00:56Z</time>
      </trkpt>
      <trkpt lat="44.33454" lon="5.80139">
        <ele>699.02</ele>
        <time>2021-09-18T15:01:10Z</time>
      </trkpt>
      <trkpt lat="44.33454" lon="5.80135">
        <ele>699.02</ele>
        <time>2021-09-18T15:01:23Z</time>
      </trkpt>
      <trkpt lat="44.33454" lon="5.80135">
        <ele>699.02</ele>
        <time>2021-09-18T15:01:48Z</time>
      </trkpt>
      <trkpt lat="44.33456" lon="5.80125">
        <ele>699.02</ele>
        <time>2021-09-18T15:02:03Z</time>
      </trkpt>
      <trkpt lat="44.3346" lon="5.80067">
        <ele>699.02</ele>
        <time>2021-09-18T15:02:17Z</time>
      </trkpt>
      <trkpt lat="44.33465" lon="5.80025">
        <ele>697.57</ele>
        <time>2021-09-18T15:02:25Z</time>
      </trkpt>
      <trkpt lat="44.33468" lon="5.79972">
        <ele>699.98</ele>
        <time>2021-09-18T15:02:37Z</time>
      </trkpt>
      <trkpt lat="44.33461" lon="5.79923">
        <ele>701.42</ele>
        <time>2021-09-18T15:02:48Z</time>
      </trkpt>
      <trkpt lat="44.33475" lon="5.7987">
        <ele>702.38</ele>
        <time>2021-09-18T15:03:00Z</time>
      </trkpt>
      <trkpt lat="44.33478" lon="5.79868">
        <ele>702.38</ele>
        <time>2021-09-18T15:03:01Z</time>
      </trkpt>
      <trkpt lat="44.335" lon="5.79854">
        <ele>702.86</ele>
        <time>2021-09-18T15:03:13Z</time>
      </trkpt>
      <trkpt lat="44.33529" lon="5.79856">
        <ele>703.34</ele>
        <time>2021-09-18T15:03:26Z</time>
      </trkpt>
      <trkpt lat="44.33539" lon="5.79858">
        <ele>703.82</ele>
        <time>2021-09-18T15:03:30Z</time>
      </trkpt>
      <trkpt lat="44.33541" lon="5.79858">
        <ele>703.82</ele>
        <time>2021-09-18T15:03:31Z</time>
      </trkpt>
      <trkpt lat="44.33551" lon="5.79853">
        <ele>703.82</ele>
        <time>2021-09-18T15:03:35Z</time>
      </trkpt>
      <trkpt lat="44.33553" lon="5.7985">
        <ele>703.82</ele>
        <time>2021-09-18T15:03:36Z</time>
      </trkpt>
      <trkpt lat="44.33554" lon="5.79847">
        <ele>703.82</ele>
        <time>2021-09-18T15:03:37Z</time>
      </trkpt>
      <trkpt lat="44.33555" lon="5.79845">
        <ele>704.3</ele>
        <time>2021-09-18T15:03:38Z</time>
      </trkpt>
      <trkpt lat="44.33556" lon="5.79843">
        <ele>704.3</ele>
        <time>2021-09-18T15:03:39Z</time>
      </trkpt>
      <trkpt lat="44.33558" lon="5.7984">
        <ele>704.78</ele>
        <time>2021-09-18T15:03:40Z</time>
      </trkpt>
      <trkpt lat="44.33558" lon="5.79838">
        <ele>704.78</ele>
        <time>2021-09-18T15:03:41Z</time>
      </trkpt>
      <trkpt lat="44.33558" lon="5.79835">
        <ele>705.26</ele>
        <time>2021-09-18T15:03:42Z</time>
      </trkpt>
      <trkpt lat="44.33558" lon="5.79833">
        <ele>705.26</ele>
        <time>2021-09-18T15:03:43Z</time>
      </trkpt>
      <trkpt lat="44.33559" lon="5.79831">
        <ele>705.26</ele>
        <time>2021-09-18T15:03:44Z</time>
      </trkpt>
      <trkpt lat="44.33559" lon="5.79829">
        <ele>705.26</ele>
        <time>2021-09-18T15:03:45Z</time>
      </trkpt>
      <trkpt lat="44.3356" lon="5.79827">
        <ele>705.26</ele>
        <time>2021-09-18T15:03:46Z</time>
      </trkpt>
      <trkpt lat="44.3356" lon="5.79825">
        <ele>705.26</ele>
        <time>2021-09-18T15:03:47Z</time>
      </trkpt>
      <trkpt lat="44.33561" lon="5.79823">
        <ele>706.23</ele>
        <time>2021-09-18T15:03:48Z</time>
      </trkpt>
      <trkpt lat="44.33562" lon="5.79822">
        <ele>706.23</ele>
        <time>2021-09-18T15:03:49Z</time>
      </trkpt>
      <trkpt lat="44.33561" lon="5.7982">
        <ele>706.23</ele>
        <time>2021-09-18T15:03:50Z</time>
      </trkpt>
      <trkpt lat="44.33561" lon="5.79818">
        <ele>706.23</ele>
        <time>2021-09-18T15:03:51Z</time>
      </trkpt>
      <trkpt lat="44.33555" lon="5.79817">
        <ele>706.71</ele>
        <time>2021-09-18T15:04:02Z</time>
      </trkpt>
      <trkpt lat="44.33552" lon="5.79815">
        <ele>706.71</ele>
        <time>2021-09-18T15:04:09Z</time>
      </trkpt>
      <trkpt lat="44.33551" lon="5.79814">
        <ele>706.71</ele>
        <time>2021-09-18T15:04:10Z</time>
      </trkpt>
      <trkpt lat="44.33551" lon="5.79813">
        <ele>705.75</ele>
        <time>2021-09-18T15:04:11Z</time>
      </trkpt>
      <trkpt lat="44.3355" lon="5.79811">
        <ele>705.75</ele>
        <time>2021-09-18T15:04:12Z</time>
      </trkpt>
      <trkpt lat="44.3355" lon="5.79809">
        <ele>705.75</ele>
        <time>2021-09-18T15:04:13Z</time>
      </trkpt>
      <trkpt lat="44.33551" lon="5.79778">
        <ele>706.71</ele>
        <time>2021-09-18T15:04:24Z</time>
      </trkpt>
      <trkpt lat="44.3355" lon="5.79768">
        <ele>708.15</ele>
        <time>2021-09-18T15:04:28Z</time>
      </trkpt>
      <trkpt lat="44.33549" lon="5.79766">
        <ele>708.15</ele>
        <time>2021-09-18T15:04:29Z</time>
      </trkpt>
      <trkpt lat="44.33548" lon="5.79762">
        <ele>708.15</ele>
        <time>2021-09-18T15:04:30Z</time>
      </trkpt>
      <trkpt lat="44.33547" lon="5.79758">
        <ele>708.15</ele>
        <time>2021-09-18T15:04:31Z</time>
      </trkpt>
      <trkpt lat="44.33546" lon="5.79755">
        <ele>708.15</ele>
        <time>2021-09-18T15:04:32Z</time>
      </trkpt>
      <trkpt lat="44.33545" lon="5.79753">
        <ele>708.15</ele>
        <time>2021-09-18T15:04:33Z</time>
      </trkpt>
      <trkpt lat="44.33539" lon="5.79722">
        <ele>711.03</ele>
        <time>2021-09-18T15:04:48Z</time>
      </trkpt>
      <trkpt lat="44.3354" lon="5.79695">
        <ele>713.44</ele>
        <time>2021-09-18T15:05:02Z</time>
      </trkpt>
      <trkpt lat="44.33538" lon="5.79669">
        <ele>715.84</ele>
        <time>2021-09-18T15:05:16Z</time>
      </trkpt>
      <trkpt lat="44.33534" lon="5.79655">
        <ele>715.84</ele>
        <time>2021-09-18T15:05:23Z</time>
      </trkpt>
      <trkpt lat="44.33541" lon="5.79621">
        <ele>717.28</ele>
        <time>2021-09-18T15:05:38Z</time>
      </trkpt>
      <trkpt lat="44.33542" lon="5.79616">
        <ele>717.28</ele>
        <time>2021-09-18T15:05:40Z</time>
      </trkpt>
      <trkpt lat="44.33541" lon="5.79613">
        <ele>717.28</ele>
        <time>2021-09-18T15:05:41Z</time>
      </trkpt>
      <trkpt lat="44.33539" lon="5.79608">
        <ele>715.36</ele>
        <time>2021-09-18T15:05:42Z</time>
      </trkpt>
      <trkpt lat="44.33537" lon="5.79603">
        <ele>715.36</ele>
        <time>2021-09-18T15:05:43Z</time>
      </trkpt>
      <trkpt lat="44.33536" lon="5.796">
        <ele>714.88</ele>
        <time>2021-09-18T15:05:44Z</time>
      </trkpt>
      <trkpt lat="44.33534" lon="5.79598">
        <ele>714.88</ele>
        <time>2021-09-18T15:05:45Z</time>
      </trkpt>
      <trkpt lat="44.33531" lon="5.79591">
        <ele>716.32</ele>
        <time>2021-09-18T15:05:48Z</time>
      </trkpt>
      <trkpt lat="44.33529" lon="5.79586">
        <ele>717.28</ele>
        <time>2021-09-18T15:05:51Z</time>
      </trkpt>
      <trkpt lat="44.33527" lon="5.79579">
        <ele>719.2</ele>
        <time>2021-09-18T15:05:56Z</time>
      </trkpt>
      <trkpt lat="44.33527" lon="5.79577">
        <ele>719.2</ele>
        <time>2021-09-18T15:05:57Z</time>
      </trkpt>
      <trkpt lat="44.3353" lon="5.79569">
        <ele>721.13</ele>
        <time>2021-09-18T15:06:06Z</time>
      </trkpt>
      <trkpt lat="44.33532" lon="5.79557">
        <ele>724.49</ele>
        <time>2021-09-18T15:06:20Z</time>
      </trkpt>
      <trkpt lat="44.33532" lon="5.79552">
        <ele>724.97</ele>
        <time>2021-09-18T15:06:36Z</time>
      </trkpt>
      <trkpt lat="44.33531" lon="5.79547">
        <ele>724.97</ele>
        <time>2021-09-18T15:06:44Z</time>
      </trkpt>
      <trkpt lat="44.3352" lon="5.79525">
        <ele>724.01</ele>
        <time>2021-09-18T15:06:54Z</time>
      </trkpt>
      <trkpt lat="44.33516" lon="5.79505">
        <ele>723.05</ele>
        <time>2021-09-18T15:06:59Z</time>
      </trkpt>
      <trkpt lat="44.33514" lon="5.79503">
        <ele>723.05</ele>
        <time>2021-09-18T15:07:00Z</time>
      </trkpt>
      <trkpt lat="44.33512" lon="5.79502">
        <ele>723.05</ele>
        <time>2021-09-18T15:07:01Z</time>
      </trkpt>
      <trkpt lat="44.33511" lon="5.795">
        <ele>723.05</ele>
        <time>2021-09-18T15:07:02Z</time>
      </trkpt>
      <trkpt lat="44.3351" lon="5.79499">
        <ele>723.05</ele>
        <time>2021-09-18T15:07:03Z</time>
      </trkpt>
      <trkpt lat="44.33509" lon="5.79498">
        <ele>723.05</ele>
        <time>2021-09-18T15:07:04Z</time>
      </trkpt>
      <trkpt lat="44.33509" lon="5.79496">
        <ele>723.05</ele>
        <time>2021-09-18T15:07:05Z</time>
      </trkpt>
      <trkpt lat="44.33509" lon="5.79491">
        <ele>723.05</ele>
        <time>2021-09-18T15:07:07Z</time>
      </trkpt>
      <trkpt lat="44.33507" lon="5.79483">
        <ele>723.05</ele>
        <time>2021-09-18T15:07:10Z</time>
      </trkpt>
      <trkpt lat="44.33506" lon="5.79469">
        <ele>722.09</ele>
        <time>2021-09-18T15:07:15Z</time>
      </trkpt>
      <trkpt lat="44.33507" lon="5.79467">
        <ele>722.09</ele>
        <time>2021-09-18T15:07:16Z</time>
      </trkpt>
      <trkpt lat="44.33507" lon="5.79464">
        <ele>722.09</ele>
        <time>2021-09-18T15:07:17Z</time>
      </trkpt>
      <trkpt lat="44.33508" lon="5.79461">
        <ele>722.09</ele>
        <time>2021-09-18T15:07:18Z</time>
      </trkpt>
      <trkpt lat="44.33509" lon="5.79459">
        <ele>722.09</ele>
        <time>2021-09-18T15:07:19Z</time>
      </trkpt>
      <trkpt lat="44.33509" lon="5.79457">
        <ele>722.09</ele>
        <time>2021-09-18T15:07:20Z</time>
      </trkpt>
      <trkpt lat="44.33511" lon="5.79435">
        <ele>721.61</ele>
        <time>2021-09-18T15:07:29Z</time>
      </trkpt>
      <trkpt lat="44.33511" lon="5.79432">
        <ele>721.61</ele>
        <time>2021-09-18T15:07:30Z</time>
      </trkpt>
      <trkpt lat="44.33511" lon="5.79429">
        <ele>720.65</ele>
        <time>2021-09-18T15:07:31Z</time>
      </trkpt>
      <trkpt lat="44.33511" lon="5.79427">
        <ele>720.16</ele>
        <time>2021-09-18T15:07:32Z</time>
      </trkpt>
      <trkpt lat="44.33511" lon="5.79425">
        <ele>720.16</ele>
        <time>2021-09-18T15:07:33Z</time>
      </trkpt>
      <trkpt lat="44.3351" lon="5.79411">
        <ele>719.2</ele>
        <time>2021-09-18T15:07:40Z</time>
      </trkpt>
      <trkpt lat="44.33508" lon="5.79411">
        <ele>717.28</ele>
        <time>2021-09-18T15:07:44Z</time>
      </trkpt>
      <trkpt lat="44.33507" lon="5.79412">
        <ele>717.28</ele>
        <time>2021-09-18T15:07:45Z</time>
      </trkpt>
      <trkpt lat="44.33506" lon="5.79413">
        <ele>716.32</ele>
        <time>2021-09-18T15:07:46Z</time>
      </trkpt>
      <trkpt lat="44.33501" lon="5.79414">
        <ele>714.4</ele>
        <time>2021-09-18T15:07:50Z</time>
      </trkpt>
      <trkpt lat="44.335" lon="5.79413">
        <ele>713.92</ele>
        <time>2021-09-18T15:07:51Z</time>
      </trkpt>
      <trkpt lat="44.335" lon="5.79412">
        <ele>712.95</ele>
        <time>2021-09-18T15:07:52Z</time>
      </trkpt>
      <trkpt lat="44.33499" lon="5.7941">
        <ele>711.99</ele>
        <time>2021-09-18T15:07:53Z</time>
      </trkpt>
      <trkpt lat="44.33499" lon="5.79408">
        <ele>711.51</ele>
        <time>2021-09-18T15:07:54Z</time>
      </trkpt>
      <trkpt lat="44.33499" lon="5.79405">
        <ele>711.51</ele>
        <time>2021-09-18T15:07:55Z</time>
      </trkpt>
      <trkpt lat="44.33499" lon="5.79403">
        <ele>710.55</ele>
        <time>2021-09-18T15:07:56Z</time>
      </trkpt>
      <trkpt lat="44.33499" lon="5.79402">
        <ele>710.55</ele>
        <time>2021-09-18T15:07:57Z</time>
      </trkpt>
      <trkpt lat="44.33499" lon="5.794">
        <ele>710.07</ele>
        <time>2021-09-18T15:07:58Z</time>
      </trkpt>
      <trkpt lat="44.33499" lon="5.79398">
        <ele>709.59</ele>
        <time>2021-09-18T15:07:59Z</time>
      </trkpt>
      <trkpt lat="44.33498" lon="5.79396">
        <ele>709.11</ele>
        <time>2021-09-18T15:08:00Z</time>
      </trkpt>
      <trkpt lat="44.33497" lon="5.79394">
        <ele>708.15</ele>
        <time>2021-09-18T15:08:01Z</time>
      </trkpt>
      <trkpt lat="44.33496" lon="5.79393">
        <ele>707.67</ele>
        <time>2021-09-18T15:08:02Z</time>
      </trkpt>
      <trkpt lat="44.33495" lon="5.79391">
        <ele>706.71</ele>
        <time>2021-09-18T15:08:03Z</time>
      </trkpt>
      <trkpt lat="44.33493" lon="5.79389">
        <ele>705.75</ele>
        <time>2021-09-18T15:08:05Z</time>
      </trkpt>
      <trkpt lat="44.33488" lon="5.79386">
        <ele>703.34</ele>
        <time>2021-09-18T15:08:09Z</time>
      </trkpt>
      <trkpt lat="44.33486" lon="5.79385">
        <ele>702.38</ele>
        <time>2021-09-18T15:08:10Z</time>
      </trkpt>
      <trkpt lat="44.33484" lon="5.79384">
        <ele>701.42</ele>
        <time>2021-09-18T15:08:11Z</time>
      </trkpt>
      <trkpt lat="44.33483" lon="5.79383">
        <ele>700.46</ele>
        <time>2021-09-18T15:08:12Z</time>
      </trkpt>
      <trkpt lat="44.33482" lon="5.79382">
        <ele>699.5</ele>
        <time>2021-09-18T15:08:13Z</time>
      </trkpt>
      <trkpt lat="44.33481" lon="5.7938">
        <ele>699.02</ele>
        <time>2021-09-18T15:08:14Z</time>
      </trkpt>
      <trkpt lat="44.3348" lon="5.79379">
        <ele>698.05</ele>
        <time>2021-09-18T15:08:15Z</time>
      </trkpt>
      <trkpt lat="44.33479" lon="5.79377">
        <ele>697.57</ele>
        <time>2021-09-18T15:08:16Z</time>
      </trkpt>
      <trkpt lat="44.33478" lon="5.79376">
        <ele>696.61</ele>
        <time>2021-09-18T15:08:17Z</time>
      </trkpt>
      <trkpt lat="44.33476" lon="5.79375">
        <ele>695.65</ele>
        <time>2021-09-18T15:08:18Z</time>
      </trkpt>
      <trkpt lat="44.33475" lon="5.79374">
        <ele>695.17</ele>
        <time>2021-09-18T15:08:19Z</time>
      </trkpt>
      <trkpt lat="44.33474" lon="5.79373">
        <ele>694.21</ele>
        <time>2021-09-18T15:08:20Z</time>
      </trkpt>
      <trkpt lat="44.33473" lon="5.79371">
        <ele>693.25</ele>
        <time>2021-09-18T15:08:21Z</time>
      </trkpt>
      <trkpt lat="44.33471" lon="5.79369">
        <ele>692.77</ele>
        <time>2021-09-18T15:08:22Z</time>
      </trkpt>
      <trkpt lat="44.33461" lon="5.79364">
        <ele>689.4</ele>
        <time>2021-09-18T15:08:27Z</time>
      </trkpt>
      <trkpt lat="44.33458" lon="5.79362">
        <ele>688.44</ele>
        <time>2021-09-18T15:08:29Z</time>
      </trkpt>
      <trkpt lat="44.33456" lon="5.79361">
        <ele>687.48</ele>
        <time>2021-09-18T15:08:30Z</time>
      </trkpt>
      <trkpt lat="44.33454" lon="5.79361">
        <ele>686.52</ele>
        <time>2021-09-18T15:08:31Z</time>
      </trkpt>
      <trkpt lat="44.33451" lon="5.79362">
        <ele>686.52</ele>
        <time>2021-09-18T15:08:43Z</time>
      </trkpt>
      <trkpt lat="44.33452" lon="5.79359">
        <ele>686.52</ele>
        <time>2021-09-18T15:09:10Z</time>
      </trkpt>
      <trkpt lat="44.33438" lon="5.79345">
        <ele>682.19</ele>
        <time>2021-09-18T15:09:17Z</time>
      </trkpt>
      <trkpt lat="44.33426" lon="5.79326">
        <ele>680.27</ele>
        <time>2021-09-18T15:09:24Z</time>
      </trkpt>
      <trkpt lat="44.33426" lon="5.79322">
        <ele>679.31</ele>
        <time>2021-09-18T15:09:25Z</time>
      </trkpt>
      <trkpt lat="44.33425" lon="5.79319">
        <ele>678.83</ele>
        <time>2021-09-18T15:09:26Z</time>
      </trkpt>
      <trkpt lat="44.33424" lon="5.79316">
        <ele>677.87</ele>
        <time>2021-09-18T15:09:27Z</time>
      </trkpt>
      <trkpt lat="44.33423" lon="5.79313">
        <ele>677.39</ele>
        <time>2021-09-18T15:09:28Z</time>
      </trkpt>
      <trkpt lat="44.33423" lon="5.79311">
        <ele>676.91</ele>
        <time>2021-09-18T15:09:29Z</time>
      </trkpt>
      <trkpt lat="44.33422" lon="5.79308">
        <ele>675.94</ele>
        <time>2021-09-18T15:09:32Z</time>
      </trkpt>
      <trkpt lat="44.33416" lon="5.793">
        <ele>671.62</ele>
        <time>2021-09-18T15:09:36Z</time>
      </trkpt>
      <trkpt lat="44.33417" lon="5.79295">
        <ele>670.66</ele>
        <time>2021-09-18T15:09:39Z</time>
      </trkpt>
      <trkpt lat="44.33414" lon="5.79299">
        <ele>670.18</ele>
        <time>2021-09-18T15:09:51Z</time>
      </trkpt>
      <trkpt lat="44.33412" lon="5.79298">
        <ele>670.18</ele>
        <time>2021-09-18T15:09:57Z</time>
      </trkpt>
      <trkpt lat="44.33404" lon="5.79296">
        <ele>667.29</ele>
        <time>2021-09-18T15:10:03Z</time>
      </trkpt>
      <trkpt lat="44.33398" lon="5.79296">
        <ele>663.45</ele>
        <time>2021-09-18T15:10:06Z</time>
      </trkpt>
      <trkpt lat="44.33398" lon="5.79296">
        <ele>662.49</ele>
        <time>2021-09-18T15:10:08Z</time>
      </trkpt>
      <trkpt lat="44.33393" lon="5.79297">
        <ele>662.49</ele>
        <time>2021-09-18T15:10:11Z</time>
      </trkpt>
      <trkpt lat="44.33392" lon="5.79296">
        <ele>662.49</ele>
        <time>2021-09-18T15:10:12Z</time>
      </trkpt>
      <trkpt lat="44.33389" lon="5.79296">
        <ele>662.01</ele>
        <time>2021-09-18T15:10:14Z</time>
      </trkpt>
      <trkpt lat="44.33386" lon="5.79295">
        <ele>662.01</ele>
        <time>2021-09-18T15:10:24Z</time>
      </trkpt>
      <trkpt lat="44.33385" lon="5.79294">
        <ele>663.93</ele>
        <time>2021-09-18T15:10:32Z</time>
      </trkpt>
      <trkpt lat="44.33386" lon="5.79293">
        <ele>663.93</ele>
        <time>2021-09-18T15:10:49Z</time>
      </trkpt>
      <trkpt lat="44.33381" lon="5.79291">
        <ele>662.01</ele>
        <time>2021-09-18T15:10:56Z</time>
      </trkpt>
      <trkpt lat="44.3338" lon="5.79289">
        <ele>662.01</ele>
        <time>2021-09-18T15:10:57Z</time>
      </trkpt>
      <trkpt lat="44.3338" lon="5.79286">
        <ele>661.52</ele>
        <time>2021-09-18T15:10:58Z</time>
      </trkpt>
      <trkpt lat="44.33379" lon="5.79281">
        <ele>660.56</ele>
        <time>2021-09-18T15:11:00Z</time>
      </trkpt>
      <trkpt lat="44.33381" lon="5.79262">
        <ele>657.2</ele>
        <time>2021-09-18T15:11:06Z</time>
      </trkpt>
      <trkpt lat="44.33381" lon="5.79255">
        <ele>655.76</ele>
        <time>2021-09-18T15:11:08Z</time>
      </trkpt>
      <trkpt lat="44.33381" lon="5.79252">
        <ele>655.76</ele>
        <time>2021-09-18T15:11:09Z</time>
      </trkpt>
      <trkpt lat="44.33383" lon="5.79234">
        <ele>652.87</ele>
        <time>2021-09-18T15:11:13Z</time>
      </trkpt>
      <trkpt lat="44.33382" lon="5.79231">
        <ele>652.87</ele>
        <time>2021-09-18T15:11:14Z</time>
      </trkpt>
      <trkpt lat="44.33382" lon="5.79228">
        <ele>652.87</ele>
        <time>2021-09-18T15:11:15Z</time>
      </trkpt>
      <trkpt lat="44.33382" lon="5.79226">
        <ele>652.39</ele>
        <time>2021-09-18T15:11:16Z</time>
      </trkpt>
      <trkpt lat="44.33381" lon="5.79224">
        <ele>654.31</ele>
        <time>2021-09-18T15:11:17Z</time>
      </trkpt>
      <trkpt lat="44.33381" lon="5.79221">
        <ele>654.31</ele>
        <time>2021-09-18T15:11:18Z</time>
      </trkpt>
      <trkpt lat="44.3338" lon="5.79218">
        <ele>654.8</ele>
        <time>2021-09-18T15:11:19Z</time>
      </trkpt>
      <trkpt lat="44.33379" lon="5.79208">
        <ele>655.76</ele>
        <time>2021-09-18T15:11:30Z</time>
      </trkpt>
      <trkpt lat="44.33377" lon="5.79206">
        <ele>655.76</ele>
        <time>2021-09-18T15:11:44Z</time>
      </trkpt>
      <trkpt lat="44.33379" lon="5.79202">
        <ele>655.76</ele>
        <time>2021-09-18T15:11:56Z</time>
      </trkpt>
      <trkpt lat="44.3338" lon="5.792">
        <ele>655.76</ele>
        <time>2021-09-18T15:12:04Z</time>
      </trkpt>
      <trkpt lat="44.3338" lon="5.79198">
        <ele>655.76</ele>
        <time>2021-09-18T15:12:05Z</time>
      </trkpt>
      <trkpt lat="44.3338" lon="5.79195">
        <ele>655.76</ele>
        <time>2021-09-18T15:12:06Z</time>
      </trkpt>
      <trkpt lat="44.33379" lon="5.79193">
        <ele>655.76</ele>
        <time>2021-09-18T15:12:07Z</time>
      </trkpt>
      <trkpt lat="44.33379" lon="5.7919">
        <ele>655.76</ele>
        <time>2021-09-18T15:12:08Z</time>
      </trkpt>
      <trkpt lat="44.33378" lon="5.79188">
        <ele>655.76</ele>
        <time>2021-09-18T15:12:09Z</time>
      </trkpt>
      <trkpt lat="44.33378" lon="5.79185">
        <ele>655.76</ele>
        <time>2021-09-18T15:12:10Z</time>
      </trkpt>
      <trkpt lat="44.33378" lon="5.79175">
        <ele>656.24</ele>
        <time>2021-09-18T15:12:14Z</time>
      </trkpt>
      <trkpt lat="44.33378" lon="5.79173">
        <ele>656.24</ele>
        <time>2021-09-18T15:12:15Z</time>
      </trkpt>
      <trkpt lat="44.33377" lon="5.7917">
        <ele>656.24</ele>
        <time>2021-09-18T15:12:16Z</time>
      </trkpt>
      <trkpt lat="44.33376" lon="5.79166">
        <ele>656.24</ele>
        <time>2021-09-18T15:12:17Z</time>
      </trkpt>
      <trkpt lat="44.33376" lon="5.79161">
        <ele>656.24</ele>
        <time>2021-09-18T15:12:18Z</time>
      </trkpt>
      <trkpt lat="44.33375" lon="5.79157">
        <ele>656.24</ele>
        <time>2021-09-18T15:12:19Z</time>
      </trkpt>
      <trkpt lat="44.33368" lon="5.79132">
        <ele>652.87</ele>
        <time>2021-09-18T15:12:29Z</time>
      </trkpt>
      <trkpt lat="44.33367" lon="5.79129">
        <ele>652.87</ele>
        <time>2021-09-18T15:12:30Z</time>
      </trkpt>
      <trkpt lat="44.33362" lon="5.79117">
        <ele>649.99</ele>
        <time>2021-09-18T15:12:35Z</time>
      </trkpt>
      <trkpt lat="44.33361" lon="5.79116">
        <ele>649.03</ele>
        <time>2021-09-18T15:12:36Z</time>
      </trkpt>
      <trkpt lat="44.33358" lon="5.79115">
        <ele>648.07</ele>
        <time>2021-09-18T15:12:39Z</time>
      </trkpt>
      <trkpt lat="44.33357" lon="5.79116">
        <ele>647.1</ele>
        <time>2021-09-18T15:12:40Z</time>
      </trkpt>
      <trkpt lat="44.33355" lon="5.79115">
        <ele>646.62</ele>
        <time>2021-09-18T15:12:41Z</time>
      </trkpt>
      <trkpt lat="44.33353" lon="5.79114">
        <ele>645.66</ele>
        <time>2021-09-18T15:12:42Z</time>
      </trkpt>
      <trkpt lat="44.33352" lon="5.79113">
        <ele>644.7</ele>
        <time>2021-09-18T15:12:43Z</time>
      </trkpt>
      <trkpt lat="44.3335" lon="5.79112">
        <ele>643.74</ele>
        <time>2021-09-18T15:12:44Z</time>
      </trkpt>
      <trkpt lat="44.33348" lon="5.79112">
        <ele>643.26</ele>
        <time>2021-09-18T15:12:45Z</time>
      </trkpt>
      <trkpt lat="44.33346" lon="5.79111">
        <ele>642.3</ele>
        <time>2021-09-18T15:12:46Z</time>
      </trkpt>
      <trkpt lat="44.33345" lon="5.7911">
        <ele>640.86</ele>
        <time>2021-09-18T15:12:47Z</time>
      </trkpt>
      <trkpt lat="44.33343" lon="5.79107">
        <ele>639.89</ele>
        <time>2021-09-18T15:12:48Z</time>
      </trkpt>
      <trkpt lat="44.33341" lon="5.79104">
        <ele>638.45</ele>
        <time>2021-09-18T15:12:49Z</time>
      </trkpt>
      <trkpt lat="44.33339" lon="5.79101">
        <ele>637.49</ele>
        <time>2021-09-18T15:12:50Z</time>
      </trkpt>
      <trkpt lat="44.33337" lon="5.791">
        <ele>636.05</ele>
        <time>2021-09-18T15:12:51Z</time>
      </trkpt>
      <trkpt lat="44.33335" lon="5.79099">
        <ele>636.05</ele>
        <time>2021-09-18T15:12:52Z</time>
      </trkpt>
      <trkpt lat="44.33333" lon="5.79099">
        <ele>635.09</ele>
        <time>2021-09-18T15:12:53Z</time>
      </trkpt>
      <trkpt lat="44.33321" lon="5.791">
        <ele>631.24</ele>
        <time>2021-09-18T15:12:56Z</time>
      </trkpt>
      <trkpt lat="44.33314" lon="5.79102">
        <ele>630.28</ele>
        <time>2021-09-18T15:12:58Z</time>
      </trkpt>
      <trkpt lat="44.33303" lon="5.79104">
        <ele>629.8</ele>
        <time>2021-09-18T15:13:02Z</time>
      </trkpt>
      <trkpt lat="44.33294" lon="5.79097">
        <ele>628.36</ele>
        <time>2021-09-18T15:13:05Z</time>
      </trkpt>
      <trkpt lat="44.33292" lon="5.79094">
        <ele>627.4</ele>
        <time>2021-09-18T15:13:06Z</time>
      </trkpt>
      <trkpt lat="44.33289" lon="5.79092">
        <ele>627.4</ele>
        <time>2021-09-18T15:13:07Z</time>
      </trkpt>
      <trkpt lat="44.33284" lon="5.79089">
        <ele>626.44</ele>
        <time>2021-09-18T15:13:09Z</time>
      </trkpt>
      <trkpt lat="44.33282" lon="5.79086">
        <ele>625.47</ele>
        <time>2021-09-18T15:13:10Z</time>
      </trkpt>
      <trkpt lat="44.33279" lon="5.79081">
        <ele>624.03</ele>
        <time>2021-09-18T15:13:12Z</time>
      </trkpt>
      <trkpt lat="44.33271" lon="5.79077">
        <ele>620.67</ele>
        <time>2021-09-18T15:13:17Z</time>
      </trkpt>
      <trkpt lat="44.33264" lon="5.79075">
        <ele>616.82</ele>
        <time>2021-09-18T15:13:22Z</time>
      </trkpt>
      <trkpt lat="44.3326" lon="5.79076">
        <ele>615.38</ele>
        <time>2021-09-18T15:13:31Z</time>
      </trkpt>
      <trkpt lat="44.33259" lon="5.79077">
        <ele>615.38</ele>
        <time>2021-09-18T15:13:32Z</time>
      </trkpt>
      <trkpt lat="44.33258" lon="5.79077">
        <ele>614.9</ele>
        <time>2021-09-18T15:13:33Z</time>
      </trkpt>
      <trkpt lat="44.33257" lon="5.79077">
        <ele>614.42</ele>
        <time>2021-09-18T15:13:34Z</time>
      </trkpt>
      <trkpt lat="44.33254" lon="5.79077">
        <ele>613.46</ele>
        <time>2021-09-18T15:13:35Z</time>
      </trkpt>
      <trkpt lat="44.33251" lon="5.79077">
        <ele>612.02</ele>
        <time>2021-09-18T15:13:36Z</time>
      </trkpt>
      <trkpt lat="44.33249" lon="5.79075">
        <ele>610.09</ele>
        <time>2021-09-18T15:13:37Z</time>
      </trkpt>
      <trkpt lat="44.33247" lon="5.79072">
        <ele>608.65</ele>
        <time>2021-09-18T15:13:38Z</time>
      </trkpt>
      <trkpt lat="44.33245" lon="5.7907">
        <ele>607.69</ele>
        <time>2021-09-18T15:13:39Z</time>
      </trkpt>
      <trkpt lat="44.33243" lon="5.79068">
        <ele>608.17</ele>
        <time>2021-09-18T15:13:40Z</time>
      </trkpt>
      <trkpt lat="44.33241" lon="5.79067">
        <ele>608.17</ele>
        <time>2021-09-18T15:13:41Z</time>
      </trkpt>
      <trkpt lat="44.33234" lon="5.79064">
        <ele>603.85</ele>
        <time>2021-09-18T15:13:44Z</time>
      </trkpt>
      <trkpt lat="44.33232" lon="5.79062">
        <ele>602.88</ele>
        <time>2021-09-18T15:13:45Z</time>
      </trkpt>
      <trkpt lat="44.33231" lon="5.79058">
        <ele>601.92</ele>
        <time>2021-09-18T15:13:46Z</time>
      </trkpt>
      <trkpt lat="44.3323" lon="5.79055">
        <ele>600.96</ele>
        <time>2021-09-18T15:13:47Z</time>
      </trkpt>
      <trkpt lat="44.33229" lon="5.79054">
        <ele>600.96</ele>
        <time>2021-09-18T15:13:48Z</time>
      </trkpt>
      <trkpt lat="44.3323" lon="5.79053">
        <ele>600.96</ele>
        <time>2021-09-18T15:14:06Z</time>
      </trkpt>
      <trkpt lat="44.33232" lon="5.79051">
        <ele>600.96</ele>
        <time>2021-09-18T15:14:35Z</time>
      </trkpt>
      <trkpt lat="44.3323" lon="5.79055">
        <ele>600.96</ele>
        <time>2021-09-18T15:15:06Z</time>
      </trkpt>
      <trkpt lat="44.33229" lon="5.79053">
        <ele>600.48</ele>
        <time>2021-09-18T15:15:31Z</time>
      </trkpt>
      <trkpt lat="44.33222" lon="5.79054">
        <ele>600</ele>
        <time>2021-09-18T15:15:51Z</time>
      </trkpt>
      <trkpt lat="44.33219" lon="5.79055">
        <ele>600</ele>
        <time>2021-09-18T15:15:59Z</time>
      </trkpt>
      <trkpt lat="44.33218" lon="5.79055">
        <ele>600</ele>
        <time>2021-09-18T15:16:00Z</time>
      </trkpt>
      <trkpt lat="44.33217" lon="5.79056">
        <ele>600</ele>
        <time>2021-09-18T15:16:01Z</time>
      </trkpt>
      <trkpt lat="44.33215" lon="5.79056">
        <ele>600</ele>
        <time>2021-09-18T15:16:02Z</time>
      </trkpt>
      <trkpt lat="44.3321" lon="5.79056">
        <ele>601.92</ele>
        <time>2021-09-18T15:16:09Z</time>
      </trkpt>
      <trkpt lat="44.33204" lon="5.79059">
        <ele>603.85</ele>
        <time>2021-09-18T15:16:26Z</time>
      </trkpt>
      <trkpt lat="44.33203" lon="5.7906">
        <ele>604.33</ele>
        <time>2021-09-18T15:16:52Z</time>
      </trkpt>
      <trkpt lat="44.33205" lon="5.7906">
        <ele>604.33</ele>
        <time>2021-09-18T15:17:14Z</time>
      </trkpt>
      <trkpt lat="44.33206" lon="5.79059">
        <ele>604.33</ele>
        <time>2021-09-18T15:17:15Z</time>
      </trkpt>
      <trkpt lat="44.33212" lon="5.79056">
        <ele>601.92</ele>
        <time>2021-09-18T15:17:19Z</time>
      </trkpt>
      <trkpt lat="44.33214" lon="5.79057">
        <ele>601.44</ele>
        <time>2021-09-18T15:17:20Z</time>
      </trkpt>
      <trkpt lat="44.33215" lon="5.79057">
        <ele>600.48</ele>
        <time>2021-09-18T15:17:21Z</time>
      </trkpt>
      <trkpt lat="44.33217" lon="5.79056">
        <ele>600</ele>
        <time>2021-09-18T15:17:22Z</time>
      </trkpt>
      <trkpt lat="44.33218" lon="5.79054">
        <ele>600</ele>
        <time>2021-09-18T15:17:23Z</time>
      </trkpt>
      <trkpt lat="44.33219" lon="5.79034">
        <ele>599.52</ele>
        <time>2021-09-18T15:17:34Z</time>
      </trkpt>
      <trkpt lat="44.33221" lon="5.79024">
        <ele>599.04</ele>
        <time>2021-09-18T15:17:39Z</time>
      </trkpt>
      <trkpt lat="44.3322" lon="5.79022">
        <ele>599.04</ele>
        <time>2021-09-18T15:17:40Z</time>
      </trkpt>
      <trkpt lat="44.33219" lon="5.79021">
        <ele>599.04</ele>
        <time>2021-09-18T15:17:41Z</time>
      </trkpt>
      <trkpt lat="44.33202" lon="5.78995">
        <ele>598.08</ele>
        <time>2021-09-18T15:17:54Z</time>
      </trkpt>
      <trkpt lat="44.33195" lon="5.78987">
        <ele>598.08</ele>
        <time>2021-09-18T15:18:01Z</time>
      </trkpt>
      <trkpt lat="44.33194" lon="5.78986">
        <ele>598.08</ele>
        <time>2021-09-18T15:18:02Z</time>
      </trkpt>
      <trkpt lat="44.33192" lon="5.78986">
        <ele>598.08</ele>
        <time>2021-09-18T15:18:03Z</time>
      </trkpt>
      <trkpt lat="44.33185" lon="5.78985">
        <ele>597.12</ele>
        <time>2021-09-18T15:18:16Z</time>
      </trkpt>
      <trkpt lat="44.33179" lon="5.78987">
        <ele>597.12</ele>
        <time>2021-09-18T15:18:19Z</time>
      </trkpt>
      <trkpt lat="44.33178" lon="5.78986">
        <ele>597.12</ele>
        <time>2021-09-18T15:18:20Z</time>
      </trkpt>
      <trkpt lat="44.33177" lon="5.78985">
        <ele>597.12</ele>
        <time>2021-09-18T15:18:21Z</time>
      </trkpt>
      <trkpt lat="44.33169" lon="5.78971">
        <ele>596.15</ele>
        <time>2021-09-18T15:18:32Z</time>
      </trkpt>
      <trkpt lat="44.33161" lon="5.78969">
        <ele>596.15</ele>
        <time>2021-09-18T15:18:46Z</time>
      </trkpt>
      <trkpt lat="44.3316" lon="5.78967">
        <ele>597.12</ele>
        <time>2021-09-18T15:18:58Z</time>
      </trkpt>
      <trkpt lat="44.33157" lon="5.78966">
        <ele>600.48</ele>
        <time>2021-09-18T15:19:18Z</time>
      </trkpt>
      <trkpt lat="44.33154" lon="5.78971">
        <ele>601.92</ele>
        <time>2021-09-18T15:19:36Z</time>
      </trkpt>
      <trkpt lat="44.33146" lon="5.78974">
        <ele>604.81</ele>
        <time>2021-09-18T15:19:51Z</time>
      </trkpt>
      <trkpt lat="44.33144" lon="5.78974">
        <ele>605.77</ele>
        <time>2021-09-18T15:20:12Z</time>
      </trkpt>
      <trkpt lat="44.33143" lon="5.78976">
        <ele>605.77</ele>
        <time>2021-09-18T15:20:28Z</time>
      </trkpt>
      <trkpt lat="44.33143" lon="5.78972">
        <ele>605.77</ele>
        <time>2021-09-18T15:20:50Z</time>
      </trkpt>
      <trkpt lat="44.33147" lon="5.78976">
        <ele>604.81</ele>
        <time>2021-09-18T15:21:07Z</time>
      </trkpt>
      <trkpt lat="44.33147" lon="5.78976">
        <ele>604.33</ele>
        <time>2021-09-18T15:21:08Z</time>
      </trkpt>
      <trkpt lat="44.33148" lon="5.78977">
        <ele>604.81</ele>
        <time>2021-09-18T15:21:31Z</time>
      </trkpt>
      <trkpt lat="44.3315" lon="5.78976">
        <ele>603.85</ele>
        <time>2021-09-18T15:21:35Z</time>
      </trkpt>
      <trkpt lat="44.33151" lon="5.78975">
        <ele>603.36</ele>
        <time>2021-09-18T15:21:36Z</time>
      </trkpt>
      <trkpt lat="44.33157" lon="5.78971">
        <ele>600</ele>
        <time>2021-09-18T15:21:42Z</time>
      </trkpt>
      <trkpt lat="44.33159" lon="5.78968">
        <ele>598.56</ele>
        <time>2021-09-18T15:21:44Z</time>
      </trkpt>
      <trkpt lat="44.33164" lon="5.78966">
        <ele>596.15</ele>
        <time>2021-09-18T15:21:48Z</time>
      </trkpt>
      <trkpt lat="44.33169" lon="5.78972">
        <ele>596.15</ele>
        <time>2021-09-18T15:21:52Z</time>
      </trkpt>
      <trkpt lat="44.3317" lon="5.78981">
        <ele>596.64</ele>
        <time>2021-09-18T15:22:04Z</time>
      </trkpt>
      <trkpt lat="44.33174" lon="5.78984">
        <ele>596.64</ele>
        <time>2021-09-18T15:22:19Z</time>
      </trkpt>
      <trkpt lat="44.33176" lon="5.78984">
        <ele>596.64</ele>
        <time>2021-09-18T15:22:21Z</time>
      </trkpt>
      <trkpt lat="44.33185" lon="5.78981">
        <ele>598.08</ele>
        <time>2021-09-18T15:22:35Z</time>
      </trkpt>
      <trkpt lat="44.33189" lon="5.78983">
        <ele>599.04</ele>
        <time>2021-09-18T15:22:47Z</time>
      </trkpt>
      <trkpt lat="44.33189" lon="5.78985">
        <ele>599.04</ele>
        <time>2021-09-18T15:22:53Z</time>
      </trkpt>
      <trkpt lat="44.33178" lon="5.79001">
        <ele>600.48</ele>
        <time>2021-09-18T15:23:07Z</time>
      </trkpt>
      <trkpt lat="44.33174" lon="5.79007">
        <ele>601.92</ele>
        <time>2021-09-18T15:23:20Z</time>
      </trkpt>
      <trkpt lat="44.33167" lon="5.79014">
        <ele>605.29</ele>
        <time>2021-09-18T15:23:34Z</time>
      </trkpt>
      <trkpt lat="44.33158" lon="5.79021">
        <ele>608.17</ele>
        <time>2021-09-18T15:23:49Z</time>
      </trkpt>
      <trkpt lat="44.33152" lon="5.79026">
        <ele>609.13</ele>
        <time>2021-09-18T15:24:01Z</time>
      </trkpt>
      <trkpt lat="44.3314" lon="5.79034">
        <ele>610.57</ele>
        <time>2021-09-18T15:24:16Z</time>
      </trkpt>
      <trkpt lat="44.33122" lon="5.79046">
        <ele>610.57</ele>
        <time>2021-09-18T15:24:25Z</time>
      </trkpt>
      <trkpt lat="44.3312" lon="5.79048">
        <ele>610.57</ele>
        <time>2021-09-18T15:24:26Z</time>
      </trkpt>
      <trkpt lat="44.33118" lon="5.7905">
        <ele>610.57</ele>
        <time>2021-09-18T15:24:27Z</time>
      </trkpt>
      <trkpt lat="44.33115" lon="5.79052">
        <ele>610.57</ele>
        <time>2021-09-18T15:24:28Z</time>
      </trkpt>
      <trkpt lat="44.33113" lon="5.79053">
        <ele>610.57</ele>
        <time>2021-09-18T15:24:29Z</time>
      </trkpt>
      <trkpt lat="44.33112" lon="5.79054">
        <ele>610.57</ele>
        <time>2021-09-18T15:24:30Z</time>
      </trkpt>
      <trkpt lat="44.33107" lon="5.79058">
        <ele>610.57</ele>
        <time>2021-09-18T15:24:43Z</time>
      </trkpt>
      <trkpt lat="44.33108" lon="5.7906">
        <ele>611.06</ele>
        <time>2021-09-18T15:25:11Z</time>
      </trkpt>
      <trkpt lat="44.33106" lon="5.7906">
        <ele>610.57</ele>
        <time>2021-09-18T15:25:40Z</time>
      </trkpt>
      <trkpt lat="44.33104" lon="5.79058">
        <ele>610.57</ele>
        <time>2021-09-18T15:26:07Z</time>
      </trkpt>
      <trkpt lat="44.33103" lon="5.79059">
        <ele>610.57</ele>
        <time>2021-09-18T15:26:35Z</time>
      </trkpt>
      <trkpt lat="44.33094" lon="5.79069">
        <ele>610.57</ele>
        <time>2021-09-18T15:26:48Z</time>
      </trkpt>
      <trkpt lat="44.33077" lon="5.79087">
        <ele>611.06</ele>
        <time>2021-09-18T15:27:00Z</time>
      </trkpt>
      <trkpt lat="44.33073" lon="5.79097">
        <ele>611.06</ele>
        <time>2021-09-18T15:27:04Z</time>
      </trkpt>
      <trkpt lat="44.33073" lon="5.791">
        <ele>611.06</ele>
        <time>2021-09-18T15:27:05Z</time>
      </trkpt>
      <trkpt lat="44.33073" lon="5.79102">
        <ele>611.06</ele>
        <time>2021-09-18T15:27:06Z</time>
      </trkpt>
      <trkpt lat="44.33073" lon="5.79104">
        <ele>611.06</ele>
        <time>2021-09-18T15:27:07Z</time>
      </trkpt>
      <trkpt lat="44.33072" lon="5.79105">
        <ele>611.54</ele>
        <time>2021-09-18T15:27:08Z</time>
      </trkpt>
      <trkpt lat="44.33071" lon="5.79107">
        <ele>611.54</ele>
        <time>2021-09-18T15:27:09Z</time>
      </trkpt>
      <trkpt lat="44.33069" lon="5.7911">
        <ele>611.54</ele>
        <time>2021-09-18T15:27:11Z</time>
      </trkpt>
      <trkpt lat="44.33068" lon="5.7911">
        <ele>611.54</ele>
        <time>2021-09-18T15:27:12Z</time>
      </trkpt>
      <trkpt lat="44.33061" lon="5.79116">
        <ele>611.54</ele>
        <time>2021-09-18T15:27:16Z</time>
      </trkpt>
      <trkpt lat="44.3306" lon="5.79117">
        <ele>611.54</ele>
        <time>2021-09-18T15:27:17Z</time>
      </trkpt>
      <trkpt lat="44.33054" lon="5.79123">
        <ele>612.98</ele>
        <time>2021-09-18T15:27:22Z</time>
      </trkpt>
      <trkpt lat="44.33032" lon="5.79119">
        <ele>611.54</ele>
        <time>2021-09-18T15:27:30Z</time>
      </trkpt>
      <trkpt lat="44.33007" lon="5.7912">
        <ele>610.57</ele>
        <time>2021-09-18T15:27:40Z</time>
      </trkpt>
      <trkpt lat="44.32993" lon="5.79135">
        <ele>608.17</ele>
        <time>2021-09-18T15:27:50Z</time>
      </trkpt>
      <trkpt lat="44.32992" lon="5.79133">
        <ele>608.17</ele>
        <time>2021-09-18T15:28:12Z</time>
      </trkpt>
      <trkpt lat="44.3299" lon="5.79134">
        <ele>608.17</ele>
        <time>2021-09-18T15:28:13Z</time>
      </trkpt>
      <trkpt lat="44.32978" lon="5.79127">
        <ele>606.73</ele>
        <time>2021-09-18T15:28:18Z</time>
      </trkpt>
      <trkpt lat="44.32956" lon="5.79106">
        <ele>602.88</ele>
        <time>2021-09-18T15:28:24Z</time>
      </trkpt>
      <trkpt lat="44.32935" lon="5.79081">
        <ele>601.44</ele>
        <time>2021-09-18T15:28:31Z</time>
      </trkpt>
      <trkpt lat="44.32929" lon="5.79052">
        <ele>600</ele>
        <time>2021-09-18T15:28:42Z</time>
      </trkpt>
      <trkpt lat="44.32926" lon="5.79048">
        <ele>600</ele>
        <time>2021-09-18T15:28:55Z</time>
      </trkpt>
      <trkpt lat="44.32924" lon="5.79047">
        <ele>599.52</ele>
        <time>2021-09-18T15:29:05Z</time>
      </trkpt>
      <trkpt lat="44.32925" lon="5.79046">
        <ele>599.52</ele>
        <time>2021-09-18T15:29:09Z</time>
      </trkpt>
      <trkpt lat="44.32925" lon="5.79042">
        <ele>599.52</ele>
        <time>2021-09-18T15:29:11Z</time>
      </trkpt>
      <trkpt lat="44.32921" lon="5.79041">
        <ele>599.52</ele>
        <time>2021-09-18T15:29:13Z</time>
      </trkpt>
      <trkpt lat="44.32918" lon="5.79042">
        <ele>599.52</ele>
        <time>2021-09-18T15:29:14Z</time>
      </trkpt>
      <trkpt lat="44.32886" lon="5.79065">
        <ele>599.04</ele>
        <time>2021-09-18T15:29:27Z</time>
      </trkpt>
      <trkpt lat="44.32832" lon="5.79105">
        <ele>601.44</ele>
        <time>2021-09-18T15:29:45Z</time>
      </trkpt>
      <trkpt lat="44.32767" lon="5.79153">
        <ele>603.85</ele>
        <time>2021-09-18T15:30:05Z</time>
      </trkpt>
      <trkpt lat="44.32709" lon="5.79196">
        <ele>603.85</ele>
        <time>2021-09-18T15:30:21Z</time>
      </trkpt>
      <trkpt lat="44.32649" lon="5.79241">
        <ele>602.4</ele>
        <time>2021-09-18T15:30:35Z</time>
      </trkpt>
      <trkpt lat="44.3257" lon="5.79303">
        <ele>600</ele>
        <time>2021-09-18T15:30:50Z</time>
      </trkpt>
      <trkpt lat="44.32546" lon="5.79334">
        <ele>598.56</ele>
        <time>2021-09-18T15:30:55Z</time>
      </trkpt>
      <trkpt lat="44.32507" lon="5.79421">
        <ele>595.19</ele>
        <time>2021-09-18T15:31:05Z</time>
      </trkpt>
      <trkpt lat="44.32448" lon="5.7957">
        <ele>592.79</ele>
        <time>2021-09-18T15:31:22Z</time>
      </trkpt>
      <trkpt lat="44.32396" lon="5.79698">
        <ele>592.31</ele>
        <time>2021-09-18T15:31:37Z</time>
      </trkpt>
      <trkpt lat="44.32329" lon="5.79865">
        <ele>589.91</ele>
        <time>2021-09-18T15:31:57Z</time>
      </trkpt>
      <trkpt lat="44.32288" lon="5.79964">
        <ele>587.5</ele>
        <time>2021-09-18T15:32:09Z</time>
      </trkpt>
      <trkpt lat="44.32251" lon="5.80058">
        <ele>584.14</ele>
        <time>2021-09-18T15:32:19Z</time>
      </trkpt>
      <trkpt lat="44.32185" lon="5.80221">
        <ele>584.62</ele>
        <time>2021-09-18T15:32:39Z</time>
      </trkpt>
      <trkpt lat="44.32157" lon="5.80289">
        <ele>584.62</ele>
        <time>2021-09-18T15:32:48Z</time>
      </trkpt>
      <trkpt lat="44.32112" lon="5.804">
        <ele>583.66</ele>
        <time>2021-09-18T15:33:03Z</time>
      </trkpt>
      <trkpt lat="44.32069" lon="5.80509">
        <ele>582.7</ele>
        <time>2021-09-18T15:33:17Z</time>
      </trkpt>
      <trkpt lat="44.32019" lon="5.80634">
        <ele>582.22</ele>
        <time>2021-09-18T15:33:34Z</time>
      </trkpt>
      <trkpt lat="44.31961" lon="5.80779">
        <ele>582.22</ele>
        <time>2021-09-18T15:33:54Z</time>
      </trkpt>
      <trkpt lat="44.31908" lon="5.80909">
        <ele>579.33</ele>
        <time>2021-09-18T15:34:10Z</time>
      </trkpt>
      <trkpt lat="44.31865" lon="5.81016">
        <ele>579.33</ele>
        <time>2021-09-18T15:34:24Z</time>
      </trkpt>
      <trkpt lat="44.31817" lon="5.8114">
        <ele>581.25</ele>
        <time>2021-09-18T15:34:40Z</time>
      </trkpt>
      <trkpt lat="44.31789" lon="5.81233">
        <ele>583.66</ele>
        <time>2021-09-18T15:34:55Z</time>
      </trkpt>
      <trkpt lat="44.31762" lon="5.8132">
        <ele>585.58</ele>
        <time>2021-09-18T15:35:15Z</time>
      </trkpt>
      <trkpt lat="44.31726" lon="5.81365">
        <ele>585.58</ele>
        <time>2021-09-18T15:35:30Z</time>
      </trkpt>
      <trkpt lat="44.31696" lon="5.81389">
        <ele>586.06</ele>
        <time>2021-09-18T15:35:40Z</time>
      </trkpt>
      <trkpt lat="44.31694" lon="5.81388">
        <ele>586.06</ele>
        <time>2021-09-18T15:35:41Z</time>
      </trkpt>
      <trkpt lat="44.31691" lon="5.8139">
        <ele>586.06</ele>
        <time>2021-09-18T15:35:42Z</time>
      </trkpt>
      <trkpt lat="44.31688" lon="5.81395">
        <ele>586.06</ele>
        <time>2021-09-18T15:35:43Z</time>
      </trkpt>
      <trkpt lat="44.31687" lon="5.81398">
        <ele>586.06</ele>
        <time>2021-09-18T15:35:44Z</time>
      </trkpt>
      <trkpt lat="44.31685" lon="5.81404">
        <ele>586.06</ele>
        <time>2021-09-18T15:35:45Z</time>
      </trkpt>
      <trkpt lat="44.31683" lon="5.8141">
        <ele>586.54</ele>
        <time>2021-09-18T15:35:46Z</time>
      </trkpt>
      <trkpt lat="44.31677" lon="5.81426">
        <ele>586.54</ele>
        <time>2021-09-18T15:35:49Z</time>
      </trkpt>
      <trkpt lat="44.31665" lon="5.81482">
        <ele>585.1</ele>
        <time>2021-09-18T15:35:58Z</time>
      </trkpt>
      <trkpt lat="44.31635" lon="5.8159">
        <ele>583.66</ele>
        <time>2021-09-18T15:36:15Z</time>
      </trkpt>
      <trkpt lat="44.31625" lon="5.81617">
        <ele>583.66</ele>
        <time>2021-09-18T15:36:19Z</time>
      </trkpt>
      <trkpt lat="44.31622" lon="5.81623">
        <ele>583.66</ele>
        <time>2021-09-18T15:36:20Z</time>
      </trkpt>
      <trkpt lat="44.31581" lon="5.81727">
        <ele>581.25</ele>
        <time>2021-09-18T15:36:35Z</time>
      </trkpt>
      <trkpt lat="44.3155" lon="5.81805">
        <ele>577.89</ele>
        <time>2021-09-18T15:36:44Z</time>
      </trkpt>
      <trkpt lat="44.31503" lon="5.81922">
        <ele>577.89</ele>
        <time>2021-09-18T15:36:57Z</time>
      </trkpt>
      <trkpt lat="44.31457" lon="5.82035">
        <ele>577.41</ele>
        <time>2021-09-18T15:37:11Z</time>
      </trkpt>
      <trkpt lat="44.31441" lon="5.82069">
        <ele>577.41</ele>
        <time>2021-09-18T15:37:16Z</time>
      </trkpt>
      <trkpt lat="44.31429" lon="5.82112">
        <ele>577.41</ele>
        <time>2021-09-18T15:37:22Z</time>
      </trkpt>
      <trkpt lat="44.31428" lon="5.8212">
        <ele>577.41</ele>
        <time>2021-09-18T15:37:23Z</time>
      </trkpt>
      <trkpt lat="44.31427" lon="5.82126">
        <ele>576.93</ele>
        <time>2021-09-18T15:37:24Z</time>
      </trkpt>
      <trkpt lat="44.31424" lon="5.82141">
        <ele>576.93</ele>
        <time>2021-09-18T15:37:26Z</time>
      </trkpt>
      <trkpt lat="44.31413" lon="5.82188">
        <ele>576.93</ele>
        <time>2021-09-18T15:37:33Z</time>
      </trkpt>
      <trkpt lat="44.31409" lon="5.82194">
        <ele>576.93</ele>
        <time>2021-09-18T15:37:34Z</time>
      </trkpt>
      <trkpt lat="44.31405" lon="5.822">
        <ele>576.45</ele>
        <time>2021-09-18T15:37:35Z</time>
      </trkpt>
      <trkpt lat="44.31402" lon="5.82206">
        <ele>576.45</ele>
        <time>2021-09-18T15:37:36Z</time>
      </trkpt>
      <trkpt lat="44.31399" lon="5.82213">
        <ele>576.45</ele>
        <time>2021-09-18T15:37:37Z</time>
      </trkpt>
      <trkpt lat="44.31398" lon="5.82221">
        <ele>576.45</ele>
        <time>2021-09-18T15:37:38Z</time>
      </trkpt>
      <trkpt lat="44.31397" lon="5.82227">
        <ele>576.45</ele>
        <time>2021-09-18T15:37:39Z</time>
      </trkpt>
      <trkpt lat="44.31398" lon="5.82233">
        <ele>576.45</ele>
        <time>2021-09-18T15:37:40Z</time>
      </trkpt>
      <trkpt lat="44.31399" lon="5.8224">
        <ele>576.45</ele>
        <time>2021-09-18T15:37:41Z</time>
      </trkpt>
      <trkpt lat="44.314" lon="5.82247">
        <ele>576.45</ele>
        <time>2021-09-18T15:37:42Z</time>
      </trkpt>
      <trkpt lat="44.31411" lon="5.82289">
        <ele>576.45</ele>
        <time>2021-09-18T15:37:50Z</time>
      </trkpt>
      <trkpt lat="44.31413" lon="5.82296">
        <ele>576.45</ele>
        <time>2021-09-18T15:37:51Z</time>
      </trkpt>
      <trkpt lat="44.31423" lon="5.82331">
        <ele>576.45</ele>
        <time>2021-09-18T15:37:57Z</time>
      </trkpt>
      <trkpt lat="44.31434" lon="5.82358">
        <ele>576.45</ele>
        <time>2021-09-18T15:38:02Z</time>
      </trkpt>
      <trkpt lat="44.31435" lon="5.82366">
        <ele>575.97</ele>
        <time>2021-09-18T15:38:03Z</time>
      </trkpt>
      <trkpt lat="44.31438" lon="5.82411">
        <ele>574.53</ele>
        <time>2021-09-18T15:38:10Z</time>
      </trkpt>
      <trkpt lat="44.31438" lon="5.82432">
        <ele>574.53</ele>
        <time>2021-09-18T15:38:13Z</time>
      </trkpt>
      <trkpt lat="44.31437" lon="5.82445">
        <ele>574.53</ele>
        <time>2021-09-18T15:38:15Z</time>
      </trkpt>
      <trkpt lat="44.31437" lon="5.82458">
        <ele>574.53</ele>
        <time>2021-09-18T15:38:17Z</time>
      </trkpt>
      <trkpt lat="44.31414" lon="5.82563">
        <ele>574.04</ele>
        <time>2021-09-18T15:38:31Z</time>
      </trkpt>
      <trkpt lat="44.31374" lon="5.82672">
        <ele>574.04</ele>
        <time>2021-09-18T15:38:46Z</time>
      </trkpt>
      <trkpt lat="44.3137" lon="5.82677">
        <ele>574.04</ele>
        <time>2021-09-18T15:38:47Z</time>
      </trkpt>
      <trkpt lat="44.3136" lon="5.82688">
        <ele>574.04</ele>
        <time>2021-09-18T15:38:49Z</time>
      </trkpt>
      <trkpt lat="44.31357" lon="5.82694">
        <ele>574.04</ele>
        <time>2021-09-18T15:38:50Z</time>
      </trkpt>
      <trkpt lat="44.31355" lon="5.82701">
        <ele>574.04</ele>
        <time>2021-09-18T15:38:51Z</time>
      </trkpt>
      <trkpt lat="44.31352" lon="5.82708">
        <ele>574.04</ele>
        <time>2021-09-18T15:38:52Z</time>
      </trkpt>
      <trkpt lat="44.31349" lon="5.82715">
        <ele>574.04</ele>
        <time>2021-09-18T15:38:53Z</time>
      </trkpt>
      <trkpt lat="44.31345" lon="5.82721">
        <ele>574.04</ele>
        <time>2021-09-18T15:38:54Z</time>
      </trkpt>
      <trkpt lat="44.31342" lon="5.82727">
        <ele>574.04</ele>
        <time>2021-09-18T15:38:55Z</time>
      </trkpt>
      <trkpt lat="44.31338" lon="5.82733">
        <ele>574.04</ele>
        <time>2021-09-18T15:38:56Z</time>
      </trkpt>
      <trkpt lat="44.31318" lon="5.8276">
        <ele>573.08</ele>
        <time>2021-09-18T15:39:01Z</time>
      </trkpt>
      <trkpt lat="44.31315" lon="5.82762">
        <ele>573.56</ele>
        <time>2021-09-18T15:39:02Z</time>
      </trkpt>
      <trkpt lat="44.31311" lon="5.82763">
        <ele>573.56</ele>
        <time>2021-09-18T15:39:03Z</time>
      </trkpt>
      <trkpt lat="44.31308" lon="5.82762">
        <ele>573.56</ele>
        <time>2021-09-18T15:39:04Z</time>
      </trkpt>
      <trkpt lat="44.31309" lon="5.82752">
        <ele>573.56</ele>
        <time>2021-09-18T15:39:09Z</time>
      </trkpt>
      <trkpt lat="44.31308" lon="5.82752">
        <ele>571.16</ele>
        <time>2021-09-18T15:39:17Z</time>
      </trkpt>
    </trkseg>
  </trk>
</gpx>